<?xml version="1.0" encoding="UTF-8" standalone="no" ?>
<gpx xmlns="http://www.topografix.com/GPX/1/1" xmlns:xsi="http://www.w3.org/2001/XMLSchema-instance" xsi:schemaLocation="http://www.topografix.com/GPX/1/1 http://www.topografix.com/GPX/1/1/gpx.xsd" version="1.1" creator="VisuGPX - https://www.visugpx.com">
  <metadata>
    <name>XC la Vençoise VTT 2014</name>
    <desc><![CDATA[XC la Vençoise VTT - Le 19/01/2014]]></desc>
  </metadata>
  <trk>
    <name><![CDATA[La Vençoise VTT]]></name>
    <desc><![CDATA[Terrain très très gras, pluie pendant toute la course.]]></desc>
    <trkseg>
      <trkpt lat="43.71321" lon="7.08792">
        <ele>339.60000610352</ele>
        <time>2014-01-19T09:07:17.000Z</time>
      </trkpt>
      <trkpt lat="43.71315" lon="7.08793">
        <ele>339</ele>
        <time>2014-01-19T09:07:26.000Z</time>
      </trkpt>
      <trkpt lat="43.71301" lon="7.08807">
        <ele>338.79998779297</ele>
        <time>2014-01-19T09:07:30.000Z</time>
      </trkpt>
      <trkpt lat="43.71277" lon="7.08819">
        <ele>338.39999389648</ele>
        <time>2014-01-19T09:07:34.000Z</time>
      </trkpt>
      <trkpt lat="43.71255" lon="7.08828">
        <ele>338.39999389648</ele>
        <time>2014-01-19T09:07:38.000Z</time>
      </trkpt>
      <trkpt lat="43.71248" lon="7.0883">
        <ele>338.39999389648</ele>
        <time>2014-01-19T09:07:39.000Z</time>
      </trkpt>
      <trkpt lat="43.71225" lon="7.08848">
        <ele>338.39999389648</ele>
        <time>2014-01-19T09:07:42.000Z</time>
      </trkpt>
      <trkpt lat="43.71218" lon="7.08855">
        <ele>338.39999389648</ele>
        <time>2014-01-19T09:07:43.000Z</time>
      </trkpt>
      <trkpt lat="43.71203" lon="7.08881">
        <ele>338.20001220703</ele>
        <time>2014-01-19T09:07:46.000Z</time>
      </trkpt>
      <trkpt lat="43.71193" lon="7.08906">
        <ele>338</ele>
        <time>2014-01-19T09:07:50.000Z</time>
      </trkpt>
      <trkpt lat="43.71174" lon="7.08915">
        <ele>338.20001220703</ele>
        <time>2014-01-19T09:07:53.000Z</time>
      </trkpt>
      <trkpt lat="43.71161" lon="7.08918">
        <ele>338.39999389648</ele>
        <time>2014-01-19T09:07:55.000Z</time>
      </trkpt>
      <trkpt lat="43.71147" lon="7.08922">
        <ele>338.39999389648</ele>
        <time>2014-01-19T09:07:57.000Z</time>
      </trkpt>
      <trkpt lat="43.71121" lon="7.08933">
        <ele>338.60000610352</ele>
        <time>2014-01-19T09:08:01.000Z</time>
      </trkpt>
      <trkpt lat="43.71114" lon="7.08933">
        <ele>338.39999389648</ele>
        <time>2014-01-19T09:08:02.000Z</time>
      </trkpt>
      <trkpt lat="43.71098" lon="7.08933">
        <ele>338.60000610352</ele>
        <time>2014-01-19T09:08:04.000Z</time>
      </trkpt>
      <trkpt lat="43.71066" lon="7.08932">
        <ele>338.79998779297</ele>
        <time>2014-01-19T09:08:08.000Z</time>
      </trkpt>
      <trkpt lat="43.71062" lon="7.08939">
        <ele>338.79998779297</ele>
        <time>2014-01-19T09:08:09.000Z</time>
      </trkpt>
      <trkpt lat="43.71054" lon="7.08969">
        <ele>338.60000610352</ele>
        <time>2014-01-19T09:08:12.000Z</time>
      </trkpt>
      <trkpt lat="43.71052" lon="7.08978">
        <ele>338.60000610352</ele>
        <time>2014-01-19T09:08:13.000Z</time>
      </trkpt>
      <trkpt lat="43.71043" lon="7.09003">
        <ele>338.39999389648</ele>
        <time>2014-01-19T09:08:16.000Z</time>
      </trkpt>
      <trkpt lat="43.71034" lon="7.09019">
        <ele>338.60000610352</ele>
        <time>2014-01-19T09:08:18.000Z</time>
      </trkpt>
      <trkpt lat="43.71009" lon="7.09049">
        <ele>338.39999389648</ele>
        <time>2014-01-19T09:08:23.000Z</time>
      </trkpt>
      <trkpt lat="43.70993" lon="7.09049">
        <ele>338.39999389648</ele>
        <time>2014-01-19T09:08:26.000Z</time>
      </trkpt>
      <trkpt lat="43.70987" lon="7.09051">
        <ele>338.60000610352</ele>
        <time>2014-01-19T09:08:27.000Z</time>
      </trkpt>
      <trkpt lat="43.70978" lon="7.09058">
        <ele>338.79998779297</ele>
        <time>2014-01-19T09:08:29.000Z</time>
      </trkpt>
      <trkpt lat="43.70966" lon="7.0908">
        <ele>339</ele>
        <time>2014-01-19T09:08:32.000Z</time>
      </trkpt>
      <trkpt lat="43.70962" lon="7.09086">
        <ele>339</ele>
        <time>2014-01-19T09:08:33.000Z</time>
      </trkpt>
      <trkpt lat="43.70954" lon="7.091">
        <ele>339.20001220703</ele>
        <time>2014-01-19T09:08:35.000Z</time>
      </trkpt>
      <trkpt lat="43.70943" lon="7.09105">
        <ele>339.60000610352</ele>
        <time>2014-01-19T09:08:37.000Z</time>
      </trkpt>
      <trkpt lat="43.70921" lon="7.09104">
        <ele>340</ele>
        <time>2014-01-19T09:08:41.000Z</time>
      </trkpt>
      <trkpt lat="43.70912" lon="7.09093">
        <ele>340.39999389648</ele>
        <time>2014-01-19T09:08:43.000Z</time>
      </trkpt>
      <trkpt lat="43.7091" lon="7.09083">
        <ele>340</ele>
        <time>2014-01-19T09:08:44.000Z</time>
      </trkpt>
      <trkpt lat="43.70907" lon="7.09045">
        <ele>339.79998779297</ele>
        <time>2014-01-19T09:08:47.000Z</time>
      </trkpt>
      <trkpt lat="43.70901" lon="7.09017">
        <ele>339.60000610352</ele>
        <time>2014-01-19T09:08:49.000Z</time>
      </trkpt>
      <trkpt lat="43.70895" lon="7.08977">
        <ele>339.20001220703</ele>
        <time>2014-01-19T09:08:52.000Z</time>
      </trkpt>
      <trkpt lat="43.70877" lon="7.08915">
        <ele>338.39999389648</ele>
        <time>2014-01-19T09:08:56.000Z</time>
      </trkpt>
      <trkpt lat="43.70858" lon="7.08827">
        <ele>338.39999389648</ele>
        <time>2014-01-19T09:09:01.000Z</time>
      </trkpt>
      <trkpt lat="43.70855" lon="7.08811">
        <ele>338.20001220703</ele>
        <time>2014-01-19T09:09:02.000Z</time>
      </trkpt>
      <trkpt lat="43.70839" lon="7.08754">
        <ele>337.60000610352</ele>
        <time>2014-01-19T09:09:06.000Z</time>
      </trkpt>
      <trkpt lat="43.70819" lon="7.08707">
        <ele>337.39999389648</ele>
        <time>2014-01-19T09:09:10.000Z</time>
      </trkpt>
      <trkpt lat="43.7081" lon="7.08687">
        <ele>337</ele>
        <time>2014-01-19T09:09:12.000Z</time>
      </trkpt>
      <trkpt lat="43.708" lon="7.08671">
        <ele>336.79998779297</ele>
        <time>2014-01-19T09:09:14.000Z</time>
      </trkpt>
      <trkpt lat="43.7078" lon="7.08655">
        <ele>336.39999389648</ele>
        <time>2014-01-19T09:09:17.000Z</time>
      </trkpt>
      <trkpt lat="43.7076" lon="7.08651">
        <ele>336</ele>
        <time>2014-01-19T09:09:19.000Z</time>
      </trkpt>
      <trkpt lat="43.70749" lon="7.08648">
        <ele>335.79998779297</ele>
        <time>2014-01-19T09:09:20.000Z</time>
      </trkpt>
      <trkpt lat="43.70703" lon="7.08629">
        <ele>334.79998779297</ele>
        <time>2014-01-19T09:09:25.000Z</time>
      </trkpt>
      <trkpt lat="43.70669" lon="7.08615">
        <ele>334</ele>
        <time>2014-01-19T09:09:29.000Z</time>
      </trkpt>
      <trkpt lat="43.7064" lon="7.08622">
        <ele>333.60000610352</ele>
        <time>2014-01-19T09:09:32.000Z</time>
      </trkpt>
      <trkpt lat="43.70606" lon="7.08631">
        <ele>333.20001220703</ele>
        <time>2014-01-19T09:09:36.000Z</time>
      </trkpt>
      <trkpt lat="43.70596" lon="7.08631">
        <ele>333</ele>
        <time>2014-01-19T09:09:37.000Z</time>
      </trkpt>
      <trkpt lat="43.70572" lon="7.08621">
        <ele>332.39999389648</ele>
        <time>2014-01-19T09:09:40.000Z</time>
      </trkpt>
      <trkpt lat="43.70558" lon="7.08616">
        <ele>332.20001220703</ele>
        <time>2014-01-19T09:09:42.000Z</time>
      </trkpt>
      <trkpt lat="43.70551" lon="7.08608">
        <ele>332</ele>
        <time>2014-01-19T09:09:43.000Z</time>
      </trkpt>
      <trkpt lat="43.7053" lon="7.08583">
        <ele>331.39999389648</ele>
        <time>2014-01-19T09:09:46.000Z</time>
      </trkpt>
      <trkpt lat="43.70519" lon="7.08569">
        <ele>331.20001220703</ele>
        <time>2014-01-19T09:09:48.000Z</time>
      </trkpt>
      <trkpt lat="43.70492" lon="7.08541">
        <ele>330.39999389648</ele>
        <time>2014-01-19T09:09:53.000Z</time>
      </trkpt>
      <trkpt lat="43.70469" lon="7.08524">
        <ele>330.20001220703</ele>
        <time>2014-01-19T09:09:57.000Z</time>
      </trkpt>
      <trkpt lat="43.70464" lon="7.08521">
        <ele>330</ele>
        <time>2014-01-19T09:09:58.000Z</time>
      </trkpt>
      <trkpt lat="43.70442" lon="7.08509">
        <ele>329.79998779297</ele>
        <time>2014-01-19T09:10:02.000Z</time>
      </trkpt>
      <trkpt lat="43.70436" lon="7.08508">
        <ele>329.60000610352</ele>
        <time>2014-01-19T09:10:03.000Z</time>
      </trkpt>
      <trkpt lat="43.70417" lon="7.08511">
        <ele>329.39999389648</ele>
        <time>2014-01-19T09:10:06.000Z</time>
      </trkpt>
      <trkpt lat="43.70411" lon="7.08512">
        <ele>329.39999389648</ele>
        <time>2014-01-19T09:10:07.000Z</time>
      </trkpt>
      <trkpt lat="43.70385" lon="7.08511">
        <ele>329.39999389648</ele>
        <time>2014-01-19T09:10:11.000Z</time>
      </trkpt>
      <trkpt lat="43.70378" lon="7.08507">
        <ele>329.39999389648</ele>
        <time>2014-01-19T09:10:12.000Z</time>
      </trkpt>
      <trkpt lat="43.70352" lon="7.08499">
        <ele>329.39999389648</ele>
        <time>2014-01-19T09:10:16.000Z</time>
      </trkpt>
      <trkpt lat="43.70347" lon="7.08495">
        <ele>329.39999389648</ele>
        <time>2014-01-19T09:10:17.000Z</time>
      </trkpt>
      <trkpt lat="43.70331" lon="7.08481">
        <ele>329.20001220703</ele>
        <time>2014-01-19T09:10:20.000Z</time>
      </trkpt>
      <trkpt lat="43.70328" lon="7.08476">
        <ele>329.20001220703</ele>
        <time>2014-01-19T09:10:21.000Z</time>
      </trkpt>
      <trkpt lat="43.70324" lon="7.0846">
        <ele>329.20001220703</ele>
        <time>2014-01-19T09:10:24.000Z</time>
      </trkpt>
      <trkpt lat="43.70318" lon="7.08438">
        <ele>328.79998779297</ele>
        <time>2014-01-19T09:10:28.000Z</time>
      </trkpt>
      <trkpt lat="43.70314" lon="7.0842">
        <ele>328.60000610352</ele>
        <time>2014-01-19T09:10:31.000Z</time>
      </trkpt>
      <trkpt lat="43.70313" lon="7.08416">
        <ele>328.39999389648</ele>
        <time>2014-01-19T09:10:32.000Z</time>
      </trkpt>
      <trkpt lat="43.70303" lon="7.08381">
        <ele>328</ele>
        <time>2014-01-19T09:10:37.000Z</time>
      </trkpt>
      <trkpt lat="43.70299" lon="7.0837">
        <ele>327.79998779297</ele>
        <time>2014-01-19T09:10:39.000Z</time>
      </trkpt>
      <trkpt lat="43.70291" lon="7.08352">
        <ele>327.79998779297</ele>
        <time>2014-01-19T09:10:42.000Z</time>
      </trkpt>
      <trkpt lat="43.70286" lon="7.08334">
        <ele>327.60000610352</ele>
        <time>2014-01-19T09:10:45.000Z</time>
      </trkpt>
      <trkpt lat="43.70283" lon="7.08323">
        <ele>327.60000610352</ele>
        <time>2014-01-19T09:10:47.000Z</time>
      </trkpt>
      <trkpt lat="43.70273" lon="7.08317">
        <ele>327.39999389648</ele>
        <time>2014-01-19T09:10:50.000Z</time>
      </trkpt>
      <trkpt lat="43.70268" lon="7.08314">
        <ele>327.39999389648</ele>
        <time>2014-01-19T09:10:52.000Z</time>
      </trkpt>
      <trkpt lat="43.70262" lon="7.08311">
        <ele>327</ele>
        <time>2014-01-19T09:10:55.000Z</time>
      </trkpt>
      <trkpt lat="43.70249" lon="7.08301">
        <ele>326.79998779297</ele>
        <time>2014-01-19T09:11:00.000Z</time>
      </trkpt>
      <trkpt lat="43.70233" lon="7.08284">
        <ele>326.39999389648</ele>
        <time>2014-01-19T09:11:06.000Z</time>
      </trkpt>
      <trkpt lat="43.70226" lon="7.08264">
        <ele>326.20001220703</ele>
        <time>2014-01-19T09:11:10.000Z</time>
      </trkpt>
      <trkpt lat="43.70218" lon="7.08244">
        <ele>326</ele>
        <time>2014-01-19T09:11:13.000Z</time>
      </trkpt>
      <trkpt lat="43.70213" lon="7.08237">
        <ele>326.20001220703</ele>
        <time>2014-01-19T09:11:14.000Z</time>
      </trkpt>
      <trkpt lat="43.70204" lon="7.08223">
        <ele>326.20001220703</ele>
        <time>2014-01-19T09:11:16.000Z</time>
      </trkpt>
      <trkpt lat="43.70194" lon="7.08209">
        <ele>326.20001220703</ele>
        <time>2014-01-19T09:11:19.000Z</time>
      </trkpt>
      <trkpt lat="43.7019" lon="7.08205">
        <ele>326.20001220703</ele>
        <time>2014-01-19T09:11:20.000Z</time>
      </trkpt>
      <trkpt lat="43.70181" lon="7.08194">
        <ele>326</ele>
        <time>2014-01-19T09:11:23.000Z</time>
      </trkpt>
      <trkpt lat="43.70179" lon="7.08189">
        <ele>326</ele>
        <time>2014-01-19T09:11:24.000Z</time>
      </trkpt>
      <trkpt lat="43.70172" lon="7.08169">
        <ele>326</ele>
        <time>2014-01-19T09:11:28.000Z</time>
      </trkpt>
      <trkpt lat="43.7017" lon="7.08164">
        <ele>325.79998779297</ele>
        <time>2014-01-19T09:11:29.000Z</time>
      </trkpt>
      <trkpt lat="43.7016" lon="7.08138">
        <ele>325.60000610352</ele>
        <time>2014-01-19T09:11:34.000Z</time>
      </trkpt>
      <trkpt lat="43.70143" lon="7.08124">
        <ele>325.79998779297</ele>
        <time>2014-01-19T09:11:38.000Z</time>
      </trkpt>
      <trkpt lat="43.7013" lon="7.0811">
        <ele>325.20001220703</ele>
        <time>2014-01-19T09:11:43.000Z</time>
      </trkpt>
      <trkpt lat="43.70118" lon="7.08102">
        <ele>325.20001220703</ele>
        <time>2014-01-19T09:11:46.000Z</time>
      </trkpt>
      <trkpt lat="43.70114" lon="7.08098">
        <ele>325</ele>
        <time>2014-01-19T09:11:47.000Z</time>
      </trkpt>
      <trkpt lat="43.70109" lon="7.08094">
        <ele>325</ele>
        <time>2014-01-19T09:11:48.000Z</time>
      </trkpt>
      <trkpt lat="43.70094" lon="7.08079">
        <ele>325.20001220703</ele>
        <time>2014-01-19T09:11:52.000Z</time>
      </trkpt>
      <trkpt lat="43.70084" lon="7.08068">
        <ele>325.39999389648</ele>
        <time>2014-01-19T09:11:56.000Z</time>
      </trkpt>
      <trkpt lat="43.70071" lon="7.08068">
        <ele>325.60000610352</ele>
        <time>2014-01-19T09:12:00.000Z</time>
      </trkpt>
      <trkpt lat="43.70059" lon="7.08082">
        <ele>326.20001220703</ele>
        <time>2014-01-19T09:12:05.000Z</time>
      </trkpt>
      <trkpt lat="43.70058" lon="7.08085">
        <ele>326.39999389648</ele>
        <time>2014-01-19T09:12:06.000Z</time>
      </trkpt>
      <trkpt lat="43.70056" lon="7.08088">
        <ele>326.39999389648</ele>
        <time>2014-01-19T09:12:07.000Z</time>
      </trkpt>
      <trkpt lat="43.7005" lon="7.08094">
        <ele>326.60000610352</ele>
        <time>2014-01-19T09:12:10.000Z</time>
      </trkpt>
      <trkpt lat="43.70044" lon="7.08112">
        <ele>327.79998779297</ele>
        <time>2014-01-19T09:12:16.000Z</time>
      </trkpt>
      <trkpt lat="43.70035" lon="7.08133">
        <ele>328.20001220703</ele>
        <time>2014-01-19T09:12:22.000Z</time>
      </trkpt>
      <trkpt lat="43.70027" lon="7.08146">
        <ele>329</ele>
        <time>2014-01-19T09:12:27.000Z</time>
      </trkpt>
      <trkpt lat="43.70017" lon="7.08162">
        <ele>330.20001220703</ele>
        <time>2014-01-19T09:12:32.000Z</time>
      </trkpt>
      <trkpt lat="43.70009" lon="7.08178">
        <ele>331</ele>
        <time>2014-01-19T09:12:38.000Z</time>
      </trkpt>
      <trkpt lat="43.69999" lon="7.08196">
        <ele>331.60000610352</ele>
        <time>2014-01-19T09:12:43.000Z</time>
      </trkpt>
      <trkpt lat="43.69991" lon="7.08203">
        <ele>331.79998779297</ele>
        <time>2014-01-19T09:12:46.000Z</time>
      </trkpt>
      <trkpt lat="43.69987" lon="7.08202">
        <ele>331.79998779297</ele>
        <time>2014-01-19T09:12:47.000Z</time>
      </trkpt>
      <trkpt lat="43.69973" lon="7.08191">
        <ele>332.60000610352</ele>
        <time>2014-01-19T09:12:51.000Z</time>
      </trkpt>
      <trkpt lat="43.69964" lon="7.08177">
        <ele>333</ele>
        <time>2014-01-19T09:12:54.000Z</time>
      </trkpt>
      <trkpt lat="43.69959" lon="7.08169">
        <ele>333.39999389648</ele>
        <time>2014-01-19T09:12:56.000Z</time>
      </trkpt>
      <trkpt lat="43.69953" lon="7.0816">
        <ele>334</ele>
        <time>2014-01-19T09:12:58.000Z</time>
      </trkpt>
      <trkpt lat="43.69945" lon="7.08146">
        <ele>334.79998779297</ele>
        <time>2014-01-19T09:13:01.000Z</time>
      </trkpt>
      <trkpt lat="43.69935" lon="7.08133">
        <ele>335.39999389648</ele>
        <time>2014-01-19T09:13:04.000Z</time>
      </trkpt>
      <trkpt lat="43.69927" lon="7.08128">
        <ele>335.60000610352</ele>
        <time>2014-01-19T09:13:06.000Z</time>
      </trkpt>
      <trkpt lat="43.69914" lon="7.0813">
        <ele>336</ele>
        <time>2014-01-19T09:13:09.000Z</time>
      </trkpt>
      <trkpt lat="43.69899" lon="7.08136">
        <ele>336.39999389648</ele>
        <time>2014-01-19T09:13:12.000Z</time>
      </trkpt>
      <trkpt lat="43.69889" lon="7.08139">
        <ele>336.39999389648</ele>
        <time>2014-01-19T09:13:14.000Z</time>
      </trkpt>
      <trkpt lat="43.6986" lon="7.08131">
        <ele>336.60000610352</ele>
        <time>2014-01-19T09:13:19.000Z</time>
      </trkpt>
      <trkpt lat="43.69854" lon="7.08127">
        <ele>336.39999389648</ele>
        <time>2014-01-19T09:13:20.000Z</time>
      </trkpt>
      <trkpt lat="43.69842" lon="7.08123">
        <ele>336.39999389648</ele>
        <time>2014-01-19T09:13:22.000Z</time>
      </trkpt>
      <trkpt lat="43.69828" lon="7.08119">
        <ele>336.20001220703</ele>
        <time>2014-01-19T09:13:24.000Z</time>
      </trkpt>
      <trkpt lat="43.69823" lon="7.08116">
        <ele>336.20001220703</ele>
        <time>2014-01-19T09:13:25.000Z</time>
      </trkpt>
      <trkpt lat="43.69796" lon="7.08104">
        <ele>335.79998779297</ele>
        <time>2014-01-19T09:13:30.000Z</time>
      </trkpt>
      <trkpt lat="43.69775" lon="7.08104">
        <ele>335.39999389648</ele>
        <time>2014-01-19T09:13:34.000Z</time>
      </trkpt>
      <trkpt lat="43.69761" lon="7.08113">
        <ele>334.79998779297</ele>
        <time>2014-01-19T09:13:38.000Z</time>
      </trkpt>
      <trkpt lat="43.69751" lon="7.08118">
        <ele>334</ele>
        <time>2014-01-19T09:13:41.000Z</time>
      </trkpt>
      <trkpt lat="43.69744" lon="7.08119">
        <ele>333.39999389648</ele>
        <time>2014-01-19T09:13:43.000Z</time>
      </trkpt>
      <trkpt lat="43.69741" lon="7.08121">
        <ele>333</ele>
        <time>2014-01-19T09:13:44.000Z</time>
      </trkpt>
      <trkpt lat="43.69731" lon="7.08123">
        <ele>332</ele>
        <time>2014-01-19T09:13:47.000Z</time>
      </trkpt>
      <trkpt lat="43.6972" lon="7.08126">
        <ele>330.39999389648</ele>
        <time>2014-01-19T09:13:51.000Z</time>
      </trkpt>
      <trkpt lat="43.69703" lon="7.08126">
        <ele>329.20001220703</ele>
        <time>2014-01-19T09:13:55.000Z</time>
      </trkpt>
      <trkpt lat="43.69693" lon="7.0813">
        <ele>327.79998779297</ele>
        <time>2014-01-19T09:13:58.000Z</time>
      </trkpt>
      <trkpt lat="43.69684" lon="7.08135">
        <ele>327</ele>
        <time>2014-01-19T09:14:00.000Z</time>
      </trkpt>
      <trkpt lat="43.69676" lon="7.08134">
        <ele>326.60000610352</ele>
        <time>2014-01-19T09:14:01.000Z</time>
      </trkpt>
      <trkpt lat="43.6966" lon="7.08132">
        <ele>325.60000610352</ele>
        <time>2014-01-19T09:14:04.000Z</time>
      </trkpt>
      <trkpt lat="43.69644" lon="7.08127">
        <ele>324.39999389648</ele>
        <time>2014-01-19T09:14:08.000Z</time>
      </trkpt>
      <trkpt lat="43.69637" lon="7.08131">
        <ele>323.60000610352</ele>
        <time>2014-01-19T09:14:11.000Z</time>
      </trkpt>
      <trkpt lat="43.69635" lon="7.08131">
        <ele>323.20001220703</ele>
        <time>2014-01-19T09:14:12.000Z</time>
      </trkpt>
      <trkpt lat="43.69625" lon="7.0814">
        <ele>322.20001220703</ele>
        <time>2014-01-19T09:14:16.000Z</time>
      </trkpt>
      <trkpt lat="43.69622" lon="7.08144">
        <ele>322</ele>
        <time>2014-01-19T09:14:17.000Z</time>
      </trkpt>
      <trkpt lat="43.69599" lon="7.08161">
        <ele>320.39999389648</ele>
        <time>2014-01-19T09:14:23.000Z</time>
      </trkpt>
      <trkpt lat="43.69588" lon="7.08167">
        <ele>319.39999389648</ele>
        <time>2014-01-19T09:14:27.000Z</time>
      </trkpt>
      <trkpt lat="43.69574" lon="7.08172">
        <ele>318</ele>
        <time>2014-01-19T09:14:32.000Z</time>
      </trkpt>
      <trkpt lat="43.69555" lon="7.08178">
        <ele>316.39999389648</ele>
        <time>2014-01-19T09:14:37.000Z</time>
      </trkpt>
      <trkpt lat="43.69536" lon="7.08184">
        <ele>315.20001220703</ele>
        <time>2014-01-19T09:14:41.000Z</time>
      </trkpt>
      <trkpt lat="43.69519" lon="7.08166">
        <ele>314</ele>
        <time>2014-01-19T09:14:44.000Z</time>
      </trkpt>
      <trkpt lat="43.69505" lon="7.08156">
        <ele>313.20001220703</ele>
        <time>2014-01-19T09:14:46.000Z</time>
      </trkpt>
      <trkpt lat="43.69499" lon="7.08153">
        <ele>312.79998779297</ele>
        <time>2014-01-19T09:14:47.000Z</time>
      </trkpt>
      <trkpt lat="43.69495" lon="7.08151">
        <ele>312.60000610352</ele>
        <time>2014-01-19T09:14:48.000Z</time>
      </trkpt>
      <trkpt lat="43.69483" lon="7.08145">
        <ele>311.39999389648</ele>
        <time>2014-01-19T09:14:51.000Z</time>
      </trkpt>
      <trkpt lat="43.69477" lon="7.0813">
        <ele>310.20001220703</ele>
        <time>2014-01-19T09:14:54.000Z</time>
      </trkpt>
      <trkpt lat="43.69478" lon="7.08095">
        <ele>308.60000610352</ele>
        <time>2014-01-19T09:14:58.000Z</time>
      </trkpt>
      <trkpt lat="43.69493" lon="7.08061">
        <ele>307</ele>
        <time>2014-01-19T09:15:02.000Z</time>
      </trkpt>
      <trkpt lat="43.69496" lon="7.08059">
        <ele>306.60000610352</ele>
        <time>2014-01-19T09:15:03.000Z</time>
      </trkpt>
      <trkpt lat="43.69498" lon="7.08054">
        <ele>306.20001220703</ele>
        <time>2014-01-19T09:15:04.000Z</time>
      </trkpt>
      <trkpt lat="43.69499" lon="7.08044">
        <ele>305.60000610352</ele>
        <time>2014-01-19T09:15:06.000Z</time>
      </trkpt>
      <trkpt lat="43.69498" lon="7.08035">
        <ele>305</ele>
        <time>2014-01-19T09:15:08.000Z</time>
      </trkpt>
      <trkpt lat="43.69498" lon="7.08024">
        <ele>304.60000610352</ele>
        <time>2014-01-19T09:15:10.000Z</time>
      </trkpt>
      <trkpt lat="43.69496" lon="7.08009">
        <ele>303.60000610352</ele>
        <time>2014-01-19T09:15:13.000Z</time>
      </trkpt>
      <trkpt lat="43.69491" lon="7.08006">
        <ele>303</ele>
        <time>2014-01-19T09:15:15.000Z</time>
      </trkpt>
      <trkpt lat="43.69479" lon="7.08014">
        <ele>301.79998779297</ele>
        <time>2014-01-19T09:15:19.000Z</time>
      </trkpt>
      <trkpt lat="43.69472" lon="7.08017">
        <ele>301.60000610352</ele>
        <time>2014-01-19T09:15:20.000Z</time>
      </trkpt>
      <trkpt lat="43.69463" lon="7.08025">
        <ele>300.79998779297</ele>
        <time>2014-01-19T09:15:22.000Z</time>
      </trkpt>
      <trkpt lat="43.6945" lon="7.08042">
        <ele>299.60000610352</ele>
        <time>2014-01-19T09:15:26.000Z</time>
      </trkpt>
      <trkpt lat="43.69447" lon="7.08043">
        <ele>299.39999389648</ele>
        <time>2014-01-19T09:15:27.000Z</time>
      </trkpt>
      <trkpt lat="43.69442" lon="7.08045">
        <ele>298.60000610352</ele>
        <time>2014-01-19T09:15:29.000Z</time>
      </trkpt>
      <trkpt lat="43.6944" lon="7.08047">
        <ele>298.39999389648</ele>
        <time>2014-01-19T09:15:30.000Z</time>
      </trkpt>
      <trkpt lat="43.69438" lon="7.08047">
        <ele>298.20001220703</ele>
        <time>2014-01-19T09:15:31.000Z</time>
      </trkpt>
      <trkpt lat="43.69432" lon="7.08047">
        <ele>297</ele>
        <time>2014-01-19T09:15:34.000Z</time>
      </trkpt>
      <trkpt lat="43.6943" lon="7.08043">
        <ele>295.39999389648</ele>
        <time>2014-01-19T09:15:38.000Z</time>
      </trkpt>
      <trkpt lat="43.69431" lon="7.08043">
        <ele>295</ele>
        <time>2014-01-19T09:15:39.000Z</time>
      </trkpt>
      <trkpt lat="43.69432" lon="7.08042">
        <ele>294.60000610352</ele>
        <time>2014-01-19T09:15:40.000Z</time>
      </trkpt>
      <trkpt lat="43.69433" lon="7.08041">
        <ele>294</ele>
        <time>2014-01-19T09:15:42.000Z</time>
      </trkpt>
      <trkpt lat="43.69429" lon="7.08034">
        <ele>292</ele>
        <time>2014-01-19T09:15:47.000Z</time>
      </trkpt>
      <trkpt lat="43.6942" lon="7.08035">
        <ele>290.60000610352</ele>
        <time>2014-01-19T09:15:50.000Z</time>
      </trkpt>
      <trkpt lat="43.69418" lon="7.08035">
        <ele>290.20001220703</ele>
        <time>2014-01-19T09:15:51.000Z</time>
      </trkpt>
      <trkpt lat="43.69401" lon="7.08038">
        <ele>287.79998779297</ele>
        <time>2014-01-19T09:15:56.000Z</time>
      </trkpt>
      <trkpt lat="43.69397" lon="7.08037">
        <ele>286.60000610352</ele>
        <time>2014-01-19T09:15:58.000Z</time>
      </trkpt>
      <trkpt lat="43.69398" lon="7.08033">
        <ele>285.60000610352</ele>
        <time>2014-01-19T09:16:00.000Z</time>
      </trkpt>
      <trkpt lat="43.69399" lon="7.0803">
        <ele>284.20001220703</ele>
        <time>2014-01-19T09:16:03.000Z</time>
      </trkpt>
      <trkpt lat="43.69399" lon="7.08027">
        <ele>283.60000610352</ele>
        <time>2014-01-19T09:16:04.000Z</time>
      </trkpt>
      <trkpt lat="43.69402" lon="7.08021">
        <ele>281.60000610352</ele>
        <time>2014-01-19T09:16:08.000Z</time>
      </trkpt>
      <trkpt lat="43.69405" lon="7.08017">
        <ele>280.20001220703</ele>
        <time>2014-01-19T09:16:11.000Z</time>
      </trkpt>
      <trkpt lat="43.69405" lon="7.08011">
        <ele>278.60000610352</ele>
        <time>2014-01-19T09:16:14.000Z</time>
      </trkpt>
      <trkpt lat="43.69405" lon="7.07997">
        <ele>275.79998779297</ele>
        <time>2014-01-19T09:16:19.000Z</time>
      </trkpt>
      <trkpt lat="43.69393" lon="7.07989">
        <ele>273</ele>
        <time>2014-01-19T09:16:24.000Z</time>
      </trkpt>
      <trkpt lat="43.69383" lon="7.07992">
        <ele>271.79998779297</ele>
        <time>2014-01-19T09:16:26.000Z</time>
      </trkpt>
      <trkpt lat="43.69377" lon="7.07992">
        <ele>271.20001220703</ele>
        <time>2014-01-19T09:16:27.000Z</time>
      </trkpt>
      <trkpt lat="43.69347" lon="7.0799">
        <ele>268.39999389648</ele>
        <time>2014-01-19T09:16:32.000Z</time>
      </trkpt>
      <trkpt lat="43.69344" lon="7.0799">
        <ele>267.79998779297</ele>
        <time>2014-01-19T09:16:33.000Z</time>
      </trkpt>
      <trkpt lat="43.69335" lon="7.07988">
        <ele>266.39999389648</ele>
        <time>2014-01-19T09:16:36.000Z</time>
      </trkpt>
      <trkpt lat="43.69332" lon="7.07986">
        <ele>265.79998779297</ele>
        <time>2014-01-19T09:16:37.000Z</time>
      </trkpt>
      <trkpt lat="43.69321" lon="7.07984">
        <ele>264.20001220703</ele>
        <time>2014-01-19T09:16:40.000Z</time>
      </trkpt>
      <trkpt lat="43.69312" lon="7.07981">
        <ele>263.20001220703</ele>
        <time>2014-01-19T09:16:42.000Z</time>
      </trkpt>
      <trkpt lat="43.69288" lon="7.07979">
        <ele>260.60000610352</ele>
        <time>2014-01-19T09:16:47.000Z</time>
      </trkpt>
      <trkpt lat="43.69282" lon="7.07982">
        <ele>260</ele>
        <time>2014-01-19T09:16:48.000Z</time>
      </trkpt>
      <trkpt lat="43.69271" lon="7.07989">
        <ele>258.39999389648</ele>
        <time>2014-01-19T09:16:51.000Z</time>
      </trkpt>
      <trkpt lat="43.69269" lon="7.07987">
        <ele>257.39999389648</ele>
        <time>2014-01-19T09:16:53.000Z</time>
      </trkpt>
      <trkpt lat="43.69269" lon="7.07987">
        <ele>256.79998779297</ele>
        <time>2014-01-19T09:16:54.000Z</time>
      </trkpt>
      <trkpt lat="43.6927" lon="7.07993">
        <ele>254.80000305176</ele>
        <time>2014-01-19T09:16:59.000Z</time>
      </trkpt>
      <trkpt lat="43.69272" lon="7.07994">
        <ele>254.19999694824</ele>
        <time>2014-01-19T09:17:01.000Z</time>
      </trkpt>
      <trkpt lat="43.69272" lon="7.07996">
        <ele>253.39999389648</ele>
        <time>2014-01-19T09:17:03.000Z</time>
      </trkpt>
      <trkpt lat="43.69273" lon="7.08">
        <ele>252.60000610352</ele>
        <time>2014-01-19T09:17:06.000Z</time>
      </trkpt>
      <trkpt lat="43.69274" lon="7.08004">
        <ele>251.60000610352</ele>
        <time>2014-01-19T09:17:10.000Z</time>
      </trkpt>
      <trkpt lat="43.69277" lon="7.0801">
        <ele>250.39999389648</ele>
        <time>2014-01-19T09:17:15.000Z</time>
      </trkpt>
      <trkpt lat="43.69279" lon="7.08014">
        <ele>249.19999694824</ele>
        <time>2014-01-19T09:17:21.000Z</time>
      </trkpt>
      <trkpt lat="43.69284" lon="7.08016">
        <ele>248</ele>
        <time>2014-01-19T09:17:28.000Z</time>
      </trkpt>
      <trkpt lat="43.69286" lon="7.08017">
        <ele>247.60000610352</ele>
        <time>2014-01-19T09:17:31.000Z</time>
      </trkpt>
      <trkpt lat="43.69289" lon="7.08022">
        <ele>247</ele>
        <time>2014-01-19T09:17:36.000Z</time>
      </trkpt>
      <trkpt lat="43.69289" lon="7.08025">
        <ele>246.60000610352</ele>
        <time>2014-01-19T09:17:42.000Z</time>
      </trkpt>
      <trkpt lat="43.69292" lon="7.08028">
        <ele>246.39999389648</ele>
        <time>2014-01-19T09:17:49.000Z</time>
      </trkpt>
      <trkpt lat="43.69294" lon="7.08031">
        <ele>246.19999694824</ele>
        <time>2014-01-19T09:17:52.000Z</time>
      </trkpt>
      <trkpt lat="43.69297" lon="7.08035">
        <ele>246.19999694824</ele>
        <time>2014-01-19T09:17:56.000Z</time>
      </trkpt>
      <trkpt lat="43.69301" lon="7.08036">
        <ele>246</ele>
        <time>2014-01-19T09:18:00.000Z</time>
      </trkpt>
      <trkpt lat="43.69302" lon="7.08037">
        <ele>246.19999694824</ele>
        <time>2014-01-19T09:18:02.000Z</time>
      </trkpt>
      <trkpt lat="43.69306" lon="7.08042">
        <ele>246.39999389648</ele>
        <time>2014-01-19T09:18:09.000Z</time>
      </trkpt>
      <trkpt lat="43.69307" lon="7.08042">
        <ele>246.39999389648</ele>
        <time>2014-01-19T09:18:10.000Z</time>
      </trkpt>
      <trkpt lat="43.69311" lon="7.08045">
        <ele>246.60000610352</ele>
        <time>2014-01-19T09:18:14.000Z</time>
      </trkpt>
      <trkpt lat="43.69309" lon="7.08046">
        <ele>247</ele>
        <time>2014-01-19T09:18:17.000Z</time>
      </trkpt>
      <trkpt lat="43.69312" lon="7.08049">
        <ele>247.80000305176</ele>
        <time>2014-01-19T09:18:22.000Z</time>
      </trkpt>
      <trkpt lat="43.69314" lon="7.08051">
        <ele>248</ele>
        <time>2014-01-19T09:18:24.000Z</time>
      </trkpt>
      <trkpt lat="43.69316" lon="7.08058">
        <ele>249</ele>
        <time>2014-01-19T09:18:29.000Z</time>
      </trkpt>
      <trkpt lat="43.69316" lon="7.08059">
        <ele>249</ele>
        <time>2014-01-19T09:18:30.000Z</time>
      </trkpt>
      <trkpt lat="43.69318" lon="7.08063">
        <ele>250.39999389648</ele>
        <time>2014-01-19T09:18:36.000Z</time>
      </trkpt>
      <trkpt lat="43.6932" lon="7.08065">
        <ele>251</ele>
        <time>2014-01-19T09:18:39.000Z</time>
      </trkpt>
      <trkpt lat="43.69323" lon="7.08067">
        <ele>251.80000305176</ele>
        <time>2014-01-19T09:18:42.000Z</time>
      </trkpt>
      <trkpt lat="43.69327" lon="7.08068">
        <ele>253.39999389648</ele>
        <time>2014-01-19T09:18:47.000Z</time>
      </trkpt>
      <trkpt lat="43.69331" lon="7.0807">
        <ele>254.60000610352</ele>
        <time>2014-01-19T09:18:50.000Z</time>
      </trkpt>
      <trkpt lat="43.69335" lon="7.08071">
        <ele>255.39999389648</ele>
        <time>2014-01-19T09:18:52.000Z</time>
      </trkpt>
      <trkpt lat="43.69343" lon="7.08077">
        <ele>256.79998779297</ele>
        <time>2014-01-19T09:18:57.000Z</time>
      </trkpt>
      <trkpt lat="43.69355" lon="7.08086">
        <ele>257.39999389648</ele>
        <time>2014-01-19T09:19:02.000Z</time>
      </trkpt>
      <trkpt lat="43.69358" lon="7.08088">
        <ele>257.39999389648</ele>
        <time>2014-01-19T09:19:03.000Z</time>
      </trkpt>
      <trkpt lat="43.69365" lon="7.08093">
        <ele>257.20001220703</ele>
        <time>2014-01-19T09:19:07.000Z</time>
      </trkpt>
      <trkpt lat="43.69372" lon="7.08097">
        <ele>257.20001220703</ele>
        <time>2014-01-19T09:19:09.000Z</time>
      </trkpt>
      <trkpt lat="43.69384" lon="7.08103">
        <ele>257.20001220703</ele>
        <time>2014-01-19T09:19:13.000Z</time>
      </trkpt>
      <trkpt lat="43.69399" lon="7.08113">
        <ele>257</ele>
        <time>2014-01-19T09:19:17.000Z</time>
      </trkpt>
      <trkpt lat="43.69402" lon="7.08114">
        <ele>257</ele>
        <time>2014-01-19T09:19:18.000Z</time>
      </trkpt>
      <trkpt lat="43.69419" lon="7.08122">
        <ele>257</ele>
        <time>2014-01-19T09:19:23.000Z</time>
      </trkpt>
      <trkpt lat="43.69423" lon="7.08125">
        <ele>257</ele>
        <time>2014-01-19T09:19:25.000Z</time>
      </trkpt>
      <trkpt lat="43.69429" lon="7.08128">
        <ele>257.20001220703</ele>
        <time>2014-01-19T09:19:27.000Z</time>
      </trkpt>
      <trkpt lat="43.69437" lon="7.08136">
        <ele>258</ele>
        <time>2014-01-19T09:19:32.000Z</time>
      </trkpt>
      <trkpt lat="43.69447" lon="7.08137">
        <ele>258.79998779297</ele>
        <time>2014-01-19T09:19:36.000Z</time>
      </trkpt>
      <trkpt lat="43.69453" lon="7.08144">
        <ele>259.60000610352</ele>
        <time>2014-01-19T09:19:38.000Z</time>
      </trkpt>
      <trkpt lat="43.69456" lon="7.0815">
        <ele>260.39999389648</ele>
        <time>2014-01-19T09:19:40.000Z</time>
      </trkpt>
      <trkpt lat="43.69459" lon="7.08159">
        <ele>261.60000610352</ele>
        <time>2014-01-19T09:19:43.000Z</time>
      </trkpt>
      <trkpt lat="43.69459" lon="7.08162">
        <ele>262</ele>
        <time>2014-01-19T09:19:44.000Z</time>
      </trkpt>
      <trkpt lat="43.69464" lon="7.08178">
        <ele>263.20001220703</ele>
        <time>2014-01-19T09:19:49.000Z</time>
      </trkpt>
      <trkpt lat="43.69476" lon="7.08198">
        <ele>262.79998779297</ele>
        <time>2014-01-19T09:19:54.000Z</time>
      </trkpt>
      <trkpt lat="43.69483" lon="7.08213">
        <ele>262.79998779297</ele>
        <time>2014-01-19T09:19:59.000Z</time>
      </trkpt>
      <trkpt lat="43.69486" lon="7.08225">
        <ele>262.79998779297</ele>
        <time>2014-01-19T09:20:02.000Z</time>
      </trkpt>
      <trkpt lat="43.69489" lon="7.08231">
        <ele>263</ele>
        <time>2014-01-19T09:20:04.000Z</time>
      </trkpt>
      <trkpt lat="43.69489" lon="7.08235">
        <ele>263.39999389648</ele>
        <time>2014-01-19T09:20:05.000Z</time>
      </trkpt>
      <trkpt lat="43.69492" lon="7.08246">
        <ele>264</ele>
        <time>2014-01-19T09:20:08.000Z</time>
      </trkpt>
      <trkpt lat="43.69503" lon="7.08259">
        <ele>263.60000610352</ele>
        <time>2014-01-19T09:20:12.000Z</time>
      </trkpt>
      <trkpt lat="43.6951" lon="7.08263">
        <ele>263.60000610352</ele>
        <time>2014-01-19T09:20:15.000Z</time>
      </trkpt>
      <trkpt lat="43.69515" lon="7.08262">
        <ele>263.79998779297</ele>
        <time>2014-01-19T09:20:17.000Z</time>
      </trkpt>
      <trkpt lat="43.69528" lon="7.08255">
        <ele>263.39999389648</ele>
        <time>2014-01-19T09:20:22.000Z</time>
      </trkpt>
      <trkpt lat="43.69538" lon="7.08248">
        <ele>263.39999389648</ele>
        <time>2014-01-19T09:20:27.000Z</time>
      </trkpt>
      <trkpt lat="43.69548" lon="7.08241">
        <ele>263.20001220703</ele>
        <time>2014-01-19T09:20:32.000Z</time>
      </trkpt>
      <trkpt lat="43.69551" lon="7.08239">
        <ele>263.20001220703</ele>
        <time>2014-01-19T09:20:34.000Z</time>
      </trkpt>
      <trkpt lat="43.69553" lon="7.08243">
        <ele>263</ele>
        <time>2014-01-19T09:20:37.000Z</time>
      </trkpt>
      <trkpt lat="43.69563" lon="7.08246">
        <ele>263</ele>
        <time>2014-01-19T09:20:41.000Z</time>
      </trkpt>
      <trkpt lat="43.69565" lon="7.08246">
        <ele>263.39999389648</ele>
        <time>2014-01-19T09:20:42.000Z</time>
      </trkpt>
      <trkpt lat="43.69577" lon="7.08247">
        <ele>263.79998779297</ele>
        <time>2014-01-19T09:20:46.000Z</time>
      </trkpt>
      <trkpt lat="43.69589" lon="7.0825">
        <ele>265</ele>
        <time>2014-01-19T09:20:52.000Z</time>
      </trkpt>
      <trkpt lat="43.69594" lon="7.08251">
        <ele>266.20001220703</ele>
        <time>2014-01-19T09:20:55.000Z</time>
      </trkpt>
      <trkpt lat="43.69599" lon="7.08253">
        <ele>267.20001220703</ele>
        <time>2014-01-19T09:20:57.000Z</time>
      </trkpt>
      <trkpt lat="43.69603" lon="7.08256">
        <ele>268.39999389648</ele>
        <time>2014-01-19T09:20:59.000Z</time>
      </trkpt>
      <trkpt lat="43.69609" lon="7.08264">
        <ele>269</ele>
        <time>2014-01-19T09:21:01.000Z</time>
      </trkpt>
      <trkpt lat="43.69614" lon="7.08273">
        <ele>269.39999389648</ele>
        <time>2014-01-19T09:21:03.000Z</time>
      </trkpt>
      <trkpt lat="43.69621" lon="7.08276">
        <ele>269.60000610352</ele>
        <time>2014-01-19T09:21:05.000Z</time>
      </trkpt>
      <trkpt lat="43.69631" lon="7.08283">
        <ele>271</ele>
        <time>2014-01-19T09:21:09.000Z</time>
      </trkpt>
      <trkpt lat="43.69642" lon="7.08294">
        <ele>272.79998779297</ele>
        <time>2014-01-19T09:21:13.000Z</time>
      </trkpt>
      <trkpt lat="43.69651" lon="7.08301">
        <ele>275</ele>
        <time>2014-01-19T09:21:17.000Z</time>
      </trkpt>
      <trkpt lat="43.69659" lon="7.08298">
        <ele>277.60000610352</ele>
        <time>2014-01-19T09:21:21.000Z</time>
      </trkpt>
      <trkpt lat="43.69661" lon="7.08296">
        <ele>278.39999389648</ele>
        <time>2014-01-19T09:21:22.000Z</time>
      </trkpt>
      <trkpt lat="43.69662" lon="7.08297">
        <ele>279</ele>
        <time>2014-01-19T09:21:23.000Z</time>
      </trkpt>
      <trkpt lat="43.69666" lon="7.08299">
        <ele>280.60000610352</ele>
        <time>2014-01-19T09:21:25.000Z</time>
      </trkpt>
      <trkpt lat="43.69672" lon="7.08306">
        <ele>284.79998779297</ele>
        <time>2014-01-19T09:21:30.000Z</time>
      </trkpt>
      <trkpt lat="43.69674" lon="7.08308">
        <ele>285.79998779297</ele>
        <time>2014-01-19T09:21:31.000Z</time>
      </trkpt>
      <trkpt lat="43.69686" lon="7.0833">
        <ele>290.39999389648</ele>
        <time>2014-01-19T09:21:37.000Z</time>
      </trkpt>
      <trkpt lat="43.69693" lon="7.08333">
        <ele>291.79998779297</ele>
        <time>2014-01-19T09:21:39.000Z</time>
      </trkpt>
      <trkpt lat="43.69697" lon="7.08337">
        <ele>292.60000610352</ele>
        <time>2014-01-19T09:21:41.000Z</time>
      </trkpt>
      <trkpt lat="43.69709" lon="7.08344">
        <ele>294.60000610352</ele>
        <time>2014-01-19T09:21:46.000Z</time>
      </trkpt>
      <trkpt lat="43.69712" lon="7.08346">
        <ele>295</ele>
        <time>2014-01-19T09:21:47.000Z</time>
      </trkpt>
      <trkpt lat="43.69717" lon="7.08354">
        <ele>296</ele>
        <time>2014-01-19T09:21:50.000Z</time>
      </trkpt>
      <trkpt lat="43.69724" lon="7.08365">
        <ele>297.60000610352</ele>
        <time>2014-01-19T09:21:54.000Z</time>
      </trkpt>
      <trkpt lat="43.69731" lon="7.08369">
        <ele>299</ele>
        <time>2014-01-19T09:21:57.000Z</time>
      </trkpt>
      <trkpt lat="43.69733" lon="7.08368">
        <ele>299.20001220703</ele>
        <time>2014-01-19T09:21:58.000Z</time>
      </trkpt>
      <trkpt lat="43.69739" lon="7.08372">
        <ele>300.39999389648</ele>
        <time>2014-01-19T09:22:01.000Z</time>
      </trkpt>
      <trkpt lat="43.69743" lon="7.08378">
        <ele>301.39999389648</ele>
        <time>2014-01-19T09:22:03.000Z</time>
      </trkpt>
      <trkpt lat="43.69752" lon="7.0839">
        <ele>304.39999389648</ele>
        <time>2014-01-19T09:22:09.000Z</time>
      </trkpt>
      <trkpt lat="43.69753" lon="7.08392">
        <ele>304.79998779297</ele>
        <time>2014-01-19T09:22:10.000Z</time>
      </trkpt>
      <trkpt lat="43.6976" lon="7.08395">
        <ele>306.60000610352</ele>
        <time>2014-01-19T09:22:13.000Z</time>
      </trkpt>
      <trkpt lat="43.69766" lon="7.08395">
        <ele>307.60000610352</ele>
        <time>2014-01-19T09:22:15.000Z</time>
      </trkpt>
      <trkpt lat="43.69773" lon="7.08391">
        <ele>309.79998779297</ele>
        <time>2014-01-19T09:22:19.000Z</time>
      </trkpt>
      <trkpt lat="43.69775" lon="7.08391">
        <ele>310.20001220703</ele>
        <time>2014-01-19T09:22:20.000Z</time>
      </trkpt>
      <trkpt lat="43.69784" lon="7.08393">
        <ele>312.20001220703</ele>
        <time>2014-01-19T09:22:24.000Z</time>
      </trkpt>
      <trkpt lat="43.69795" lon="7.08405">
        <ele>314.39999389648</ele>
        <time>2014-01-19T09:22:29.000Z</time>
      </trkpt>
      <trkpt lat="43.69797" lon="7.0841">
        <ele>314.79998779297</ele>
        <time>2014-01-19T09:22:30.000Z</time>
      </trkpt>
      <trkpt lat="43.69807" lon="7.08425">
        <ele>316.39999389648</ele>
        <time>2014-01-19T09:22:34.000Z</time>
      </trkpt>
      <trkpt lat="43.69823" lon="7.08441">
        <ele>318.20001220703</ele>
        <time>2014-01-19T09:22:39.000Z</time>
      </trkpt>
      <trkpt lat="43.69837" lon="7.08448">
        <ele>319.20001220703</ele>
        <time>2014-01-19T09:22:43.000Z</time>
      </trkpt>
      <trkpt lat="43.69859" lon="7.08472">
        <ele>319.39999389648</ele>
        <time>2014-01-19T09:22:49.000Z</time>
      </trkpt>
      <trkpt lat="43.69865" lon="7.0848">
        <ele>319.39999389648</ele>
        <time>2014-01-19T09:22:51.000Z</time>
      </trkpt>
      <trkpt lat="43.69876" lon="7.08491">
        <ele>319.39999389648</ele>
        <time>2014-01-19T09:22:54.000Z</time>
      </trkpt>
      <trkpt lat="43.69878" lon="7.08495">
        <ele>319.60000610352</ele>
        <time>2014-01-19T09:22:55.000Z</time>
      </trkpt>
      <trkpt lat="43.69891" lon="7.08512">
        <ele>319.20001220703</ele>
        <time>2014-01-19T09:22:59.000Z</time>
      </trkpt>
      <trkpt lat="43.69895" lon="7.08539">
        <ele>319.60000610352</ele>
        <time>2014-01-19T09:23:03.000Z</time>
      </trkpt>
      <trkpt lat="43.69913" lon="7.08567">
        <ele>319.79998779297</ele>
        <time>2014-01-19T09:23:08.000Z</time>
      </trkpt>
      <trkpt lat="43.69927" lon="7.08582">
        <ele>319.79998779297</ele>
        <time>2014-01-19T09:23:12.000Z</time>
      </trkpt>
      <trkpt lat="43.6993" lon="7.08586">
        <ele>320</ele>
        <time>2014-01-19T09:23:13.000Z</time>
      </trkpt>
      <trkpt lat="43.69939" lon="7.08597">
        <ele>319.79998779297</ele>
        <time>2014-01-19T09:23:16.000Z</time>
      </trkpt>
      <trkpt lat="43.69945" lon="7.08604">
        <ele>319.79998779297</ele>
        <time>2014-01-19T09:23:18.000Z</time>
      </trkpt>
      <trkpt lat="43.69959" lon="7.08621">
        <ele>319.79998779297</ele>
        <time>2014-01-19T09:23:24.000Z</time>
      </trkpt>
      <trkpt lat="43.69977" lon="7.0863">
        <ele>320.20001220703</ele>
        <time>2014-01-19T09:23:30.000Z</time>
      </trkpt>
      <trkpt lat="43.6999" lon="7.08649">
        <ele>319.79998779297</ele>
        <time>2014-01-19T09:23:35.000Z</time>
      </trkpt>
      <trkpt lat="43.70002" lon="7.0866">
        <ele>320.20001220703</ele>
        <time>2014-01-19T09:23:40.000Z</time>
      </trkpt>
      <trkpt lat="43.70013" lon="7.08658">
        <ele>321.20001220703</ele>
        <time>2014-01-19T09:23:44.000Z</time>
      </trkpt>
      <trkpt lat="43.70018" lon="7.08659">
        <ele>321.20001220703</ele>
        <time>2014-01-19T09:23:46.000Z</time>
      </trkpt>
      <trkpt lat="43.70023" lon="7.08662">
        <ele>321.20001220703</ele>
        <time>2014-01-19T09:23:48.000Z</time>
      </trkpt>
      <trkpt lat="43.70036" lon="7.08666">
        <ele>321.79998779297</ele>
        <time>2014-01-19T09:23:53.000Z</time>
      </trkpt>
      <trkpt lat="43.70047" lon="7.0867">
        <ele>322.39999389648</ele>
        <time>2014-01-19T09:23:57.000Z</time>
      </trkpt>
      <trkpt lat="43.70057" lon="7.08674">
        <ele>322.60000610352</ele>
        <time>2014-01-19T09:24:00.000Z</time>
      </trkpt>
      <trkpt lat="43.70059" lon="7.08675">
        <ele>322.79998779297</ele>
        <time>2014-01-19T09:24:01.000Z</time>
      </trkpt>
      <trkpt lat="43.70071" lon="7.08676">
        <ele>323.79998779297</ele>
        <time>2014-01-19T09:24:06.000Z</time>
      </trkpt>
      <trkpt lat="43.70083" lon="7.0867">
        <ele>324.39999389648</ele>
        <time>2014-01-19T09:24:10.000Z</time>
      </trkpt>
      <trkpt lat="43.70085" lon="7.08658">
        <ele>324.39999389648</ele>
        <time>2014-01-19T09:24:14.000Z</time>
      </trkpt>
      <trkpt lat="43.70078" lon="7.08653">
        <ele>324</ele>
        <time>2014-01-19T09:24:18.000Z</time>
      </trkpt>
      <trkpt lat="43.70074" lon="7.08652">
        <ele>324</ele>
        <time>2014-01-19T09:24:19.000Z</time>
      </trkpt>
      <trkpt lat="43.70052" lon="7.08641">
        <ele>323.60000610352</ele>
        <time>2014-01-19T09:24:25.000Z</time>
      </trkpt>
      <trkpt lat="43.70033" lon="7.08625">
        <ele>323.20001220703</ele>
        <time>2014-01-19T09:24:29.000Z</time>
      </trkpt>
      <trkpt lat="43.70015" lon="7.08608">
        <ele>322.79998779297</ele>
        <time>2014-01-19T09:24:33.000Z</time>
      </trkpt>
      <trkpt lat="43.70018" lon="7.08603">
        <ele>322.39999389648</ele>
        <time>2014-01-19T09:24:35.000Z</time>
      </trkpt>
      <trkpt lat="43.70021" lon="7.08601">
        <ele>322.20001220703</ele>
        <time>2014-01-19T09:24:36.000Z</time>
      </trkpt>
      <trkpt lat="43.70027" lon="7.08601">
        <ele>321.79998779297</ele>
        <time>2014-01-19T09:24:39.000Z</time>
      </trkpt>
      <trkpt lat="43.7003" lon="7.08598">
        <ele>321.60000610352</ele>
        <time>2014-01-19T09:24:41.000Z</time>
      </trkpt>
      <trkpt lat="43.7004" lon="7.08587">
        <ele>320.60000610352</ele>
        <time>2014-01-19T09:24:46.000Z</time>
      </trkpt>
      <trkpt lat="43.70049" lon="7.08584">
        <ele>319.79998779297</ele>
        <time>2014-01-19T09:24:52.000Z</time>
      </trkpt>
      <trkpt lat="43.7005" lon="7.08581">
        <ele>319.39999389648</ele>
        <time>2014-01-19T09:24:54.000Z</time>
      </trkpt>
      <trkpt lat="43.7005" lon="7.0858">
        <ele>319</ele>
        <time>2014-01-19T09:24:57.000Z</time>
      </trkpt>
      <trkpt lat="43.70052" lon="7.08577">
        <ele>318.79998779297</ele>
        <time>2014-01-19T09:24:59.000Z</time>
      </trkpt>
      <trkpt lat="43.70055" lon="7.08573">
        <ele>318.39999389648</ele>
        <time>2014-01-19T09:25:02.000Z</time>
      </trkpt>
      <trkpt lat="43.70056" lon="7.08571">
        <ele>318</ele>
        <time>2014-01-19T09:25:05.000Z</time>
      </trkpt>
      <trkpt lat="43.70058" lon="7.08569">
        <ele>317.60000610352</ele>
        <time>2014-01-19T09:25:08.000Z</time>
      </trkpt>
      <trkpt lat="43.70064" lon="7.08564">
        <ele>316.79998779297</ele>
        <time>2014-01-19T09:25:16.000Z</time>
      </trkpt>
      <trkpt lat="43.70065" lon="7.08563">
        <ele>316.79998779297</ele>
        <time>2014-01-19T09:25:17.000Z</time>
      </trkpt>
      <trkpt lat="43.70071" lon="7.08558">
        <ele>316.60000610352</ele>
        <time>2014-01-19T09:25:22.000Z</time>
      </trkpt>
      <trkpt lat="43.70071" lon="7.08556">
        <ele>316.60000610352</ele>
        <time>2014-01-19T09:25:23.000Z</time>
      </trkpt>
      <trkpt lat="43.70075" lon="7.08553">
        <ele>316.60000610352</ele>
        <time>2014-01-19T09:25:26.000Z</time>
      </trkpt>
      <trkpt lat="43.70083" lon="7.08551">
        <ele>316.39999389648</ele>
        <time>2014-01-19T09:25:30.000Z</time>
      </trkpt>
      <trkpt lat="43.70097" lon="7.08543">
        <ele>316.39999389648</ele>
        <time>2014-01-19T09:25:35.000Z</time>
      </trkpt>
      <trkpt lat="43.7011" lon="7.08534">
        <ele>317</ele>
        <time>2014-01-19T09:25:40.000Z</time>
      </trkpt>
      <trkpt lat="43.70132" lon="7.08528">
        <ele>317.20001220703</ele>
        <time>2014-01-19T09:25:46.000Z</time>
      </trkpt>
      <trkpt lat="43.70142" lon="7.08527">
        <ele>317.20001220703</ele>
        <time>2014-01-19T09:25:50.000Z</time>
      </trkpt>
      <trkpt lat="43.70146" lon="7.08529">
        <ele>317.20001220703</ele>
        <time>2014-01-19T09:25:51.000Z</time>
      </trkpt>
      <trkpt lat="43.70157" lon="7.08534">
        <ele>317.20001220703</ele>
        <time>2014-01-19T09:25:54.000Z</time>
      </trkpt>
      <trkpt lat="43.70168" lon="7.08551">
        <ele>317.39999389648</ele>
        <time>2014-01-19T09:25:58.000Z</time>
      </trkpt>
      <trkpt lat="43.70171" lon="7.08556">
        <ele>317.39999389648</ele>
        <time>2014-01-19T09:25:59.000Z</time>
      </trkpt>
      <trkpt lat="43.70176" lon="7.08582">
        <ele>317.39999389648</ele>
        <time>2014-01-19T09:26:03.000Z</time>
      </trkpt>
      <trkpt lat="43.70177" lon="7.08609">
        <ele>317.60000610352</ele>
        <time>2014-01-19T09:26:07.000Z</time>
      </trkpt>
      <trkpt lat="43.70188" lon="7.08623">
        <ele>317.39999389648</ele>
        <time>2014-01-19T09:26:10.000Z</time>
      </trkpt>
      <trkpt lat="43.70196" lon="7.08616">
        <ele>317.20001220703</ele>
        <time>2014-01-19T09:26:13.000Z</time>
      </trkpt>
      <trkpt lat="43.70202" lon="7.08609">
        <ele>317.20001220703</ele>
        <time>2014-01-19T09:26:15.000Z</time>
      </trkpt>
      <trkpt lat="43.70211" lon="7.08598">
        <ele>316.79998779297</ele>
        <time>2014-01-19T09:26:19.000Z</time>
      </trkpt>
      <trkpt lat="43.70213" lon="7.08594">
        <ele>316.79998779297</ele>
        <time>2014-01-19T09:26:20.000Z</time>
      </trkpt>
      <trkpt lat="43.70215" lon="7.08592">
        <ele>316.60000610352</ele>
        <time>2014-01-19T09:26:21.000Z</time>
      </trkpt>
      <trkpt lat="43.70222" lon="7.08588">
        <ele>316.60000610352</ele>
        <time>2014-01-19T09:26:23.000Z</time>
      </trkpt>
      <trkpt lat="43.70235" lon="7.08579">
        <ele>316.20001220703</ele>
        <time>2014-01-19T09:26:28.000Z</time>
      </trkpt>
      <trkpt lat="43.70243" lon="7.08572">
        <ele>316</ele>
        <time>2014-01-19T09:26:31.000Z</time>
      </trkpt>
      <trkpt lat="43.70245" lon="7.08571">
        <ele>316</ele>
        <time>2014-01-19T09:26:32.000Z</time>
      </trkpt>
      <trkpt lat="43.7025" lon="7.08568">
        <ele>315.79998779297</ele>
        <time>2014-01-19T09:26:34.000Z</time>
      </trkpt>
      <trkpt lat="43.70257" lon="7.08563">
        <ele>315.60000610352</ele>
        <time>2014-01-19T09:26:37.000Z</time>
      </trkpt>
      <trkpt lat="43.70267" lon="7.08557">
        <ele>315.39999389648</ele>
        <time>2014-01-19T09:26:42.000Z</time>
      </trkpt>
      <trkpt lat="43.70272" lon="7.08555">
        <ele>315.39999389648</ele>
        <time>2014-01-19T09:26:43.000Z</time>
      </trkpt>
      <trkpt lat="43.70282" lon="7.08548">
        <ele>315.20001220703</ele>
        <time>2014-01-19T09:26:48.000Z</time>
      </trkpt>
      <trkpt lat="43.70284" lon="7.08547">
        <ele>315</ele>
        <time>2014-01-19T09:26:49.000Z</time>
      </trkpt>
      <trkpt lat="43.70291" lon="7.08542">
        <ele>314.79998779297</ele>
        <time>2014-01-19T09:26:52.000Z</time>
      </trkpt>
      <trkpt lat="43.70309" lon="7.08532">
        <ele>314.39999389648</ele>
        <time>2014-01-19T09:26:56.000Z</time>
      </trkpt>
      <trkpt lat="43.70317" lon="7.08532">
        <ele>314.60000610352</ele>
        <time>2014-01-19T09:26:59.000Z</time>
      </trkpt>
      <trkpt lat="43.70318" lon="7.08534">
        <ele>314.60000610352</ele>
        <time>2014-01-19T09:27:00.000Z</time>
      </trkpt>
      <trkpt lat="43.70312" lon="7.08556">
        <ele>315.20001220703</ele>
        <time>2014-01-19T09:27:03.000Z</time>
      </trkpt>
      <trkpt lat="43.70311" lon="7.08581">
        <ele>315.60000610352</ele>
        <time>2014-01-19T09:27:06.000Z</time>
      </trkpt>
      <trkpt lat="43.70313" lon="7.08588">
        <ele>315.79998779297</ele>
        <time>2014-01-19T09:27:07.000Z</time>
      </trkpt>
      <trkpt lat="43.7032" lon="7.08615">
        <ele>316.79998779297</ele>
        <time>2014-01-19T09:27:11.000Z</time>
      </trkpt>
      <trkpt lat="43.70322" lon="7.0862">
        <ele>317.20001220703</ele>
        <time>2014-01-19T09:27:12.000Z</time>
      </trkpt>
      <trkpt lat="43.70331" lon="7.08633">
        <ele>317.60000610352</ele>
        <time>2014-01-19T09:27:14.000Z</time>
      </trkpt>
      <trkpt lat="43.70347" lon="7.0866">
        <ele>318.39999389648</ele>
        <time>2014-01-19T09:27:18.000Z</time>
      </trkpt>
      <trkpt lat="43.70349" lon="7.08665">
        <ele>318.39999389648</ele>
        <time>2014-01-19T09:27:19.000Z</time>
      </trkpt>
      <trkpt lat="43.70369" lon="7.0869">
        <ele>319.79998779297</ele>
        <time>2014-01-19T09:27:24.000Z</time>
      </trkpt>
      <trkpt lat="43.70384" lon="7.08688">
        <ele>320.79998779297</ele>
        <time>2014-01-19T09:27:27.000Z</time>
      </trkpt>
      <trkpt lat="43.70411" lon="7.08684">
        <ele>320.39999389648</ele>
        <time>2014-01-19T09:27:32.000Z</time>
      </trkpt>
      <trkpt lat="43.70443" lon="7.08667">
        <ele>320.39999389648</ele>
        <time>2014-01-19T09:27:39.000Z</time>
      </trkpt>
      <trkpt lat="43.70447" lon="7.08664">
        <ele>320.39999389648</ele>
        <time>2014-01-19T09:27:40.000Z</time>
      </trkpt>
      <trkpt lat="43.70468" lon="7.08655">
        <ele>320.20001220703</ele>
        <time>2014-01-19T09:27:44.000Z</time>
      </trkpt>
      <trkpt lat="43.70481" lon="7.08651">
        <ele>320</ele>
        <time>2014-01-19T09:27:46.000Z</time>
      </trkpt>
      <trkpt lat="43.70492" lon="7.08647">
        <ele>319.79998779297</ele>
        <time>2014-01-19T09:27:48.000Z</time>
      </trkpt>
      <trkpt lat="43.70498" lon="7.08644">
        <ele>319.60000610352</ele>
        <time>2014-01-19T09:27:49.000Z</time>
      </trkpt>
      <trkpt lat="43.70515" lon="7.08641">
        <ele>319.39999389648</ele>
        <time>2014-01-19T09:27:52.000Z</time>
      </trkpt>
      <trkpt lat="43.70526" lon="7.0864">
        <ele>319</ele>
        <time>2014-01-19T09:27:54.000Z</time>
      </trkpt>
      <trkpt lat="43.70544" lon="7.08635">
        <ele>318.79998779297</ele>
        <time>2014-01-19T09:27:57.000Z</time>
      </trkpt>
      <trkpt lat="43.70555" lon="7.08634">
        <ele>318.79998779297</ele>
        <time>2014-01-19T09:27:59.000Z</time>
      </trkpt>
      <trkpt lat="43.70566" lon="7.08637">
        <ele>318.60000610352</ele>
        <time>2014-01-19T09:28:01.000Z</time>
      </trkpt>
      <trkpt lat="43.70575" lon="7.08646">
        <ele>318.60000610352</ele>
        <time>2014-01-19T09:28:04.000Z</time>
      </trkpt>
      <trkpt lat="43.70576" lon="7.08648">
        <ele>318.60000610352</ele>
        <time>2014-01-19T09:28:05.000Z</time>
      </trkpt>
      <trkpt lat="43.70581" lon="7.08655">
        <ele>318.60000610352</ele>
        <time>2014-01-19T09:28:08.000Z</time>
      </trkpt>
      <trkpt lat="43.70583" lon="7.08658">
        <ele>319</ele>
        <time>2014-01-19T09:28:10.000Z</time>
      </trkpt>
      <trkpt lat="43.70589" lon="7.08663">
        <ele>320.20001220703</ele>
        <time>2014-01-19T09:28:14.000Z</time>
      </trkpt>
      <trkpt lat="43.7059" lon="7.08663">
        <ele>320.60000610352</ele>
        <time>2014-01-19T09:28:15.000Z</time>
      </trkpt>
      <trkpt lat="43.70606" lon="7.08678">
        <ele>320.39999389648</ele>
        <time>2014-01-19T09:28:20.000Z</time>
      </trkpt>
      <trkpt lat="43.70607" lon="7.08681">
        <ele>320.20001220703</ele>
        <time>2014-01-19T09:28:21.000Z</time>
      </trkpt>
      <trkpt lat="43.70612" lon="7.08687">
        <ele>320.79998779297</ele>
        <time>2014-01-19T09:28:24.000Z</time>
      </trkpt>
      <trkpt lat="43.70622" lon="7.08694">
        <ele>320.79998779297</ele>
        <time>2014-01-19T09:28:27.000Z</time>
      </trkpt>
      <trkpt lat="43.70627" lon="7.08698">
        <ele>320.79998779297</ele>
        <time>2014-01-19T09:28:29.000Z</time>
      </trkpt>
      <trkpt lat="43.70639" lon="7.08709">
        <ele>321</ele>
        <time>2014-01-19T09:28:34.000Z</time>
      </trkpt>
      <trkpt lat="43.70658" lon="7.0873">
        <ele>320.79998779297</ele>
        <time>2014-01-19T09:28:41.000Z</time>
      </trkpt>
      <trkpt lat="43.70672" lon="7.08745">
        <ele>321.39999389648</ele>
        <time>2014-01-19T09:28:47.000Z</time>
      </trkpt>
      <trkpt lat="43.70685" lon="7.08758">
        <ele>321</ele>
        <time>2014-01-19T09:28:51.000Z</time>
      </trkpt>
      <trkpt lat="43.707" lon="7.08773">
        <ele>321.20001220703</ele>
        <time>2014-01-19T09:28:56.000Z</time>
      </trkpt>
      <trkpt lat="43.70717" lon="7.08789">
        <ele>322.20001220703</ele>
        <time>2014-01-19T09:29:02.000Z</time>
      </trkpt>
      <trkpt lat="43.7073" lon="7.088">
        <ele>322.20001220703</ele>
        <time>2014-01-19T09:29:06.000Z</time>
      </trkpt>
      <trkpt lat="43.70745" lon="7.08813">
        <ele>323.20001220703</ele>
        <time>2014-01-19T09:29:11.000Z</time>
      </trkpt>
      <trkpt lat="43.70752" lon="7.08827">
        <ele>324.79998779297</ele>
        <time>2014-01-19T09:29:15.000Z</time>
      </trkpt>
      <trkpt lat="43.7076" lon="7.08834">
        <ele>326.79998779297</ele>
        <time>2014-01-19T09:29:19.000Z</time>
      </trkpt>
      <trkpt lat="43.70763" lon="7.08834">
        <ele>327.79998779297</ele>
        <time>2014-01-19T09:29:21.000Z</time>
      </trkpt>
      <trkpt lat="43.70774" lon="7.08829">
        <ele>330.60000610352</ele>
        <time>2014-01-19T09:29:26.000Z</time>
      </trkpt>
      <trkpt lat="43.70776" lon="7.08828">
        <ele>331.20001220703</ele>
        <time>2014-01-19T09:29:27.000Z</time>
      </trkpt>
      <trkpt lat="43.70788" lon="7.08825">
        <ele>334</ele>
        <time>2014-01-19T09:29:32.000Z</time>
      </trkpt>
      <trkpt lat="43.70803" lon="7.08825">
        <ele>335.60000610352</ele>
        <time>2014-01-19T09:29:37.000Z</time>
      </trkpt>
      <trkpt lat="43.70825" lon="7.08829">
        <ele>336.60000610352</ele>
        <time>2014-01-19T09:29:42.000Z</time>
      </trkpt>
      <trkpt lat="43.70835" lon="7.0884">
        <ele>336.79998779297</ele>
        <time>2014-01-19T09:29:47.000Z</time>
      </trkpt>
      <trkpt lat="43.70836" lon="7.08842">
        <ele>337.20001220703</ele>
        <time>2014-01-19T09:29:48.000Z</time>
      </trkpt>
      <trkpt lat="43.70837" lon="7.08853">
        <ele>337.39999389648</ele>
        <time>2014-01-19T09:29:51.000Z</time>
      </trkpt>
      <trkpt lat="43.70839" lon="7.08865">
        <ele>337.20001220703</ele>
        <time>2014-01-19T09:29:54.000Z</time>
      </trkpt>
      <trkpt lat="43.70838" lon="7.08867">
        <ele>337.20001220703</ele>
        <time>2014-01-19T09:29:55.000Z</time>
      </trkpt>
      <trkpt lat="43.70833" lon="7.08886">
        <ele>337.20001220703</ele>
        <time>2014-01-19T09:30:00.000Z</time>
      </trkpt>
      <trkpt lat="43.70836" lon="7.08895">
        <ele>337.60000610352</ele>
        <time>2014-01-19T09:30:03.000Z</time>
      </trkpt>
      <trkpt lat="43.70837" lon="7.08899">
        <ele>337.60000610352</ele>
        <time>2014-01-19T09:30:04.000Z</time>
      </trkpt>
      <trkpt lat="43.70843" lon="7.08914">
        <ele>338.20001220703</ele>
        <time>2014-01-19T09:30:09.000Z</time>
      </trkpt>
      <trkpt lat="43.7085" lon="7.08924">
        <ele>339.20001220703</ele>
        <time>2014-01-19T09:30:14.000Z</time>
      </trkpt>
      <trkpt lat="43.70856" lon="7.0893">
        <ele>340.60000610352</ele>
        <time>2014-01-19T09:30:19.000Z</time>
      </trkpt>
      <trkpt lat="43.7086" lon="7.08936">
        <ele>341.60000610352</ele>
        <time>2014-01-19T09:30:23.000Z</time>
      </trkpt>
      <trkpt lat="43.70863" lon="7.08939">
        <ele>342.39999389648</ele>
        <time>2014-01-19T09:30:26.000Z</time>
      </trkpt>
      <trkpt lat="43.70865" lon="7.0894">
        <ele>342.79998779297</ele>
        <time>2014-01-19T09:30:27.000Z</time>
      </trkpt>
      <trkpt lat="43.70866" lon="7.08942">
        <ele>343</ele>
        <time>2014-01-19T09:30:28.000Z</time>
      </trkpt>
      <trkpt lat="43.70873" lon="7.08953">
        <ele>344.60000610352</ele>
        <time>2014-01-19T09:30:33.000Z</time>
      </trkpt>
      <trkpt lat="43.70871" lon="7.08971">
        <ele>346.20001220703</ele>
        <time>2014-01-19T09:30:39.000Z</time>
      </trkpt>
      <trkpt lat="43.70865" lon="7.08994">
        <ele>347</ele>
        <time>2014-01-19T09:30:44.000Z</time>
      </trkpt>
      <trkpt lat="43.70862" lon="7.0901">
        <ele>347.79998779297</ele>
        <time>2014-01-19T09:30:48.000Z</time>
      </trkpt>
      <trkpt lat="43.70857" lon="7.09033">
        <ele>348.39999389648</ele>
        <time>2014-01-19T09:30:53.000Z</time>
      </trkpt>
      <trkpt lat="43.70852" lon="7.09047">
        <ele>348.79998779297</ele>
        <time>2014-01-19T09:30:56.000Z</time>
      </trkpt>
      <trkpt lat="43.70849" lon="7.0905">
        <ele>348.79998779297</ele>
        <time>2014-01-19T09:30:57.000Z</time>
      </trkpt>
      <trkpt lat="43.70843" lon="7.09059">
        <ele>349.20001220703</ele>
        <time>2014-01-19T09:31:00.000Z</time>
      </trkpt>
      <trkpt lat="43.70841" lon="7.09063">
        <ele>349.39999389648</ele>
        <time>2014-01-19T09:31:01.000Z</time>
      </trkpt>
      <trkpt lat="43.70834" lon="7.09068">
        <ele>348.79998779297</ele>
        <time>2014-01-19T09:31:04.000Z</time>
      </trkpt>
      <trkpt lat="43.70832" lon="7.0907">
        <ele>348.79998779297</ele>
        <time>2014-01-19T09:31:05.000Z</time>
      </trkpt>
      <trkpt lat="43.70829" lon="7.09073">
        <ele>348.79998779297</ele>
        <time>2014-01-19T09:31:06.000Z</time>
      </trkpt>
      <trkpt lat="43.70818" lon="7.09078">
        <ele>348.60000610352</ele>
        <time>2014-01-19T09:31:09.000Z</time>
      </trkpt>
      <trkpt lat="43.70809" lon="7.0908">
        <ele>348.60000610352</ele>
        <time>2014-01-19T09:31:11.000Z</time>
      </trkpt>
      <trkpt lat="43.70786" lon="7.09077">
        <ele>348.20001220703</ele>
        <time>2014-01-19T09:31:16.000Z</time>
      </trkpt>
      <trkpt lat="43.70777" lon="7.09076">
        <ele>348</ele>
        <time>2014-01-19T09:31:18.000Z</time>
      </trkpt>
      <trkpt lat="43.70765" lon="7.09077">
        <ele>347.60000610352</ele>
        <time>2014-01-19T09:31:21.000Z</time>
      </trkpt>
      <trkpt lat="43.70744" lon="7.0908">
        <ele>347</ele>
        <time>2014-01-19T09:31:25.000Z</time>
      </trkpt>
      <trkpt lat="43.7074" lon="7.09079">
        <ele>346.79998779297</ele>
        <time>2014-01-19T09:31:26.000Z</time>
      </trkpt>
      <trkpt lat="43.70718" lon="7.09074">
        <ele>345.79998779297</ele>
        <time>2014-01-19T09:31:31.000Z</time>
      </trkpt>
      <trkpt lat="43.70701" lon="7.09071">
        <ele>345.39999389648</ele>
        <time>2014-01-19T09:31:34.000Z</time>
      </trkpt>
      <trkpt lat="43.70692" lon="7.09067">
        <ele>344.79998779297</ele>
        <time>2014-01-19T09:31:36.000Z</time>
      </trkpt>
      <trkpt lat="43.70683" lon="7.09064">
        <ele>344.60000610352</ele>
        <time>2014-01-19T09:31:38.000Z</time>
      </trkpt>
      <trkpt lat="43.70668" lon="7.09059">
        <ele>344.20001220703</ele>
        <time>2014-01-19T09:31:41.000Z</time>
      </trkpt>
      <trkpt lat="43.70657" lon="7.09054">
        <ele>344</ele>
        <time>2014-01-19T09:31:43.000Z</time>
      </trkpt>
      <trkpt lat="43.70646" lon="7.09048">
        <ele>343.60000610352</ele>
        <time>2014-01-19T09:31:45.000Z</time>
      </trkpt>
      <trkpt lat="43.70628" lon="7.09043">
        <ele>343.20001220703</ele>
        <time>2014-01-19T09:31:48.000Z</time>
      </trkpt>
      <trkpt lat="43.70622" lon="7.09044">
        <ele>343</ele>
        <time>2014-01-19T09:31:49.000Z</time>
      </trkpt>
      <trkpt lat="43.70618" lon="7.09045">
        <ele>342.79998779297</ele>
        <time>2014-01-19T09:31:50.000Z</time>
      </trkpt>
      <trkpt lat="43.70601" lon="7.09042">
        <ele>342.39999389648</ele>
        <time>2014-01-19T09:31:53.000Z</time>
      </trkpt>
      <trkpt lat="43.70588" lon="7.09042">
        <ele>342</ele>
        <time>2014-01-19T09:31:55.000Z</time>
      </trkpt>
      <trkpt lat="43.70564" lon="7.09051">
        <ele>341.39999389648</ele>
        <time>2014-01-19T09:31:59.000Z</time>
      </trkpt>
      <trkpt lat="43.70549" lon="7.09061">
        <ele>341</ele>
        <time>2014-01-19T09:32:02.000Z</time>
      </trkpt>
      <trkpt lat="43.70541" lon="7.09073">
        <ele>340.79998779297</ele>
        <time>2014-01-19T09:32:04.000Z</time>
      </trkpt>
      <trkpt lat="43.70535" lon="7.09088">
        <ele>340.39999389648</ele>
        <time>2014-01-19T09:32:07.000Z</time>
      </trkpt>
      <trkpt lat="43.70533" lon="7.09094">
        <ele>340.20001220703</ele>
        <time>2014-01-19T09:32:08.000Z</time>
      </trkpt>
      <trkpt lat="43.70531" lon="7.09095">
        <ele>340.20001220703</ele>
        <time>2014-01-19T09:32:09.000Z</time>
      </trkpt>
      <trkpt lat="43.70527" lon="7.09111">
        <ele>340</ele>
        <time>2014-01-19T09:32:12.000Z</time>
      </trkpt>
      <trkpt lat="43.70526" lon="7.09118">
        <ele>340</ele>
        <time>2014-01-19T09:32:13.000Z</time>
      </trkpt>
      <trkpt lat="43.70525" lon="7.09143">
        <ele>339.79998779297</ele>
        <time>2014-01-19T09:32:16.000Z</time>
      </trkpt>
      <trkpt lat="43.70527" lon="7.09185">
        <ele>340.20001220703</ele>
        <time>2014-01-19T09:32:21.000Z</time>
      </trkpt>
      <trkpt lat="43.7053" lon="7.09185">
        <ele>340.79998779297</ele>
        <time>2014-01-19T09:32:24.000Z</time>
      </trkpt>
      <trkpt lat="43.70535" lon="7.09188">
        <ele>342.79998779297</ele>
        <time>2014-01-19T09:32:29.000Z</time>
      </trkpt>
      <trkpt lat="43.70539" lon="7.09194">
        <ele>344.20001220703</ele>
        <time>2014-01-19T09:32:33.000Z</time>
      </trkpt>
      <trkpt lat="43.70539" lon="7.09198">
        <ele>344.60000610352</ele>
        <time>2014-01-19T09:32:34.000Z</time>
      </trkpt>
      <trkpt lat="43.7054" lon="7.09205">
        <ele>345.39999389648</ele>
        <time>2014-01-19T09:32:36.000Z</time>
      </trkpt>
      <trkpt lat="43.70546" lon="7.09216">
        <ele>346.79998779297</ele>
        <time>2014-01-19T09:32:39.000Z</time>
      </trkpt>
      <trkpt lat="43.70546" lon="7.09219">
        <ele>347.20001220703</ele>
        <time>2014-01-19T09:32:40.000Z</time>
      </trkpt>
      <trkpt lat="43.70548" lon="7.09232">
        <ele>348.60000610352</ele>
        <time>2014-01-19T09:32:44.000Z</time>
      </trkpt>
      <trkpt lat="43.70554" lon="7.09243">
        <ele>351.39999389648</ele>
        <time>2014-01-19T09:32:49.000Z</time>
      </trkpt>
      <trkpt lat="43.70555" lon="7.09246">
        <ele>352.60000610352</ele>
        <time>2014-01-19T09:32:51.000Z</time>
      </trkpt>
      <trkpt lat="43.70556" lon="7.09249">
        <ele>353.20001220703</ele>
        <time>2014-01-19T09:32:52.000Z</time>
      </trkpt>
      <trkpt lat="43.70557" lon="7.09254">
        <ele>355.20001220703</ele>
        <time>2014-01-19T09:32:55.000Z</time>
      </trkpt>
      <trkpt lat="43.70563" lon="7.09265">
        <ele>359</ele>
        <time>2014-01-19T09:33:01.000Z</time>
      </trkpt>
      <trkpt lat="43.70569" lon="7.09275">
        <ele>364</ele>
        <time>2014-01-19T09:33:07.000Z</time>
      </trkpt>
      <trkpt lat="43.70571" lon="7.09276">
        <ele>364.20001220703</ele>
        <time>2014-01-19T09:33:08.000Z</time>
      </trkpt>
      <trkpt lat="43.70576" lon="7.0928">
        <ele>366</ele>
        <time>2014-01-19T09:33:11.000Z</time>
      </trkpt>
      <trkpt lat="43.70579" lon="7.0928">
        <ele>367.20001220703</ele>
        <time>2014-01-19T09:33:13.000Z</time>
      </trkpt>
      <trkpt lat="43.70588" lon="7.09284">
        <ele>371.20001220703</ele>
        <time>2014-01-19T09:33:19.000Z</time>
      </trkpt>
      <trkpt lat="43.70597" lon="7.0928">
        <ele>372.79998779297</ele>
        <time>2014-01-19T09:33:23.000Z</time>
      </trkpt>
      <trkpt lat="43.70599" lon="7.09279">
        <ele>373.20001220703</ele>
        <time>2014-01-19T09:33:24.000Z</time>
      </trkpt>
      <trkpt lat="43.70602" lon="7.09277">
        <ele>375.79998779297</ele>
        <time>2014-01-19T09:33:28.000Z</time>
      </trkpt>
      <trkpt lat="43.70604" lon="7.09276">
        <ele>376.39999389648</ele>
        <time>2014-01-19T09:33:29.000Z</time>
      </trkpt>
      <trkpt lat="43.70615" lon="7.09272">
        <ele>378.79998779297</ele>
        <time>2014-01-19T09:33:34.000Z</time>
      </trkpt>
      <trkpt lat="43.70618" lon="7.0927">
        <ele>379.39999389648</ele>
        <time>2014-01-19T09:33:35.000Z</time>
      </trkpt>
      <trkpt lat="43.70629" lon="7.09264">
        <ele>381</ele>
        <time>2014-01-19T09:33:39.000Z</time>
      </trkpt>
      <trkpt lat="43.70644" lon="7.09253">
        <ele>382.79998779297</ele>
        <time>2014-01-19T09:33:44.000Z</time>
      </trkpt>
      <trkpt lat="43.7066" lon="7.09242">
        <ele>384.60000610352</ele>
        <time>2014-01-19T09:33:48.000Z</time>
      </trkpt>
      <trkpt lat="43.70679" lon="7.09233">
        <ele>386.39999389648</ele>
        <time>2014-01-19T09:33:53.000Z</time>
      </trkpt>
      <trkpt lat="43.70683" lon="7.0923">
        <ele>386.60000610352</ele>
        <time>2014-01-19T09:33:54.000Z</time>
      </trkpt>
      <trkpt lat="43.70696" lon="7.09219">
        <ele>387.20001220703</ele>
        <time>2014-01-19T09:33:57.000Z</time>
      </trkpt>
      <trkpt lat="43.70713" lon="7.09196">
        <ele>387.39999389648</ele>
        <time>2014-01-19T09:34:01.000Z</time>
      </trkpt>
      <trkpt lat="43.70718" lon="7.09193">
        <ele>387.60000610352</ele>
        <time>2014-01-19T09:34:02.000Z</time>
      </trkpt>
      <trkpt lat="43.70727" lon="7.09192">
        <ele>387.60000610352</ele>
        <time>2014-01-19T09:34:04.000Z</time>
      </trkpt>
      <trkpt lat="43.70736" lon="7.09192">
        <ele>387.60000610352</ele>
        <time>2014-01-19T09:34:06.000Z</time>
      </trkpt>
      <trkpt lat="43.70748" lon="7.0919">
        <ele>387.79998779297</ele>
        <time>2014-01-19T09:34:08.000Z</time>
      </trkpt>
      <trkpt lat="43.70762" lon="7.0918">
        <ele>388.60000610352</ele>
        <time>2014-01-19T09:34:11.000Z</time>
      </trkpt>
      <trkpt lat="43.70776" lon="7.0917">
        <ele>388</ele>
        <time>2014-01-19T09:34:14.000Z</time>
      </trkpt>
      <trkpt lat="43.70782" lon="7.09166">
        <ele>387.79998779297</ele>
        <time>2014-01-19T09:34:15.000Z</time>
      </trkpt>
      <trkpt lat="43.70791" lon="7.09157">
        <ele>387.60000610352</ele>
        <time>2014-01-19T09:34:17.000Z</time>
      </trkpt>
      <trkpt lat="43.70804" lon="7.0914">
        <ele>387.20001220703</ele>
        <time>2014-01-19T09:34:20.000Z</time>
      </trkpt>
      <trkpt lat="43.70808" lon="7.09135">
        <ele>387</ele>
        <time>2014-01-19T09:34:21.000Z</time>
      </trkpt>
      <trkpt lat="43.70822" lon="7.09121">
        <ele>386.60000610352</ele>
        <time>2014-01-19T09:34:24.000Z</time>
      </trkpt>
      <trkpt lat="43.70839" lon="7.09111">
        <ele>386.39999389648</ele>
        <time>2014-01-19T09:34:27.000Z</time>
      </trkpt>
      <trkpt lat="43.70844" lon="7.09111">
        <ele>386.39999389648</ele>
        <time>2014-01-19T09:34:28.000Z</time>
      </trkpt>
      <trkpt lat="43.70861" lon="7.09108">
        <ele>386.39999389648</ele>
        <time>2014-01-19T09:34:31.000Z</time>
      </trkpt>
      <trkpt lat="43.70867" lon="7.09106">
        <ele>386.39999389648</ele>
        <time>2014-01-19T09:34:33.000Z</time>
      </trkpt>
      <trkpt lat="43.70887" lon="7.09097">
        <ele>387</ele>
        <time>2014-01-19T09:34:37.000Z</time>
      </trkpt>
      <trkpt lat="43.70897" lon="7.09094">
        <ele>387.60000610352</ele>
        <time>2014-01-19T09:34:39.000Z</time>
      </trkpt>
      <trkpt lat="43.70919" lon="7.09089">
        <ele>388.39999389648</ele>
        <time>2014-01-19T09:34:43.000Z</time>
      </trkpt>
      <trkpt lat="43.70937" lon="7.09077">
        <ele>388.79998779297</ele>
        <time>2014-01-19T09:34:47.000Z</time>
      </trkpt>
      <trkpt lat="43.70941" lon="7.09072">
        <ele>388.79998779297</ele>
        <time>2014-01-19T09:34:48.000Z</time>
      </trkpt>
      <trkpt lat="43.70969" lon="7.09053">
        <ele>388.79998779297</ele>
        <time>2014-01-19T09:34:53.000Z</time>
      </trkpt>
      <trkpt lat="43.70991" lon="7.09049">
        <ele>387.60000610352</ele>
        <time>2014-01-19T09:34:56.000Z</time>
      </trkpt>
      <trkpt lat="43.71" lon="7.09046">
        <ele>387.20001220703</ele>
        <time>2014-01-19T09:34:57.000Z</time>
      </trkpt>
      <trkpt lat="43.71021" lon="7.0903">
        <ele>386.20001220703</ele>
        <time>2014-01-19T09:35:00.000Z</time>
      </trkpt>
      <trkpt lat="43.71027" lon="7.09025">
        <ele>385.79998779297</ele>
        <time>2014-01-19T09:35:01.000Z</time>
      </trkpt>
      <trkpt lat="43.71039" lon="7.09013">
        <ele>385</ele>
        <time>2014-01-19T09:35:03.000Z</time>
      </trkpt>
      <trkpt lat="43.71047" lon="7.08992">
        <ele>384.20001220703</ele>
        <time>2014-01-19T09:35:05.000Z</time>
      </trkpt>
      <trkpt lat="43.71068" lon="7.0894">
        <ele>382</ele>
        <time>2014-01-19T09:35:10.000Z</time>
      </trkpt>
      <trkpt lat="43.71089" lon="7.0892">
        <ele>380.79998779297</ele>
        <time>2014-01-19T09:35:13.000Z</time>
      </trkpt>
      <trkpt lat="43.71115" lon="7.08922">
        <ele>379.39999389648</ele>
        <time>2014-01-19T09:35:16.000Z</time>
      </trkpt>
      <trkpt lat="43.71142" lon="7.08919">
        <ele>377.60000610352</ele>
        <time>2014-01-19T09:35:20.000Z</time>
      </trkpt>
      <trkpt lat="43.71147" lon="7.08917">
        <ele>377.20001220703</ele>
        <time>2014-01-19T09:35:21.000Z</time>
      </trkpt>
      <trkpt lat="43.71171" lon="7.0891">
        <ele>375.39999389648</ele>
        <time>2014-01-19T09:35:25.000Z</time>
      </trkpt>
      <trkpt lat="43.71176" lon="7.0891">
        <ele>375</ele>
        <time>2014-01-19T09:35:26.000Z</time>
      </trkpt>
      <trkpt lat="43.7119" lon="7.08917">
        <ele>373.79998779297</ele>
        <time>2014-01-19T09:35:29.000Z</time>
      </trkpt>
      <trkpt lat="43.71195" lon="7.08921">
        <ele>373.39999389648</ele>
        <time>2014-01-19T09:35:30.000Z</time>
      </trkpt>
      <trkpt lat="43.71204" lon="7.08931">
        <ele>372.39999389648</ele>
        <time>2014-01-19T09:35:33.000Z</time>
      </trkpt>
      <trkpt lat="43.71207" lon="7.08932">
        <ele>372.20001220703</ele>
        <time>2014-01-19T09:35:34.000Z</time>
      </trkpt>
      <trkpt lat="43.71217" lon="7.08927">
        <ele>371.20001220703</ele>
        <time>2014-01-19T09:35:37.000Z</time>
      </trkpt>
      <trkpt lat="43.7123" lon="7.08901">
        <ele>370</ele>
        <time>2014-01-19T09:35:41.000Z</time>
      </trkpt>
      <trkpt lat="43.71233" lon="7.08895">
        <ele>369.60000610352</ele>
        <time>2014-01-19T09:35:42.000Z</time>
      </trkpt>
      <trkpt lat="43.71238" lon="7.08889">
        <ele>369.20001220703</ele>
        <time>2014-01-19T09:35:43.000Z</time>
      </trkpt>
      <trkpt lat="43.71247" lon="7.08876">
        <ele>368.60000610352</ele>
        <time>2014-01-19T09:35:45.000Z</time>
      </trkpt>
      <trkpt lat="43.71261" lon="7.08873">
        <ele>367.79998779297</ele>
        <time>2014-01-19T09:35:48.000Z</time>
      </trkpt>
      <trkpt lat="43.71275" lon="7.08876">
        <ele>366.79998779297</ele>
        <time>2014-01-19T09:35:51.000Z</time>
      </trkpt>
      <trkpt lat="43.71278" lon="7.08876">
        <ele>366.60000610352</ele>
        <time>2014-01-19T09:35:52.000Z</time>
      </trkpt>
      <trkpt lat="43.71307" lon="7.0888">
        <ele>365</ele>
        <time>2014-01-19T09:35:57.000Z</time>
      </trkpt>
      <trkpt lat="43.71324" lon="7.08889">
        <ele>363.79998779297</ele>
        <time>2014-01-19T09:36:01.000Z</time>
      </trkpt>
      <trkpt lat="43.71334" lon="7.08883">
        <ele>363</ele>
        <time>2014-01-19T09:36:04.000Z</time>
      </trkpt>
      <trkpt lat="43.71342" lon="7.08868">
        <ele>362.20001220703</ele>
        <time>2014-01-19T09:36:07.000Z</time>
      </trkpt>
      <trkpt lat="43.7134" lon="7.0885">
        <ele>361.39999389648</ele>
        <time>2014-01-19T09:36:10.000Z</time>
      </trkpt>
      <trkpt lat="43.71338" lon="7.08841">
        <ele>361</ele>
        <time>2014-01-19T09:36:11.000Z</time>
      </trkpt>
      <trkpt lat="43.71332" lon="7.08816">
        <ele>360</ele>
        <time>2014-01-19T09:36:14.000Z</time>
      </trkpt>
      <trkpt lat="43.71325" lon="7.08804">
        <ele>359.60000610352</ele>
        <time>2014-01-19T09:36:16.000Z</time>
      </trkpt>
      <trkpt lat="43.71315" lon="7.08803">
        <ele>359.20001220703</ele>
        <time>2014-01-19T09:36:17.000Z</time>
      </trkpt>
      <trkpt lat="43.71294" lon="7.08806">
        <ele>358.20001220703</ele>
        <time>2014-01-19T09:36:20.000Z</time>
      </trkpt>
      <trkpt lat="43.71276" lon="7.08816">
        <ele>357.39999389648</ele>
        <time>2014-01-19T09:36:23.000Z</time>
      </trkpt>
      <trkpt lat="43.71269" lon="7.08823">
        <ele>357</ele>
        <time>2014-01-19T09:36:25.000Z</time>
      </trkpt>
      <trkpt lat="43.7125" lon="7.08837">
        <ele>356</ele>
        <time>2014-01-19T09:36:29.000Z</time>
      </trkpt>
      <trkpt lat="43.71241" lon="7.08843">
        <ele>355.60000610352</ele>
        <time>2014-01-19T09:36:31.000Z</time>
      </trkpt>
      <trkpt lat="43.71224" lon="7.0885">
        <ele>355</ele>
        <time>2014-01-19T09:36:34.000Z</time>
      </trkpt>
      <trkpt lat="43.71213" lon="7.08856">
        <ele>354.60000610352</ele>
        <time>2014-01-19T09:36:36.000Z</time>
      </trkpt>
      <trkpt lat="43.71204" lon="7.08875">
        <ele>354</ele>
        <time>2014-01-19T09:36:39.000Z</time>
      </trkpt>
      <trkpt lat="43.71202" lon="7.0888">
        <ele>353.79998779297</ele>
        <time>2014-01-19T09:36:40.000Z</time>
      </trkpt>
      <trkpt lat="43.71196" lon="7.08895">
        <ele>353.39999389648</ele>
        <time>2014-01-19T09:36:43.000Z</time>
      </trkpt>
      <trkpt lat="43.71193" lon="7.08899">
        <ele>353.20001220703</ele>
        <time>2014-01-19T09:36:44.000Z</time>
      </trkpt>
      <trkpt lat="43.71179" lon="7.089">
        <ele>353</ele>
        <time>2014-01-19T09:36:48.000Z</time>
      </trkpt>
      <trkpt lat="43.71161" lon="7.08904">
        <ele>352.39999389648</ele>
        <time>2014-01-19T09:36:51.000Z</time>
      </trkpt>
      <trkpt lat="43.71153" lon="7.08907">
        <ele>352</ele>
        <time>2014-01-19T09:36:54.000Z</time>
      </trkpt>
      <trkpt lat="43.7115" lon="7.08909">
        <ele>351.79998779297</ele>
        <time>2014-01-19T09:36:55.000Z</time>
      </trkpt>
      <trkpt lat="43.71147" lon="7.08909">
        <ele>351.79998779297</ele>
        <time>2014-01-19T09:36:57.000Z</time>
      </trkpt>
      <trkpt lat="43.71138" lon="7.08908">
        <ele>351.39999389648</ele>
        <time>2014-01-19T09:36:59.000Z</time>
      </trkpt>
      <trkpt lat="43.71123" lon="7.0891">
        <ele>351</ele>
        <time>2014-01-19T09:37:03.000Z</time>
      </trkpt>
      <trkpt lat="43.71107" lon="7.08907">
        <ele>350.60000610352</ele>
        <time>2014-01-19T09:37:07.000Z</time>
      </trkpt>
      <trkpt lat="43.71095" lon="7.0891">
        <ele>350.20001220703</ele>
        <time>2014-01-19T09:37:11.000Z</time>
      </trkpt>
      <trkpt lat="43.71082" lon="7.08908">
        <ele>349.60000610352</ele>
        <time>2014-01-19T09:37:16.000Z</time>
      </trkpt>
      <trkpt lat="43.71076" lon="7.08917">
        <ele>349.20001220703</ele>
        <time>2014-01-19T09:37:20.000Z</time>
      </trkpt>
      <trkpt lat="43.71067" lon="7.0892">
        <ele>348.79998779297</ele>
        <time>2014-01-19T09:37:24.000Z</time>
      </trkpt>
      <trkpt lat="43.71054" lon="7.08916">
        <ele>348.60000610352</ele>
        <time>2014-01-19T09:37:28.000Z</time>
      </trkpt>
      <trkpt lat="43.71049" lon="7.08913">
        <ele>348.39999389648</ele>
        <time>2014-01-19T09:37:30.000Z</time>
      </trkpt>
      <trkpt lat="43.71045" lon="7.08913">
        <ele>348.39999389648</ele>
        <time>2014-01-19T09:37:31.000Z</time>
      </trkpt>
      <trkpt lat="43.71042" lon="7.08914">
        <ele>348.20001220703</ele>
        <time>2014-01-19T09:37:32.000Z</time>
      </trkpt>
      <trkpt lat="43.71028" lon="7.08914">
        <ele>348</ele>
        <time>2014-01-19T09:37:36.000Z</time>
      </trkpt>
      <trkpt lat="43.71012" lon="7.08929">
        <ele>347.60000610352</ele>
        <time>2014-01-19T09:37:42.000Z</time>
      </trkpt>
      <trkpt lat="43.71005" lon="7.08934">
        <ele>347.39999389648</ele>
        <time>2014-01-19T09:37:46.000Z</time>
      </trkpt>
      <trkpt lat="43.70994" lon="7.08949">
        <ele>347</ele>
        <time>2014-01-19T09:37:51.000Z</time>
      </trkpt>
      <trkpt lat="43.70984" lon="7.08956">
        <ele>346.60000610352</ele>
        <time>2014-01-19T09:37:56.000Z</time>
      </trkpt>
      <trkpt lat="43.7097" lon="7.08961">
        <ele>346.60000610352</ele>
        <time>2014-01-19T09:38:00.000Z</time>
      </trkpt>
      <trkpt lat="43.70954" lon="7.08969">
        <ele>346.39999389648</ele>
        <time>2014-01-19T09:38:05.000Z</time>
      </trkpt>
      <trkpt lat="43.70935" lon="7.08974">
        <ele>346.39999389648</ele>
        <time>2014-01-19T09:38:10.000Z</time>
      </trkpt>
      <trkpt lat="43.70923" lon="7.08974">
        <ele>346</ele>
        <time>2014-01-19T09:38:14.000Z</time>
      </trkpt>
      <trkpt lat="43.70905" lon="7.08976">
        <ele>345.79998779297</ele>
        <time>2014-01-19T09:38:19.000Z</time>
      </trkpt>
      <trkpt lat="43.70903" lon="7.08973">
        <ele>345.79998779297</ele>
        <time>2014-01-19T09:38:20.000Z</time>
      </trkpt>
      <trkpt lat="43.70892" lon="7.08964">
        <ele>345.60000610352</ele>
        <time>2014-01-19T09:38:23.000Z</time>
      </trkpt>
      <trkpt lat="43.70885" lon="7.08942">
        <ele>345</ele>
        <time>2014-01-19T09:38:26.000Z</time>
      </trkpt>
      <trkpt lat="43.70884" lon="7.08929">
        <ele>345</ele>
        <time>2014-01-19T09:38:27.000Z</time>
      </trkpt>
      <trkpt lat="43.70876" lon="7.08887">
        <ele>344</ele>
        <time>2014-01-19T09:38:30.000Z</time>
      </trkpt>
      <trkpt lat="43.70873" lon="7.08858">
        <ele>343.39999389648</ele>
        <time>2014-01-19T09:38:32.000Z</time>
      </trkpt>
      <trkpt lat="43.7087" lon="7.08825">
        <ele>342.79998779297</ele>
        <time>2014-01-19T09:38:34.000Z</time>
      </trkpt>
      <trkpt lat="43.70867" lon="7.08808">
        <ele>342.39999389648</ele>
        <time>2014-01-19T09:38:35.000Z</time>
      </trkpt>
      <trkpt lat="43.70856" lon="7.08781">
        <ele>341.79998779297</ele>
        <time>2014-01-19T09:38:37.000Z</time>
      </trkpt>
      <trkpt lat="43.70837" lon="7.08733">
        <ele>340.39999389648</ele>
        <time>2014-01-19T09:38:41.000Z</time>
      </trkpt>
      <trkpt lat="43.70829" lon="7.08709">
        <ele>339.60000610352</ele>
        <time>2014-01-19T09:38:43.000Z</time>
      </trkpt>
      <trkpt lat="43.70821" lon="7.08686">
        <ele>339</ele>
        <time>2014-01-19T09:38:45.000Z</time>
      </trkpt>
      <trkpt lat="43.70795" lon="7.08665">
        <ele>338</ele>
        <time>2014-01-19T09:38:48.000Z</time>
      </trkpt>
      <trkpt lat="43.7076" lon="7.08654">
        <ele>337.20001220703</ele>
        <time>2014-01-19T09:38:51.000Z</time>
      </trkpt>
      <trkpt lat="43.70722" lon="7.08639">
        <ele>336.20001220703</ele>
        <time>2014-01-19T09:38:55.000Z</time>
      </trkpt>
      <trkpt lat="43.70712" lon="7.08636">
        <ele>335.79998779297</ele>
        <time>2014-01-19T09:38:56.000Z</time>
      </trkpt>
      <trkpt lat="43.70679" lon="7.08622">
        <ele>335</ele>
        <time>2014-01-19T09:39:00.000Z</time>
      </trkpt>
      <trkpt lat="43.70668" lon="7.08623">
        <ele>334.79998779297</ele>
        <time>2014-01-19T09:39:01.000Z</time>
      </trkpt>
      <trkpt lat="43.70642" lon="7.08629">
        <ele>334</ele>
        <time>2014-01-19T09:39:04.000Z</time>
      </trkpt>
      <trkpt lat="43.70618" lon="7.08634">
        <ele>333.39999389648</ele>
        <time>2014-01-19T09:39:07.000Z</time>
      </trkpt>
      <trkpt lat="43.70609" lon="7.08632">
        <ele>333.39999389648</ele>
        <time>2014-01-19T09:39:08.000Z</time>
      </trkpt>
      <trkpt lat="43.70582" lon="7.08626">
        <ele>333</ele>
        <time>2014-01-19T09:39:11.000Z</time>
      </trkpt>
      <trkpt lat="43.70552" lon="7.08617">
        <ele>332.39999389648</ele>
        <time>2014-01-19T09:39:15.000Z</time>
      </trkpt>
      <trkpt lat="43.70546" lon="7.0861">
        <ele>332.20001220703</ele>
        <time>2014-01-19T09:39:16.000Z</time>
      </trkpt>
      <trkpt lat="43.7053" lon="7.08588">
        <ele>331.79998779297</ele>
        <time>2014-01-19T09:39:19.000Z</time>
      </trkpt>
      <trkpt lat="43.70526" lon="7.08582">
        <ele>331.79998779297</ele>
        <time>2014-01-19T09:39:20.000Z</time>
      </trkpt>
      <trkpt lat="43.70521" lon="7.08576">
        <ele>331.60000610352</ele>
        <time>2014-01-19T09:39:21.000Z</time>
      </trkpt>
      <trkpt lat="43.70503" lon="7.08558">
        <ele>331.20001220703</ele>
        <time>2014-01-19T09:39:25.000Z</time>
      </trkpt>
      <trkpt lat="43.70489" lon="7.08542">
        <ele>331</ele>
        <time>2014-01-19T09:39:28.000Z</time>
      </trkpt>
      <trkpt lat="43.70476" lon="7.08536">
        <ele>330.79998779297</ele>
        <time>2014-01-19T09:39:30.000Z</time>
      </trkpt>
      <trkpt lat="43.70458" lon="7.08525">
        <ele>330.60000610352</ele>
        <time>2014-01-19T09:39:33.000Z</time>
      </trkpt>
      <trkpt lat="43.70453" lon="7.08522">
        <ele>330.60000610352</ele>
        <time>2014-01-19T09:39:34.000Z</time>
      </trkpt>
      <trkpt lat="43.70448" lon="7.0852">
        <ele>330.39999389648</ele>
        <time>2014-01-19T09:39:35.000Z</time>
      </trkpt>
      <trkpt lat="43.70435" lon="7.08515">
        <ele>330.20001220703</ele>
        <time>2014-01-19T09:39:38.000Z</time>
      </trkpt>
      <trkpt lat="43.70425" lon="7.08514">
        <ele>330.20001220703</ele>
        <time>2014-01-19T09:39:40.000Z</time>
      </trkpt>
      <trkpt lat="43.70416" lon="7.08512">
        <ele>330</ele>
        <time>2014-01-19T09:39:42.000Z</time>
      </trkpt>
      <trkpt lat="43.70406" lon="7.08511">
        <ele>329.79998779297</ele>
        <time>2014-01-19T09:39:44.000Z</time>
      </trkpt>
      <trkpt lat="43.70389" lon="7.08511">
        <ele>329.39999389648</ele>
        <time>2014-01-19T09:39:47.000Z</time>
      </trkpt>
      <trkpt lat="43.70371" lon="7.08505">
        <ele>329.20001220703</ele>
        <time>2014-01-19T09:39:50.000Z</time>
      </trkpt>
      <trkpt lat="43.70365" lon="7.08505">
        <ele>329.20001220703</ele>
        <time>2014-01-19T09:39:51.000Z</time>
      </trkpt>
      <trkpt lat="43.70354" lon="7.08501">
        <ele>329</ele>
        <time>2014-01-19T09:39:53.000Z</time>
      </trkpt>
      <trkpt lat="43.70346" lon="7.08494">
        <ele>329</ele>
        <time>2014-01-19T09:39:55.000Z</time>
      </trkpt>
      <trkpt lat="43.70342" lon="7.08491">
        <ele>329</ele>
        <time>2014-01-19T09:39:56.000Z</time>
      </trkpt>
      <trkpt lat="43.70331" lon="7.08479">
        <ele>328.79998779297</ele>
        <time>2014-01-19T09:39:59.000Z</time>
      </trkpt>
      <trkpt lat="43.70323" lon="7.08456">
        <ele>328.39999389648</ele>
        <time>2014-01-19T09:40:03.000Z</time>
      </trkpt>
      <trkpt lat="43.70322" lon="7.0845">
        <ele>328.39999389648</ele>
        <time>2014-01-19T09:40:04.000Z</time>
      </trkpt>
      <trkpt lat="43.70315" lon="7.0843">
        <ele>328.20001220703</ele>
        <time>2014-01-19T09:40:07.000Z</time>
      </trkpt>
      <trkpt lat="43.7031" lon="7.08419">
        <ele>328.20001220703</ele>
        <time>2014-01-19T09:40:09.000Z</time>
      </trkpt>
      <trkpt lat="43.70306" lon="7.08393">
        <ele>327.79998779297</ele>
        <time>2014-01-19T09:40:13.000Z</time>
      </trkpt>
      <trkpt lat="43.70295" lon="7.08362">
        <ele>327.39999389648</ele>
        <time>2014-01-19T09:40:17.000Z</time>
      </trkpt>
      <trkpt lat="43.70293" lon="7.08356">
        <ele>327.20001220703</ele>
        <time>2014-01-19T09:40:18.000Z</time>
      </trkpt>
      <trkpt lat="43.7029" lon="7.08347">
        <ele>327.20001220703</ele>
        <time>2014-01-19T09:40:19.000Z</time>
      </trkpt>
      <trkpt lat="43.70285" lon="7.08333">
        <ele>327</ele>
        <time>2014-01-19T09:40:21.000Z</time>
      </trkpt>
      <trkpt lat="43.70278" lon="7.08317">
        <ele>326.79998779297</ele>
        <time>2014-01-19T09:40:24.000Z</time>
      </trkpt>
      <trkpt lat="43.70276" lon="7.08312">
        <ele>326.60000610352</ele>
        <time>2014-01-19T09:40:25.000Z</time>
      </trkpt>
      <trkpt lat="43.70268" lon="7.08307">
        <ele>326.39999389648</ele>
        <time>2014-01-19T09:40:29.000Z</time>
      </trkpt>
      <trkpt lat="43.7026" lon="7.08306">
        <ele>326.20001220703</ele>
        <time>2014-01-19T09:40:32.000Z</time>
      </trkpt>
      <trkpt lat="43.70255" lon="7.083">
        <ele>326</ele>
        <time>2014-01-19T09:40:35.000Z</time>
      </trkpt>
      <trkpt lat="43.70245" lon="7.0829">
        <ele>326.39999389648</ele>
        <time>2014-01-19T09:40:41.000Z</time>
      </trkpt>
      <trkpt lat="43.70232" lon="7.08272">
        <ele>328.20001220703</ele>
        <time>2014-01-19T09:40:47.000Z</time>
      </trkpt>
      <trkpt lat="43.70226" lon="7.08238">
        <ele>328.60000610352</ele>
        <time>2014-01-19T09:40:52.000Z</time>
      </trkpt>
      <trkpt lat="43.70219" lon="7.08233">
        <ele>329</ele>
        <time>2014-01-19T09:40:53.000Z</time>
      </trkpt>
      <trkpt lat="43.70209" lon="7.08219">
        <ele>329</ele>
        <time>2014-01-19T09:40:55.000Z</time>
      </trkpt>
      <trkpt lat="43.70185" lon="7.082">
        <ele>329.20001220703</ele>
        <time>2014-01-19T09:41:00.000Z</time>
      </trkpt>
      <trkpt lat="43.70179" lon="7.08184">
        <ele>329.39999389648</ele>
        <time>2014-01-19T09:41:04.000Z</time>
      </trkpt>
      <trkpt lat="43.70171" lon="7.08167">
        <ele>329.39999389648</ele>
        <time>2014-01-19T09:41:08.000Z</time>
      </trkpt>
      <trkpt lat="43.7017" lon="7.08158">
        <ele>329.20001220703</ele>
        <time>2014-01-19T09:41:10.000Z</time>
      </trkpt>
      <trkpt lat="43.70166" lon="7.08137">
        <ele>329</ele>
        <time>2014-01-19T09:41:14.000Z</time>
      </trkpt>
      <trkpt lat="43.70161" lon="7.08134">
        <ele>329</ele>
        <time>2014-01-19T09:41:16.000Z</time>
      </trkpt>
      <trkpt lat="43.70152" lon="7.08129">
        <ele>328.79998779297</ele>
        <time>2014-01-19T09:41:19.000Z</time>
      </trkpt>
      <trkpt lat="43.70136" lon="7.0812">
        <ele>328.39999389648</ele>
        <time>2014-01-19T09:41:24.000Z</time>
      </trkpt>
      <trkpt lat="43.70116" lon="7.08102">
        <ele>328</ele>
        <time>2014-01-19T09:41:31.000Z</time>
      </trkpt>
      <trkpt lat="43.70103" lon="7.08087">
        <ele>327.60000610352</ele>
        <time>2014-01-19T09:41:36.000Z</time>
      </trkpt>
      <trkpt lat="43.70091" lon="7.08074">
        <ele>327.79998779297</ele>
        <time>2014-01-19T09:41:40.000Z</time>
      </trkpt>
      <trkpt lat="43.70089" lon="7.08073">
        <ele>328</ele>
        <time>2014-01-19T09:41:41.000Z</time>
      </trkpt>
      <trkpt lat="43.70078" lon="7.08073">
        <ele>327.79998779297</ele>
        <time>2014-01-19T09:41:45.000Z</time>
      </trkpt>
      <trkpt lat="43.70066" lon="7.08083">
        <ele>327.79998779297</ele>
        <time>2014-01-19T09:41:50.000Z</time>
      </trkpt>
      <trkpt lat="43.70057" lon="7.08099">
        <ele>327.79998779297</ele>
        <time>2014-01-19T09:41:56.000Z</time>
      </trkpt>
      <trkpt lat="43.70053" lon="7.08109">
        <ele>327.60000610352</ele>
        <time>2014-01-19T09:42:00.000Z</time>
      </trkpt>
      <trkpt lat="43.70052" lon="7.08111">
        <ele>327.60000610352</ele>
        <time>2014-01-19T09:42:01.000Z</time>
      </trkpt>
      <trkpt lat="43.70044" lon="7.08124">
        <ele>327.60000610352</ele>
        <time>2014-01-19T09:42:06.000Z</time>
      </trkpt>
      <trkpt lat="43.70033" lon="7.08142">
        <ele>327.39999389648</ele>
        <time>2014-01-19T09:42:13.000Z</time>
      </trkpt>
      <trkpt lat="43.70024" lon="7.08156">
        <ele>328</ele>
        <time>2014-01-19T09:42:18.000Z</time>
      </trkpt>
      <trkpt lat="43.70015" lon="7.0817">
        <ele>328.79998779297</ele>
        <time>2014-01-19T09:42:24.000Z</time>
      </trkpt>
      <trkpt lat="43.70007" lon="7.08189">
        <ele>329.39999389648</ele>
        <time>2014-01-19T09:42:30.000Z</time>
      </trkpt>
      <trkpt lat="43.69992" lon="7.08201">
        <ele>330</ele>
        <time>2014-01-19T09:42:35.000Z</time>
      </trkpt>
      <trkpt lat="43.69979" lon="7.08194">
        <ele>330.39999389648</ele>
        <time>2014-01-19T09:42:39.000Z</time>
      </trkpt>
      <trkpt lat="43.69966" lon="7.08173">
        <ele>331.60000610352</ele>
        <time>2014-01-19T09:42:45.000Z</time>
      </trkpt>
      <trkpt lat="43.69948" lon="7.08154">
        <ele>332.39999389648</ele>
        <time>2014-01-19T09:42:51.000Z</time>
      </trkpt>
      <trkpt lat="43.69929" lon="7.08137">
        <ele>333.39999389648</ele>
        <time>2014-01-19T09:42:56.000Z</time>
      </trkpt>
      <trkpt lat="43.69924" lon="7.08135">
        <ele>333.39999389648</ele>
        <time>2014-01-19T09:42:57.000Z</time>
      </trkpt>
      <trkpt lat="43.69914" lon="7.08137">
        <ele>333.60000610352</ele>
        <time>2014-01-19T09:42:59.000Z</time>
      </trkpt>
      <trkpt lat="43.69906" lon="7.0814">
        <ele>333.79998779297</ele>
        <time>2014-01-19T09:43:01.000Z</time>
      </trkpt>
      <trkpt lat="43.6989" lon="7.08143">
        <ele>333.60000610352</ele>
        <time>2014-01-19T09:43:04.000Z</time>
      </trkpt>
      <trkpt lat="43.69869" lon="7.08146">
        <ele>333.60000610352</ele>
        <time>2014-01-19T09:43:08.000Z</time>
      </trkpt>
      <trkpt lat="43.69861" lon="7.08138">
        <ele>333.60000610352</ele>
        <time>2014-01-19T09:43:09.000Z</time>
      </trkpt>
      <trkpt lat="43.69835" lon="7.08123">
        <ele>333.39999389648</ele>
        <time>2014-01-19T09:43:13.000Z</time>
      </trkpt>
      <trkpt lat="43.69828" lon="7.08122">
        <ele>333.39999389648</ele>
        <time>2014-01-19T09:43:14.000Z</time>
      </trkpt>
      <trkpt lat="43.69809" lon="7.08116">
        <ele>333.20001220703</ele>
        <time>2014-01-19T09:43:17.000Z</time>
      </trkpt>
      <trkpt lat="43.69794" lon="7.08109">
        <ele>333.20001220703</ele>
        <time>2014-01-19T09:43:20.000Z</time>
      </trkpt>
      <trkpt lat="43.69788" lon="7.0811">
        <ele>333.20001220703</ele>
        <time>2014-01-19T09:43:21.000Z</time>
      </trkpt>
      <trkpt lat="43.69772" lon="7.08108">
        <ele>333</ele>
        <time>2014-01-19T09:43:25.000Z</time>
      </trkpt>
      <trkpt lat="43.69753" lon="7.08115">
        <ele>332.60000610352</ele>
        <time>2014-01-19T09:43:30.000Z</time>
      </trkpt>
      <trkpt lat="43.69747" lon="7.08116">
        <ele>332.60000610352</ele>
        <time>2014-01-19T09:43:32.000Z</time>
      </trkpt>
      <trkpt lat="43.69739" lon="7.08118">
        <ele>332</ele>
        <time>2014-01-19T09:43:35.000Z</time>
      </trkpt>
      <trkpt lat="43.69735" lon="7.0812">
        <ele>331.60000610352</ele>
        <time>2014-01-19T09:43:37.000Z</time>
      </trkpt>
      <trkpt lat="43.69725" lon="7.08121">
        <ele>331.20001220703</ele>
        <time>2014-01-19T09:43:40.000Z</time>
      </trkpt>
      <trkpt lat="43.69705" lon="7.08121">
        <ele>330</ele>
        <time>2014-01-19T09:43:45.000Z</time>
      </trkpt>
      <trkpt lat="43.69689" lon="7.08122">
        <ele>328.79998779297</ele>
        <time>2014-01-19T09:43:50.000Z</time>
      </trkpt>
      <trkpt lat="43.69668" lon="7.08127">
        <ele>327.39999389648</ele>
        <time>2014-01-19T09:43:54.000Z</time>
      </trkpt>
      <trkpt lat="43.69654" lon="7.08126">
        <ele>326.39999389648</ele>
        <time>2014-01-19T09:43:58.000Z</time>
      </trkpt>
      <trkpt lat="43.69651" lon="7.08125">
        <ele>326</ele>
        <time>2014-01-19T09:43:59.000Z</time>
      </trkpt>
      <trkpt lat="43.69639" lon="7.0813">
        <ele>324.79998779297</ele>
        <time>2014-01-19T09:44:03.000Z</time>
      </trkpt>
      <trkpt lat="43.69631" lon="7.08135">
        <ele>323.60000610352</ele>
        <time>2014-01-19T09:44:07.000Z</time>
      </trkpt>
      <trkpt lat="43.69628" lon="7.08136">
        <ele>323.20001220703</ele>
        <time>2014-01-19T09:44:08.000Z</time>
      </trkpt>
      <trkpt lat="43.69623" lon="7.08139">
        <ele>322.39999389648</ele>
        <time>2014-01-19T09:44:10.000Z</time>
      </trkpt>
      <trkpt lat="43.69616" lon="7.08142">
        <ele>321.60000610352</ele>
        <time>2014-01-19T09:44:12.000Z</time>
      </trkpt>
      <trkpt lat="43.69601" lon="7.08151">
        <ele>320</ele>
        <time>2014-01-19T09:44:16.000Z</time>
      </trkpt>
      <trkpt lat="43.69586" lon="7.08161">
        <ele>318.39999389648</ele>
        <time>2014-01-19T09:44:20.000Z</time>
      </trkpt>
      <trkpt lat="43.6957" lon="7.08166">
        <ele>316.79998779297</ele>
        <time>2014-01-19T09:44:24.000Z</time>
      </trkpt>
      <trkpt lat="43.6956" lon="7.08169">
        <ele>316.20001220703</ele>
        <time>2014-01-19T09:44:26.000Z</time>
      </trkpt>
      <trkpt lat="43.69554" lon="7.08178">
        <ele>315.60000610352</ele>
        <time>2014-01-19T09:44:28.000Z</time>
      </trkpt>
      <trkpt lat="43.69539" lon="7.08177">
        <ele>314.39999389648</ele>
        <time>2014-01-19T09:44:31.000Z</time>
      </trkpt>
      <trkpt lat="43.6952" lon="7.08166">
        <ele>313</ele>
        <time>2014-01-19T09:44:35.000Z</time>
      </trkpt>
      <trkpt lat="43.69499" lon="7.08155">
        <ele>311.60000610352</ele>
        <time>2014-01-19T09:44:39.000Z</time>
      </trkpt>
      <trkpt lat="43.69493" lon="7.08154">
        <ele>311.39999389648</ele>
        <time>2014-01-19T09:44:40.000Z</time>
      </trkpt>
      <trkpt lat="43.69489" lon="7.0815">
        <ele>311</ele>
        <time>2014-01-19T09:44:41.000Z</time>
      </trkpt>
      <trkpt lat="43.6948" lon="7.0814">
        <ele>310</ele>
        <time>2014-01-19T09:44:44.000Z</time>
      </trkpt>
      <trkpt lat="43.69473" lon="7.08128">
        <ele>309.20001220703</ele>
        <time>2014-01-19T09:44:47.000Z</time>
      </trkpt>
      <trkpt lat="43.69474" lon="7.08117">
        <ele>308.60000610352</ele>
        <time>2014-01-19T09:44:49.000Z</time>
      </trkpt>
      <trkpt lat="43.6948" lon="7.08095">
        <ele>307.79998779297</ele>
        <time>2014-01-19T09:44:53.000Z</time>
      </trkpt>
      <trkpt lat="43.69482" lon="7.0809">
        <ele>307.60000610352</ele>
        <time>2014-01-19T09:44:54.000Z</time>
      </trkpt>
      <trkpt lat="43.69487" lon="7.0808">
        <ele>307.20001220703</ele>
        <time>2014-01-19T09:44:56.000Z</time>
      </trkpt>
      <trkpt lat="43.69489" lon="7.08073">
        <ele>306.79998779297</ele>
        <time>2014-01-19T09:44:58.000Z</time>
      </trkpt>
      <trkpt lat="43.69491" lon="7.08059">
        <ele>306.39999389648</ele>
        <time>2014-01-19T09:45:01.000Z</time>
      </trkpt>
      <trkpt lat="43.69491" lon="7.08053">
        <ele>306.39999389648</ele>
        <time>2014-01-19T09:45:02.000Z</time>
      </trkpt>
      <trkpt lat="43.69488" lon="7.08021">
        <ele>306</ele>
        <time>2014-01-19T09:45:06.000Z</time>
      </trkpt>
      <trkpt lat="43.69483" lon="7.08006">
        <ele>305.79998779297</ele>
        <time>2014-01-19T09:45:08.000Z</time>
      </trkpt>
      <trkpt lat="43.69478" lon="7.08">
        <ele>305.60000610352</ele>
        <time>2014-01-19T09:45:10.000Z</time>
      </trkpt>
      <trkpt lat="43.69476" lon="7.08001">
        <ele>305.39999389648</ele>
        <time>2014-01-19T09:45:11.000Z</time>
      </trkpt>
      <trkpt lat="43.69468" lon="7.08006">
        <ele>305.20001220703</ele>
        <time>2014-01-19T09:45:13.000Z</time>
      </trkpt>
      <trkpt lat="43.69459" lon="7.0801">
        <ele>305</ele>
        <time>2014-01-19T09:45:15.000Z</time>
      </trkpt>
      <trkpt lat="43.69454" lon="7.08016">
        <ele>304.60000610352</ele>
        <time>2014-01-19T09:45:16.000Z</time>
      </trkpt>
      <trkpt lat="43.69444" lon="7.08033">
        <ele>304.20001220703</ele>
        <time>2014-01-19T09:45:19.000Z</time>
      </trkpt>
      <trkpt lat="43.69439" lon="7.08035">
        <ele>304.20001220703</ele>
        <time>2014-01-19T09:45:20.000Z</time>
      </trkpt>
      <trkpt lat="43.69437" lon="7.08037">
        <ele>304</ele>
        <time>2014-01-19T09:45:21.000Z</time>
      </trkpt>
      <trkpt lat="43.69433" lon="7.0804">
        <ele>303.60000610352</ele>
        <time>2014-01-19T09:45:23.000Z</time>
      </trkpt>
      <trkpt lat="43.6943" lon="7.08042">
        <ele>303</ele>
        <time>2014-01-19T09:45:25.000Z</time>
      </trkpt>
      <trkpt lat="43.69426" lon="7.08045">
        <ele>301.79998779297</ele>
        <time>2014-01-19T09:45:29.000Z</time>
      </trkpt>
      <trkpt lat="43.69426" lon="7.08043">
        <ele>301.60000610352</ele>
        <time>2014-01-19T09:45:30.000Z</time>
      </trkpt>
      <trkpt lat="43.69427" lon="7.0804">
        <ele>301.20001220703</ele>
        <time>2014-01-19T09:45:31.000Z</time>
      </trkpt>
      <trkpt lat="43.6943" lon="7.08038">
        <ele>300.39999389648</ele>
        <time>2014-01-19T09:45:33.000Z</time>
      </trkpt>
      <trkpt lat="43.69434" lon="7.08031">
        <ele>298.60000610352</ele>
        <time>2014-01-19T09:45:37.000Z</time>
      </trkpt>
      <trkpt lat="43.69434" lon="7.08029">
        <ele>298.20001220703</ele>
        <time>2014-01-19T09:45:38.000Z</time>
      </trkpt>
      <trkpt lat="43.69432" lon="7.08026">
        <ele>297</ele>
        <time>2014-01-19T09:45:41.000Z</time>
      </trkpt>
      <trkpt lat="43.69423" lon="7.08032">
        <ele>295</ele>
        <time>2014-01-19T09:45:45.000Z</time>
      </trkpt>
      <trkpt lat="43.69406" lon="7.08031">
        <ele>292.79998779297</ele>
        <time>2014-01-19T09:45:50.000Z</time>
      </trkpt>
      <trkpt lat="43.69401" lon="7.0803">
        <ele>291.79998779297</ele>
        <time>2014-01-19T09:45:52.000Z</time>
      </trkpt>
      <trkpt lat="43.694" lon="7.08029">
        <ele>291.39999389648</ele>
        <time>2014-01-19T09:45:53.000Z</time>
      </trkpt>
      <trkpt lat="43.69399" lon="7.08028">
        <ele>291</ele>
        <time>2014-01-19T09:45:54.000Z</time>
      </trkpt>
      <trkpt lat="43.69397" lon="7.08023">
        <ele>289.60000610352</ele>
        <time>2014-01-19T09:45:57.000Z</time>
      </trkpt>
      <trkpt lat="43.69399" lon="7.08017">
        <ele>287.79998779297</ele>
        <time>2014-01-19T09:46:01.000Z</time>
      </trkpt>
      <trkpt lat="43.69402" lon="7.08013">
        <ele>286.20001220703</ele>
        <time>2014-01-19T09:46:05.000Z</time>
      </trkpt>
      <trkpt lat="43.69406" lon="7.08009">
        <ele>284.79998779297</ele>
        <time>2014-01-19T09:46:08.000Z</time>
      </trkpt>
      <trkpt lat="43.69408" lon="7.08001">
        <ele>282.60000610352</ele>
        <time>2014-01-19T09:46:13.000Z</time>
      </trkpt>
      <trkpt lat="43.69404" lon="7.07996">
        <ele>280.20001220703</ele>
        <time>2014-01-19T09:46:19.000Z</time>
      </trkpt>
      <trkpt lat="43.69405" lon="7.07993">
        <ele>279.39999389648</ele>
        <time>2014-01-19T09:46:21.000Z</time>
      </trkpt>
      <trkpt lat="43.69399" lon="7.07986">
        <ele>278</ele>
        <time>2014-01-19T09:46:24.000Z</time>
      </trkpt>
      <trkpt lat="43.69396" lon="7.07986">
        <ele>277.60000610352</ele>
        <time>2014-01-19T09:46:25.000Z</time>
      </trkpt>
      <trkpt lat="43.69382" lon="7.07981">
        <ele>275.79998779297</ele>
        <time>2014-01-19T09:46:30.000Z</time>
      </trkpt>
      <trkpt lat="43.69381" lon="7.07981">
        <ele>275.39999389648</ele>
        <time>2014-01-19T09:46:31.000Z</time>
      </trkpt>
      <trkpt lat="43.69369" lon="7.07976">
        <ele>274.20001220703</ele>
        <time>2014-01-19T09:46:34.000Z</time>
      </trkpt>
      <trkpt lat="43.69342" lon="7.07971">
        <ele>272.39999389648</ele>
        <time>2014-01-19T09:46:39.000Z</time>
      </trkpt>
      <trkpt lat="43.69335" lon="7.07968">
        <ele>271.79998779297</ele>
        <time>2014-01-19T09:46:41.000Z</time>
      </trkpt>
      <trkpt lat="43.69327" lon="7.07969">
        <ele>271.39999389648</ele>
        <time>2014-01-19T09:46:43.000Z</time>
      </trkpt>
      <trkpt lat="43.69323" lon="7.07968">
        <ele>271</ele>
        <time>2014-01-19T09:46:44.000Z</time>
      </trkpt>
      <trkpt lat="43.6932" lon="7.07966">
        <ele>270.79998779297</ele>
        <time>2014-01-19T09:46:45.000Z</time>
      </trkpt>
      <trkpt lat="43.69312" lon="7.07965">
        <ele>270.20001220703</ele>
        <time>2014-01-19T09:46:47.000Z</time>
      </trkpt>
      <trkpt lat="43.69306" lon="7.07963">
        <ele>269.60000610352</ele>
        <time>2014-01-19T09:46:49.000Z</time>
      </trkpt>
      <trkpt lat="43.69285" lon="7.0796">
        <ele>268.39999389648</ele>
        <time>2014-01-19T09:46:54.000Z</time>
      </trkpt>
      <trkpt lat="43.69274" lon="7.07974">
        <ele>267.20001220703</ele>
        <time>2014-01-19T09:46:57.000Z</time>
      </trkpt>
      <trkpt lat="43.69269" lon="7.07979">
        <ele>266.79998779297</ele>
        <time>2014-01-19T09:46:58.000Z</time>
      </trkpt>
      <trkpt lat="43.69256" lon="7.07986">
        <ele>265.60000610352</ele>
        <time>2014-01-19T09:47:02.000Z</time>
      </trkpt>
      <trkpt lat="43.69257" lon="7.07986">
        <ele>265.39999389648</ele>
        <time>2014-01-19T09:47:03.000Z</time>
      </trkpt>
      <trkpt lat="43.69257" lon="7.07987">
        <ele>264.79998779297</ele>
        <time>2014-01-19T09:47:05.000Z</time>
      </trkpt>
      <trkpt lat="43.69257" lon="7.07989">
        <ele>264.39999389648</ele>
        <time>2014-01-19T09:47:06.000Z</time>
      </trkpt>
      <trkpt lat="43.69262" lon="7.07994">
        <ele>263.60000610352</ele>
        <time>2014-01-19T09:47:09.000Z</time>
      </trkpt>
      <trkpt lat="43.69265" lon="7.07993">
        <ele>262.39999389648</ele>
        <time>2014-01-19T09:47:14.000Z</time>
      </trkpt>
      <trkpt lat="43.6927" lon="7.07995">
        <ele>260.39999389648</ele>
        <time>2014-01-19T09:47:22.000Z</time>
      </trkpt>
      <trkpt lat="43.69271" lon="7.07999">
        <ele>259.20001220703</ele>
        <time>2014-01-19T09:47:28.000Z</time>
      </trkpt>
      <trkpt lat="43.69277" lon="7.08005">
        <ele>258</ele>
        <time>2014-01-19T09:47:35.000Z</time>
      </trkpt>
      <trkpt lat="43.69279" lon="7.08007">
        <ele>257.60000610352</ele>
        <time>2014-01-19T09:47:41.000Z</time>
      </trkpt>
      <trkpt lat="43.69284" lon="7.08013">
        <ele>257</ele>
        <time>2014-01-19T09:47:47.000Z</time>
      </trkpt>
      <trkpt lat="43.6929" lon="7.08024">
        <ele>256</ele>
        <time>2014-01-19T09:48:00.000Z</time>
      </trkpt>
      <trkpt lat="43.69291" lon="7.08026">
        <ele>255.80000305176</ele>
        <time>2014-01-19T09:48:03.000Z</time>
      </trkpt>
      <trkpt lat="43.693" lon="7.0803">
        <ele>255.39999389648</ele>
        <time>2014-01-19T09:48:11.000Z</time>
      </trkpt>
      <trkpt lat="43.693" lon="7.08031">
        <ele>255.19999694824</ele>
        <time>2014-01-19T09:48:12.000Z</time>
      </trkpt>
      <trkpt lat="43.69302" lon="7.08035">
        <ele>255</ele>
        <time>2014-01-19T09:48:15.000Z</time>
      </trkpt>
      <trkpt lat="43.69303" lon="7.08036">
        <ele>254.80000305176</ele>
        <time>2014-01-19T09:48:16.000Z</time>
      </trkpt>
      <trkpt lat="43.69306" lon="7.08039">
        <ele>254.60000610352</ele>
        <time>2014-01-19T09:48:19.000Z</time>
      </trkpt>
      <trkpt lat="43.69309" lon="7.08043">
        <ele>254.19999694824</ele>
        <time>2014-01-19T09:48:22.000Z</time>
      </trkpt>
      <trkpt lat="43.69311" lon="7.08046">
        <ele>254</ele>
        <time>2014-01-19T09:48:26.000Z</time>
      </trkpt>
      <trkpt lat="43.69318" lon="7.08065">
        <ele>256.20001220703</ele>
        <time>2014-01-19T09:48:51.000Z</time>
      </trkpt>
      <trkpt lat="43.69319" lon="7.08065">
        <ele>256.39999389648</ele>
        <time>2014-01-19T09:48:52.000Z</time>
      </trkpt>
      <trkpt lat="43.69325" lon="7.0807">
        <ele>257.39999389648</ele>
        <time>2014-01-19T09:48:57.000Z</time>
      </trkpt>
      <trkpt lat="43.6933" lon="7.08071">
        <ele>259.60000610352</ele>
        <time>2014-01-19T09:49:03.000Z</time>
      </trkpt>
      <trkpt lat="43.69331" lon="7.08069">
        <ele>260.39999389648</ele>
        <time>2014-01-19T09:49:05.000Z</time>
      </trkpt>
      <trkpt lat="43.69334" lon="7.0807">
        <ele>262.20001220703</ele>
        <time>2014-01-19T09:49:08.000Z</time>
      </trkpt>
      <trkpt lat="43.69335" lon="7.08073">
        <ele>262.60000610352</ele>
        <time>2014-01-19T09:49:09.000Z</time>
      </trkpt>
      <trkpt lat="43.69341" lon="7.08079">
        <ele>264.20001220703</ele>
        <time>2014-01-19T09:49:13.000Z</time>
      </trkpt>
      <trkpt lat="43.69344" lon="7.08078">
        <ele>266.39999389648</ele>
        <time>2014-01-19T09:49:17.000Z</time>
      </trkpt>
      <trkpt lat="43.69345" lon="7.08076">
        <ele>267</ele>
        <time>2014-01-19T09:49:18.000Z</time>
      </trkpt>
      <trkpt lat="43.69346" lon="7.08077">
        <ele>267.60000610352</ele>
        <time>2014-01-19T09:49:19.000Z</time>
      </trkpt>
      <trkpt lat="43.69352" lon="7.08081">
        <ele>270</ele>
        <time>2014-01-19T09:49:23.000Z</time>
      </trkpt>
      <trkpt lat="43.69364" lon="7.08087">
        <ele>272.79998779297</ele>
        <time>2014-01-19T09:49:28.000Z</time>
      </trkpt>
      <trkpt lat="43.69379" lon="7.08093">
        <ele>277.20001220703</ele>
        <time>2014-01-19T09:49:35.000Z</time>
      </trkpt>
      <trkpt lat="43.69394" lon="7.08103">
        <ele>280.20001220703</ele>
        <time>2014-01-19T09:49:41.000Z</time>
      </trkpt>
      <trkpt lat="43.69403" lon="7.08109">
        <ele>282</ele>
        <time>2014-01-19T09:49:45.000Z</time>
      </trkpt>
      <trkpt lat="43.69408" lon="7.08113">
        <ele>283</ele>
        <time>2014-01-19T09:49:47.000Z</time>
      </trkpt>
      <trkpt lat="43.69422" lon="7.08119">
        <ele>285.20001220703</ele>
        <time>2014-01-19T09:49:52.000Z</time>
      </trkpt>
      <trkpt lat="43.69436" lon="7.08126">
        <ele>287.60000610352</ele>
        <time>2014-01-19T09:49:58.000Z</time>
      </trkpt>
      <trkpt lat="43.69445" lon="7.08138">
        <ele>289.60000610352</ele>
        <time>2014-01-19T09:50:03.000Z</time>
      </trkpt>
      <trkpt lat="43.6945" lon="7.08155">
        <ele>291.79998779297</ele>
        <time>2014-01-19T09:50:09.000Z</time>
      </trkpt>
      <trkpt lat="43.69454" lon="7.0817">
        <ele>292.79998779297</ele>
        <time>2014-01-19T09:50:13.000Z</time>
      </trkpt>
      <trkpt lat="43.69457" lon="7.08183">
        <ele>294</ele>
        <time>2014-01-19T09:50:17.000Z</time>
      </trkpt>
      <trkpt lat="43.6946" lon="7.08191">
        <ele>295.20001220703</ele>
        <time>2014-01-19T09:50:20.000Z</time>
      </trkpt>
      <trkpt lat="43.6946" lon="7.08194">
        <ele>295.79998779297</ele>
        <time>2014-01-19T09:50:21.000Z</time>
      </trkpt>
      <trkpt lat="43.69469" lon="7.08213">
        <ele>297.39999389648</ele>
        <time>2014-01-19T09:50:27.000Z</time>
      </trkpt>
      <trkpt lat="43.69477" lon="7.08228">
        <ele>298.79998779297</ele>
        <time>2014-01-19T09:50:32.000Z</time>
      </trkpt>
      <trkpt lat="43.69484" lon="7.08244">
        <ele>300</ele>
        <time>2014-01-19T09:50:37.000Z</time>
      </trkpt>
      <trkpt lat="43.69498" lon="7.0825">
        <ele>301.39999389648</ele>
        <time>2014-01-19T09:50:42.000Z</time>
      </trkpt>
      <trkpt lat="43.69514" lon="7.08252">
        <ele>301.20001220703</ele>
        <time>2014-01-19T09:50:46.000Z</time>
      </trkpt>
      <trkpt lat="43.69528" lon="7.08246">
        <ele>301</ele>
        <time>2014-01-19T09:50:52.000Z</time>
      </trkpt>
      <trkpt lat="43.6953" lon="7.08245">
        <ele>300.79998779297</ele>
        <time>2014-01-19T09:50:53.000Z</time>
      </trkpt>
      <trkpt lat="43.69533" lon="7.08243">
        <ele>300.60000610352</ele>
        <time>2014-01-19T09:50:55.000Z</time>
      </trkpt>
      <trkpt lat="43.69539" lon="7.08242">
        <ele>300.60000610352</ele>
        <time>2014-01-19T09:50:58.000Z</time>
      </trkpt>
      <trkpt lat="43.69545" lon="7.08237">
        <ele>300.39999389648</ele>
        <time>2014-01-19T09:51:01.000Z</time>
      </trkpt>
      <trkpt lat="43.69547" lon="7.08235">
        <ele>300.20001220703</ele>
        <time>2014-01-19T09:51:02.000Z</time>
      </trkpt>
      <trkpt lat="43.6955" lon="7.08235">
        <ele>300.20001220703</ele>
        <time>2014-01-19T09:51:03.000Z</time>
      </trkpt>
      <trkpt lat="43.69561" lon="7.08242">
        <ele>300</ele>
        <time>2014-01-19T09:51:08.000Z</time>
      </trkpt>
      <trkpt lat="43.69572" lon="7.08247">
        <ele>299.60000610352</ele>
        <time>2014-01-19T09:51:13.000Z</time>
      </trkpt>
      <trkpt lat="43.69577" lon="7.08247">
        <ele>299.39999389648</ele>
        <time>2014-01-19T09:51:15.000Z</time>
      </trkpt>
      <trkpt lat="43.69584" lon="7.08248">
        <ele>299.20001220703</ele>
        <time>2014-01-19T09:51:19.000Z</time>
      </trkpt>
      <trkpt lat="43.69593" lon="7.08251">
        <ele>299.20001220703</ele>
        <time>2014-01-19T09:51:24.000Z</time>
      </trkpt>
      <trkpt lat="43.69603" lon="7.08257">
        <ele>299.39999389648</ele>
        <time>2014-01-19T09:51:29.000Z</time>
      </trkpt>
      <trkpt lat="43.69612" lon="7.08264">
        <ele>299.79998779297</ele>
        <time>2014-01-19T09:51:34.000Z</time>
      </trkpt>
      <trkpt lat="43.6963" lon="7.08282">
        <ele>300.60000610352</ele>
        <time>2014-01-19T09:51:41.000Z</time>
      </trkpt>
      <trkpt lat="43.69633" lon="7.08284">
        <ele>300.79998779297</ele>
        <time>2014-01-19T09:51:42.000Z</time>
      </trkpt>
      <trkpt lat="43.6964" lon="7.0829">
        <ele>301</ele>
        <time>2014-01-19T09:51:45.000Z</time>
      </trkpt>
      <trkpt lat="43.69653" lon="7.08297">
        <ele>301.60000610352</ele>
        <time>2014-01-19T09:51:50.000Z</time>
      </trkpt>
      <trkpt lat="43.69666" lon="7.08301">
        <ele>301.60000610352</ele>
        <time>2014-01-19T09:51:55.000Z</time>
      </trkpt>
      <trkpt lat="43.69677" lon="7.08302">
        <ele>301.60000610352</ele>
        <time>2014-01-19T09:51:59.000Z</time>
      </trkpt>
      <trkpt lat="43.69686" lon="7.08319">
        <ele>302.20001220703</ele>
        <time>2014-01-19T09:52:06.000Z</time>
      </trkpt>
      <trkpt lat="43.69692" lon="7.08329">
        <ele>302.79998779297</ele>
        <time>2014-01-19T09:52:10.000Z</time>
      </trkpt>
      <trkpt lat="43.69699" lon="7.08337">
        <ele>303.79998779297</ele>
        <time>2014-01-19T09:52:14.000Z</time>
      </trkpt>
      <trkpt lat="43.69703" lon="7.08341">
        <ele>304.39999389648</ele>
        <time>2014-01-19T09:52:16.000Z</time>
      </trkpt>
      <trkpt lat="43.69707" lon="7.08344">
        <ele>304.60000610352</ele>
        <time>2014-01-19T09:52:18.000Z</time>
      </trkpt>
      <trkpt lat="43.69716" lon="7.08347">
        <ele>306</ele>
        <time>2014-01-19T09:52:22.000Z</time>
      </trkpt>
      <trkpt lat="43.69724" lon="7.08356">
        <ele>307.60000610352</ele>
        <time>2014-01-19T09:52:27.000Z</time>
      </trkpt>
      <trkpt lat="43.69726" lon="7.08359">
        <ele>307.79998779297</ele>
        <time>2014-01-19T09:52:28.000Z</time>
      </trkpt>
      <trkpt lat="43.69732" lon="7.08366">
        <ele>308.60000610352</ele>
        <time>2014-01-19T09:52:31.000Z</time>
      </trkpt>
      <trkpt lat="43.69742" lon="7.08372">
        <ele>309.60000610352</ele>
        <time>2014-01-19T09:52:35.000Z</time>
      </trkpt>
      <trkpt lat="43.69745" lon="7.08372">
        <ele>309.79998779297</ele>
        <time>2014-01-19T09:52:36.000Z</time>
      </trkpt>
      <trkpt lat="43.69752" lon="7.0838">
        <ele>311</ele>
        <time>2014-01-19T09:52:40.000Z</time>
      </trkpt>
      <trkpt lat="43.69761" lon="7.08396">
        <ele>312.39999389648</ele>
        <time>2014-01-19T09:52:46.000Z</time>
      </trkpt>
      <trkpt lat="43.69765" lon="7.08399">
        <ele>313</ele>
        <time>2014-01-19T09:52:48.000Z</time>
      </trkpt>
      <trkpt lat="43.69771" lon="7.08402">
        <ele>313.20001220703</ele>
        <time>2014-01-19T09:52:50.000Z</time>
      </trkpt>
      <trkpt lat="43.69778" lon="7.08403">
        <ele>313.39999389648</ele>
        <time>2014-01-19T09:52:52.000Z</time>
      </trkpt>
      <trkpt lat="43.69787" lon="7.08405">
        <ele>313.39999389648</ele>
        <time>2014-01-19T09:52:55.000Z</time>
      </trkpt>
      <trkpt lat="43.69789" lon="7.08404">
        <ele>313.39999389648</ele>
        <time>2014-01-19T09:52:56.000Z</time>
      </trkpt>
      <trkpt lat="43.69798" lon="7.08409">
        <ele>313.39999389648</ele>
        <time>2014-01-19T09:53:01.000Z</time>
      </trkpt>
      <trkpt lat="43.69805" lon="7.08419">
        <ele>313.79998779297</ele>
        <time>2014-01-19T09:53:05.000Z</time>
      </trkpt>
      <trkpt lat="43.69809" lon="7.08423">
        <ele>314</ele>
        <time>2014-01-19T09:53:07.000Z</time>
      </trkpt>
      <trkpt lat="43.69824" lon="7.08442">
        <ele>315.20001220703</ele>
        <time>2014-01-19T09:53:13.000Z</time>
      </trkpt>
      <trkpt lat="43.69839" lon="7.08448">
        <ele>315.79998779297</ele>
        <time>2014-01-19T09:53:17.000Z</time>
      </trkpt>
      <trkpt lat="43.69858" lon="7.08468">
        <ele>316.79998779297</ele>
        <time>2014-01-19T09:53:23.000Z</time>
      </trkpt>
      <trkpt lat="43.69864" lon="7.08476">
        <ele>317.39999389648</ele>
        <time>2014-01-19T09:53:25.000Z</time>
      </trkpt>
      <trkpt lat="43.69877" lon="7.08494">
        <ele>318.60000610352</ele>
        <time>2014-01-19T09:53:29.000Z</time>
      </trkpt>
      <trkpt lat="43.69884" lon="7.08501">
        <ele>319.60000610352</ele>
        <time>2014-01-19T09:53:31.000Z</time>
      </trkpt>
      <trkpt lat="43.69888" lon="7.08511">
        <ele>320.39999389648</ele>
        <time>2014-01-19T09:53:33.000Z</time>
      </trkpt>
      <trkpt lat="43.69889" lon="7.08527">
        <ele>321.60000610352</ele>
        <time>2014-01-19T09:53:35.000Z</time>
      </trkpt>
      <trkpt lat="43.69893" lon="7.0854">
        <ele>322.60000610352</ele>
        <time>2014-01-19T09:53:37.000Z</time>
      </trkpt>
      <trkpt lat="43.69905" lon="7.08561">
        <ele>324.60000610352</ele>
        <time>2014-01-19T09:53:41.000Z</time>
      </trkpt>
      <trkpt lat="43.69909" lon="7.08567">
        <ele>325.20001220703</ele>
        <time>2014-01-19T09:53:42.000Z</time>
      </trkpt>
      <trkpt lat="43.69921" lon="7.08581">
        <ele>326.79998779297</ele>
        <time>2014-01-19T09:53:45.000Z</time>
      </trkpt>
      <trkpt lat="43.69922" lon="7.08585">
        <ele>327.60000610352</ele>
        <time>2014-01-19T09:53:46.000Z</time>
      </trkpt>
      <trkpt lat="43.6993" lon="7.08594">
        <ele>328.79998779297</ele>
        <time>2014-01-19T09:53:49.000Z</time>
      </trkpt>
      <trkpt lat="43.69934" lon="7.08597">
        <ele>329</ele>
        <time>2014-01-19T09:53:50.000Z</time>
      </trkpt>
      <trkpt lat="43.69944" lon="7.08606">
        <ele>330.20001220703</ele>
        <time>2014-01-19T09:53:54.000Z</time>
      </trkpt>
      <trkpt lat="43.69955" lon="7.0862">
        <ele>331.79998779297</ele>
        <time>2014-01-19T09:53:59.000Z</time>
      </trkpt>
      <trkpt lat="43.69972" lon="7.08629">
        <ele>333.20001220703</ele>
        <time>2014-01-19T09:54:05.000Z</time>
      </trkpt>
      <trkpt lat="43.69976" lon="7.08633">
        <ele>333.60000610352</ele>
        <time>2014-01-19T09:54:07.000Z</time>
      </trkpt>
      <trkpt lat="43.69979" lon="7.08639">
        <ele>334</ele>
        <time>2014-01-19T09:54:09.000Z</time>
      </trkpt>
      <trkpt lat="43.69991" lon="7.08651">
        <ele>334.79998779297</ele>
        <time>2014-01-19T09:54:14.000Z</time>
      </trkpt>
      <trkpt lat="43.69993" lon="7.08653">
        <ele>335</ele>
        <time>2014-01-19T09:54:15.000Z</time>
      </trkpt>
      <trkpt lat="43.70003" lon="7.08657">
        <ele>335.39999389648</ele>
        <time>2014-01-19T09:54:18.000Z</time>
      </trkpt>
      <trkpt lat="43.70017" lon="7.08661">
        <ele>336</ele>
        <time>2014-01-19T09:54:23.000Z</time>
      </trkpt>
      <trkpt lat="43.7003" lon="7.08668">
        <ele>336</ele>
        <time>2014-01-19T09:54:28.000Z</time>
      </trkpt>
      <trkpt lat="43.70047" lon="7.08671">
        <ele>336.60000610352</ele>
        <time>2014-01-19T09:54:33.000Z</time>
      </trkpt>
      <trkpt lat="43.70069" lon="7.08677">
        <ele>336.20001220703</ele>
        <time>2014-01-19T09:54:39.000Z</time>
      </trkpt>
      <trkpt lat="43.70086" lon="7.0868">
        <ele>335.60000610352</ele>
        <time>2014-01-19T09:54:44.000Z</time>
      </trkpt>
      <trkpt lat="43.70092" lon="7.0867">
        <ele>335.20001220703</ele>
        <time>2014-01-19T09:54:48.000Z</time>
      </trkpt>
      <trkpt lat="43.70086" lon="7.08661">
        <ele>334.60000610352</ele>
        <time>2014-01-19T09:54:52.000Z</time>
      </trkpt>
      <trkpt lat="43.70079" lon="7.08657">
        <ele>334.20001220703</ele>
        <time>2014-01-19T09:54:54.000Z</time>
      </trkpt>
      <trkpt lat="43.70067" lon="7.08652">
        <ele>333.60000610352</ele>
        <time>2014-01-19T09:54:57.000Z</time>
      </trkpt>
      <trkpt lat="43.70042" lon="7.08636">
        <ele>332.39999389648</ele>
        <time>2014-01-19T09:55:03.000Z</time>
      </trkpt>
      <trkpt lat="43.7002" lon="7.08611">
        <ele>331.20001220703</ele>
        <time>2014-01-19T09:55:08.000Z</time>
      </trkpt>
      <trkpt lat="43.70017" lon="7.08605">
        <ele>331</ele>
        <time>2014-01-19T09:55:09.000Z</time>
      </trkpt>
      <trkpt lat="43.70019" lon="7.086">
        <ele>330.60000610352</ele>
        <time>2014-01-19T09:55:10.000Z</time>
      </trkpt>
      <trkpt lat="43.70024" lon="7.08599">
        <ele>330.39999389648</ele>
        <time>2014-01-19T09:55:11.000Z</time>
      </trkpt>
      <trkpt lat="43.70029" lon="7.08595">
        <ele>329.79998779297</ele>
        <time>2014-01-19T09:55:14.000Z</time>
      </trkpt>
      <trkpt lat="43.70031" lon="7.08594">
        <ele>329.60000610352</ele>
        <time>2014-01-19T09:55:15.000Z</time>
      </trkpt>
      <trkpt lat="43.70033" lon="7.08593">
        <ele>329.39999389648</ele>
        <time>2014-01-19T09:55:16.000Z</time>
      </trkpt>
      <trkpt lat="43.70037" lon="7.08587">
        <ele>328.39999389648</ele>
        <time>2014-01-19T09:55:20.000Z</time>
      </trkpt>
      <trkpt lat="43.7004" lon="7.08586">
        <ele>328</ele>
        <time>2014-01-19T09:55:22.000Z</time>
      </trkpt>
      <trkpt lat="43.70047" lon="7.08584">
        <ele>327.20001220703</ele>
        <time>2014-01-19T09:55:27.000Z</time>
      </trkpt>
      <trkpt lat="43.7005" lon="7.08581">
        <ele>326.79998779297</ele>
        <time>2014-01-19T09:55:30.000Z</time>
      </trkpt>
      <trkpt lat="43.7005" lon="7.08581">
        <ele>326.39999389648</ele>
        <time>2014-01-19T09:55:32.000Z</time>
      </trkpt>
      <trkpt lat="43.70052" lon="7.08579">
        <ele>326.20001220703</ele>
        <time>2014-01-19T09:55:33.000Z</time>
      </trkpt>
      <trkpt lat="43.70055" lon="7.08576">
        <ele>325.39999389648</ele>
        <time>2014-01-19T09:55:38.000Z</time>
      </trkpt>
      <trkpt lat="43.70062" lon="7.0857">
        <ele>324.39999389648</ele>
        <time>2014-01-19T09:55:46.000Z</time>
      </trkpt>
      <trkpt lat="43.70062" lon="7.0857">
        <ele>324.39999389648</ele>
        <time>2014-01-19T09:55:47.000Z</time>
      </trkpt>
      <trkpt lat="43.70064" lon="7.0857">
        <ele>324.20001220703</ele>
        <time>2014-01-19T09:55:49.000Z</time>
      </trkpt>
      <trkpt lat="43.70065" lon="7.0857">
        <ele>324</ele>
        <time>2014-01-19T09:55:51.000Z</time>
      </trkpt>
      <trkpt lat="43.70071" lon="7.08567">
        <ele>323.39999389648</ele>
        <time>2014-01-19T09:55:58.000Z</time>
      </trkpt>
      <trkpt lat="43.70074" lon="7.08565">
        <ele>323.39999389648</ele>
        <time>2014-01-19T09:56:00.000Z</time>
      </trkpt>
      <trkpt lat="43.70084" lon="7.08558">
        <ele>323</ele>
        <time>2014-01-19T09:56:05.000Z</time>
      </trkpt>
      <trkpt lat="43.70091" lon="7.08555">
        <ele>322.79998779297</ele>
        <time>2014-01-19T09:56:08.000Z</time>
      </trkpt>
      <trkpt lat="43.70097" lon="7.08552">
        <ele>322.79998779297</ele>
        <time>2014-01-19T09:56:10.000Z</time>
      </trkpt>
      <trkpt lat="43.70111" lon="7.08541">
        <ele>322.60000610352</ele>
        <time>2014-01-19T09:56:15.000Z</time>
      </trkpt>
      <trkpt lat="43.7013" lon="7.08528">
        <ele>322.39999389648</ele>
        <time>2014-01-19T09:56:21.000Z</time>
      </trkpt>
      <trkpt lat="43.70148" lon="7.08523">
        <ele>322</ele>
        <time>2014-01-19T09:56:26.000Z</time>
      </trkpt>
      <trkpt lat="43.7016" lon="7.08532">
        <ele>322.20001220703</ele>
        <time>2014-01-19T09:56:30.000Z</time>
      </trkpt>
      <trkpt lat="43.70169" lon="7.08556">
        <ele>323</ele>
        <time>2014-01-19T09:56:35.000Z</time>
      </trkpt>
      <trkpt lat="43.70171" lon="7.08584">
        <ele>323.60000610352</ele>
        <time>2014-01-19T09:56:39.000Z</time>
      </trkpt>
      <trkpt lat="43.7017" lon="7.08592">
        <ele>323.79998779297</ele>
        <time>2014-01-19T09:56:40.000Z</time>
      </trkpt>
      <trkpt lat="43.70169" lon="7.08608">
        <ele>324</ele>
        <time>2014-01-19T09:56:42.000Z</time>
      </trkpt>
      <trkpt lat="43.70171" lon="7.08617">
        <ele>324.20001220703</ele>
        <time>2014-01-19T09:56:44.000Z</time>
      </trkpt>
      <trkpt lat="43.70177" lon="7.08625">
        <ele>324.60000610352</ele>
        <time>2014-01-19T09:56:46.000Z</time>
      </trkpt>
      <trkpt lat="43.70181" lon="7.08625">
        <ele>324.79998779297</ele>
        <time>2014-01-19T09:56:47.000Z</time>
      </trkpt>
      <trkpt lat="43.70183" lon="7.08626">
        <ele>325</ele>
        <time>2014-01-19T09:56:48.000Z</time>
      </trkpt>
      <trkpt lat="43.70187" lon="7.08624">
        <ele>325.20001220703</ele>
        <time>2014-01-19T09:56:49.000Z</time>
      </trkpt>
      <trkpt lat="43.70196" lon="7.08617">
        <ele>325.20001220703</ele>
        <time>2014-01-19T09:56:51.000Z</time>
      </trkpt>
      <trkpt lat="43.70206" lon="7.08609">
        <ele>325.20001220703</ele>
        <time>2014-01-19T09:56:54.000Z</time>
      </trkpt>
      <trkpt lat="43.7021" lon="7.086">
        <ele>325.20001220703</ele>
        <time>2014-01-19T09:56:56.000Z</time>
      </trkpt>
      <trkpt lat="43.70215" lon="7.08591">
        <ele>325.20001220703</ele>
        <time>2014-01-19T09:56:59.000Z</time>
      </trkpt>
      <trkpt lat="43.70222" lon="7.08587">
        <ele>325.39999389648</ele>
        <time>2014-01-19T09:57:01.000Z</time>
      </trkpt>
      <trkpt lat="43.70238" lon="7.08579">
        <ele>325.39999389648</ele>
        <time>2014-01-19T09:57:06.000Z</time>
      </trkpt>
      <trkpt lat="43.70247" lon="7.08576">
        <ele>325.39999389648</ele>
        <time>2014-01-19T09:57:10.000Z</time>
      </trkpt>
      <trkpt lat="43.70249" lon="7.08574">
        <ele>325.60000610352</ele>
        <time>2014-01-19T09:57:11.000Z</time>
      </trkpt>
      <trkpt lat="43.70258" lon="7.08572">
        <ele>325.60000610352</ele>
        <time>2014-01-19T09:57:16.000Z</time>
      </trkpt>
      <trkpt lat="43.70272" lon="7.08562">
        <ele>325.60000610352</ele>
        <time>2014-01-19T09:57:22.000Z</time>
      </trkpt>
      <trkpt lat="43.70283" lon="7.08554">
        <ele>325.60000610352</ele>
        <time>2014-01-19T09:57:27.000Z</time>
      </trkpt>
      <trkpt lat="43.70296" lon="7.08544">
        <ele>325.20001220703</ele>
        <time>2014-01-19T09:57:32.000Z</time>
      </trkpt>
      <trkpt lat="43.70315" lon="7.08533">
        <ele>325</ele>
        <time>2014-01-19T09:57:37.000Z</time>
      </trkpt>
      <trkpt lat="43.70326" lon="7.08538">
        <ele>325</ele>
        <time>2014-01-19T09:57:41.000Z</time>
      </trkpt>
      <trkpt lat="43.70321" lon="7.08557">
        <ele>325</ele>
        <time>2014-01-19T09:57:44.000Z</time>
      </trkpt>
      <trkpt lat="43.70317" lon="7.08588">
        <ele>324.79998779297</ele>
        <time>2014-01-19T09:57:48.000Z</time>
      </trkpt>
      <trkpt lat="43.70324" lon="7.08609">
        <ele>324.60000610352</ele>
        <time>2014-01-19T09:57:51.000Z</time>
      </trkpt>
      <trkpt lat="43.70326" lon="7.08616">
        <ele>324.60000610352</ele>
        <time>2014-01-19T09:57:52.000Z</time>
      </trkpt>
      <trkpt lat="43.70328" lon="7.08623">
        <ele>324.60000610352</ele>
        <time>2014-01-19T09:57:53.000Z</time>
      </trkpt>
      <trkpt lat="43.70337" lon="7.08641">
        <ele>324.60000610352</ele>
        <time>2014-01-19T09:57:56.000Z</time>
      </trkpt>
      <trkpt lat="43.70351" lon="7.08672">
        <ele>324.60000610352</ele>
        <time>2014-01-19T09:58:01.000Z</time>
      </trkpt>
      <trkpt lat="43.70359" lon="7.08683">
        <ele>324.79998779297</ele>
        <time>2014-01-19T09:58:03.000Z</time>
      </trkpt>
      <trkpt lat="43.7037" lon="7.08696">
        <ele>324.79998779297</ele>
        <time>2014-01-19T09:58:06.000Z</time>
      </trkpt>
      <trkpt lat="43.70389" lon="7.08697">
        <ele>324.60000610352</ele>
        <time>2014-01-19T09:58:09.000Z</time>
      </trkpt>
      <trkpt lat="43.70409" lon="7.08684">
        <ele>324.20001220703</ele>
        <time>2014-01-19T09:58:13.000Z</time>
      </trkpt>
      <trkpt lat="43.70415" lon="7.08685">
        <ele>324</ele>
        <time>2014-01-19T09:58:14.000Z</time>
      </trkpt>
      <trkpt lat="43.70425" lon="7.08684">
        <ele>324</ele>
        <time>2014-01-19T09:58:16.000Z</time>
      </trkpt>
      <trkpt lat="43.70434" lon="7.0868">
        <ele>323.79998779297</ele>
        <time>2014-01-19T09:58:18.000Z</time>
      </trkpt>
      <trkpt lat="43.70443" lon="7.08673">
        <ele>323.60000610352</ele>
        <time>2014-01-19T09:58:20.000Z</time>
      </trkpt>
      <trkpt lat="43.70456" lon="7.08664">
        <ele>323.20001220703</ele>
        <time>2014-01-19T09:58:23.000Z</time>
      </trkpt>
      <trkpt lat="43.70463" lon="7.0866">
        <ele>323</ele>
        <time>2014-01-19T09:58:25.000Z</time>
      </trkpt>
      <trkpt lat="43.7047" lon="7.08655">
        <ele>323</ele>
        <time>2014-01-19T09:58:27.000Z</time>
      </trkpt>
      <trkpt lat="43.70474" lon="7.08652">
        <ele>322.79998779297</ele>
        <time>2014-01-19T09:58:28.000Z</time>
      </trkpt>
      <trkpt lat="43.70488" lon="7.08646">
        <ele>322.79998779297</ele>
        <time>2014-01-19T09:58:31.000Z</time>
      </trkpt>
      <trkpt lat="43.70497" lon="7.08641">
        <ele>322.60000610352</ele>
        <time>2014-01-19T09:58:33.000Z</time>
      </trkpt>
      <trkpt lat="43.70504" lon="7.08638">
        <ele>322.60000610352</ele>
        <time>2014-01-19T09:58:34.000Z</time>
      </trkpt>
      <trkpt lat="43.70539" lon="7.08638">
        <ele>322.20001220703</ele>
        <time>2014-01-19T09:58:39.000Z</time>
      </trkpt>
      <trkpt lat="43.70563" lon="7.08631">
        <ele>322</ele>
        <time>2014-01-19T09:58:44.000Z</time>
      </trkpt>
      <trkpt lat="43.70577" lon="7.08639">
        <ele>322</ele>
        <time>2014-01-19T09:58:48.000Z</time>
      </trkpt>
      <trkpt lat="43.70586" lon="7.08649">
        <ele>322</ele>
        <time>2014-01-19T09:58:52.000Z</time>
      </trkpt>
      <trkpt lat="43.70592" lon="7.08658">
        <ele>322.79998779297</ele>
        <time>2014-01-19T09:58:56.000Z</time>
      </trkpt>
      <trkpt lat="43.70598" lon="7.0866">
        <ele>323.39999389648</ele>
        <time>2014-01-19T09:59:00.000Z</time>
      </trkpt>
      <trkpt lat="43.706" lon="7.08662">
        <ele>323.60000610352</ele>
        <time>2014-01-19T09:59:01.000Z</time>
      </trkpt>
      <trkpt lat="43.70601" lon="7.08662">
        <ele>324</ele>
        <time>2014-01-19T09:59:02.000Z</time>
      </trkpt>
      <trkpt lat="43.70606" lon="7.08671">
        <ele>325</ele>
        <time>2014-01-19T09:59:05.000Z</time>
      </trkpt>
      <trkpt lat="43.70613" lon="7.08684">
        <ele>326.60000610352</ele>
        <time>2014-01-19T09:59:10.000Z</time>
      </trkpt>
      <trkpt lat="43.70615" lon="7.08687">
        <ele>327</ele>
        <time>2014-01-19T09:59:11.000Z</time>
      </trkpt>
      <trkpt lat="43.70628" lon="7.08694">
        <ele>329.39999389648</ele>
        <time>2014-01-19T09:59:17.000Z</time>
      </trkpt>
      <trkpt lat="43.70636" lon="7.08706">
        <ele>331.39999389648</ele>
        <time>2014-01-19T09:59:22.000Z</time>
      </trkpt>
      <trkpt lat="43.70653" lon="7.08725">
        <ele>334.60000610352</ele>
        <time>2014-01-19T09:59:29.000Z</time>
      </trkpt>
      <trkpt lat="43.70666" lon="7.0874">
        <ele>336.79998779297</ele>
        <time>2014-01-19T09:59:34.000Z</time>
      </trkpt>
      <trkpt lat="43.70681" lon="7.08755">
        <ele>339.79998779297</ele>
        <time>2014-01-19T09:59:39.000Z</time>
      </trkpt>
      <trkpt lat="43.70692" lon="7.08768">
        <ele>342.79998779297</ele>
        <time>2014-01-19T09:59:44.000Z</time>
      </trkpt>
      <trkpt lat="43.70703" lon="7.08781">
        <ele>345.60000610352</ele>
        <time>2014-01-19T09:59:49.000Z</time>
      </trkpt>
      <trkpt lat="43.70705" lon="7.08783">
        <ele>346.20001220703</ele>
        <time>2014-01-19T09:59:50.000Z</time>
      </trkpt>
      <trkpt lat="43.70716" lon="7.08792">
        <ele>348.39999389648</ele>
        <time>2014-01-19T09:59:54.000Z</time>
      </trkpt>
      <trkpt lat="43.70722" lon="7.08798">
        <ele>349.60000610352</ele>
        <time>2014-01-19T09:59:56.000Z</time>
      </trkpt>
      <trkpt lat="43.70731" lon="7.08812">
        <ele>351.20001220703</ele>
        <time>2014-01-19T09:59:59.000Z</time>
      </trkpt>
      <trkpt lat="43.70744" lon="7.08821">
        <ele>352.60000610352</ele>
        <time>2014-01-19T10:00:03.000Z</time>
      </trkpt>
      <trkpt lat="43.70751" lon="7.08829">
        <ele>353.79998779297</ele>
        <time>2014-01-19T10:00:06.000Z</time>
      </trkpt>
      <trkpt lat="43.70755" lon="7.08832">
        <ele>354.60000610352</ele>
        <time>2014-01-19T10:00:08.000Z</time>
      </trkpt>
      <trkpt lat="43.70766" lon="7.0883">
        <ele>355.60000610352</ele>
        <time>2014-01-19T10:00:13.000Z</time>
      </trkpt>
      <trkpt lat="43.70769" lon="7.08829">
        <ele>356</ele>
        <time>2014-01-19T10:00:14.000Z</time>
      </trkpt>
      <trkpt lat="43.7078" lon="7.08826">
        <ele>356.20001220703</ele>
        <time>2014-01-19T10:00:18.000Z</time>
      </trkpt>
      <trkpt lat="43.70791" lon="7.08825">
        <ele>357</ele>
        <time>2014-01-19T10:00:23.000Z</time>
      </trkpt>
      <trkpt lat="43.70809" lon="7.08826">
        <ele>357.39999389648</ele>
        <time>2014-01-19T10:00:29.000Z</time>
      </trkpt>
      <trkpt lat="43.70827" lon="7.08833">
        <ele>357.20001220703</ele>
        <time>2014-01-19T10:00:34.000Z</time>
      </trkpt>
      <trkpt lat="43.70839" lon="7.08846">
        <ele>357.20001220703</ele>
        <time>2014-01-19T10:00:39.000Z</time>
      </trkpt>
      <trkpt lat="43.70844" lon="7.08853">
        <ele>357</ele>
        <time>2014-01-19T10:00:42.000Z</time>
      </trkpt>
      <trkpt lat="43.70846" lon="7.08858">
        <ele>356.60000610352</ele>
        <time>2014-01-19T10:00:44.000Z</time>
      </trkpt>
      <trkpt lat="43.70842" lon="7.08875">
        <ele>356.20001220703</ele>
        <time>2014-01-19T10:00:49.000Z</time>
      </trkpt>
      <trkpt lat="43.70839" lon="7.08893">
        <ele>355.60000610352</ele>
        <time>2014-01-19T10:00:54.000Z</time>
      </trkpt>
      <trkpt lat="43.70842" lon="7.08901">
        <ele>355.20001220703</ele>
        <time>2014-01-19T10:00:57.000Z</time>
      </trkpt>
      <trkpt lat="43.70844" lon="7.08907">
        <ele>355</ele>
        <time>2014-01-19T10:00:59.000Z</time>
      </trkpt>
      <trkpt lat="43.7085" lon="7.0892">
        <ele>354.60000610352</ele>
        <time>2014-01-19T10:01:04.000Z</time>
      </trkpt>
      <trkpt lat="43.70858" lon="7.0893">
        <ele>354.20001220703</ele>
        <time>2014-01-19T10:01:10.000Z</time>
      </trkpt>
      <trkpt lat="43.70863" lon="7.08933">
        <ele>354</ele>
        <time>2014-01-19T10:01:14.000Z</time>
      </trkpt>
      <trkpt lat="43.70867" lon="7.08934">
        <ele>353.79998779297</ele>
        <time>2014-01-19T10:01:16.000Z</time>
      </trkpt>
      <trkpt lat="43.70867" lon="7.08936">
        <ele>353.79998779297</ele>
        <time>2014-01-19T10:01:17.000Z</time>
      </trkpt>
      <trkpt lat="43.70873" lon="7.08942">
        <ele>353.60000610352</ele>
        <time>2014-01-19T10:01:21.000Z</time>
      </trkpt>
      <trkpt lat="43.7088" lon="7.08953">
        <ele>353.60000610352</ele>
        <time>2014-01-19T10:01:26.000Z</time>
      </trkpt>
      <trkpt lat="43.7088" lon="7.08962">
        <ele>354</ele>
        <time>2014-01-19T10:01:30.000Z</time>
      </trkpt>
      <trkpt lat="43.70879" lon="7.08973">
        <ele>353.79998779297</ele>
        <time>2014-01-19T10:01:35.000Z</time>
      </trkpt>
      <trkpt lat="43.70875" lon="7.08981">
        <ele>354</ele>
        <time>2014-01-19T10:01:37.000Z</time>
      </trkpt>
      <trkpt lat="43.70871" lon="7.0899">
        <ele>353.79998779297</ele>
        <time>2014-01-19T10:01:39.000Z</time>
      </trkpt>
      <trkpt lat="43.70869" lon="7.09">
        <ele>354.20001220703</ele>
        <time>2014-01-19T10:01:41.000Z</time>
      </trkpt>
      <trkpt lat="43.70865" lon="7.09017">
        <ele>355</ele>
        <time>2014-01-19T10:01:45.000Z</time>
      </trkpt>
      <trkpt lat="43.70864" lon="7.09021">
        <ele>355.20001220703</ele>
        <time>2014-01-19T10:01:46.000Z</time>
      </trkpt>
      <trkpt lat="43.70858" lon="7.09037">
        <ele>355.60000610352</ele>
        <time>2014-01-19T10:01:50.000Z</time>
      </trkpt>
      <trkpt lat="43.70856" lon="7.09044">
        <ele>356</ele>
        <time>2014-01-19T10:01:52.000Z</time>
      </trkpt>
      <trkpt lat="43.70849" lon="7.09055">
        <ele>356.60000610352</ele>
        <time>2014-01-19T10:01:55.000Z</time>
      </trkpt>
      <trkpt lat="43.70843" lon="7.09059">
        <ele>357</ele>
        <time>2014-01-19T10:01:57.000Z</time>
      </trkpt>
      <trkpt lat="43.70836" lon="7.09064">
        <ele>357.20001220703</ele>
        <time>2014-01-19T10:01:59.000Z</time>
      </trkpt>
      <trkpt lat="43.70826" lon="7.0907">
        <ele>357.20001220703</ele>
        <time>2014-01-19T10:02:02.000Z</time>
      </trkpt>
      <trkpt lat="43.70818" lon="7.09072">
        <ele>357</ele>
        <time>2014-01-19T10:02:04.000Z</time>
      </trkpt>
      <trkpt lat="43.70794" lon="7.09075">
        <ele>357</ele>
        <time>2014-01-19T10:02:09.000Z</time>
      </trkpt>
      <trkpt lat="43.70775" lon="7.09073">
        <ele>356.60000610352</ele>
        <time>2014-01-19T10:02:13.000Z</time>
      </trkpt>
      <trkpt lat="43.70754" lon="7.09072">
        <ele>356.39999389648</ele>
        <time>2014-01-19T10:02:17.000Z</time>
      </trkpt>
      <trkpt lat="43.70748" lon="7.09071">
        <ele>356.20001220703</ele>
        <time>2014-01-19T10:02:18.000Z</time>
      </trkpt>
      <trkpt lat="43.70731" lon="7.09069">
        <ele>356.20001220703</ele>
        <time>2014-01-19T10:02:21.000Z</time>
      </trkpt>
      <trkpt lat="43.70721" lon="7.09069">
        <ele>356.20001220703</ele>
        <time>2014-01-19T10:02:23.000Z</time>
      </trkpt>
      <trkpt lat="43.70713" lon="7.09068">
        <ele>356.20001220703</ele>
        <time>2014-01-19T10:02:25.000Z</time>
      </trkpt>
      <trkpt lat="43.70701" lon="7.09066">
        <ele>356.20001220703</ele>
        <time>2014-01-19T10:02:28.000Z</time>
      </trkpt>
      <trkpt lat="43.70678" lon="7.09058">
        <ele>355.79998779297</ele>
        <time>2014-01-19T10:02:33.000Z</time>
      </trkpt>
      <trkpt lat="43.70675" lon="7.09055">
        <ele>355.79998779297</ele>
        <time>2014-01-19T10:02:34.000Z</time>
      </trkpt>
      <trkpt lat="43.70666" lon="7.09051">
        <ele>355.60000610352</ele>
        <time>2014-01-19T10:02:36.000Z</time>
      </trkpt>
      <trkpt lat="43.70658" lon="7.09054">
        <ele>355.39999389648</ele>
        <time>2014-01-19T10:02:38.000Z</time>
      </trkpt>
      <trkpt lat="43.70638" lon="7.09053">
        <ele>355</ele>
        <time>2014-01-19T10:02:42.000Z</time>
      </trkpt>
      <trkpt lat="43.70633" lon="7.09049">
        <ele>354.60000610352</ele>
        <time>2014-01-19T10:02:43.000Z</time>
      </trkpt>
      <trkpt lat="43.70613" lon="7.09045">
        <ele>354</ele>
        <time>2014-01-19T10:02:46.000Z</time>
      </trkpt>
      <trkpt lat="43.70609" lon="7.09044">
        <ele>353.79998779297</ele>
        <time>2014-01-19T10:02:47.000Z</time>
      </trkpt>
      <trkpt lat="43.70594" lon="7.09043">
        <ele>353</ele>
        <time>2014-01-19T10:02:50.000Z</time>
      </trkpt>
      <trkpt lat="43.70578" lon="7.09046">
        <ele>352.20001220703</ele>
        <time>2014-01-19T10:02:53.000Z</time>
      </trkpt>
      <trkpt lat="43.70575" lon="7.09047">
        <ele>352</ele>
        <time>2014-01-19T10:02:54.000Z</time>
      </trkpt>
      <trkpt lat="43.70571" lon="7.0905">
        <ele>351.60000610352</ele>
        <time>2014-01-19T10:02:55.000Z</time>
      </trkpt>
      <trkpt lat="43.70551" lon="7.0907">
        <ele>350.39999389648</ele>
        <time>2014-01-19T10:02:59.000Z</time>
      </trkpt>
      <trkpt lat="43.70535" lon="7.0909">
        <ele>349.20001220703</ele>
        <time>2014-01-19T10:03:03.000Z</time>
      </trkpt>
      <trkpt lat="43.70532" lon="7.09097">
        <ele>349</ele>
        <time>2014-01-19T10:03:04.000Z</time>
      </trkpt>
      <trkpt lat="43.70531" lon="7.09109">
        <ele>348.39999389648</ele>
        <time>2014-01-19T10:03:06.000Z</time>
      </trkpt>
      <trkpt lat="43.70532" lon="7.09124">
        <ele>347.79998779297</ele>
        <time>2014-01-19T10:03:08.000Z</time>
      </trkpt>
      <trkpt lat="43.70534" lon="7.09163">
        <ele>346.79998779297</ele>
        <time>2014-01-19T10:03:12.000Z</time>
      </trkpt>
      <trkpt lat="43.70536" lon="7.09169">
        <ele>346.39999389648</ele>
        <time>2014-01-19T10:03:13.000Z</time>
      </trkpt>
      <trkpt lat="43.7054" lon="7.0918">
        <ele>346</ele>
        <time>2014-01-19T10:03:15.000Z</time>
      </trkpt>
      <trkpt lat="43.70542" lon="7.09183">
        <ele>346</ele>
        <time>2014-01-19T10:03:16.000Z</time>
      </trkpt>
      <trkpt lat="43.70545" lon="7.09186">
        <ele>345.60000610352</ele>
        <time>2014-01-19T10:03:19.000Z</time>
      </trkpt>
      <trkpt lat="43.70546" lon="7.09188">
        <ele>345.39999389648</ele>
        <time>2014-01-19T10:03:20.000Z</time>
      </trkpt>
      <trkpt lat="43.70552" lon="7.092">
        <ele>345</ele>
        <time>2014-01-19T10:03:24.000Z</time>
      </trkpt>
      <trkpt lat="43.70554" lon="7.09211">
        <ele>344.60000610352</ele>
        <time>2014-01-19T10:03:29.000Z</time>
      </trkpt>
      <trkpt lat="43.70559" lon="7.0922">
        <ele>344.39999389648</ele>
        <time>2014-01-19T10:03:32.000Z</time>
      </trkpt>
      <trkpt lat="43.7056" lon="7.09224">
        <ele>344.39999389648</ele>
        <time>2014-01-19T10:03:34.000Z</time>
      </trkpt>
      <trkpt lat="43.70562" lon="7.09243">
        <ele>344.20001220703</ele>
        <time>2014-01-19T10:03:40.000Z</time>
      </trkpt>
      <trkpt lat="43.7057" lon="7.0925">
        <ele>344.20001220703</ele>
        <time>2014-01-19T10:03:45.000Z</time>
      </trkpt>
      <trkpt lat="43.7057" lon="7.09252">
        <ele>344.20001220703</ele>
        <time>2014-01-19T10:03:46.000Z</time>
      </trkpt>
      <trkpt lat="43.70571" lon="7.09258">
        <ele>345</ele>
        <time>2014-01-19T10:03:50.000Z</time>
      </trkpt>
      <trkpt lat="43.70574" lon="7.09265">
        <ele>346.20001220703</ele>
        <time>2014-01-19T10:03:54.000Z</time>
      </trkpt>
      <trkpt lat="43.70577" lon="7.09268">
        <ele>346.79998779297</ele>
        <time>2014-01-19T10:03:56.000Z</time>
      </trkpt>
      <trkpt lat="43.70578" lon="7.0927">
        <ele>347.39999389648</ele>
        <time>2014-01-19T10:03:58.000Z</time>
      </trkpt>
      <trkpt lat="43.70585" lon="7.09273">
        <ele>348.79998779297</ele>
        <time>2014-01-19T10:04:02.000Z</time>
      </trkpt>
      <trkpt lat="43.70586" lon="7.09275">
        <ele>349</ele>
        <time>2014-01-19T10:04:03.000Z</time>
      </trkpt>
      <trkpt lat="43.7059" lon="7.0928">
        <ele>350.20001220703</ele>
        <time>2014-01-19T10:04:06.000Z</time>
      </trkpt>
      <trkpt lat="43.70592" lon="7.09283">
        <ele>350.60000610352</ele>
        <time>2014-01-19T10:04:08.000Z</time>
      </trkpt>
      <trkpt lat="43.70593" lon="7.09285">
        <ele>351</ele>
        <time>2014-01-19T10:04:09.000Z</time>
      </trkpt>
      <trkpt lat="43.70598" lon="7.09287">
        <ele>352</ele>
        <time>2014-01-19T10:04:12.000Z</time>
      </trkpt>
      <trkpt lat="43.706" lon="7.09288">
        <ele>352.39999389648</ele>
        <time>2014-01-19T10:04:13.000Z</time>
      </trkpt>
      <trkpt lat="43.70609" lon="7.09292">
        <ele>353.39999389648</ele>
        <time>2014-01-19T10:04:18.000Z</time>
      </trkpt>
      <trkpt lat="43.70611" lon="7.09291">
        <ele>353.79998779297</ele>
        <time>2014-01-19T10:04:19.000Z</time>
      </trkpt>
      <trkpt lat="43.70615" lon="7.09291">
        <ele>354.60000610352</ele>
        <time>2014-01-19T10:04:22.000Z</time>
      </trkpt>
      <trkpt lat="43.70617" lon="7.09291">
        <ele>355</ele>
        <time>2014-01-19T10:04:23.000Z</time>
      </trkpt>
      <trkpt lat="43.70626" lon="7.09289">
        <ele>356.60000610352</ele>
        <time>2014-01-19T10:04:29.000Z</time>
      </trkpt>
      <trkpt lat="43.70641" lon="7.09278">
        <ele>358.79998779297</ele>
        <time>2014-01-19T10:04:36.000Z</time>
      </trkpt>
      <trkpt lat="43.70653" lon="7.09268">
        <ele>359.60000610352</ele>
        <time>2014-01-19T10:04:40.000Z</time>
      </trkpt>
      <trkpt lat="43.70672" lon="7.09255">
        <ele>360.20001220703</ele>
        <time>2014-01-19T10:04:45.000Z</time>
      </trkpt>
      <trkpt lat="43.70687" lon="7.09253">
        <ele>360.60000610352</ele>
        <time>2014-01-19T10:04:50.000Z</time>
      </trkpt>
      <trkpt lat="43.70708" lon="7.09242">
        <ele>360.39999389648</ele>
        <time>2014-01-19T10:04:55.000Z</time>
      </trkpt>
      <trkpt lat="43.70718" lon="7.09225">
        <ele>360.20001220703</ele>
        <time>2014-01-19T10:04:59.000Z</time>
      </trkpt>
      <trkpt lat="43.70728" lon="7.09215">
        <ele>359.79998779297</ele>
        <time>2014-01-19T10:05:02.000Z</time>
      </trkpt>
      <trkpt lat="43.70732" lon="7.09214">
        <ele>359.79998779297</ele>
        <time>2014-01-19T10:05:03.000Z</time>
      </trkpt>
      <trkpt lat="43.70756" lon="7.0921">
        <ele>359.39999389648</ele>
        <time>2014-01-19T10:05:07.000Z</time>
      </trkpt>
      <trkpt lat="43.70765" lon="7.09212">
        <ele>359.20001220703</ele>
        <time>2014-01-19T10:05:09.000Z</time>
      </trkpt>
      <trkpt lat="43.70772" lon="7.09213">
        <ele>359.20001220703</ele>
        <time>2014-01-19T10:05:10.000Z</time>
      </trkpt>
      <trkpt lat="43.70775" lon="7.09211">
        <ele>359</ele>
        <time>2014-01-19T10:05:11.000Z</time>
      </trkpt>
      <trkpt lat="43.70786" lon="7.09199">
        <ele>358.60000610352</ele>
        <time>2014-01-19T10:05:14.000Z</time>
      </trkpt>
      <trkpt lat="43.70802" lon="7.09176">
        <ele>358</ele>
        <time>2014-01-19T10:05:18.000Z</time>
      </trkpt>
      <trkpt lat="43.70807" lon="7.09171">
        <ele>357.79998779297</ele>
        <time>2014-01-19T10:05:19.000Z</time>
      </trkpt>
      <trkpt lat="43.70821" lon="7.0916">
        <ele>357.20001220703</ele>
        <time>2014-01-19T10:05:22.000Z</time>
      </trkpt>
      <trkpt lat="43.70823" lon="7.09156">
        <ele>357</ele>
        <time>2014-01-19T10:05:23.000Z</time>
      </trkpt>
      <trkpt lat="43.70832" lon="7.09138">
        <ele>356.39999389648</ele>
        <time>2014-01-19T10:05:26.000Z</time>
      </trkpt>
      <trkpt lat="43.70835" lon="7.09135">
        <ele>356.20001220703</ele>
        <time>2014-01-19T10:05:27.000Z</time>
      </trkpt>
      <trkpt lat="43.70851" lon="7.09126">
        <ele>355.39999389648</ele>
        <time>2014-01-19T10:05:31.000Z</time>
      </trkpt>
      <trkpt lat="43.70873" lon="7.09123">
        <ele>354.60000610352</ele>
        <time>2014-01-19T10:05:35.000Z</time>
      </trkpt>
      <trkpt lat="43.70877" lon="7.0912">
        <ele>354.39999389648</ele>
        <time>2014-01-19T10:05:36.000Z</time>
      </trkpt>
      <trkpt lat="43.70883" lon="7.09117">
        <ele>354.39999389648</ele>
        <time>2014-01-19T10:05:37.000Z</time>
      </trkpt>
      <trkpt lat="43.70894" lon="7.09118">
        <ele>354.20001220703</ele>
        <time>2014-01-19T10:05:39.000Z</time>
      </trkpt>
      <trkpt lat="43.7091" lon="7.09112">
        <ele>353.60000610352</ele>
        <time>2014-01-19T10:05:42.000Z</time>
      </trkpt>
      <trkpt lat="43.70915" lon="7.09111">
        <ele>353.60000610352</ele>
        <time>2014-01-19T10:05:43.000Z</time>
      </trkpt>
      <trkpt lat="43.70922" lon="7.09108">
        <ele>353.20001220703</ele>
        <time>2014-01-19T10:05:45.000Z</time>
      </trkpt>
      <trkpt lat="43.70933" lon="7.09109">
        <ele>353.20001220703</ele>
        <time>2014-01-19T10:05:47.000Z</time>
      </trkpt>
      <trkpt lat="43.70955" lon="7.09099">
        <ele>352.79998779297</ele>
        <time>2014-01-19T10:05:51.000Z</time>
      </trkpt>
      <trkpt lat="43.70968" lon="7.09078">
        <ele>352.39999389648</ele>
        <time>2014-01-19T10:05:54.000Z</time>
      </trkpt>
      <trkpt lat="43.70972" lon="7.09071">
        <ele>352.39999389648</ele>
        <time>2014-01-19T10:05:55.000Z</time>
      </trkpt>
      <trkpt lat="43.70987" lon="7.09051">
        <ele>352.20001220703</ele>
        <time>2014-01-19T10:05:58.000Z</time>
      </trkpt>
      <trkpt lat="43.70999" lon="7.09044">
        <ele>352</ele>
        <time>2014-01-19T10:06:00.000Z</time>
      </trkpt>
      <trkpt lat="43.71012" lon="7.09044">
        <ele>351.79998779297</ele>
        <time>2014-01-19T10:06:02.000Z</time>
      </trkpt>
      <trkpt lat="43.71018" lon="7.09041">
        <ele>351.79998779297</ele>
        <time>2014-01-19T10:06:03.000Z</time>
      </trkpt>
      <trkpt lat="43.71037" lon="7.09017">
        <ele>351.39999389648</ele>
        <time>2014-01-19T10:06:07.000Z</time>
      </trkpt>
      <trkpt lat="43.71044" lon="7.08999">
        <ele>351.20001220703</ele>
        <time>2014-01-19T10:06:09.000Z</time>
      </trkpt>
      <trkpt lat="43.71052" lon="7.08982">
        <ele>350.79998779297</ele>
        <time>2014-01-19T10:06:11.000Z</time>
      </trkpt>
      <trkpt lat="43.71071" lon="7.08941">
        <ele>350.20001220703</ele>
        <time>2014-01-19T10:06:16.000Z</time>
      </trkpt>
      <trkpt lat="43.71091" lon="7.08928">
        <ele>349.79998779297</ele>
        <time>2014-01-19T10:06:19.000Z</time>
      </trkpt>
      <trkpt lat="43.71122" lon="7.08932">
        <ele>349.39999389648</ele>
        <time>2014-01-19T10:06:22.000Z</time>
      </trkpt>
      <trkpt lat="43.7113" lon="7.08932">
        <ele>349.39999389648</ele>
        <time>2014-01-19T10:06:23.000Z</time>
      </trkpt>
      <trkpt lat="43.71143" lon="7.08928">
        <ele>349</ele>
        <time>2014-01-19T10:06:25.000Z</time>
      </trkpt>
      <trkpt lat="43.71155" lon="7.08925">
        <ele>348.79998779297</ele>
        <time>2014-01-19T10:06:27.000Z</time>
      </trkpt>
      <trkpt lat="43.71187" lon="7.08916">
        <ele>348.20001220703</ele>
        <time>2014-01-19T10:06:33.000Z</time>
      </trkpt>
      <trkpt lat="43.71204" lon="7.08932">
        <ele>347.79998779297</ele>
        <time>2014-01-19T10:06:36.000Z</time>
      </trkpt>
      <trkpt lat="43.71207" lon="7.08938">
        <ele>347.79998779297</ele>
        <time>2014-01-19T10:06:37.000Z</time>
      </trkpt>
      <trkpt lat="43.71214" lon="7.08947">
        <ele>347.39999389648</ele>
        <time>2014-01-19T10:06:40.000Z</time>
      </trkpt>
      <trkpt lat="43.71213" lon="7.08938">
        <ele>347.20001220703</ele>
        <time>2014-01-19T10:06:41.000Z</time>
      </trkpt>
      <trkpt lat="43.71217" lon="7.08932">
        <ele>347.20001220703</ele>
        <time>2014-01-19T10:06:42.000Z</time>
      </trkpt>
      <trkpt lat="43.7123" lon="7.0891">
        <ele>346.60000610352</ele>
        <time>2014-01-19T10:06:45.000Z</time>
      </trkpt>
      <trkpt lat="43.71234" lon="7.08904">
        <ele>346.39999389648</ele>
        <time>2014-01-19T10:06:46.000Z</time>
      </trkpt>
      <trkpt lat="43.71242" lon="7.08889">
        <ele>346.20001220703</ele>
        <time>2014-01-19T10:06:48.000Z</time>
      </trkpt>
      <trkpt lat="43.71255" lon="7.08877">
        <ele>345.79998779297</ele>
        <time>2014-01-19T10:06:50.000Z</time>
      </trkpt>
      <trkpt lat="43.71264" lon="7.08872">
        <ele>345.60000610352</ele>
        <time>2014-01-19T10:06:52.000Z</time>
      </trkpt>
      <trkpt lat="43.71268" lon="7.08873">
        <ele>345.60000610352</ele>
        <time>2014-01-19T10:06:53.000Z</time>
      </trkpt>
      <trkpt lat="43.71272" lon="7.08873">
        <ele>345.39999389648</ele>
        <time>2014-01-19T10:06:54.000Z</time>
      </trkpt>
      <trkpt lat="43.71287" lon="7.08874">
        <ele>345.20001220703</ele>
        <time>2014-01-19T10:06:57.000Z</time>
      </trkpt>
      <trkpt lat="43.71292" lon="7.08874">
        <ele>345</ele>
        <time>2014-01-19T10:06:58.000Z</time>
      </trkpt>
      <trkpt lat="43.71314" lon="7.08877">
        <ele>344.79998779297</ele>
        <time>2014-01-19T10:07:02.000Z</time>
      </trkpt>
      <trkpt lat="43.71326" lon="7.08889">
        <ele>344.20001220703</ele>
        <time>2014-01-19T10:07:05.000Z</time>
      </trkpt>
      <trkpt lat="43.7134" lon="7.08888">
        <ele>343.60000610352</ele>
        <time>2014-01-19T10:07:10.000Z</time>
      </trkpt>
      <trkpt lat="43.71345" lon="7.08867">
        <ele>343.20001220703</ele>
        <time>2014-01-19T10:07:13.000Z</time>
      </trkpt>
      <trkpt lat="43.71346" lon="7.08844">
        <ele>343</ele>
        <time>2014-01-19T10:07:16.000Z</time>
      </trkpt>
      <trkpt lat="43.71341" lon="7.08833">
        <ele>342.79998779297</ele>
        <time>2014-01-19T10:07:18.000Z</time>
      </trkpt>
      <trkpt lat="43.71326" lon="7.0881">
        <ele>342.39999389648</ele>
        <time>2014-01-19T10:07:22.000Z</time>
      </trkpt>
      <trkpt lat="43.71309" lon="7.0881">
        <ele>342</ele>
        <time>2014-01-19T10:07:25.000Z</time>
      </trkpt>
      <trkpt lat="43.71298" lon="7.08814">
        <ele>341.60000610352</ele>
        <time>2014-01-19T10:07:27.000Z</time>
      </trkpt>
      <trkpt lat="43.71294" lon="7.08816">
        <ele>341.60000610352</ele>
        <time>2014-01-19T10:07:28.000Z</time>
      </trkpt>
      <trkpt lat="43.71285" lon="7.08823">
        <ele>341.39999389648</ele>
        <time>2014-01-19T10:07:30.000Z</time>
      </trkpt>
      <trkpt lat="43.7126" lon="7.08842">
        <ele>340.39999389648</ele>
        <time>2014-01-19T10:07:36.000Z</time>
      </trkpt>
      <trkpt lat="43.71255" lon="7.08843">
        <ele>340.20001220703</ele>
        <time>2014-01-19T10:07:37.000Z</time>
      </trkpt>
      <trkpt lat="43.71237" lon="7.08849">
        <ele>340</ele>
        <time>2014-01-19T10:07:41.000Z</time>
      </trkpt>
      <trkpt lat="43.71231" lon="7.08852">
        <ele>339.79998779297</ele>
        <time>2014-01-19T10:07:42.000Z</time>
      </trkpt>
      <trkpt lat="43.71216" lon="7.08867">
        <ele>339.60000610352</ele>
        <time>2014-01-19T10:07:45.000Z</time>
      </trkpt>
      <trkpt lat="43.71212" lon="7.08877">
        <ele>339.60000610352</ele>
        <time>2014-01-19T10:07:47.000Z</time>
      </trkpt>
      <trkpt lat="43.7121" lon="7.08882">
        <ele>339.39999389648</ele>
        <time>2014-01-19T10:07:48.000Z</time>
      </trkpt>
      <trkpt lat="43.71207" lon="7.08888">
        <ele>339.39999389648</ele>
        <time>2014-01-19T10:07:49.000Z</time>
      </trkpt>
      <trkpt lat="43.71205" lon="7.08892">
        <ele>339.39999389648</ele>
        <time>2014-01-19T10:07:50.000Z</time>
      </trkpt>
      <trkpt lat="43.71193" lon="7.089">
        <ele>339.39999389648</ele>
        <time>2014-01-19T10:07:53.000Z</time>
      </trkpt>
      <trkpt lat="43.71181" lon="7.08898">
        <ele>339.20001220703</ele>
        <time>2014-01-19T10:07:56.000Z</time>
      </trkpt>
      <trkpt lat="43.71176" lon="7.08898">
        <ele>339.20001220703</ele>
        <time>2014-01-19T10:07:57.000Z</time>
      </trkpt>
      <trkpt lat="43.71172" lon="7.08901">
        <ele>339</ele>
        <time>2014-01-19T10:07:58.000Z</time>
      </trkpt>
      <trkpt lat="43.71163" lon="7.08912">
        <ele>339</ele>
        <time>2014-01-19T10:08:01.000Z</time>
      </trkpt>
      <trkpt lat="43.71161" lon="7.08913">
        <ele>338.79998779297</ele>
        <time>2014-01-19T10:08:02.000Z</time>
      </trkpt>
      <trkpt lat="43.71157" lon="7.08911">
        <ele>338.39999389648</ele>
        <time>2014-01-19T10:08:05.000Z</time>
      </trkpt>
      <trkpt lat="43.71143" lon="7.08906">
        <ele>338.20001220703</ele>
        <time>2014-01-19T10:08:09.000Z</time>
      </trkpt>
      <trkpt lat="43.71133" lon="7.08912">
        <ele>337.79998779297</ele>
        <time>2014-01-19T10:08:12.000Z</time>
      </trkpt>
      <trkpt lat="43.71124" lon="7.08909">
        <ele>337.60000610352</ele>
        <time>2014-01-19T10:08:14.000Z</time>
      </trkpt>
      <trkpt lat="43.71114" lon="7.0891">
        <ele>337.39999389648</ele>
        <time>2014-01-19T10:08:16.000Z</time>
      </trkpt>
      <trkpt lat="43.711" lon="7.08914">
        <ele>337.20001220703</ele>
        <time>2014-01-19T10:08:20.000Z</time>
      </trkpt>
      <trkpt lat="43.7109" lon="7.0891">
        <ele>336.79998779297</ele>
        <time>2014-01-19T10:08:24.000Z</time>
      </trkpt>
      <trkpt lat="43.71086" lon="7.0892">
        <ele>336.39999389648</ele>
        <time>2014-01-19T10:08:28.000Z</time>
      </trkpt>
      <trkpt lat="43.71073" lon="7.08924">
        <ele>336.39999389648</ele>
        <time>2014-01-19T10:08:32.000Z</time>
      </trkpt>
      <trkpt lat="43.71068" lon="7.0892">
        <ele>336.20001220703</ele>
        <time>2014-01-19T10:08:34.000Z</time>
      </trkpt>
      <trkpt lat="43.71063" lon="7.08919">
        <ele>336</ele>
        <time>2014-01-19T10:08:36.000Z</time>
      </trkpt>
      <trkpt lat="43.71047" lon="7.08915">
        <ele>336</ele>
        <time>2014-01-19T10:08:41.000Z</time>
      </trkpt>
      <trkpt lat="43.71033" lon="7.08915">
        <ele>336</ele>
        <time>2014-01-19T10:08:45.000Z</time>
      </trkpt>
      <trkpt lat="43.7102" lon="7.08926">
        <ele>336</ele>
        <time>2014-01-19T10:08:50.000Z</time>
      </trkpt>
      <trkpt lat="43.71011" lon="7.08933">
        <ele>336.39999389648</ele>
        <time>2014-01-19T10:08:54.000Z</time>
      </trkpt>
      <trkpt lat="43.71" lon="7.08948">
        <ele>337.20001220703</ele>
        <time>2014-01-19T10:08:59.000Z</time>
      </trkpt>
      <trkpt lat="43.70995" lon="7.08953">
        <ele>337.79998779297</ele>
        <time>2014-01-19T10:09:01.000Z</time>
      </trkpt>
      <trkpt lat="43.70991" lon="7.08958">
        <ele>338.60000610352</ele>
        <time>2014-01-19T10:09:03.000Z</time>
      </trkpt>
      <trkpt lat="43.70976" lon="7.08964">
        <ele>339.39999389648</ele>
        <time>2014-01-19T10:09:07.000Z</time>
      </trkpt>
      <trkpt lat="43.70973" lon="7.08966">
        <ele>339.60000610352</ele>
        <time>2014-01-19T10:09:08.000Z</time>
      </trkpt>
      <trkpt lat="43.70966" lon="7.08969">
        <ele>340.39999389648</ele>
        <time>2014-01-19T10:09:11.000Z</time>
      </trkpt>
      <trkpt lat="43.70964" lon="7.08973">
        <ele>340.60000610352</ele>
        <time>2014-01-19T10:09:12.000Z</time>
      </trkpt>
      <trkpt lat="43.70949" lon="7.08978">
        <ele>341</ele>
        <time>2014-01-19T10:09:16.000Z</time>
      </trkpt>
      <trkpt lat="43.70932" lon="7.08978">
        <ele>340.79998779297</ele>
        <time>2014-01-19T10:09:21.000Z</time>
      </trkpt>
      <trkpt lat="43.70916" lon="7.08977">
        <ele>340.60000610352</ele>
        <time>2014-01-19T10:09:26.000Z</time>
      </trkpt>
      <trkpt lat="43.70903" lon="7.08966">
        <ele>340.39999389648</ele>
        <time>2014-01-19T10:09:30.000Z</time>
      </trkpt>
      <trkpt lat="43.70882" lon="7.08934">
        <ele>340.20001220703</ele>
        <time>2014-01-19T10:09:35.000Z</time>
      </trkpt>
      <trkpt lat="43.70869" lon="7.08895">
        <ele>340.39999389648</ele>
        <time>2014-01-19T10:09:38.000Z</time>
      </trkpt>
      <trkpt lat="43.70863" lon="7.08865">
        <ele>340.60000610352</ele>
        <time>2014-01-19T10:09:40.000Z</time>
      </trkpt>
      <trkpt lat="43.7086" lon="7.08824">
        <ele>340.39999389648</ele>
        <time>2014-01-19T10:09:43.000Z</time>
      </trkpt>
      <trkpt lat="43.70857" lon="7.08808">
        <ele>340.60000610352</ele>
        <time>2014-01-19T10:09:44.000Z</time>
      </trkpt>
      <trkpt lat="43.70849" lon="7.0878">
        <ele>340.79998779297</ele>
        <time>2014-01-19T10:09:46.000Z</time>
      </trkpt>
      <trkpt lat="43.70834" lon="7.08749">
        <ele>340.79998779297</ele>
        <time>2014-01-19T10:09:48.000Z</time>
      </trkpt>
      <trkpt lat="43.70828" lon="7.08737">
        <ele>341</ele>
        <time>2014-01-19T10:09:49.000Z</time>
      </trkpt>
      <trkpt lat="43.70819" lon="7.08712">
        <ele>340.79998779297</ele>
        <time>2014-01-19T10:09:51.000Z</time>
      </trkpt>
      <trkpt lat="43.70811" lon="7.0869">
        <ele>340.60000610352</ele>
        <time>2014-01-19T10:09:53.000Z</time>
      </trkpt>
      <trkpt lat="43.70805" lon="7.08679">
        <ele>340.60000610352</ele>
        <time>2014-01-19T10:09:54.000Z</time>
      </trkpt>
      <trkpt lat="43.70789" lon="7.08659">
        <ele>340.60000610352</ele>
        <time>2014-01-19T10:09:56.000Z</time>
      </trkpt>
      <trkpt lat="43.70772" lon="7.08648">
        <ele>340.20001220703</ele>
        <time>2014-01-19T10:09:58.000Z</time>
      </trkpt>
      <trkpt lat="43.70752" lon="7.08645">
        <ele>339.79998779297</ele>
        <time>2014-01-19T10:10:00.000Z</time>
      </trkpt>
      <trkpt lat="43.70731" lon="7.08643">
        <ele>339.39999389648</ele>
        <time>2014-01-19T10:10:02.000Z</time>
      </trkpt>
      <trkpt lat="43.70713" lon="7.08636">
        <ele>339.20001220703</ele>
        <time>2014-01-19T10:10:04.000Z</time>
      </trkpt>
      <trkpt lat="43.70666" lon="7.08614">
        <ele>338.60000610352</ele>
        <time>2014-01-19T10:10:09.000Z</time>
      </trkpt>
      <trkpt lat="43.70648" lon="7.08617">
        <ele>338.39999389648</ele>
        <time>2014-01-19T10:10:11.000Z</time>
      </trkpt>
      <trkpt lat="43.70633" lon="7.08621">
        <ele>338</ele>
        <time>2014-01-19T10:10:13.000Z</time>
      </trkpt>
      <trkpt lat="43.70612" lon="7.08623">
        <ele>337.60000610352</ele>
        <time>2014-01-19T10:10:16.000Z</time>
      </trkpt>
      <trkpt lat="43.70596" lon="7.08618">
        <ele>337.39999389648</ele>
        <time>2014-01-19T10:10:18.000Z</time>
      </trkpt>
      <trkpt lat="43.70584" lon="7.08618">
        <ele>337.39999389648</ele>
        <time>2014-01-19T10:10:19.000Z</time>
      </trkpt>
      <trkpt lat="43.70566" lon="7.08619">
        <ele>337.20001220703</ele>
        <time>2014-01-19T10:10:21.000Z</time>
      </trkpt>
      <trkpt lat="43.70539" lon="7.08612">
        <ele>336.60000610352</ele>
        <time>2014-01-19T10:10:25.000Z</time>
      </trkpt>
      <trkpt lat="43.7053" lon="7.08599">
        <ele>336.60000610352</ele>
        <time>2014-01-19T10:10:27.000Z</time>
      </trkpt>
      <trkpt lat="43.70521" lon="7.08584">
        <ele>336.39999389648</ele>
        <time>2014-01-19T10:10:29.000Z</time>
      </trkpt>
      <trkpt lat="43.70518" lon="7.08578">
        <ele>336.20001220703</ele>
        <time>2014-01-19T10:10:30.000Z</time>
      </trkpt>
      <trkpt lat="43.705" lon="7.08558">
        <ele>335.60000610352</ele>
        <time>2014-01-19T10:10:34.000Z</time>
      </trkpt>
      <trkpt lat="43.70491" lon="7.08547">
        <ele>335.39999389648</ele>
        <time>2014-01-19T10:10:36.000Z</time>
      </trkpt>
      <trkpt lat="43.70476" lon="7.08533">
        <ele>335</ele>
        <time>2014-01-19T10:10:39.000Z</time>
      </trkpt>
      <trkpt lat="43.70465" lon="7.08527">
        <ele>334.79998779297</ele>
        <time>2014-01-19T10:10:41.000Z</time>
      </trkpt>
      <trkpt lat="43.70456" lon="7.08521">
        <ele>334.39999389648</ele>
        <time>2014-01-19T10:10:43.000Z</time>
      </trkpt>
      <trkpt lat="43.70438" lon="7.08512">
        <ele>334</ele>
        <time>2014-01-19T10:10:47.000Z</time>
      </trkpt>
      <trkpt lat="43.70434" lon="7.08512">
        <ele>334</ele>
        <time>2014-01-19T10:10:48.000Z</time>
      </trkpt>
      <trkpt lat="43.70412" lon="7.08512">
        <ele>333.20001220703</ele>
        <time>2014-01-19T10:10:53.000Z</time>
      </trkpt>
      <trkpt lat="43.70385" lon="7.08509">
        <ele>332.60000610352</ele>
        <time>2014-01-19T10:10:58.000Z</time>
      </trkpt>
      <trkpt lat="43.70365" lon="7.08503">
        <ele>332</ele>
        <time>2014-01-19T10:11:02.000Z</time>
      </trkpt>
      <trkpt lat="43.70355" lon="7.08501">
        <ele>331.79998779297</ele>
        <time>2014-01-19T10:11:04.000Z</time>
      </trkpt>
      <trkpt lat="43.70351" lon="7.08502">
        <ele>331.79998779297</ele>
        <time>2014-01-19T10:11:05.000Z</time>
      </trkpt>
      <trkpt lat="43.70341" lon="7.08494">
        <ele>331.60000610352</ele>
        <time>2014-01-19T10:11:08.000Z</time>
      </trkpt>
      <trkpt lat="43.70335" lon="7.08484">
        <ele>331.39999389648</ele>
        <time>2014-01-19T10:11:10.000Z</time>
      </trkpt>
      <trkpt lat="43.70332" lon="7.08472">
        <ele>331.20001220703</ele>
        <time>2014-01-19T10:11:12.000Z</time>
      </trkpt>
      <trkpt lat="43.70331" lon="7.08466">
        <ele>331.20001220703</ele>
        <time>2014-01-19T10:11:13.000Z</time>
      </trkpt>
      <trkpt lat="43.70325" lon="7.08448">
        <ele>331</ele>
        <time>2014-01-19T10:11:16.000Z</time>
      </trkpt>
      <trkpt lat="43.70323" lon="7.08436">
        <ele>331</ele>
        <time>2014-01-19T10:11:18.000Z</time>
      </trkpt>
      <trkpt lat="43.7032" lon="7.08432">
        <ele>330.79998779297</ele>
        <time>2014-01-19T10:11:19.000Z</time>
      </trkpt>
      <trkpt lat="43.70311" lon="7.08413">
        <ele>330.79998779297</ele>
        <time>2014-01-19T10:11:23.000Z</time>
      </trkpt>
      <trkpt lat="43.70309" lon="7.08409">
        <ele>330.60000610352</ele>
        <time>2014-01-19T10:11:24.000Z</time>
      </trkpt>
      <trkpt lat="43.70303" lon="7.08392">
        <ele>330.60000610352</ele>
        <time>2014-01-19T10:11:26.000Z</time>
      </trkpt>
      <trkpt lat="43.70297" lon="7.08381">
        <ele>330.60000610352</ele>
        <time>2014-01-19T10:11:28.000Z</time>
      </trkpt>
      <trkpt lat="43.70296" lon="7.08374">
        <ele>330.60000610352</ele>
        <time>2014-01-19T10:11:29.000Z</time>
      </trkpt>
      <trkpt lat="43.7029" lon="7.08346">
        <ele>330.39999389648</ele>
        <time>2014-01-19T10:11:32.000Z</time>
      </trkpt>
      <trkpt lat="43.70288" lon="7.0834">
        <ele>330.39999389648</ele>
        <time>2014-01-19T10:11:33.000Z</time>
      </trkpt>
      <trkpt lat="43.70282" lon="7.08332">
        <ele>330.39999389648</ele>
        <time>2014-01-19T10:11:35.000Z</time>
      </trkpt>
      <trkpt lat="43.70276" lon="7.08323">
        <ele>330.39999389648</ele>
        <time>2014-01-19T10:11:37.000Z</time>
      </trkpt>
      <trkpt lat="43.7027" lon="7.0832">
        <ele>330.39999389648</ele>
        <time>2014-01-19T10:11:39.000Z</time>
      </trkpt>
      <trkpt lat="43.70267" lon="7.08316">
        <ele>330.20001220703</ele>
        <time>2014-01-19T10:11:41.000Z</time>
      </trkpt>
      <trkpt lat="43.70262" lon="7.08314">
        <ele>330.20001220703</ele>
        <time>2014-01-19T10:11:44.000Z</time>
      </trkpt>
      <trkpt lat="43.7026" lon="7.08314">
        <ele>330.20001220703</ele>
        <time>2014-01-19T10:11:45.000Z</time>
      </trkpt>
      <trkpt lat="43.70255" lon="7.0831">
        <ele>330.20001220703</ele>
        <time>2014-01-19T10:11:48.000Z</time>
      </trkpt>
      <trkpt lat="43.70253" lon="7.08309">
        <ele>330.20001220703</ele>
        <time>2014-01-19T10:11:49.000Z</time>
      </trkpt>
      <trkpt lat="43.7025" lon="7.08304">
        <ele>330.20001220703</ele>
        <time>2014-01-19T10:11:51.000Z</time>
      </trkpt>
      <trkpt lat="43.70244" lon="7.08296">
        <ele>329.79998779297</ele>
        <time>2014-01-19T10:11:54.000Z</time>
      </trkpt>
      <trkpt lat="43.70235" lon="7.08284">
        <ele>329.79998779297</ele>
        <time>2014-01-19T10:12:00.000Z</time>
      </trkpt>
      <trkpt lat="43.70226" lon="7.08257">
        <ele>329.20001220703</ele>
        <time>2014-01-19T10:12:04.000Z</time>
      </trkpt>
      <trkpt lat="43.70218" lon="7.08233">
        <ele>328.60000610352</ele>
        <time>2014-01-19T10:12:07.000Z</time>
      </trkpt>
      <trkpt lat="43.70214" lon="7.08227">
        <ele>328.39999389648</ele>
        <time>2014-01-19T10:12:08.000Z</time>
      </trkpt>
      <trkpt lat="43.70201" lon="7.0821">
        <ele>328.20001220703</ele>
        <time>2014-01-19T10:12:11.000Z</time>
      </trkpt>
      <trkpt lat="43.70193" lon="7.08202">
        <ele>327.79998779297</ele>
        <time>2014-01-19T10:12:13.000Z</time>
      </trkpt>
      <trkpt lat="43.70185" lon="7.08189">
        <ele>327.60000610352</ele>
        <time>2014-01-19T10:12:16.000Z</time>
      </trkpt>
      <trkpt lat="43.70183" lon="7.08185">
        <ele>327.60000610352</ele>
        <time>2014-01-19T10:12:17.000Z</time>
      </trkpt>
      <trkpt lat="43.70177" lon="7.08171">
        <ele>327.20001220703</ele>
        <time>2014-01-19T10:12:21.000Z</time>
      </trkpt>
      <trkpt lat="43.70172" lon="7.08162">
        <ele>327.20001220703</ele>
        <time>2014-01-19T10:12:24.000Z</time>
      </trkpt>
      <trkpt lat="43.70162" lon="7.08141">
        <ele>327</ele>
        <time>2014-01-19T10:12:29.000Z</time>
      </trkpt>
      <trkpt lat="43.70148" lon="7.08126">
        <ele>326.79998779297</ele>
        <time>2014-01-19T10:12:34.000Z</time>
      </trkpt>
      <trkpt lat="43.70137" lon="7.0811">
        <ele>326.20001220703</ele>
        <time>2014-01-19T10:12:39.000Z</time>
      </trkpt>
      <trkpt lat="43.70121" lon="7.08098">
        <ele>325.39999389648</ele>
        <time>2014-01-19T10:12:44.000Z</time>
      </trkpt>
      <trkpt lat="43.70108" lon="7.08089">
        <ele>325</ele>
        <time>2014-01-19T10:12:48.000Z</time>
      </trkpt>
      <trkpt lat="43.70096" lon="7.08074">
        <ele>324.79998779297</ele>
        <time>2014-01-19T10:12:53.000Z</time>
      </trkpt>
      <trkpt lat="43.70087" lon="7.08068">
        <ele>324.60000610352</ele>
        <time>2014-01-19T10:12:56.000Z</time>
      </trkpt>
      <trkpt lat="43.70084" lon="7.08068">
        <ele>324.60000610352</ele>
        <time>2014-01-19T10:12:57.000Z</time>
      </trkpt>
      <trkpt lat="43.70075" lon="7.08071">
        <ele>324.39999389648</ele>
        <time>2014-01-19T10:13:00.000Z</time>
      </trkpt>
      <trkpt lat="43.70071" lon="7.08075">
        <ele>324.39999389648</ele>
        <time>2014-01-19T10:13:02.000Z</time>
      </trkpt>
      <trkpt lat="43.70062" lon="7.08093">
        <ele>324.60000610352</ele>
        <time>2014-01-19T10:13:08.000Z</time>
      </trkpt>
      <trkpt lat="43.70052" lon="7.08108">
        <ele>325.39999389648</ele>
        <time>2014-01-19T10:13:15.000Z</time>
      </trkpt>
      <trkpt lat="43.70042" lon="7.08124">
        <ele>326.79998779297</ele>
        <time>2014-01-19T10:13:21.000Z</time>
      </trkpt>
      <trkpt lat="43.70031" lon="7.08142">
        <ele>328.60000610352</ele>
        <time>2014-01-19T10:13:28.000Z</time>
      </trkpt>
      <trkpt lat="43.70019" lon="7.08162">
        <ele>331</ele>
        <time>2014-01-19T10:13:35.000Z</time>
      </trkpt>
      <trkpt lat="43.70011" lon="7.08183">
        <ele>332.79998779297</ele>
        <time>2014-01-19T10:13:42.000Z</time>
      </trkpt>
      <trkpt lat="43.70002" lon="7.08202">
        <ele>332.79998779297</ele>
        <time>2014-01-19T10:13:48.000Z</time>
      </trkpt>
      <trkpt lat="43.69995" lon="7.08208">
        <ele>332.79998779297</ele>
        <time>2014-01-19T10:13:51.000Z</time>
      </trkpt>
      <trkpt lat="43.69989" lon="7.08208">
        <ele>332.79998779297</ele>
        <time>2014-01-19T10:13:53.000Z</time>
      </trkpt>
      <trkpt lat="43.69986" lon="7.08203">
        <ele>332.79998779297</ele>
        <time>2014-01-19T10:13:54.000Z</time>
      </trkpt>
      <trkpt lat="43.6998" lon="7.08197">
        <ele>332.60000610352</ele>
        <time>2014-01-19T10:13:56.000Z</time>
      </trkpt>
      <trkpt lat="43.69978" lon="7.08193">
        <ele>332.60000610352</ele>
        <time>2014-01-19T10:13:57.000Z</time>
      </trkpt>
      <trkpt lat="43.69969" lon="7.08177">
        <ele>332.60000610352</ele>
        <time>2014-01-19T10:14:01.000Z</time>
      </trkpt>
      <trkpt lat="43.69955" lon="7.08156">
        <ele>332.60000610352</ele>
        <time>2014-01-19T10:14:06.000Z</time>
      </trkpt>
      <trkpt lat="43.69939" lon="7.08138">
        <ele>332.60000610352</ele>
        <time>2014-01-19T10:14:11.000Z</time>
      </trkpt>
      <trkpt lat="43.69933" lon="7.08131">
        <ele>332.60000610352</ele>
        <time>2014-01-19T10:14:13.000Z</time>
      </trkpt>
      <trkpt lat="43.69925" lon="7.0813">
        <ele>332.60000610352</ele>
        <time>2014-01-19T10:14:15.000Z</time>
      </trkpt>
      <trkpt lat="43.69921" lon="7.08132">
        <ele>332.60000610352</ele>
        <time>2014-01-19T10:14:16.000Z</time>
      </trkpt>
      <trkpt lat="43.6991" lon="7.08136">
        <ele>332.60000610352</ele>
        <time>2014-01-19T10:14:19.000Z</time>
      </trkpt>
      <trkpt lat="43.69887" lon="7.08142">
        <ele>332.20001220703</ele>
        <time>2014-01-19T10:14:25.000Z</time>
      </trkpt>
      <trkpt lat="43.69881" lon="7.08144">
        <ele>332.20001220703</ele>
        <time>2014-01-19T10:14:26.000Z</time>
      </trkpt>
      <trkpt lat="43.69872" lon="7.08143">
        <ele>332.20001220703</ele>
        <time>2014-01-19T10:14:28.000Z</time>
      </trkpt>
      <trkpt lat="43.69867" lon="7.08138">
        <ele>332.20001220703</ele>
        <time>2014-01-19T10:14:29.000Z</time>
      </trkpt>
      <trkpt lat="43.69849" lon="7.08129">
        <ele>332</ele>
        <time>2014-01-19T10:14:32.000Z</time>
      </trkpt>
      <trkpt lat="43.6984" lon="7.08127">
        <ele>331.79998779297</ele>
        <time>2014-01-19T10:14:33.000Z</time>
      </trkpt>
      <trkpt lat="43.69818" lon="7.08116">
        <ele>331.60000610352</ele>
        <time>2014-01-19T10:14:37.000Z</time>
      </trkpt>
      <trkpt lat="43.69808" lon="7.08112">
        <ele>331.39999389648</ele>
        <time>2014-01-19T10:14:39.000Z</time>
      </trkpt>
      <trkpt lat="43.69802" lon="7.0811">
        <ele>331.39999389648</ele>
        <time>2014-01-19T10:14:41.000Z</time>
      </trkpt>
      <trkpt lat="43.69796" lon="7.08112">
        <ele>331.20001220703</ele>
        <time>2014-01-19T10:14:43.000Z</time>
      </trkpt>
      <trkpt lat="43.69791" lon="7.08111">
        <ele>331.20001220703</ele>
        <time>2014-01-19T10:14:44.000Z</time>
      </trkpt>
      <trkpt lat="43.69781" lon="7.08108">
        <ele>331.20001220703</ele>
        <time>2014-01-19T10:14:46.000Z</time>
      </trkpt>
      <trkpt lat="43.69768" lon="7.08112">
        <ele>330.79998779297</ele>
        <time>2014-01-19T10:14:49.000Z</time>
      </trkpt>
      <trkpt lat="43.69761" lon="7.08116">
        <ele>330.39999389648</ele>
        <time>2014-01-19T10:14:51.000Z</time>
      </trkpt>
      <trkpt lat="43.6975" lon="7.08118">
        <ele>330</ele>
        <time>2014-01-19T10:14:54.000Z</time>
      </trkpt>
      <trkpt lat="43.69742" lon="7.08123">
        <ele>329.60000610352</ele>
        <time>2014-01-19T10:14:56.000Z</time>
      </trkpt>
      <trkpt lat="43.69739" lon="7.08124">
        <ele>329.39999389648</ele>
        <time>2014-01-19T10:14:57.000Z</time>
      </trkpt>
      <trkpt lat="43.69733" lon="7.08124">
        <ele>329.20001220703</ele>
        <time>2014-01-19T10:14:59.000Z</time>
      </trkpt>
      <trkpt lat="43.6973" lon="7.08124">
        <ele>329</ele>
        <time>2014-01-19T10:15:00.000Z</time>
      </trkpt>
      <trkpt lat="43.69711" lon="7.08124">
        <ele>327.39999389648</ele>
        <time>2014-01-19T10:15:06.000Z</time>
      </trkpt>
      <trkpt lat="43.69696" lon="7.08125">
        <ele>326.60000610352</ele>
        <time>2014-01-19T10:15:10.000Z</time>
      </trkpt>
      <trkpt lat="43.69676" lon="7.08135">
        <ele>325.20001220703</ele>
        <time>2014-01-19T10:15:15.000Z</time>
      </trkpt>
      <trkpt lat="43.69659" lon="7.08137">
        <ele>324.20001220703</ele>
        <time>2014-01-19T10:15:19.000Z</time>
      </trkpt>
      <trkpt lat="43.69656" lon="7.08137">
        <ele>324</ele>
        <time>2014-01-19T10:15:20.000Z</time>
      </trkpt>
      <trkpt lat="43.69653" lon="7.08136">
        <ele>323.79998779297</ele>
        <time>2014-01-19T10:15:21.000Z</time>
      </trkpt>
      <trkpt lat="43.69645" lon="7.08128">
        <ele>323</ele>
        <time>2014-01-19T10:15:24.000Z</time>
      </trkpt>
      <trkpt lat="43.69642" lon="7.08128">
        <ele>322.79998779297</ele>
        <time>2014-01-19T10:15:25.000Z</time>
      </trkpt>
      <trkpt lat="43.69637" lon="7.08131">
        <ele>322.20001220703</ele>
        <time>2014-01-19T10:15:27.000Z</time>
      </trkpt>
      <trkpt lat="43.69636" lon="7.08134">
        <ele>321.60000610352</ele>
        <time>2014-01-19T10:15:29.000Z</time>
      </trkpt>
      <trkpt lat="43.69632" lon="7.08138">
        <ele>321</ele>
        <time>2014-01-19T10:15:31.000Z</time>
      </trkpt>
      <trkpt lat="43.69629" lon="7.08141">
        <ele>320.79998779297</ele>
        <time>2014-01-19T10:15:32.000Z</time>
      </trkpt>
      <trkpt lat="43.69614" lon="7.08153">
        <ele>319.60000610352</ele>
        <time>2014-01-19T10:15:36.000Z</time>
      </trkpt>
      <trkpt lat="43.696" lon="7.08164">
        <ele>318.39999389648</ele>
        <time>2014-01-19T10:15:40.000Z</time>
      </trkpt>
      <trkpt lat="43.69595" lon="7.08168">
        <ele>318</ele>
        <time>2014-01-19T10:15:41.000Z</time>
      </trkpt>
      <trkpt lat="43.69587" lon="7.08173">
        <ele>317.39999389648</ele>
        <time>2014-01-19T10:15:43.000Z</time>
      </trkpt>
      <trkpt lat="43.69584" lon="7.08175">
        <ele>317.20001220703</ele>
        <time>2014-01-19T10:15:44.000Z</time>
      </trkpt>
      <trkpt lat="43.69574" lon="7.0818">
        <ele>316.20001220703</ele>
        <time>2014-01-19T10:15:47.000Z</time>
      </trkpt>
      <trkpt lat="43.69566" lon="7.08182">
        <ele>315.60000610352</ele>
        <time>2014-01-19T10:15:49.000Z</time>
      </trkpt>
      <trkpt lat="43.69555" lon="7.0819">
        <ele>314.60000610352</ele>
        <time>2014-01-19T10:15:52.000Z</time>
      </trkpt>
      <trkpt lat="43.69546" lon="7.08196">
        <ele>313.39999389648</ele>
        <time>2014-01-19T10:15:55.000Z</time>
      </trkpt>
      <trkpt lat="43.69544" lon="7.08197">
        <ele>313</ele>
        <time>2014-01-19T10:15:56.000Z</time>
      </trkpt>
      <trkpt lat="43.69541" lon="7.08196">
        <ele>312.79998779297</ele>
        <time>2014-01-19T10:15:57.000Z</time>
      </trkpt>
      <trkpt lat="43.69533" lon="7.08191">
        <ele>312</ele>
        <time>2014-01-19T10:15:59.000Z</time>
      </trkpt>
      <trkpt lat="43.69527" lon="7.08184">
        <ele>311.79998779297</ele>
        <time>2014-01-19T10:16:00.000Z</time>
      </trkpt>
      <trkpt lat="43.69517" lon="7.08175">
        <ele>310.79998779297</ele>
        <time>2014-01-19T10:16:02.000Z</time>
      </trkpt>
      <trkpt lat="43.69507" lon="7.08167">
        <ele>310</ele>
        <time>2014-01-19T10:16:04.000Z</time>
      </trkpt>
      <trkpt lat="43.69499" lon="7.0816">
        <ele>309</ele>
        <time>2014-01-19T10:16:06.000Z</time>
      </trkpt>
      <trkpt lat="43.69494" lon="7.08156">
        <ele>308.79998779297</ele>
        <time>2014-01-19T10:16:07.000Z</time>
      </trkpt>
      <trkpt lat="43.69483" lon="7.08136">
        <ele>307.39999389648</ele>
        <time>2014-01-19T10:16:10.000Z</time>
      </trkpt>
      <trkpt lat="43.69482" lon="7.08125">
        <ele>306.39999389648</ele>
        <time>2014-01-19T10:16:12.000Z</time>
      </trkpt>
      <trkpt lat="43.69483" lon="7.08108">
        <ele>305.39999389648</ele>
        <time>2014-01-19T10:16:14.000Z</time>
      </trkpt>
      <trkpt lat="43.69493" lon="7.08077">
        <ele>303.60000610352</ele>
        <time>2014-01-19T10:16:18.000Z</time>
      </trkpt>
      <trkpt lat="43.69495" lon="7.08073">
        <ele>303</ele>
        <time>2014-01-19T10:16:19.000Z</time>
      </trkpt>
      <trkpt lat="43.69498" lon="7.08065">
        <ele>302.20001220703</ele>
        <time>2014-01-19T10:16:21.000Z</time>
      </trkpt>
      <trkpt lat="43.695" lon="7.08051">
        <ele>300.79998779297</ele>
        <time>2014-01-19T10:16:24.000Z</time>
      </trkpt>
      <trkpt lat="43.69502" lon="7.08037">
        <ele>299.79998779297</ele>
        <time>2014-01-19T10:16:26.000Z</time>
      </trkpt>
      <trkpt lat="43.69503" lon="7.0802">
        <ele>298.60000610352</ele>
        <time>2014-01-19T10:16:29.000Z</time>
      </trkpt>
      <trkpt lat="43.69503" lon="7.08015">
        <ele>298.20001220703</ele>
        <time>2014-01-19T10:16:30.000Z</time>
      </trkpt>
      <trkpt lat="43.69496" lon="7.08002">
        <ele>296.60000610352</ele>
        <time>2014-01-19T10:16:34.000Z</time>
      </trkpt>
      <trkpt lat="43.69494" lon="7.08005">
        <ele>296.39999389648</ele>
        <time>2014-01-19T10:16:35.000Z</time>
      </trkpt>
      <trkpt lat="43.69493" lon="7.08014">
        <ele>295.60000610352</ele>
        <time>2014-01-19T10:16:37.000Z</time>
      </trkpt>
      <trkpt lat="43.69488" lon="7.08014">
        <ele>294.39999389648</ele>
        <time>2014-01-19T10:16:40.000Z</time>
      </trkpt>
      <trkpt lat="43.6948" lon="7.08024">
        <ele>294.20001220703</ele>
        <time>2014-01-19T10:16:41.000Z</time>
      </trkpt>
      <trkpt lat="43.69457" lon="7.08048">
        <ele>292.79998779297</ele>
        <time>2014-01-19T10:16:46.000Z</time>
      </trkpt>
      <trkpt lat="43.69453" lon="7.0805">
        <ele>292.39999389648</ele>
        <time>2014-01-19T10:16:47.000Z</time>
      </trkpt>
      <trkpt lat="43.69444" lon="7.08055">
        <ele>291.39999389648</ele>
        <time>2014-01-19T10:16:50.000Z</time>
      </trkpt>
      <trkpt lat="43.69435" lon="7.08053">
        <ele>290</ele>
        <time>2014-01-19T10:16:55.000Z</time>
      </trkpt>
      <trkpt lat="43.69433" lon="7.08056">
        <ele>289.39999389648</ele>
        <time>2014-01-19T10:16:57.000Z</time>
      </trkpt>
      <trkpt lat="43.69431" lon="7.08053">
        <ele>288.39999389648</ele>
        <time>2014-01-19T10:17:01.000Z</time>
      </trkpt>
      <trkpt lat="43.69432" lon="7.08044">
        <ele>287.20001220703</ele>
        <time>2014-01-19T10:17:06.000Z</time>
      </trkpt>
      <trkpt lat="43.69433" lon="7.08037">
        <ele>286</ele>
        <time>2014-01-19T10:17:10.000Z</time>
      </trkpt>
      <trkpt lat="43.69433" lon="7.08034">
        <ele>285.79998779297</ele>
        <time>2014-01-19T10:17:11.000Z</time>
      </trkpt>
      <trkpt lat="43.69433" lon="7.08032">
        <ele>285.20001220703</ele>
        <time>2014-01-19T10:17:13.000Z</time>
      </trkpt>
      <trkpt lat="43.69431" lon="7.08031">
        <ele>285</ele>
        <time>2014-01-19T10:17:14.000Z</time>
      </trkpt>
      <trkpt lat="43.69424" lon="7.08035">
        <ele>284.20001220703</ele>
        <time>2014-01-19T10:17:17.000Z</time>
      </trkpt>
      <trkpt lat="43.69415" lon="7.08033">
        <ele>283.79998779297</ele>
        <time>2014-01-19T10:17:20.000Z</time>
      </trkpt>
      <trkpt lat="43.69412" lon="7.08034">
        <ele>283.60000610352</ele>
        <time>2014-01-19T10:17:21.000Z</time>
      </trkpt>
      <trkpt lat="43.69397" lon="7.08033">
        <ele>282.39999389648</ele>
        <time>2014-01-19T10:17:26.000Z</time>
      </trkpt>
      <trkpt lat="43.69394" lon="7.08033">
        <ele>282</ele>
        <time>2014-01-19T10:17:28.000Z</time>
      </trkpt>
      <trkpt lat="43.69392" lon="7.08033">
        <ele>281.79998779297</ele>
        <time>2014-01-19T10:17:30.000Z</time>
      </trkpt>
      <trkpt lat="43.69392" lon="7.08031">
        <ele>281.60000610352</ele>
        <time>2014-01-19T10:17:31.000Z</time>
      </trkpt>
      <trkpt lat="43.69395" lon="7.08026">
        <ele>280.79998779297</ele>
        <time>2014-01-19T10:17:34.000Z</time>
      </trkpt>
      <trkpt lat="43.69404" lon="7.08018">
        <ele>279.39999389648</ele>
        <time>2014-01-19T10:17:40.000Z</time>
      </trkpt>
      <trkpt lat="43.69405" lon="7.08015">
        <ele>279</ele>
        <time>2014-01-19T10:17:41.000Z</time>
      </trkpt>
      <trkpt lat="43.69404" lon="7.08009">
        <ele>278.20001220703</ele>
        <time>2014-01-19T10:17:44.000Z</time>
      </trkpt>
      <trkpt lat="43.69401" lon="7.08004">
        <ele>277.60000610352</ele>
        <time>2014-01-19T10:17:46.000Z</time>
      </trkpt>
      <trkpt lat="43.69401" lon="7.08001">
        <ele>276.79998779297</ele>
        <time>2014-01-19T10:17:48.000Z</time>
      </trkpt>
      <trkpt lat="43.69399" lon="7.07999">
        <ele>276.39999389648</ele>
        <time>2014-01-19T10:17:49.000Z</time>
      </trkpt>
      <trkpt lat="43.69396" lon="7.07998">
        <ele>275.60000610352</ele>
        <time>2014-01-19T10:17:51.000Z</time>
      </trkpt>
      <trkpt lat="43.69387" lon="7.07997">
        <ele>274.39999389648</ele>
        <time>2014-01-19T10:17:54.000Z</time>
      </trkpt>
      <trkpt lat="43.69367" lon="7.0799">
        <ele>272.20001220703</ele>
        <time>2014-01-19T10:17:59.000Z</time>
      </trkpt>
      <trkpt lat="43.69351" lon="7.07989">
        <ele>269.60000610352</ele>
        <time>2014-01-19T10:18:04.000Z</time>
      </trkpt>
      <trkpt lat="43.69329" lon="7.07982">
        <ele>267</ele>
        <time>2014-01-19T10:18:09.000Z</time>
      </trkpt>
      <trkpt lat="43.69308" lon="7.07972">
        <ele>264.79998779297</ele>
        <time>2014-01-19T10:18:15.000Z</time>
      </trkpt>
      <trkpt lat="43.69292" lon="7.07973">
        <ele>263.20001220703</ele>
        <time>2014-01-19T10:18:20.000Z</time>
      </trkpt>
      <trkpt lat="43.69278" lon="7.07979">
        <ele>261.79998779297</ele>
        <time>2014-01-19T10:18:24.000Z</time>
      </trkpt>
      <trkpt lat="43.69263" lon="7.07983">
        <ele>260.20001220703</ele>
        <time>2014-01-19T10:18:29.000Z</time>
      </trkpt>
      <trkpt lat="43.69263" lon="7.07987">
        <ele>259.60000610352</ele>
        <time>2014-01-19T10:18:31.000Z</time>
      </trkpt>
      <trkpt lat="43.69263" lon="7.07989">
        <ele>258.20001220703</ele>
        <time>2014-01-19T10:18:35.000Z</time>
      </trkpt>
      <trkpt lat="43.69267" lon="7.08003">
        <ele>255.80000305176</ele>
        <time>2014-01-19T10:18:48.000Z</time>
      </trkpt>
      <trkpt lat="43.6927" lon="7.08008">
        <ele>255.19999694824</ele>
        <time>2014-01-19T10:18:52.000Z</time>
      </trkpt>
      <trkpt lat="43.69273" lon="7.08012">
        <ele>254.80000305176</ele>
        <time>2014-01-19T10:18:58.000Z</time>
      </trkpt>
      <trkpt lat="43.69274" lon="7.08019">
        <ele>254.19999694824</ele>
        <time>2014-01-19T10:19:03.000Z</time>
      </trkpt>
      <trkpt lat="43.69275" lon="7.0802">
        <ele>254.19999694824</ele>
        <time>2014-01-19T10:19:04.000Z</time>
      </trkpt>
      <trkpt lat="43.69282" lon="7.08025">
        <ele>253.39999389648</ele>
        <time>2014-01-19T10:19:11.000Z</time>
      </trkpt>
      <trkpt lat="43.69287" lon="7.0803">
        <ele>252.80000305176</ele>
        <time>2014-01-19T10:19:16.000Z</time>
      </trkpt>
      <trkpt lat="43.69286" lon="7.08029">
        <ele>252.80000305176</ele>
        <time>2014-01-19T10:19:17.000Z</time>
      </trkpt>
      <trkpt lat="43.6929" lon="7.08034">
        <ele>252.39999389648</ele>
        <time>2014-01-19T10:19:29.000Z</time>
      </trkpt>
      <trkpt lat="43.69292" lon="7.08035">
        <ele>252.60000610352</ele>
        <time>2014-01-19T10:19:32.000Z</time>
      </trkpt>
      <trkpt lat="43.69304" lon="7.08057">
        <ele>254.80000305176</ele>
        <time>2014-01-19T10:19:58.000Z</time>
      </trkpt>
      <trkpt lat="43.69307" lon="7.08061">
        <ele>255.39999389648</ele>
        <time>2014-01-19T10:20:01.000Z</time>
      </trkpt>
      <trkpt lat="43.69309" lon="7.08062">
        <ele>256</ele>
        <time>2014-01-19T10:20:03.000Z</time>
      </trkpt>
      <trkpt lat="43.69311" lon="7.08065">
        <ele>256.79998779297</ele>
        <time>2014-01-19T10:20:06.000Z</time>
      </trkpt>
      <trkpt lat="43.69313" lon="7.08067">
        <ele>257.60000610352</ele>
        <time>2014-01-19T10:20:08.000Z</time>
      </trkpt>
      <trkpt lat="43.69315" lon="7.08068">
        <ele>258.39999389648</ele>
        <time>2014-01-19T10:20:10.000Z</time>
      </trkpt>
      <trkpt lat="43.69318" lon="7.08071">
        <ele>259.79998779297</ele>
        <time>2014-01-19T10:20:15.000Z</time>
      </trkpt>
      <trkpt lat="43.69318" lon="7.08071">
        <ele>260</ele>
        <time>2014-01-19T10:20:16.000Z</time>
      </trkpt>
      <trkpt lat="43.69322" lon="7.08074">
        <ele>261.39999389648</ele>
        <time>2014-01-19T10:20:20.000Z</time>
      </trkpt>
      <trkpt lat="43.69325" lon="7.08073">
        <ele>261.60000610352</ele>
        <time>2014-01-19T10:20:22.000Z</time>
      </trkpt>
      <trkpt lat="43.69325" lon="7.08074">
        <ele>262.60000610352</ele>
        <time>2014-01-19T10:20:28.000Z</time>
      </trkpt>
      <trkpt lat="43.69328" lon="7.08075">
        <ele>262.60000610352</ele>
        <time>2014-01-19T10:20:30.000Z</time>
      </trkpt>
      <trkpt lat="43.69333" lon="7.08074">
        <ele>262.79998779297</ele>
        <time>2014-01-19T10:20:34.000Z</time>
      </trkpt>
      <trkpt lat="43.6934" lon="7.08082">
        <ele>262.60000610352</ele>
        <time>2014-01-19T10:20:38.000Z</time>
      </trkpt>
      <trkpt lat="43.69341" lon="7.08084">
        <ele>262.39999389648</ele>
        <time>2014-01-19T10:20:39.000Z</time>
      </trkpt>
      <trkpt lat="43.69356" lon="7.08089">
        <ele>261.79998779297</ele>
        <time>2014-01-19T10:20:45.000Z</time>
      </trkpt>
      <trkpt lat="43.69359" lon="7.0809">
        <ele>261.60000610352</ele>
        <time>2014-01-19T10:20:46.000Z</time>
      </trkpt>
      <trkpt lat="43.69368" lon="7.08095">
        <ele>261</ele>
        <time>2014-01-19T10:20:50.000Z</time>
      </trkpt>
      <trkpt lat="43.69376" lon="7.08101">
        <ele>260.79998779297</ele>
        <time>2014-01-19T10:20:55.000Z</time>
      </trkpt>
      <trkpt lat="43.69392" lon="7.08112">
        <ele>260.39999389648</ele>
        <time>2014-01-19T10:21:02.000Z</time>
      </trkpt>
      <trkpt lat="43.69403" lon="7.08121">
        <ele>260.39999389648</ele>
        <time>2014-01-19T10:21:06.000Z</time>
      </trkpt>
      <trkpt lat="43.69414" lon="7.08127">
        <ele>260.39999389648</ele>
        <time>2014-01-19T10:21:11.000Z</time>
      </trkpt>
      <trkpt lat="43.69422" lon="7.08128">
        <ele>260.39999389648</ele>
        <time>2014-01-19T10:21:13.000Z</time>
      </trkpt>
      <trkpt lat="43.69428" lon="7.08131">
        <ele>260.39999389648</ele>
        <time>2014-01-19T10:21:15.000Z</time>
      </trkpt>
      <trkpt lat="43.69437" lon="7.08135">
        <ele>260.60000610352</ele>
        <time>2014-01-19T10:21:19.000Z</time>
      </trkpt>
      <trkpt lat="43.69448" lon="7.08142">
        <ele>260.39999389648</ele>
        <time>2014-01-19T10:21:23.000Z</time>
      </trkpt>
      <trkpt lat="43.69458" lon="7.0814">
        <ele>260.39999389648</ele>
        <time>2014-01-19T10:21:27.000Z</time>
      </trkpt>
      <trkpt lat="43.6946" lon="7.08141">
        <ele>260.20001220703</ele>
        <time>2014-01-19T10:21:28.000Z</time>
      </trkpt>
      <trkpt lat="43.69462" lon="7.08145">
        <ele>260.20001220703</ele>
        <time>2014-01-19T10:21:29.000Z</time>
      </trkpt>
      <trkpt lat="43.69466" lon="7.08154">
        <ele>260</ele>
        <time>2014-01-19T10:21:32.000Z</time>
      </trkpt>
      <trkpt lat="43.69474" lon="7.08171">
        <ele>259.60000610352</ele>
        <time>2014-01-19T10:21:37.000Z</time>
      </trkpt>
      <trkpt lat="43.69475" lon="7.08183">
        <ele>259.60000610352</ele>
        <time>2014-01-19T10:21:42.000Z</time>
      </trkpt>
      <trkpt lat="43.6948" lon="7.08199">
        <ele>259.79998779297</ele>
        <time>2014-01-19T10:21:48.000Z</time>
      </trkpt>
      <trkpt lat="43.69482" lon="7.08203">
        <ele>259.79998779297</ele>
        <time>2014-01-19T10:21:50.000Z</time>
      </trkpt>
      <trkpt lat="43.69486" lon="7.0821">
        <ele>259.60000610352</ele>
        <time>2014-01-19T10:21:53.000Z</time>
      </trkpt>
      <trkpt lat="43.69491" lon="7.08227">
        <ele>259.39999389648</ele>
        <time>2014-01-19T10:21:59.000Z</time>
      </trkpt>
      <trkpt lat="43.69495" lon="7.08241">
        <ele>259.39999389648</ele>
        <time>2014-01-19T10:22:03.000Z</time>
      </trkpt>
      <trkpt lat="43.69502" lon="7.08252">
        <ele>259.39999389648</ele>
        <time>2014-01-19T10:22:07.000Z</time>
      </trkpt>
      <trkpt lat="43.69508" lon="7.08257">
        <ele>259.20001220703</ele>
        <time>2014-01-19T10:22:09.000Z</time>
      </trkpt>
      <trkpt lat="43.69521" lon="7.08266">
        <ele>259.20001220703</ele>
        <time>2014-01-19T10:22:13.000Z</time>
      </trkpt>
      <trkpt lat="43.69526" lon="7.08263">
        <ele>259.20001220703</ele>
        <time>2014-01-19T10:22:15.000Z</time>
      </trkpt>
      <trkpt lat="43.69528" lon="7.08259">
        <ele>259</ele>
        <time>2014-01-19T10:22:17.000Z</time>
      </trkpt>
      <trkpt lat="43.69531" lon="7.08258">
        <ele>259</ele>
        <time>2014-01-19T10:22:18.000Z</time>
      </trkpt>
      <trkpt lat="43.69539" lon="7.08255">
        <ele>258.79998779297</ele>
        <time>2014-01-19T10:22:22.000Z</time>
      </trkpt>
      <trkpt lat="43.6954" lon="7.08254">
        <ele>258.79998779297</ele>
        <time>2014-01-19T10:22:23.000Z</time>
      </trkpt>
      <trkpt lat="43.69549" lon="7.08249">
        <ele>258.60000610352</ele>
        <time>2014-01-19T10:22:29.000Z</time>
      </trkpt>
      <trkpt lat="43.69552" lon="7.08248">
        <ele>258.79998779297</ele>
        <time>2014-01-19T10:22:30.000Z</time>
      </trkpt>
      <trkpt lat="43.69554" lon="7.08243">
        <ele>258.60000610352</ele>
        <time>2014-01-19T10:22:32.000Z</time>
      </trkpt>
      <trkpt lat="43.69557" lon="7.08242">
        <ele>258.60000610352</ele>
        <time>2014-01-19T10:22:33.000Z</time>
      </trkpt>
      <trkpt lat="43.69563" lon="7.08242">
        <ele>258.60000610352</ele>
        <time>2014-01-19T10:22:36.000Z</time>
      </trkpt>
      <trkpt lat="43.69565" lon="7.08243">
        <ele>258.60000610352</ele>
        <time>2014-01-19T10:22:37.000Z</time>
      </trkpt>
      <trkpt lat="43.69577" lon="7.0825">
        <ele>259.79998779297</ele>
        <time>2014-01-19T10:22:43.000Z</time>
      </trkpt>
      <trkpt lat="43.6959" lon="7.08253">
        <ele>261.60000610352</ele>
        <time>2014-01-19T10:22:50.000Z</time>
      </trkpt>
      <trkpt lat="43.696" lon="7.08256">
        <ele>261.79998779297</ele>
        <time>2014-01-19T10:22:55.000Z</time>
      </trkpt>
      <trkpt lat="43.69603" lon="7.08255">
        <ele>262</ele>
        <time>2014-01-19T10:22:57.000Z</time>
      </trkpt>
      <trkpt lat="43.69606" lon="7.08258">
        <ele>262</ele>
        <time>2014-01-19T10:22:59.000Z</time>
      </trkpt>
      <trkpt lat="43.69613" lon="7.0826">
        <ele>261.79998779297</ele>
        <time>2014-01-19T10:23:02.000Z</time>
      </trkpt>
      <trkpt lat="43.69623" lon="7.08268">
        <ele>262.20001220703</ele>
        <time>2014-01-19T10:23:08.000Z</time>
      </trkpt>
      <trkpt lat="43.69634" lon="7.08272">
        <ele>262</ele>
        <time>2014-01-19T10:23:13.000Z</time>
      </trkpt>
      <trkpt lat="43.69646" lon="7.08286">
        <ele>262.39999389648</ele>
        <time>2014-01-19T10:23:19.000Z</time>
      </trkpt>
      <trkpt lat="43.69653" lon="7.08293">
        <ele>262.20001220703</ele>
        <time>2014-01-19T10:23:21.000Z</time>
      </trkpt>
      <trkpt lat="43.69658" lon="7.08298">
        <ele>262.39999389648</ele>
        <time>2014-01-19T10:23:23.000Z</time>
      </trkpt>
      <trkpt lat="43.69669" lon="7.08305">
        <ele>263.20001220703</ele>
        <time>2014-01-19T10:23:28.000Z</time>
      </trkpt>
      <trkpt lat="43.69672" lon="7.08305">
        <ele>263.39999389648</ele>
        <time>2014-01-19T10:23:29.000Z</time>
      </trkpt>
      <trkpt lat="43.69674" lon="7.08309">
        <ele>264</ele>
        <time>2014-01-19T10:23:31.000Z</time>
      </trkpt>
      <trkpt lat="43.69676" lon="7.0831">
        <ele>264.60000610352</ele>
        <time>2014-01-19T10:23:32.000Z</time>
      </trkpt>
      <trkpt lat="43.6968" lon="7.0831">
        <ele>265</ele>
        <time>2014-01-19T10:23:33.000Z</time>
      </trkpt>
      <trkpt lat="43.6969" lon="7.08314">
        <ele>266.20001220703</ele>
        <time>2014-01-19T10:23:36.000Z</time>
      </trkpt>
      <trkpt lat="43.69697" lon="7.0832">
        <ele>266.79998779297</ele>
        <time>2014-01-19T10:23:40.000Z</time>
      </trkpt>
      <trkpt lat="43.69706" lon="7.08333">
        <ele>267.39999389648</ele>
        <time>2014-01-19T10:23:45.000Z</time>
      </trkpt>
      <trkpt lat="43.69718" lon="7.0835">
        <ele>268.79998779297</ele>
        <time>2014-01-19T10:23:52.000Z</time>
      </trkpt>
      <trkpt lat="43.69728" lon="7.08358">
        <ele>270.20001220703</ele>
        <time>2014-01-19T10:23:58.000Z</time>
      </trkpt>
      <trkpt lat="43.69731" lon="7.08359">
        <ele>270.60000610352</ele>
        <time>2014-01-19T10:24:00.000Z</time>
      </trkpt>
      <trkpt lat="43.69741" lon="7.08367">
        <ele>271.60000610352</ele>
        <time>2014-01-19T10:24:04.000Z</time>
      </trkpt>
      <trkpt lat="43.69751" lon="7.0838">
        <ele>272.20001220703</ele>
        <time>2014-01-19T10:24:08.000Z</time>
      </trkpt>
      <trkpt lat="43.6976" lon="7.08382">
        <ele>272.60000610352</ele>
        <time>2014-01-19T10:24:12.000Z</time>
      </trkpt>
      <trkpt lat="43.69762" lon="7.08386">
        <ele>273</ele>
        <time>2014-01-19T10:24:14.000Z</time>
      </trkpt>
      <trkpt lat="43.69769" lon="7.0839">
        <ele>273</ele>
        <time>2014-01-19T10:24:17.000Z</time>
      </trkpt>
      <trkpt lat="43.69783" lon="7.08406">
        <ele>273.20001220703</ele>
        <time>2014-01-19T10:24:23.000Z</time>
      </trkpt>
      <trkpt lat="43.69786" lon="7.08415">
        <ele>273.79998779297</ele>
        <time>2014-01-19T10:24:25.000Z</time>
      </trkpt>
      <trkpt lat="43.69791" lon="7.08416">
        <ele>273.79998779297</ele>
        <time>2014-01-19T10:24:27.000Z</time>
      </trkpt>
      <trkpt lat="43.698" lon="7.08417">
        <ele>274</ele>
        <time>2014-01-19T10:24:31.000Z</time>
      </trkpt>
      <trkpt lat="43.69803" lon="7.08416">
        <ele>274.20001220703</ele>
        <time>2014-01-19T10:24:32.000Z</time>
      </trkpt>
      <trkpt lat="43.69815" lon="7.08412">
        <ele>274.79998779297</ele>
        <time>2014-01-19T10:24:38.000Z</time>
      </trkpt>
      <trkpt lat="43.69816" lon="7.08413">
        <ele>275</ele>
        <time>2014-01-19T10:24:39.000Z</time>
      </trkpt>
      <trkpt lat="43.6982" lon="7.0842">
        <ele>275.39999389648</ele>
        <time>2014-01-19T10:24:41.000Z</time>
      </trkpt>
      <trkpt lat="43.69825" lon="7.08426">
        <ele>276</ele>
        <time>2014-01-19T10:24:43.000Z</time>
      </trkpt>
      <trkpt lat="43.69844" lon="7.08452">
        <ele>277</ele>
        <time>2014-01-19T10:24:49.000Z</time>
      </trkpt>
      <trkpt lat="43.69856" lon="7.08464">
        <ele>277.39999389648</ele>
        <time>2014-01-19T10:24:52.000Z</time>
      </trkpt>
      <trkpt lat="43.69862" lon="7.08469">
        <ele>277.79998779297</ele>
        <time>2014-01-19T10:24:54.000Z</time>
      </trkpt>
      <trkpt lat="43.69865" lon="7.08469">
        <ele>278</ele>
        <time>2014-01-19T10:24:55.000Z</time>
      </trkpt>
      <trkpt lat="43.69879" lon="7.08484">
        <ele>278.79998779297</ele>
        <time>2014-01-19T10:25:00.000Z</time>
      </trkpt>
      <trkpt lat="43.69897" lon="7.08503">
        <ele>279.20001220703</ele>
        <time>2014-01-19T10:25:05.000Z</time>
      </trkpt>
      <trkpt lat="43.69905" lon="7.08509">
        <ele>279.20001220703</ele>
        <time>2014-01-19T10:25:07.000Z</time>
      </trkpt>
      <trkpt lat="43.69909" lon="7.08519">
        <ele>279</ele>
        <time>2014-01-19T10:25:09.000Z</time>
      </trkpt>
      <trkpt lat="43.69909" lon="7.08524">
        <ele>279</ele>
        <time>2014-01-19T10:25:10.000Z</time>
      </trkpt>
      <trkpt lat="43.69913" lon="7.08546">
        <ele>279</ele>
        <time>2014-01-19T10:25:13.000Z</time>
      </trkpt>
      <trkpt lat="43.6992" lon="7.08567">
        <ele>278.79998779297</ele>
        <time>2014-01-19T10:25:16.000Z</time>
      </trkpt>
      <trkpt lat="43.69926" lon="7.08577">
        <ele>278.79998779297</ele>
        <time>2014-01-19T10:25:18.000Z</time>
      </trkpt>
      <trkpt lat="43.69936" lon="7.08583">
        <ele>278.60000610352</ele>
        <time>2014-01-19T10:25:20.000Z</time>
      </trkpt>
      <trkpt lat="43.69939" lon="7.08585">
        <ele>278.60000610352</ele>
        <time>2014-01-19T10:25:21.000Z</time>
      </trkpt>
      <trkpt lat="43.6995" lon="7.08597">
        <ele>278.20001220703</ele>
        <time>2014-01-19T10:25:25.000Z</time>
      </trkpt>
      <trkpt lat="43.69953" lon="7.08599">
        <ele>278.20001220703</ele>
        <time>2014-01-19T10:25:26.000Z</time>
      </trkpt>
      <trkpt lat="43.69971" lon="7.08618">
        <ele>278.20001220703</ele>
        <time>2014-01-19T10:25:33.000Z</time>
      </trkpt>
      <trkpt lat="43.69989" lon="7.08633">
        <ele>278</ele>
        <time>2014-01-19T10:25:40.000Z</time>
      </trkpt>
      <trkpt lat="43.70001" lon="7.08637">
        <ele>278</ele>
        <time>2014-01-19T10:25:45.000Z</time>
      </trkpt>
      <trkpt lat="43.70012" lon="7.08651">
        <ele>279.20001220703</ele>
        <time>2014-01-19T10:25:51.000Z</time>
      </trkpt>
      <trkpt lat="43.70016" lon="7.0866">
        <ele>280.39999389648</ele>
        <time>2014-01-19T10:25:54.000Z</time>
      </trkpt>
      <trkpt lat="43.7002" lon="7.08668">
        <ele>281</ele>
        <time>2014-01-19T10:25:56.000Z</time>
      </trkpt>
      <trkpt lat="43.70028" lon="7.08672">
        <ele>282.60000610352</ele>
        <time>2014-01-19T10:25:59.000Z</time>
      </trkpt>
      <trkpt lat="43.70035" lon="7.08674">
        <ele>283.20001220703</ele>
        <time>2014-01-19T10:26:01.000Z</time>
      </trkpt>
      <trkpt lat="43.70042" lon="7.08679">
        <ele>284</ele>
        <time>2014-01-19T10:26:04.000Z</time>
      </trkpt>
      <trkpt lat="43.70043" lon="7.08682">
        <ele>284.39999389648</ele>
        <time>2014-01-19T10:26:05.000Z</time>
      </trkpt>
      <trkpt lat="43.70054" lon="7.08687">
        <ele>285.60000610352</ele>
        <time>2014-01-19T10:26:09.000Z</time>
      </trkpt>
      <trkpt lat="43.70056" lon="7.08687">
        <ele>285.79998779297</ele>
        <time>2014-01-19T10:26:10.000Z</time>
      </trkpt>
      <trkpt lat="43.70073" lon="7.08688">
        <ele>286.79998779297</ele>
        <time>2014-01-19T10:26:15.000Z</time>
      </trkpt>
      <trkpt lat="43.70099" lon="7.08689">
        <ele>287.79998779297</ele>
        <time>2014-01-19T10:26:23.000Z</time>
      </trkpt>
      <trkpt lat="43.70102" lon="7.08689">
        <ele>288</ele>
        <time>2014-01-19T10:26:24.000Z</time>
      </trkpt>
      <trkpt lat="43.70107" lon="7.08681">
        <ele>288</ele>
        <time>2014-01-19T10:26:26.000Z</time>
      </trkpt>
      <trkpt lat="43.70108" lon="7.08669">
        <ele>288.20001220703</ele>
        <time>2014-01-19T10:26:29.000Z</time>
      </trkpt>
      <trkpt lat="43.70105" lon="7.08664">
        <ele>288.60000610352</ele>
        <time>2014-01-19T10:26:31.000Z</time>
      </trkpt>
      <trkpt lat="43.70092" lon="7.08657">
        <ele>289.20001220703</ele>
        <time>2014-01-19T10:26:35.000Z</time>
      </trkpt>
      <trkpt lat="43.7006" lon="7.08643">
        <ele>289.79998779297</ele>
        <time>2014-01-19T10:26:41.000Z</time>
      </trkpt>
      <trkpt lat="43.70052" lon="7.08637">
        <ele>290</ele>
        <time>2014-01-19T10:26:43.000Z</time>
      </trkpt>
      <trkpt lat="43.70041" lon="7.08626">
        <ele>290.39999389648</ele>
        <time>2014-01-19T10:26:45.000Z</time>
      </trkpt>
      <trkpt lat="43.70033" lon="7.08619">
        <ele>290.39999389648</ele>
        <time>2014-01-19T10:26:46.000Z</time>
      </trkpt>
      <trkpt lat="43.70026" lon="7.08601">
        <ele>290.20001220703</ele>
        <time>2014-01-19T10:26:49.000Z</time>
      </trkpt>
      <trkpt lat="43.70032" lon="7.08599">
        <ele>290</ele>
        <time>2014-01-19T10:26:51.000Z</time>
      </trkpt>
      <trkpt lat="43.70034" lon="7.08597">
        <ele>290.20001220703</ele>
        <time>2014-01-19T10:26:53.000Z</time>
      </trkpt>
      <trkpt lat="43.70042" lon="7.08584">
        <ele>289.79998779297</ele>
        <time>2014-01-19T10:26:59.000Z</time>
      </trkpt>
      <trkpt lat="43.70043" lon="7.08585">
        <ele>289.79998779297</ele>
        <time>2014-01-19T10:27:00.000Z</time>
      </trkpt>
      <trkpt lat="43.70048" lon="7.08584">
        <ele>289.39999389648</ele>
        <time>2014-01-19T10:27:03.000Z</time>
      </trkpt>
      <trkpt lat="43.70052" lon="7.08583">
        <ele>289.39999389648</ele>
        <time>2014-01-19T10:27:05.000Z</time>
      </trkpt>
      <trkpt lat="43.70054" lon="7.08582">
        <ele>289.20001220703</ele>
        <time>2014-01-19T10:27:07.000Z</time>
      </trkpt>
      <trkpt lat="43.70055" lon="7.0858">
        <ele>289</ele>
        <time>2014-01-19T10:27:09.000Z</time>
      </trkpt>
      <trkpt lat="43.70055" lon="7.08581">
        <ele>289</ele>
        <time>2014-01-19T10:27:11.000Z</time>
      </trkpt>
      <trkpt lat="43.70055" lon="7.0858">
        <ele>289</ele>
        <time>2014-01-19T10:27:12.000Z</time>
      </trkpt>
      <trkpt lat="43.7006" lon="7.08578">
        <ele>288.79998779297</ele>
        <time>2014-01-19T10:27:19.000Z</time>
      </trkpt>
      <trkpt lat="43.70062" lon="7.08575">
        <ele>288.79998779297</ele>
        <time>2014-01-19T10:27:21.000Z</time>
      </trkpt>
      <trkpt lat="43.70062" lon="7.08575">
        <ele>288.79998779297</ele>
        <time>2014-01-19T10:27:23.000Z</time>
      </trkpt>
      <trkpt lat="43.70067" lon="7.08571">
        <ele>289.20001220703</ele>
        <time>2014-01-19T10:27:29.000Z</time>
      </trkpt>
      <trkpt lat="43.70071" lon="7.08568">
        <ele>290</ele>
        <time>2014-01-19T10:27:34.000Z</time>
      </trkpt>
      <trkpt lat="43.70072" lon="7.08568">
        <ele>290.39999389648</ele>
        <time>2014-01-19T10:27:36.000Z</time>
      </trkpt>
      <trkpt lat="43.70073" lon="7.0857">
        <ele>291</ele>
        <time>2014-01-19T10:27:40.000Z</time>
      </trkpt>
      <trkpt lat="43.7008" lon="7.08563">
        <ele>292.20001220703</ele>
        <time>2014-01-19T10:27:46.000Z</time>
      </trkpt>
      <trkpt lat="43.70092" lon="7.08556">
        <ele>292.60000610352</ele>
        <time>2014-01-19T10:27:51.000Z</time>
      </trkpt>
      <trkpt lat="43.7012" lon="7.08535">
        <ele>292.79998779297</ele>
        <time>2014-01-19T10:27:59.000Z</time>
      </trkpt>
      <trkpt lat="43.70136" lon="7.08531">
        <ele>293.20001220703</ele>
        <time>2014-01-19T10:28:04.000Z</time>
      </trkpt>
      <trkpt lat="43.70155" lon="7.08525">
        <ele>293</ele>
        <time>2014-01-19T10:28:10.000Z</time>
      </trkpt>
      <trkpt lat="43.70169" lon="7.08524">
        <ele>293.20001220703</ele>
        <time>2014-01-19T10:28:14.000Z</time>
      </trkpt>
      <trkpt lat="43.70171" lon="7.08528">
        <ele>293.20001220703</ele>
        <time>2014-01-19T10:28:15.000Z</time>
      </trkpt>
      <trkpt lat="43.70175" lon="7.08537">
        <ele>293.39999389648</ele>
        <time>2014-01-19T10:28:17.000Z</time>
      </trkpt>
      <trkpt lat="43.70178" lon="7.08553">
        <ele>293</ele>
        <time>2014-01-19T10:28:19.000Z</time>
      </trkpt>
      <trkpt lat="43.70181" lon="7.08567">
        <ele>293.20001220703</ele>
        <time>2014-01-19T10:28:21.000Z</time>
      </trkpt>
      <trkpt lat="43.70179" lon="7.08578">
        <ele>293.20001220703</ele>
        <time>2014-01-19T10:28:23.000Z</time>
      </trkpt>
      <trkpt lat="43.70179" lon="7.08604">
        <ele>293.60000610352</ele>
        <time>2014-01-19T10:28:26.000Z</time>
      </trkpt>
      <trkpt lat="43.7018" lon="7.08612">
        <ele>293.20001220703</ele>
        <time>2014-01-19T10:28:27.000Z</time>
      </trkpt>
      <trkpt lat="43.70186" lon="7.08624">
        <ele>293.20001220703</ele>
        <time>2014-01-19T10:28:29.000Z</time>
      </trkpt>
      <trkpt lat="43.70193" lon="7.0863">
        <ele>293.20001220703</ele>
        <time>2014-01-19T10:28:31.000Z</time>
      </trkpt>
      <trkpt lat="43.70197" lon="7.08633">
        <ele>293.20001220703</ele>
        <time>2014-01-19T10:28:32.000Z</time>
      </trkpt>
      <trkpt lat="43.70199" lon="7.0863">
        <ele>293.20001220703</ele>
        <time>2014-01-19T10:28:33.000Z</time>
      </trkpt>
      <trkpt lat="43.70206" lon="7.08626">
        <ele>293.20001220703</ele>
        <time>2014-01-19T10:28:35.000Z</time>
      </trkpt>
      <trkpt lat="43.70212" lon="7.08621">
        <ele>293.20001220703</ele>
        <time>2014-01-19T10:28:36.000Z</time>
      </trkpt>
      <trkpt lat="43.70218" lon="7.08608">
        <ele>293</ele>
        <time>2014-01-19T10:28:38.000Z</time>
      </trkpt>
      <trkpt lat="43.70225" lon="7.08593">
        <ele>292.79998779297</ele>
        <time>2014-01-19T10:28:42.000Z</time>
      </trkpt>
      <trkpt lat="43.70227" lon="7.0859">
        <ele>292.79998779297</ele>
        <time>2014-01-19T10:28:43.000Z</time>
      </trkpt>
      <trkpt lat="43.70243" lon="7.08578">
        <ele>292.39999389648</ele>
        <time>2014-01-19T10:28:49.000Z</time>
      </trkpt>
      <trkpt lat="43.70255" lon="7.0857">
        <ele>292.20001220703</ele>
        <time>2014-01-19T10:28:54.000Z</time>
      </trkpt>
      <trkpt lat="43.70262" lon="7.08565">
        <ele>292</ele>
        <time>2014-01-19T10:28:58.000Z</time>
      </trkpt>
      <trkpt lat="43.70274" lon="7.08563">
        <ele>291.79998779297</ele>
        <time>2014-01-19T10:29:05.000Z</time>
      </trkpt>
      <trkpt lat="43.70287" lon="7.08549">
        <ele>291.60000610352</ele>
        <time>2014-01-19T10:29:11.000Z</time>
      </trkpt>
      <trkpt lat="43.70304" lon="7.08541">
        <ele>291.39999389648</ele>
        <time>2014-01-19T10:29:18.000Z</time>
      </trkpt>
      <trkpt lat="43.70326" lon="7.08529">
        <ele>291.20001220703</ele>
        <time>2014-01-19T10:29:23.000Z</time>
      </trkpt>
      <trkpt lat="43.70335" lon="7.08528">
        <ele>291.20001220703</ele>
        <time>2014-01-19T10:29:26.000Z</time>
      </trkpt>
      <trkpt lat="43.70338" lon="7.08529">
        <ele>291.39999389648</ele>
        <time>2014-01-19T10:29:27.000Z</time>
      </trkpt>
      <trkpt lat="43.70342" lon="7.08536">
        <ele>291.39999389648</ele>
        <time>2014-01-19T10:29:29.000Z</time>
      </trkpt>
      <trkpt lat="43.70341" lon="7.08545">
        <ele>291.39999389648</ele>
        <time>2014-01-19T10:29:31.000Z</time>
      </trkpt>
      <trkpt lat="43.70328" lon="7.08576">
        <ele>292.60000610352</ele>
        <time>2014-01-19T10:29:34.000Z</time>
      </trkpt>
      <trkpt lat="43.70325" lon="7.08584">
        <ele>292.79998779297</ele>
        <time>2014-01-19T10:29:35.000Z</time>
      </trkpt>
      <trkpt lat="43.70326" lon="7.08597">
        <ele>293</ele>
        <time>2014-01-19T10:29:38.000Z</time>
      </trkpt>
      <trkpt lat="43.7033" lon="7.08609">
        <ele>292.79998779297</ele>
        <time>2014-01-19T10:29:40.000Z</time>
      </trkpt>
      <trkpt lat="43.70338" lon="7.08629">
        <ele>292.60000610352</ele>
        <time>2014-01-19T10:29:43.000Z</time>
      </trkpt>
      <trkpt lat="43.70348" lon="7.08641">
        <ele>292.60000610352</ele>
        <time>2014-01-19T10:29:45.000Z</time>
      </trkpt>
      <trkpt lat="43.7037" lon="7.08675">
        <ele>292.20001220703</ele>
        <time>2014-01-19T10:29:51.000Z</time>
      </trkpt>
      <trkpt lat="43.70381" lon="7.08691">
        <ele>292</ele>
        <time>2014-01-19T10:29:54.000Z</time>
      </trkpt>
      <trkpt lat="43.7039" lon="7.08699">
        <ele>291.79998779297</ele>
        <time>2014-01-19T10:29:56.000Z</time>
      </trkpt>
      <trkpt lat="43.70396" lon="7.08698">
        <ele>291.79998779297</ele>
        <time>2014-01-19T10:29:57.000Z</time>
      </trkpt>
      <trkpt lat="43.70408" lon="7.08694">
        <ele>291.60000610352</ele>
        <time>2014-01-19T10:29:59.000Z</time>
      </trkpt>
      <trkpt lat="43.70425" lon="7.08692">
        <ele>291.60000610352</ele>
        <time>2014-01-19T10:30:02.000Z</time>
      </trkpt>
      <trkpt lat="43.7043" lon="7.08689">
        <ele>291.60000610352</ele>
        <time>2014-01-19T10:30:03.000Z</time>
      </trkpt>
      <trkpt lat="43.70448" lon="7.08674">
        <ele>291.39999389648</ele>
        <time>2014-01-19T10:30:07.000Z</time>
      </trkpt>
      <trkpt lat="43.70457" lon="7.0867">
        <ele>291.39999389648</ele>
        <time>2014-01-19T10:30:09.000Z</time>
      </trkpt>
      <trkpt lat="43.70465" lon="7.08665">
        <ele>291.60000610352</ele>
        <time>2014-01-19T10:30:11.000Z</time>
      </trkpt>
      <trkpt lat="43.70473" lon="7.08662">
        <ele>291.60000610352</ele>
        <time>2014-01-19T10:30:13.000Z</time>
      </trkpt>
      <trkpt lat="43.70491" lon="7.08656">
        <ele>292.20001220703</ele>
        <time>2014-01-19T10:30:17.000Z</time>
      </trkpt>
      <trkpt lat="43.70495" lon="7.08654">
        <ele>292.39999389648</ele>
        <time>2014-01-19T10:30:18.000Z</time>
      </trkpt>
      <trkpt lat="43.7051" lon="7.08644">
        <ele>292.79998779297</ele>
        <time>2014-01-19T10:30:22.000Z</time>
      </trkpt>
      <trkpt lat="43.70515" lon="7.08641">
        <ele>292.79998779297</ele>
        <time>2014-01-19T10:30:23.000Z</time>
      </trkpt>
      <trkpt lat="43.70525" lon="7.08638">
        <ele>293</ele>
        <time>2014-01-19T10:30:25.000Z</time>
      </trkpt>
      <trkpt lat="43.70531" lon="7.08638">
        <ele>293.20001220703</ele>
        <time>2014-01-19T10:30:26.000Z</time>
      </trkpt>
      <trkpt lat="43.70566" lon="7.08636">
        <ele>293.39999389648</ele>
        <time>2014-01-19T10:30:33.000Z</time>
      </trkpt>
      <trkpt lat="43.70575" lon="7.08636">
        <ele>293.79998779297</ele>
        <time>2014-01-19T10:30:35.000Z</time>
      </trkpt>
      <trkpt lat="43.70583" lon="7.08639">
        <ele>293.79998779297</ele>
        <time>2014-01-19T10:30:38.000Z</time>
      </trkpt>
      <trkpt lat="43.70586" lon="7.08641">
        <ele>294</ele>
        <time>2014-01-19T10:30:39.000Z</time>
      </trkpt>
      <trkpt lat="43.70593" lon="7.0865">
        <ele>293.79998779297</ele>
        <time>2014-01-19T10:30:42.000Z</time>
      </trkpt>
      <trkpt lat="43.706" lon="7.0866">
        <ele>294.79998779297</ele>
        <time>2014-01-19T10:30:47.000Z</time>
      </trkpt>
      <trkpt lat="43.70613" lon="7.08669">
        <ele>295.79998779297</ele>
        <time>2014-01-19T10:30:53.000Z</time>
      </trkpt>
      <trkpt lat="43.70621" lon="7.08682">
        <ele>295.79998779297</ele>
        <time>2014-01-19T10:30:57.000Z</time>
      </trkpt>
      <trkpt lat="43.70634" lon="7.08691">
        <ele>296.60000610352</ele>
        <time>2014-01-19T10:31:03.000Z</time>
      </trkpt>
      <trkpt lat="43.70645" lon="7.08701">
        <ele>297.79998779297</ele>
        <time>2014-01-19T10:31:08.000Z</time>
      </trkpt>
      <trkpt lat="43.70655" lon="7.08711">
        <ele>298.39999389648</ele>
        <time>2014-01-19T10:31:13.000Z</time>
      </trkpt>
      <trkpt lat="43.7067" lon="7.08727">
        <ele>298.79998779297</ele>
        <time>2014-01-19T10:31:19.000Z</time>
      </trkpt>
      <trkpt lat="43.7068" lon="7.0874">
        <ele>298.39999389648</ele>
        <time>2014-01-19T10:31:23.000Z</time>
      </trkpt>
      <trkpt lat="43.70683" lon="7.0874">
        <ele>298.39999389648</ele>
        <time>2014-01-19T10:31:24.000Z</time>
      </trkpt>
      <trkpt lat="43.70689" lon="7.08746">
        <ele>298.60000610352</ele>
        <time>2014-01-19T10:31:26.000Z</time>
      </trkpt>
      <trkpt lat="43.70702" lon="7.0876">
        <ele>298.39999389648</ele>
        <time>2014-01-19T10:31:31.000Z</time>
      </trkpt>
      <trkpt lat="43.70718" lon="7.08779">
        <ele>298.20001220703</ele>
        <time>2014-01-19T10:31:37.000Z</time>
      </trkpt>
      <trkpt lat="43.70729" lon="7.08787">
        <ele>298.20001220703</ele>
        <time>2014-01-19T10:31:41.000Z</time>
      </trkpt>
      <trkpt lat="43.70737" lon="7.08802">
        <ele>298.39999389648</ele>
        <time>2014-01-19T10:31:45.000Z</time>
      </trkpt>
      <trkpt lat="43.70752" lon="7.08818">
        <ele>298.79998779297</ele>
        <time>2014-01-19T10:31:50.000Z</time>
      </trkpt>
      <trkpt lat="43.70767" lon="7.08827">
        <ele>298.79998779297</ele>
        <time>2014-01-19T10:31:54.000Z</time>
      </trkpt>
      <trkpt lat="43.70777" lon="7.08834">
        <ele>299.20001220703</ele>
        <time>2014-01-19T10:31:59.000Z</time>
      </trkpt>
      <trkpt lat="43.70783" lon="7.0883">
        <ele>299.60000610352</ele>
        <time>2014-01-19T10:32:03.000Z</time>
      </trkpt>
      <trkpt lat="43.70793" lon="7.0883">
        <ele>300.20001220703</ele>
        <time>2014-01-19T10:32:07.000Z</time>
      </trkpt>
      <trkpt lat="43.70795" lon="7.0883">
        <ele>300.39999389648</ele>
        <time>2014-01-19T10:32:08.000Z</time>
      </trkpt>
      <trkpt lat="43.70812" lon="7.0883">
        <ele>301.20001220703</ele>
        <time>2014-01-19T10:32:14.000Z</time>
      </trkpt>
      <trkpt lat="43.70828" lon="7.08831">
        <ele>301.79998779297</ele>
        <time>2014-01-19T10:32:19.000Z</time>
      </trkpt>
      <trkpt lat="43.70844" lon="7.08838">
        <ele>302.60000610352</ele>
        <time>2014-01-19T10:32:25.000Z</time>
      </trkpt>
      <trkpt lat="43.70852" lon="7.08847">
        <ele>303.20001220703</ele>
        <time>2014-01-19T10:32:28.000Z</time>
      </trkpt>
      <trkpt lat="43.70852" lon="7.08851">
        <ele>302.79998779297</ele>
        <time>2014-01-19T10:32:30.000Z</time>
      </trkpt>
      <trkpt lat="43.70851" lon="7.0886">
        <ele>302.79998779297</ele>
        <time>2014-01-19T10:32:33.000Z</time>
      </trkpt>
      <trkpt lat="43.70851" lon="7.08867">
        <ele>302.79998779297</ele>
        <time>2014-01-19T10:32:35.000Z</time>
      </trkpt>
      <trkpt lat="43.70848" lon="7.08878">
        <ele>303.60000610352</ele>
        <time>2014-01-19T10:32:38.000Z</time>
      </trkpt>
      <trkpt lat="43.70846" lon="7.08884">
        <ele>303.79998779297</ele>
        <time>2014-01-19T10:32:39.000Z</time>
      </trkpt>
      <trkpt lat="43.70843" lon="7.08897">
        <ele>304.79998779297</ele>
        <time>2014-01-19T10:32:43.000Z</time>
      </trkpt>
      <trkpt lat="43.70844" lon="7.08901">
        <ele>305.39999389648</ele>
        <time>2014-01-19T10:32:44.000Z</time>
      </trkpt>
      <trkpt lat="43.70851" lon="7.0891">
        <ele>306.60000610352</ele>
        <time>2014-01-19T10:32:48.000Z</time>
      </trkpt>
      <trkpt lat="43.70859" lon="7.08923">
        <ele>307</ele>
        <time>2014-01-19T10:32:53.000Z</time>
      </trkpt>
      <trkpt lat="43.70865" lon="7.08929">
        <ele>306.79998779297</ele>
        <time>2014-01-19T10:32:56.000Z</time>
      </trkpt>
      <trkpt lat="43.70869" lon="7.08933">
        <ele>306.79998779297</ele>
        <time>2014-01-19T10:32:59.000Z</time>
      </trkpt>
      <trkpt lat="43.70871" lon="7.08935">
        <ele>306.79998779297</ele>
        <time>2014-01-19T10:33:00.000Z</time>
      </trkpt>
      <trkpt lat="43.70877" lon="7.08939">
        <ele>307.20001220703</ele>
        <time>2014-01-19T10:33:04.000Z</time>
      </trkpt>
      <trkpt lat="43.70887" lon="7.08946">
        <ele>308</ele>
        <time>2014-01-19T10:33:10.000Z</time>
      </trkpt>
      <trkpt lat="43.70888" lon="7.08946">
        <ele>308</ele>
        <time>2014-01-19T10:33:11.000Z</time>
      </trkpt>
      <trkpt lat="43.70895" lon="7.0895">
        <ele>308.79998779297</ele>
        <time>2014-01-19T10:33:15.000Z</time>
      </trkpt>
      <trkpt lat="43.70895" lon="7.08952">
        <ele>308.60000610352</ele>
        <time>2014-01-19T10:33:16.000Z</time>
      </trkpt>
      <trkpt lat="43.70893" lon="7.08961">
        <ele>309.39999389648</ele>
        <time>2014-01-19T10:33:19.000Z</time>
      </trkpt>
      <trkpt lat="43.7089" lon="7.08972">
        <ele>310.60000610352</ele>
        <time>2014-01-19T10:33:23.000Z</time>
      </trkpt>
      <trkpt lat="43.70888" lon="7.08975">
        <ele>310.60000610352</ele>
        <time>2014-01-19T10:33:24.000Z</time>
      </trkpt>
      <trkpt lat="43.70887" lon="7.0898">
        <ele>310.79998779297</ele>
        <time>2014-01-19T10:33:25.000Z</time>
      </trkpt>
      <trkpt lat="43.70879" lon="7.09001">
        <ele>311</ele>
        <time>2014-01-19T10:33:30.000Z</time>
      </trkpt>
      <trkpt lat="43.70872" lon="7.09018">
        <ele>312</ele>
        <time>2014-01-19T10:33:35.000Z</time>
      </trkpt>
      <trkpt lat="43.70867" lon="7.09043">
        <ele>313</ele>
        <time>2014-01-19T10:33:39.000Z</time>
      </trkpt>
      <trkpt lat="43.70858" lon="7.09062">
        <ele>314</ele>
        <time>2014-01-19T10:33:44.000Z</time>
      </trkpt>
      <trkpt lat="43.70854" lon="7.09068">
        <ele>314</ele>
        <time>2014-01-19T10:33:46.000Z</time>
      </trkpt>
      <trkpt lat="43.70849" lon="7.09071">
        <ele>315</ele>
        <time>2014-01-19T10:33:48.000Z</time>
      </trkpt>
      <trkpt lat="43.70834" lon="7.09077">
        <ele>315</ele>
        <time>2014-01-19T10:33:53.000Z</time>
      </trkpt>
      <trkpt lat="43.70818" lon="7.0908">
        <ele>315.20001220703</ele>
        <time>2014-01-19T10:33:57.000Z</time>
      </trkpt>
      <trkpt lat="43.70789" lon="7.09083">
        <ele>316.60000610352</ele>
        <time>2014-01-19T10:34:03.000Z</time>
      </trkpt>
      <trkpt lat="43.70785" lon="7.09081">
        <ele>316.60000610352</ele>
        <time>2014-01-19T10:34:04.000Z</time>
      </trkpt>
      <trkpt lat="43.7077" lon="7.09073">
        <ele>316.60000610352</ele>
        <time>2014-01-19T10:34:07.000Z</time>
      </trkpt>
      <trkpt lat="43.7076" lon="7.09073">
        <ele>316.79998779297</ele>
        <time>2014-01-19T10:34:09.000Z</time>
      </trkpt>
      <trkpt lat="43.70746" lon="7.09072">
        <ele>316.79998779297</ele>
        <time>2014-01-19T10:34:12.000Z</time>
      </trkpt>
      <trkpt lat="43.70735" lon="7.0907">
        <ele>317</ele>
        <time>2014-01-19T10:34:14.000Z</time>
      </trkpt>
      <trkpt lat="43.70725" lon="7.09068">
        <ele>317.79998779297</ele>
        <time>2014-01-19T10:34:17.000Z</time>
      </trkpt>
      <trkpt lat="43.70717" lon="7.09067">
        <ele>318.20001220703</ele>
        <time>2014-01-19T10:34:19.000Z</time>
      </trkpt>
      <trkpt lat="43.70705" lon="7.09065">
        <ele>318.39999389648</ele>
        <time>2014-01-19T10:34:22.000Z</time>
      </trkpt>
      <trkpt lat="43.707" lon="7.09065">
        <ele>318.79998779297</ele>
        <time>2014-01-19T10:34:23.000Z</time>
      </trkpt>
      <trkpt lat="43.70686" lon="7.09064">
        <ele>319.39999389648</ele>
        <time>2014-01-19T10:34:26.000Z</time>
      </trkpt>
      <trkpt lat="43.70673" lon="7.09059">
        <ele>319.60000610352</ele>
        <time>2014-01-19T10:34:29.000Z</time>
      </trkpt>
      <trkpt lat="43.70669" lon="7.09057">
        <ele>319.39999389648</ele>
        <time>2014-01-19T10:34:30.000Z</time>
      </trkpt>
      <trkpt lat="43.70664" lon="7.09054">
        <ele>319.60000610352</ele>
        <time>2014-01-19T10:34:31.000Z</time>
      </trkpt>
      <trkpt lat="43.70647" lon="7.09049">
        <ele>319.79998779297</ele>
        <time>2014-01-19T10:34:34.000Z</time>
      </trkpt>
      <trkpt lat="43.70637" lon="7.09049">
        <ele>319.39999389648</ele>
        <time>2014-01-19T10:34:36.000Z</time>
      </trkpt>
      <trkpt lat="43.70627" lon="7.09047">
        <ele>319.39999389648</ele>
        <time>2014-01-19T10:34:38.000Z</time>
      </trkpt>
      <trkpt lat="43.7062" lon="7.09045">
        <ele>319.20001220703</ele>
        <time>2014-01-19T10:34:39.000Z</time>
      </trkpt>
      <trkpt lat="43.70609" lon="7.09041">
        <ele>319.20001220703</ele>
        <time>2014-01-19T10:34:41.000Z</time>
      </trkpt>
      <trkpt lat="43.70588" lon="7.09039">
        <ele>318.79998779297</ele>
        <time>2014-01-19T10:34:45.000Z</time>
      </trkpt>
      <trkpt lat="43.70585" lon="7.09039">
        <ele>318.60000610352</ele>
        <time>2014-01-19T10:34:46.000Z</time>
      </trkpt>
      <trkpt lat="43.70572" lon="7.09039">
        <ele>318.20001220703</ele>
        <time>2014-01-19T10:34:49.000Z</time>
      </trkpt>
      <trkpt lat="43.70554" lon="7.09052">
        <ele>317.60000610352</ele>
        <time>2014-01-19T10:34:53.000Z</time>
      </trkpt>
      <trkpt lat="43.7055" lon="7.09056">
        <ele>317.39999389648</ele>
        <time>2014-01-19T10:34:54.000Z</time>
      </trkpt>
      <trkpt lat="43.70537" lon="7.09072">
        <ele>317</ele>
        <time>2014-01-19T10:34:57.000Z</time>
      </trkpt>
      <trkpt lat="43.70531" lon="7.09095">
        <ele>316.79998779297</ele>
        <time>2014-01-19T10:35:00.000Z</time>
      </trkpt>
      <trkpt lat="43.70531" lon="7.09123">
        <ele>316.39999389648</ele>
        <time>2014-01-19T10:35:03.000Z</time>
      </trkpt>
      <trkpt lat="43.70532" lon="7.0913">
        <ele>316.39999389648</ele>
        <time>2014-01-19T10:35:04.000Z</time>
      </trkpt>
      <trkpt lat="43.70534" lon="7.09153">
        <ele>315.79998779297</ele>
        <time>2014-01-19T10:35:07.000Z</time>
      </trkpt>
      <trkpt lat="43.70539" lon="7.0918">
        <ele>315.20001220703</ele>
        <time>2014-01-19T10:35:12.000Z</time>
      </trkpt>
      <trkpt lat="43.70545" lon="7.09185">
        <ele>314.79998779297</ele>
        <time>2014-01-19T10:35:16.000Z</time>
      </trkpt>
      <trkpt lat="43.70547" lon="7.09188">
        <ele>314.60000610352</ele>
        <time>2014-01-19T10:35:18.000Z</time>
      </trkpt>
      <trkpt lat="43.70549" lon="7.09192">
        <ele>314.60000610352</ele>
        <time>2014-01-19T10:35:20.000Z</time>
      </trkpt>
      <trkpt lat="43.70557" lon="7.09208">
        <ele>314.60000610352</ele>
        <time>2014-01-19T10:35:26.000Z</time>
      </trkpt>
      <trkpt lat="43.70562" lon="7.0922">
        <ele>314.60000610352</ele>
        <time>2014-01-19T10:35:30.000Z</time>
      </trkpt>
      <trkpt lat="43.70566" lon="7.09232">
        <ele>314.20001220703</ele>
        <time>2014-01-19T10:35:35.000Z</time>
      </trkpt>
      <trkpt lat="43.70567" lon="7.0924">
        <ele>314</ele>
        <time>2014-01-19T10:35:38.000Z</time>
      </trkpt>
      <trkpt lat="43.70571" lon="7.09248">
        <ele>314</ele>
        <time>2014-01-19T10:35:41.000Z</time>
      </trkpt>
      <trkpt lat="43.70572" lon="7.09249">
        <ele>313.79998779297</ele>
        <time>2014-01-19T10:35:42.000Z</time>
      </trkpt>
      <trkpt lat="43.70575" lon="7.09249">
        <ele>313.79998779297</ele>
        <time>2014-01-19T10:35:45.000Z</time>
      </trkpt>
      <trkpt lat="43.70579" lon="7.09255">
        <ele>313.79998779297</ele>
        <time>2014-01-19T10:35:48.000Z</time>
      </trkpt>
      <trkpt lat="43.70582" lon="7.09262">
        <ele>314</ele>
        <time>2014-01-19T10:35:52.000Z</time>
      </trkpt>
      <trkpt lat="43.70585" lon="7.09266">
        <ele>313.79998779297</ele>
        <time>2014-01-19T10:35:54.000Z</time>
      </trkpt>
      <trkpt lat="43.70591" lon="7.09268">
        <ele>313.60000610352</ele>
        <time>2014-01-19T10:35:57.000Z</time>
      </trkpt>
      <trkpt lat="43.70592" lon="7.09269">
        <ele>313.60000610352</ele>
        <time>2014-01-19T10:35:58.000Z</time>
      </trkpt>
      <trkpt lat="43.70597" lon="7.09282">
        <ele>314.20001220703</ele>
        <time>2014-01-19T10:36:03.000Z</time>
      </trkpt>
      <trkpt lat="43.70604" lon="7.09288">
        <ele>314.79998779297</ele>
        <time>2014-01-19T10:36:08.000Z</time>
      </trkpt>
      <trkpt lat="43.70607" lon="7.09291">
        <ele>314.79998779297</ele>
        <time>2014-01-19T10:36:10.000Z</time>
      </trkpt>
      <trkpt lat="43.70613" lon="7.09296">
        <ele>315.20001220703</ele>
        <time>2014-01-19T10:36:14.000Z</time>
      </trkpt>
      <trkpt lat="43.70616" lon="7.09299">
        <ele>315.39999389648</ele>
        <time>2014-01-19T10:36:17.000Z</time>
      </trkpt>
      <trkpt lat="43.7062" lon="7.09299">
        <ele>315.60000610352</ele>
        <time>2014-01-19T10:36:20.000Z</time>
      </trkpt>
      <trkpt lat="43.70622" lon="7.09298">
        <ele>315.79998779297</ele>
        <time>2014-01-19T10:36:21.000Z</time>
      </trkpt>
      <trkpt lat="43.70624" lon="7.09298">
        <ele>315.79998779297</ele>
        <time>2014-01-19T10:36:22.000Z</time>
      </trkpt>
      <trkpt lat="43.7063" lon="7.09301">
        <ele>317.20001220703</ele>
        <time>2014-01-19T10:36:26.000Z</time>
      </trkpt>
      <trkpt lat="43.70638" lon="7.09296">
        <ele>318.39999389648</ele>
        <time>2014-01-19T10:36:31.000Z</time>
      </trkpt>
      <trkpt lat="43.70648" lon="7.09283">
        <ele>320</ele>
        <time>2014-01-19T10:36:37.000Z</time>
      </trkpt>
      <trkpt lat="43.70664" lon="7.09269">
        <ele>321.20001220703</ele>
        <time>2014-01-19T10:36:43.000Z</time>
      </trkpt>
      <trkpt lat="43.70681" lon="7.09254">
        <ele>321.39999389648</ele>
        <time>2014-01-19T10:36:48.000Z</time>
      </trkpt>
      <trkpt lat="43.70699" lon="7.09246">
        <ele>321.79998779297</ele>
        <time>2014-01-19T10:36:53.000Z</time>
      </trkpt>
      <trkpt lat="43.70715" lon="7.09233">
        <ele>321.60000610352</ele>
        <time>2014-01-19T10:36:58.000Z</time>
      </trkpt>
      <trkpt lat="43.70726" lon="7.09216">
        <ele>321.20001220703</ele>
        <time>2014-01-19T10:37:03.000Z</time>
      </trkpt>
      <trkpt lat="43.70743" lon="7.09199">
        <ele>320.79998779297</ele>
        <time>2014-01-19T10:37:07.000Z</time>
      </trkpt>
      <trkpt lat="43.70754" lon="7.09197">
        <ele>320.60000610352</ele>
        <time>2014-01-19T10:37:10.000Z</time>
      </trkpt>
      <trkpt lat="43.70764" lon="7.09205">
        <ele>320.60000610352</ele>
        <time>2014-01-19T10:37:14.000Z</time>
      </trkpt>
      <trkpt lat="43.70768" lon="7.09207">
        <ele>320.60000610352</ele>
        <time>2014-01-19T10:37:15.000Z</time>
      </trkpt>
      <trkpt lat="43.70793" lon="7.09202">
        <ele>320.60000610352</ele>
        <time>2014-01-19T10:37:20.000Z</time>
      </trkpt>
      <trkpt lat="43.70798" lon="7.09195">
        <ele>320.39999389648</ele>
        <time>2014-01-19T10:37:21.000Z</time>
      </trkpt>
      <trkpt lat="43.70805" lon="7.09179">
        <ele>320.39999389648</ele>
        <time>2014-01-19T10:37:23.000Z</time>
      </trkpt>
      <trkpt lat="43.70813" lon="7.09169">
        <ele>320.20001220703</ele>
        <time>2014-01-19T10:37:25.000Z</time>
      </trkpt>
      <trkpt lat="43.70822" lon="7.09153">
        <ele>320</ele>
        <time>2014-01-19T10:37:28.000Z</time>
      </trkpt>
      <trkpt lat="43.70829" lon="7.0914">
        <ele>319.79998779297</ele>
        <time>2014-01-19T10:37:30.000Z</time>
      </trkpt>
      <trkpt lat="43.70843" lon="7.09119">
        <ele>319.39999389648</ele>
        <time>2014-01-19T10:37:33.000Z</time>
      </trkpt>
      <trkpt lat="43.70856" lon="7.0912">
        <ele>319</ele>
        <time>2014-01-19T10:37:36.000Z</time>
      </trkpt>
      <trkpt lat="43.70861" lon="7.09119">
        <ele>319</ele>
        <time>2014-01-19T10:37:37.000Z</time>
      </trkpt>
      <trkpt lat="43.70879" lon="7.09119">
        <ele>318.79998779297</ele>
        <time>2014-01-19T10:37:41.000Z</time>
      </trkpt>
      <trkpt lat="43.70891" lon="7.09118">
        <ele>318.79998779297</ele>
        <time>2014-01-19T10:37:43.000Z</time>
      </trkpt>
      <trkpt lat="43.70922" lon="7.0911">
        <ele>318.39999389648</ele>
        <time>2014-01-19T10:37:49.000Z</time>
      </trkpt>
      <trkpt lat="43.7093" lon="7.09111">
        <ele>318.39999389648</ele>
        <time>2014-01-19T10:37:51.000Z</time>
      </trkpt>
      <trkpt lat="43.70944" lon="7.09112">
        <ele>318.79998779297</ele>
        <time>2014-01-19T10:37:54.000Z</time>
      </trkpt>
      <trkpt lat="43.70963" lon="7.0909">
        <ele>318.60000610352</ele>
        <time>2014-01-19T10:37:58.000Z</time>
      </trkpt>
      <trkpt lat="43.70967" lon="7.09083">
        <ele>318.60000610352</ele>
        <time>2014-01-19T10:37:59.000Z</time>
      </trkpt>
      <trkpt lat="43.70972" lon="7.09075">
        <ele>318.60000610352</ele>
        <time>2014-01-19T10:38:00.000Z</time>
      </trkpt>
      <trkpt lat="43.70981" lon="7.09059">
        <ele>318.39999389648</ele>
        <time>2014-01-19T10:38:02.000Z</time>
      </trkpt>
      <trkpt lat="43.70987" lon="7.09052">
        <ele>318.39999389648</ele>
        <time>2014-01-19T10:38:03.000Z</time>
      </trkpt>
      <trkpt lat="43.71006" lon="7.09044">
        <ele>318.20001220703</ele>
        <time>2014-01-19T10:38:06.000Z</time>
      </trkpt>
      <trkpt lat="43.71027" lon="7.09032">
        <ele>317.79998779297</ele>
        <time>2014-01-19T10:38:10.000Z</time>
      </trkpt>
      <trkpt lat="43.71044" lon="7.09002">
        <ele>317.39999389648</ele>
        <time>2014-01-19T10:38:14.000Z</time>
      </trkpt>
      <trkpt lat="43.71047" lon="7.08992">
        <ele>317.20001220703</ele>
        <time>2014-01-19T10:38:15.000Z</time>
      </trkpt>
      <trkpt lat="43.71062" lon="7.08952">
        <ele>316.79998779297</ele>
        <time>2014-01-19T10:38:19.000Z</time>
      </trkpt>
      <trkpt lat="43.71072" lon="7.08935">
        <ele>316.39999389648</ele>
        <time>2014-01-19T10:38:21.000Z</time>
      </trkpt>
      <trkpt lat="43.71085" lon="7.08922">
        <ele>316.20001220703</ele>
        <time>2014-01-19T10:38:23.000Z</time>
      </trkpt>
      <trkpt lat="43.71106" lon="7.08928">
        <ele>315.79998779297</ele>
        <time>2014-01-19T10:38:26.000Z</time>
      </trkpt>
      <trkpt lat="43.71127" lon="7.08928">
        <ele>315.39999389648</ele>
        <time>2014-01-19T10:38:29.000Z</time>
      </trkpt>
      <trkpt lat="43.71139" lon="7.08925">
        <ele>315.20001220703</ele>
        <time>2014-01-19T10:38:31.000Z</time>
      </trkpt>
      <trkpt lat="43.7115" lon="7.0892">
        <ele>315</ele>
        <time>2014-01-19T10:38:33.000Z</time>
      </trkpt>
      <trkpt lat="43.71165" lon="7.08914">
        <ele>314.60000610352</ele>
        <time>2014-01-19T10:38:36.000Z</time>
      </trkpt>
      <trkpt lat="43.71186" lon="7.0891">
        <ele>314</ele>
        <time>2014-01-19T10:38:40.000Z</time>
      </trkpt>
      <trkpt lat="43.71191" lon="7.08911">
        <ele>314</ele>
        <time>2014-01-19T10:38:41.000Z</time>
      </trkpt>
      <trkpt lat="43.71211" lon="7.08924">
        <ele>313.60000610352</ele>
        <time>2014-01-19T10:38:45.000Z</time>
      </trkpt>
      <trkpt lat="43.71217" lon="7.08921">
        <ele>313.39999389648</ele>
        <time>2014-01-19T10:38:48.000Z</time>
      </trkpt>
      <trkpt lat="43.71226" lon="7.08903">
        <ele>313</ele>
        <time>2014-01-19T10:38:52.000Z</time>
      </trkpt>
      <trkpt lat="43.71229" lon="7.08898">
        <ele>312.79998779297</ele>
        <time>2014-01-19T10:38:53.000Z</time>
      </trkpt>
      <trkpt lat="43.71241" lon="7.08881">
        <ele>312.39999389648</ele>
        <time>2014-01-19T10:38:56.000Z</time>
      </trkpt>
      <trkpt lat="43.7125" lon="7.0887">
        <ele>312.20001220703</ele>
        <time>2014-01-19T10:38:58.000Z</time>
      </trkpt>
      <trkpt lat="43.7126" lon="7.08864">
        <ele>311.79998779297</ele>
        <time>2014-01-19T10:39:00.000Z</time>
      </trkpt>
      <trkpt lat="43.71275" lon="7.08864">
        <ele>311.39999389648</ele>
        <time>2014-01-19T10:39:04.000Z</time>
      </trkpt>
      <trkpt lat="43.71291" lon="7.0887">
        <ele>311.20001220703</ele>
        <time>2014-01-19T10:39:08.000Z</time>
      </trkpt>
      <trkpt lat="43.71305" lon="7.08877">
        <ele>311</ele>
        <time>2014-01-19T10:39:11.000Z</time>
      </trkpt>
      <trkpt lat="43.71316" lon="7.08879">
        <ele>310.79998779297</ele>
        <time>2014-01-19T10:39:13.000Z</time>
      </trkpt>
      <trkpt lat="43.71321" lon="7.08881">
        <ele>310.79998779297</ele>
        <time>2014-01-19T10:39:14.000Z</time>
      </trkpt>
      <trkpt lat="43.71324" lon="7.08885">
        <ele>310.79998779297</ele>
        <time>2014-01-19T10:39:15.000Z</time>
      </trkpt>
      <trkpt lat="43.71336" lon="7.08893">
        <ele>310.79998779297</ele>
        <time>2014-01-19T10:39:18.000Z</time>
      </trkpt>
      <trkpt lat="43.71341" lon="7.0889">
        <ele>310.79998779297</ele>
        <time>2014-01-19T10:39:19.000Z</time>
      </trkpt>
      <trkpt lat="43.71345" lon="7.08887">
        <ele>310.79998779297</ele>
        <time>2014-01-19T10:39:20.000Z</time>
      </trkpt>
      <trkpt lat="43.71348" lon="7.08867">
        <ele>310.39999389648</ele>
        <time>2014-01-19T10:39:23.000Z</time>
      </trkpt>
      <trkpt lat="43.71348" lon="7.08859">
        <ele>310.39999389648</ele>
        <time>2014-01-19T10:39:24.000Z</time>
      </trkpt>
      <trkpt lat="43.71349" lon="7.08853">
        <ele>310.20001220703</ele>
        <time>2014-01-19T10:39:25.000Z</time>
      </trkpt>
      <trkpt lat="43.71347" lon="7.08834">
        <ele>310</ele>
        <time>2014-01-19T10:39:28.000Z</time>
      </trkpt>
      <trkpt lat="43.71335" lon="7.08809">
        <ele>309.79998779297</ele>
        <time>2014-01-19T10:39:31.000Z</time>
      </trkpt>
      <trkpt lat="43.71316" lon="7.08789">
        <ele>309.20001220703</ele>
        <time>2014-01-19T10:39:35.000Z</time>
      </trkpt>
      <trkpt lat="43.71302" lon="7.08796">
        <ele>309</ele>
        <time>2014-01-19T10:39:38.000Z</time>
      </trkpt>
      <trkpt lat="43.71284" lon="7.0881">
        <ele>308.39999389648</ele>
        <time>2014-01-19T10:39:41.000Z</time>
      </trkpt>
      <trkpt lat="43.71279" lon="7.08814">
        <ele>308.39999389648</ele>
        <time>2014-01-19T10:39:42.000Z</time>
      </trkpt>
      <trkpt lat="43.71258" lon="7.08831">
        <ele>308</ele>
        <time>2014-01-19T10:39:46.000Z</time>
      </trkpt>
      <trkpt lat="43.71253" lon="7.08835">
        <ele>307.79998779297</ele>
        <time>2014-01-19T10:39:47.000Z</time>
      </trkpt>
      <trkpt lat="43.71249" lon="7.0884">
        <ele>307.60000610352</ele>
        <time>2014-01-19T10:39:48.000Z</time>
      </trkpt>
      <trkpt lat="43.71232" lon="7.08848">
        <ele>307.39999389648</ele>
        <time>2014-01-19T10:39:51.000Z</time>
      </trkpt>
      <trkpt lat="43.71213" lon="7.08866">
        <ele>307.20001220703</ele>
        <time>2014-01-19T10:39:55.000Z</time>
      </trkpt>
      <trkpt lat="43.71211" lon="7.08872">
        <ele>307.20001220703</ele>
        <time>2014-01-19T10:39:56.000Z</time>
      </trkpt>
      <trkpt lat="43.71204" lon="7.0889">
        <ele>307.20001220703</ele>
        <time>2014-01-19T10:39:59.000Z</time>
      </trkpt>
      <trkpt lat="43.71202" lon="7.08895">
        <ele>307.20001220703</ele>
        <time>2014-01-19T10:40:00.000Z</time>
      </trkpt>
      <trkpt lat="43.71199" lon="7.08899">
        <ele>307.20001220703</ele>
        <time>2014-01-19T10:40:01.000Z</time>
      </trkpt>
      <trkpt lat="43.71187" lon="7.089">
        <ele>308</ele>
        <time>2014-01-19T10:40:04.000Z</time>
      </trkpt>
      <trkpt lat="43.71173" lon="7.08899">
        <ele>308.39999389648</ele>
        <time>2014-01-19T10:40:07.000Z</time>
      </trkpt>
      <trkpt lat="43.71163" lon="7.08908">
        <ele>308.20001220703</ele>
        <time>2014-01-19T10:40:10.000Z</time>
      </trkpt>
      <trkpt lat="43.71158" lon="7.08912">
        <ele>308</ele>
        <time>2014-01-19T10:40:12.000Z</time>
      </trkpt>
      <trkpt lat="43.71153" lon="7.08913">
        <ele>308.39999389648</ele>
        <time>2014-01-19T10:40:14.000Z</time>
      </trkpt>
      <trkpt lat="43.7114" lon="7.08904">
        <ele>308.20001220703</ele>
        <time>2014-01-19T10:40:18.000Z</time>
      </trkpt>
      <trkpt lat="43.71134" lon="7.08905">
        <ele>308</ele>
        <time>2014-01-19T10:40:20.000Z</time>
      </trkpt>
      <trkpt lat="43.71126" lon="7.08904">
        <ele>308</ele>
        <time>2014-01-19T10:40:22.000Z</time>
      </trkpt>
      <trkpt lat="43.71112" lon="7.08905">
        <ele>308.20001220703</ele>
        <time>2014-01-19T10:40:26.000Z</time>
      </trkpt>
      <trkpt lat="43.71104" lon="7.08907">
        <ele>308</ele>
        <time>2014-01-19T10:40:29.000Z</time>
      </trkpt>
      <trkpt lat="43.71102" lon="7.08908">
        <ele>308</ele>
        <time>2014-01-19T10:40:30.000Z</time>
      </trkpt>
      <trkpt lat="43.71095" lon="7.08904">
        <ele>308</ele>
        <time>2014-01-19T10:40:33.000Z</time>
      </trkpt>
      <trkpt lat="43.71094" lon="7.08903">
        <ele>308</ele>
        <time>2014-01-19T10:40:34.000Z</time>
      </trkpt>
      <trkpt lat="43.7109" lon="7.08902">
        <ele>307.79998779297</ele>
        <time>2014-01-19T10:40:36.000Z</time>
      </trkpt>
      <trkpt lat="43.71087" lon="7.08907">
        <ele>307.79998779297</ele>
        <time>2014-01-19T10:40:38.000Z</time>
      </trkpt>
      <trkpt lat="43.71081" lon="7.08918">
        <ele>307.60000610352</ele>
        <time>2014-01-19T10:40:42.000Z</time>
      </trkpt>
      <trkpt lat="43.71077" lon="7.08913">
        <ele>307.39999389648</ele>
        <time>2014-01-19T10:40:45.000Z</time>
      </trkpt>
      <trkpt lat="43.71074" lon="7.08912">
        <ele>307.39999389648</ele>
        <time>2014-01-19T10:40:46.000Z</time>
      </trkpt>
      <trkpt lat="43.71064" lon="7.08913">
        <ele>307.39999389648</ele>
        <time>2014-01-19T10:40:49.000Z</time>
      </trkpt>
      <trkpt lat="43.71049" lon="7.08913">
        <ele>307.39999389648</ele>
        <time>2014-01-19T10:40:53.000Z</time>
      </trkpt>
      <trkpt lat="43.71036" lon="7.08915">
        <ele>308</ele>
        <time>2014-01-19T10:40:57.000Z</time>
      </trkpt>
      <trkpt lat="43.7102" lon="7.08925">
        <ele>308.20001220703</ele>
        <time>2014-01-19T10:41:02.000Z</time>
      </trkpt>
      <trkpt lat="43.71015" lon="7.0893">
        <ele>308.39999389648</ele>
        <time>2014-01-19T10:41:05.000Z</time>
      </trkpt>
      <trkpt lat="43.71012" lon="7.08931">
        <ele>308.39999389648</ele>
        <time>2014-01-19T10:41:06.000Z</time>
      </trkpt>
      <trkpt lat="43.71002" lon="7.08941">
        <ele>308.60000610352</ele>
        <time>2014-01-19T10:41:11.000Z</time>
      </trkpt>
      <trkpt lat="43.70997" lon="7.08945">
        <ele>308.60000610352</ele>
        <time>2014-01-19T10:41:13.000Z</time>
      </trkpt>
      <trkpt lat="43.70988" lon="7.08953">
        <ele>309.39999389648</ele>
        <time>2014-01-19T10:41:17.000Z</time>
      </trkpt>
      <trkpt lat="43.70972" lon="7.08961">
        <ele>309.79998779297</ele>
        <time>2014-01-19T10:41:23.000Z</time>
      </trkpt>
      <trkpt lat="43.7096" lon="7.08966">
        <ele>310</ele>
        <time>2014-01-19T10:41:27.000Z</time>
      </trkpt>
      <trkpt lat="43.70946" lon="7.08968">
        <ele>310</ele>
        <time>2014-01-19T10:41:31.000Z</time>
      </trkpt>
      <trkpt lat="43.70943" lon="7.08968">
        <ele>310</ele>
        <time>2014-01-19T10:41:32.000Z</time>
      </trkpt>
      <trkpt lat="43.70928" lon="7.08964">
        <ele>310</ele>
        <time>2014-01-19T10:41:37.000Z</time>
      </trkpt>
      <trkpt lat="43.70924" lon="7.08964">
        <ele>310</ele>
        <time>2014-01-19T10:41:39.000Z</time>
      </trkpt>
      <trkpt lat="43.70916" lon="7.08966">
        <ele>309.60000610352</ele>
        <time>2014-01-19T10:41:41.000Z</time>
      </trkpt>
      <trkpt lat="43.70903" lon="7.08956">
        <ele>309.60000610352</ele>
        <time>2014-01-19T10:41:45.000Z</time>
      </trkpt>
      <trkpt lat="43.70888" lon="7.08919">
        <ele>309</ele>
        <time>2014-01-19T10:41:49.000Z</time>
      </trkpt>
      <trkpt lat="43.7088" lon="7.08883">
        <ele>308.39999389648</ele>
        <time>2014-01-19T10:41:52.000Z</time>
      </trkpt>
      <trkpt lat="43.70878" lon="7.0887">
        <ele>308.20001220703</ele>
        <time>2014-01-19T10:41:53.000Z</time>
      </trkpt>
      <trkpt lat="43.70866" lon="7.08798">
        <ele>306.39999389648</ele>
        <time>2014-01-19T10:41:59.000Z</time>
      </trkpt>
      <trkpt lat="43.70855" lon="7.08756">
        <ele>305.39999389648</ele>
        <time>2014-01-19T10:42:02.000Z</time>
      </trkpt>
      <trkpt lat="43.70853" lon="7.08745">
        <ele>305.20001220703</ele>
        <time>2014-01-19T10:42:03.000Z</time>
      </trkpt>
      <trkpt lat="43.70843" lon="7.08722">
        <ele>304.60000610352</ele>
        <time>2014-01-19T10:42:05.000Z</time>
      </trkpt>
      <trkpt lat="43.70835" lon="7.08701">
        <ele>304</ele>
        <time>2014-01-19T10:42:07.000Z</time>
      </trkpt>
      <trkpt lat="43.70829" lon="7.08681">
        <ele>303.39999389648</ele>
        <time>2014-01-19T10:42:09.000Z</time>
      </trkpt>
      <trkpt lat="43.70821" lon="7.08663">
        <ele>302.60000610352</ele>
        <time>2014-01-19T10:42:11.000Z</time>
      </trkpt>
      <trkpt lat="43.70792" lon="7.08636">
        <ele>301.39999389648</ele>
        <time>2014-01-19T10:42:15.000Z</time>
      </trkpt>
      <trkpt lat="43.70761" lon="7.08635">
        <ele>300.39999389648</ele>
        <time>2014-01-19T10:42:18.000Z</time>
      </trkpt>
      <trkpt lat="43.70713" lon="7.0862">
        <ele>299</ele>
        <time>2014-01-19T10:42:23.000Z</time>
      </trkpt>
      <trkpt lat="43.70683" lon="7.08606">
        <ele>298</ele>
        <time>2014-01-19T10:42:27.000Z</time>
      </trkpt>
      <trkpt lat="43.70675" lon="7.08604">
        <ele>297.60000610352</ele>
        <time>2014-01-19T10:42:28.000Z</time>
      </trkpt>
      <trkpt lat="43.70645" lon="7.0861">
        <ele>296.60000610352</ele>
        <time>2014-01-19T10:42:32.000Z</time>
      </trkpt>
      <trkpt lat="43.70631" lon="7.08611">
        <ele>296.20001220703</ele>
        <time>2014-01-19T10:42:34.000Z</time>
      </trkpt>
      <trkpt lat="43.70616" lon="7.08611">
        <ele>296</ele>
        <time>2014-01-19T10:42:36.000Z</time>
      </trkpt>
      <trkpt lat="43.70576" lon="7.08603">
        <ele>295.60000610352</ele>
        <time>2014-01-19T10:42:41.000Z</time>
      </trkpt>
      <trkpt lat="43.70562" lon="7.08598">
        <ele>295.39999389648</ele>
        <time>2014-01-19T10:42:43.000Z</time>
      </trkpt>
      <trkpt lat="43.70556" lon="7.08596">
        <ele>295.39999389648</ele>
        <time>2014-01-19T10:42:44.000Z</time>
      </trkpt>
      <trkpt lat="43.70545" lon="7.08589">
        <ele>295.39999389648</ele>
        <time>2014-01-19T10:42:46.000Z</time>
      </trkpt>
      <trkpt lat="43.70535" lon="7.08575">
        <ele>295.39999389648</ele>
        <time>2014-01-19T10:42:48.000Z</time>
      </trkpt>
      <trkpt lat="43.70507" lon="7.08546">
        <ele>295.20001220703</ele>
        <time>2014-01-19T10:42:54.000Z</time>
      </trkpt>
      <trkpt lat="43.70502" lon="7.0854">
        <ele>295</ele>
        <time>2014-01-19T10:42:55.000Z</time>
      </trkpt>
      <trkpt lat="43.70484" lon="7.08521">
        <ele>294.79998779297</ele>
        <time>2014-01-19T10:42:59.000Z</time>
      </trkpt>
      <trkpt lat="43.70468" lon="7.08511">
        <ele>294.39999389648</ele>
        <time>2014-01-19T10:43:02.000Z</time>
      </trkpt>
      <trkpt lat="43.70458" lon="7.08506">
        <ele>294.20001220703</ele>
        <time>2014-01-19T10:43:04.000Z</time>
      </trkpt>
      <trkpt lat="43.70439" lon="7.08499">
        <ele>294</ele>
        <time>2014-01-19T10:43:08.000Z</time>
      </trkpt>
      <trkpt lat="43.70429" lon="7.08499">
        <ele>294</ele>
        <time>2014-01-19T10:43:10.000Z</time>
      </trkpt>
      <trkpt lat="43.70402" lon="7.085">
        <ele>293.60000610352</ele>
        <time>2014-01-19T10:43:15.000Z</time>
      </trkpt>
      <trkpt lat="43.70385" lon="7.08498">
        <ele>293.39999389648</ele>
        <time>2014-01-19T10:43:18.000Z</time>
      </trkpt>
      <trkpt lat="43.70375" lon="7.08494">
        <ele>293.20001220703</ele>
        <time>2014-01-19T10:43:20.000Z</time>
      </trkpt>
      <trkpt lat="43.70351" lon="7.08487">
        <ele>293.20001220703</ele>
        <time>2014-01-19T10:43:25.000Z</time>
      </trkpt>
      <trkpt lat="43.70342" lon="7.08481">
        <ele>293</ele>
        <time>2014-01-19T10:43:27.000Z</time>
      </trkpt>
      <trkpt lat="43.70339" lon="7.08476">
        <ele>292.79998779297</ele>
        <time>2014-01-19T10:43:28.000Z</time>
      </trkpt>
      <trkpt lat="43.70334" lon="7.08464">
        <ele>292.60000610352</ele>
        <time>2014-01-19T10:43:30.000Z</time>
      </trkpt>
      <trkpt lat="43.70334" lon="7.08443">
        <ele>292.20001220703</ele>
        <time>2014-01-19T10:43:33.000Z</time>
      </trkpt>
      <trkpt lat="43.70329" lon="7.08424">
        <ele>291.79998779297</ele>
        <time>2014-01-19T10:43:36.000Z</time>
      </trkpt>
      <trkpt lat="43.70327" lon="7.08418">
        <ele>291.60000610352</ele>
        <time>2014-01-19T10:43:37.000Z</time>
      </trkpt>
      <trkpt lat="43.70325" lon="7.08411">
        <ele>291.60000610352</ele>
        <time>2014-01-19T10:43:38.000Z</time>
      </trkpt>
      <trkpt lat="43.70323" lon="7.08403">
        <ele>291.39999389648</ele>
        <time>2014-01-19T10:43:39.000Z</time>
      </trkpt>
      <trkpt lat="43.7032" lon="7.08393">
        <ele>291.20001220703</ele>
        <time>2014-01-19T10:43:41.000Z</time>
      </trkpt>
      <trkpt lat="43.70319" lon="7.08388">
        <ele>291</ele>
        <time>2014-01-19T10:43:42.000Z</time>
      </trkpt>
      <trkpt lat="43.70309" lon="7.0836">
        <ele>290.39999389648</ele>
        <time>2014-01-19T10:43:46.000Z</time>
      </trkpt>
      <trkpt lat="43.70305" lon="7.08353">
        <ele>290.20001220703</ele>
        <time>2014-01-19T10:43:47.000Z</time>
      </trkpt>
      <trkpt lat="43.703" lon="7.08336">
        <ele>290</ele>
        <time>2014-01-19T10:43:49.000Z</time>
      </trkpt>
      <trkpt lat="43.70292" lon="7.08314">
        <ele>289.39999389648</ele>
        <time>2014-01-19T10:43:52.000Z</time>
      </trkpt>
      <trkpt lat="43.70284" lon="7.08299">
        <ele>289.20001220703</ele>
        <time>2014-01-19T10:43:55.000Z</time>
      </trkpt>
      <trkpt lat="43.70281" lon="7.08296">
        <ele>289</ele>
        <time>2014-01-19T10:43:56.000Z</time>
      </trkpt>
      <trkpt lat="43.70272" lon="7.08291">
        <ele>288.20001220703</ele>
        <time>2014-01-19T10:44:00.000Z</time>
      </trkpt>
      <trkpt lat="43.70265" lon="7.08289">
        <ele>288</ele>
        <time>2014-01-19T10:44:04.000Z</time>
      </trkpt>
      <trkpt lat="43.70263" lon="7.08287">
        <ele>287.79998779297</ele>
        <time>2014-01-19T10:44:05.000Z</time>
      </trkpt>
      <trkpt lat="43.70252" lon="7.08274">
        <ele>287.20001220703</ele>
        <time>2014-01-19T10:44:11.000Z</time>
      </trkpt>
      <trkpt lat="43.70249" lon="7.08272">
        <ele>287</ele>
        <time>2014-01-19T10:44:12.000Z</time>
      </trkpt>
      <trkpt lat="43.70243" lon="7.08264">
        <ele>286.79998779297</ele>
        <time>2014-01-19T10:44:15.000Z</time>
      </trkpt>
      <trkpt lat="43.70234" lon="7.08238">
        <ele>286.39999389648</ele>
        <time>2014-01-19T10:44:20.000Z</time>
      </trkpt>
      <trkpt lat="43.70232" lon="7.08231">
        <ele>286.20001220703</ele>
        <time>2014-01-19T10:44:21.000Z</time>
      </trkpt>
      <trkpt lat="43.70223" lon="7.08215">
        <ele>285.79998779297</ele>
        <time>2014-01-19T10:44:24.000Z</time>
      </trkpt>
      <trkpt lat="43.70218" lon="7.08209">
        <ele>285.60000610352</ele>
        <time>2014-01-19T10:44:25.000Z</time>
      </trkpt>
      <trkpt lat="43.70208" lon="7.082">
        <ele>285.60000610352</ele>
        <time>2014-01-19T10:44:27.000Z</time>
      </trkpt>
      <trkpt lat="43.70205" lon="7.08196">
        <ele>285.39999389648</ele>
        <time>2014-01-19T10:44:28.000Z</time>
      </trkpt>
      <trkpt lat="43.70201" lon="7.08187">
        <ele>285.20001220703</ele>
        <time>2014-01-19T10:44:30.000Z</time>
      </trkpt>
      <trkpt lat="43.70196" lon="7.0818">
        <ele>285.20001220703</ele>
        <time>2014-01-19T10:44:32.000Z</time>
      </trkpt>
      <trkpt lat="43.7019" lon="7.0817">
        <ele>285</ele>
        <time>2014-01-19T10:44:35.000Z</time>
      </trkpt>
      <trkpt lat="43.70185" lon="7.08161">
        <ele>285</ele>
        <time>2014-01-19T10:44:37.000Z</time>
      </trkpt>
      <trkpt lat="43.70173" lon="7.08136">
        <ele>284.79998779297</ele>
        <time>2014-01-19T10:44:42.000Z</time>
      </trkpt>
      <trkpt lat="43.70164" lon="7.08119">
        <ele>284.79998779297</ele>
        <time>2014-01-19T10:44:46.000Z</time>
      </trkpt>
      <trkpt lat="43.70162" lon="7.08116">
        <ele>285.20001220703</ele>
        <time>2014-01-19T10:44:47.000Z</time>
      </trkpt>
      <trkpt lat="43.70155" lon="7.08106">
        <ele>285.39999389648</ele>
        <time>2014-01-19T10:44:50.000Z</time>
      </trkpt>
      <trkpt lat="43.70138" lon="7.08095">
        <ele>285.60000610352</ele>
        <time>2014-01-19T10:44:55.000Z</time>
      </trkpt>
      <trkpt lat="43.7012" lon="7.08084">
        <ele>286.39999389648</ele>
        <time>2014-01-19T10:45:00.000Z</time>
      </trkpt>
      <trkpt lat="43.70107" lon="7.08076">
        <ele>286.60000610352</ele>
        <time>2014-01-19T10:45:04.000Z</time>
      </trkpt>
      <trkpt lat="43.70097" lon="7.08065">
        <ele>287.20001220703</ele>
        <time>2014-01-19T10:45:09.000Z</time>
      </trkpt>
      <trkpt lat="43.70083" lon="7.08052">
        <ele>287.20001220703</ele>
        <time>2014-01-19T10:45:15.000Z</time>
      </trkpt>
      <trkpt lat="43.70073" lon="7.08055">
        <ele>287.20001220703</ele>
        <time>2014-01-19T10:45:20.000Z</time>
      </trkpt>
      <trkpt lat="43.70064" lon="7.08071">
        <ele>287.20001220703</ele>
        <time>2014-01-19T10:45:25.000Z</time>
      </trkpt>
      <trkpt lat="43.70052" lon="7.08087">
        <ele>288</ele>
        <time>2014-01-19T10:45:31.000Z</time>
      </trkpt>
      <trkpt lat="43.70048" lon="7.08096">
        <ele>288.60000610352</ele>
        <time>2014-01-19T10:45:36.000Z</time>
      </trkpt>
      <trkpt lat="43.70039" lon="7.08112">
        <ele>289.79998779297</ele>
        <time>2014-01-19T10:45:43.000Z</time>
      </trkpt>
      <trkpt lat="43.70033" lon="7.08125">
        <ele>290.79998779297</ele>
        <time>2014-01-19T10:45:48.000Z</time>
      </trkpt>
      <trkpt lat="43.70033" lon="7.08127">
        <ele>291</ele>
        <time>2014-01-19T10:45:49.000Z</time>
      </trkpt>
      <trkpt lat="43.70026" lon="7.08142">
        <ele>292.39999389648</ele>
        <time>2014-01-19T10:45:54.000Z</time>
      </trkpt>
      <trkpt lat="43.70025" lon="7.08145">
        <ele>292.60000610352</ele>
        <time>2014-01-19T10:45:55.000Z</time>
      </trkpt>
      <trkpt lat="43.70018" lon="7.08159">
        <ele>293.60000610352</ele>
        <time>2014-01-19T10:46:01.000Z</time>
      </trkpt>
      <trkpt lat="43.70017" lon="7.08163">
        <ele>293.39999389648</ele>
        <time>2014-01-19T10:46:03.000Z</time>
      </trkpt>
      <trkpt lat="43.70013" lon="7.08169">
        <ele>293.20001220703</ele>
        <time>2014-01-19T10:46:06.000Z</time>
      </trkpt>
      <trkpt lat="43.7001" lon="7.08176">
        <ele>293.20001220703</ele>
        <time>2014-01-19T10:46:08.000Z</time>
      </trkpt>
      <trkpt lat="43.70007" lon="7.08182">
        <ele>293</ele>
        <time>2014-01-19T10:46:10.000Z</time>
      </trkpt>
      <trkpt lat="43.69997" lon="7.08189">
        <ele>292.60000610352</ele>
        <time>2014-01-19T10:46:15.000Z</time>
      </trkpt>
      <trkpt lat="43.69981" lon="7.08181">
        <ele>292.20001220703</ele>
        <time>2014-01-19T10:46:21.000Z</time>
      </trkpt>
      <trkpt lat="43.69974" lon="7.08165">
        <ele>292</ele>
        <time>2014-01-19T10:46:25.000Z</time>
      </trkpt>
      <trkpt lat="43.6996" lon="7.08142">
        <ele>291.79998779297</ele>
        <time>2014-01-19T10:46:31.000Z</time>
      </trkpt>
      <trkpt lat="43.69947" lon="7.08121">
        <ele>291.60000610352</ele>
        <time>2014-01-19T10:46:36.000Z</time>
      </trkpt>
      <trkpt lat="43.69933" lon="7.08107">
        <ele>291.60000610352</ele>
        <time>2014-01-19T10:46:41.000Z</time>
      </trkpt>
      <trkpt lat="43.6992" lon="7.0811">
        <ele>291.20001220703</ele>
        <time>2014-01-19T10:46:45.000Z</time>
      </trkpt>
      <trkpt lat="43.69917" lon="7.08113">
        <ele>291</ele>
        <time>2014-01-19T10:46:46.000Z</time>
      </trkpt>
      <trkpt lat="43.69894" lon="7.08122">
        <ele>291.20001220703</ele>
        <time>2014-01-19T10:46:51.000Z</time>
      </trkpt>
      <trkpt lat="43.69883" lon="7.08123">
        <ele>291.20001220703</ele>
        <time>2014-01-19T10:46:53.000Z</time>
      </trkpt>
      <trkpt lat="43.69874" lon="7.08123">
        <ele>291.20001220703</ele>
        <time>2014-01-19T10:46:55.000Z</time>
      </trkpt>
      <trkpt lat="43.69868" lon="7.0812">
        <ele>291.20001220703</ele>
        <time>2014-01-19T10:46:56.000Z</time>
      </trkpt>
      <trkpt lat="43.69848" lon="7.08113">
        <ele>291.20001220703</ele>
        <time>2014-01-19T10:46:59.000Z</time>
      </trkpt>
      <trkpt lat="43.69818" lon="7.08099">
        <ele>291</ele>
        <time>2014-01-19T10:47:04.000Z</time>
      </trkpt>
      <trkpt lat="43.69808" lon="7.08093">
        <ele>290.79998779297</ele>
        <time>2014-01-19T10:47:06.000Z</time>
      </trkpt>
      <trkpt lat="43.69799" lon="7.08091">
        <ele>290.60000610352</ele>
        <time>2014-01-19T10:47:08.000Z</time>
      </trkpt>
      <trkpt lat="43.69787" lon="7.08091">
        <ele>290.39999389648</ele>
        <time>2014-01-19T10:47:10.000Z</time>
      </trkpt>
      <trkpt lat="43.69779" lon="7.08087">
        <ele>290.20001220703</ele>
        <time>2014-01-19T10:47:12.000Z</time>
      </trkpt>
      <trkpt lat="43.69773" lon="7.08084">
        <ele>290.20001220703</ele>
        <time>2014-01-19T10:47:14.000Z</time>
      </trkpt>
      <trkpt lat="43.69769" lon="7.08088">
        <ele>289.79998779297</ele>
        <time>2014-01-19T10:47:16.000Z</time>
      </trkpt>
      <trkpt lat="43.6976" lon="7.08094">
        <ele>289.39999389648</ele>
        <time>2014-01-19T10:47:19.000Z</time>
      </trkpt>
      <trkpt lat="43.69754" lon="7.08093">
        <ele>289</ele>
        <time>2014-01-19T10:47:21.000Z</time>
      </trkpt>
      <trkpt lat="43.69736" lon="7.08094">
        <ele>287.60000610352</ele>
        <time>2014-01-19T10:47:26.000Z</time>
      </trkpt>
      <trkpt lat="43.69722" lon="7.081">
        <ele>286.60000610352</ele>
        <time>2014-01-19T10:47:30.000Z</time>
      </trkpt>
      <trkpt lat="43.69706" lon="7.08103">
        <ele>284.79998779297</ele>
        <time>2014-01-19T10:47:35.000Z</time>
      </trkpt>
      <trkpt lat="43.69691" lon="7.08109">
        <ele>283.79998779297</ele>
        <time>2014-01-19T10:47:39.000Z</time>
      </trkpt>
      <trkpt lat="43.69669" lon="7.08121">
        <ele>282.79998779297</ele>
        <time>2014-01-19T10:47:44.000Z</time>
      </trkpt>
      <trkpt lat="43.69664" lon="7.08121">
        <ele>282.39999389648</ele>
        <time>2014-01-19T10:47:45.000Z</time>
      </trkpt>
      <trkpt lat="43.69653" lon="7.08114">
        <ele>282</ele>
        <time>2014-01-19T10:47:48.000Z</time>
      </trkpt>
      <trkpt lat="43.69646" lon="7.08113">
        <ele>281</ele>
        <time>2014-01-19T10:47:52.000Z</time>
      </trkpt>
      <trkpt lat="43.69638" lon="7.08124">
        <ele>279.60000610352</ele>
        <time>2014-01-19T10:47:57.000Z</time>
      </trkpt>
      <trkpt lat="43.69628" lon="7.08133">
        <ele>278.60000610352</ele>
        <time>2014-01-19T10:48:00.000Z</time>
      </trkpt>
      <trkpt lat="43.69624" lon="7.08135">
        <ele>278.20001220703</ele>
        <time>2014-01-19T10:48:01.000Z</time>
      </trkpt>
      <trkpt lat="43.69613" lon="7.08143">
        <ele>277</ele>
        <time>2014-01-19T10:48:05.000Z</time>
      </trkpt>
      <trkpt lat="43.69597" lon="7.08151">
        <ele>275.39999389648</ele>
        <time>2014-01-19T10:48:09.000Z</time>
      </trkpt>
      <trkpt lat="43.69577" lon="7.08158">
        <ele>273.60000610352</ele>
        <time>2014-01-19T10:48:14.000Z</time>
      </trkpt>
      <trkpt lat="43.69568" lon="7.08162">
        <ele>273.20001220703</ele>
        <time>2014-01-19T10:48:16.000Z</time>
      </trkpt>
      <trkpt lat="43.69562" lon="7.0817">
        <ele>272.39999389648</ele>
        <time>2014-01-19T10:48:18.000Z</time>
      </trkpt>
      <trkpt lat="43.69545" lon="7.08174">
        <ele>271</ele>
        <time>2014-01-19T10:48:22.000Z</time>
      </trkpt>
      <trkpt lat="43.69536" lon="7.08168">
        <ele>270.39999389648</ele>
        <time>2014-01-19T10:48:24.000Z</time>
      </trkpt>
      <trkpt lat="43.6953" lon="7.08163">
        <ele>270</ele>
        <time>2014-01-19T10:48:25.000Z</time>
      </trkpt>
      <trkpt lat="43.6952" lon="7.08156">
        <ele>269.39999389648</ele>
        <time>2014-01-19T10:48:27.000Z</time>
      </trkpt>
      <trkpt lat="43.69493" lon="7.08134">
        <ele>267.20001220703</ele>
        <time>2014-01-19T10:48:33.000Z</time>
      </trkpt>
      <trkpt lat="43.69486" lon="7.08109">
        <ele>266.20001220703</ele>
        <time>2014-01-19T10:48:37.000Z</time>
      </trkpt>
      <trkpt lat="43.69485" lon="7.08092">
        <ele>264.79998779297</ele>
        <time>2014-01-19T10:48:40.000Z</time>
      </trkpt>
      <trkpt lat="43.69487" lon="7.08085">
        <ele>264.39999389648</ele>
        <time>2014-01-19T10:48:41.000Z</time>
      </trkpt>
      <trkpt lat="43.69497" lon="7.08058">
        <ele>262.79998779297</ele>
        <time>2014-01-19T10:48:45.000Z</time>
      </trkpt>
      <trkpt lat="43.69505" lon="7.08045">
        <ele>262</ele>
        <time>2014-01-19T10:48:47.000Z</time>
      </trkpt>
      <trkpt lat="43.69508" lon="7.08039">
        <ele>261.20001220703</ele>
        <time>2014-01-19T10:48:49.000Z</time>
      </trkpt>
      <trkpt lat="43.69509" lon="7.08032">
        <ele>260.39999389648</ele>
        <time>2014-01-19T10:48:51.000Z</time>
      </trkpt>
      <trkpt lat="43.69508" lon="7.08021">
        <ele>259.60000610352</ele>
        <time>2014-01-19T10:48:53.000Z</time>
      </trkpt>
      <trkpt lat="43.69509" lon="7.08001">
        <ele>258</ele>
        <time>2014-01-19T10:48:57.000Z</time>
      </trkpt>
      <trkpt lat="43.69506" lon="7.07985">
        <ele>256.60000610352</ele>
        <time>2014-01-19T10:49:01.000Z</time>
      </trkpt>
      <trkpt lat="43.695" lon="7.07988">
        <ele>255.80000305176</ele>
        <time>2014-01-19T10:49:04.000Z</time>
      </trkpt>
      <trkpt lat="43.69491" lon="7.08002">
        <ele>254.39999389648</ele>
        <time>2014-01-19T10:49:08.000Z</time>
      </trkpt>
      <trkpt lat="43.69476" lon="7.08013">
        <ele>253.19999694824</ele>
        <time>2014-01-19T10:49:12.000Z</time>
      </trkpt>
      <trkpt lat="43.6946" lon="7.08031">
        <ele>252.19999694824</ele>
        <time>2014-01-19T10:49:16.000Z</time>
      </trkpt>
      <trkpt lat="43.69457" lon="7.08033">
        <ele>251.80000305176</ele>
        <time>2014-01-19T10:49:17.000Z</time>
      </trkpt>
      <trkpt lat="43.69451" lon="7.08037">
        <ele>251.19999694824</ele>
        <time>2014-01-19T10:49:19.000Z</time>
      </trkpt>
      <trkpt lat="43.69444" lon="7.08036">
        <ele>250.39999389648</ele>
        <time>2014-01-19T10:49:22.000Z</time>
      </trkpt>
      <trkpt lat="43.69439" lon="7.08035">
        <ele>249.39999389648</ele>
        <time>2014-01-19T10:49:26.000Z</time>
      </trkpt>
      <trkpt lat="43.69438" lon="7.08033">
        <ele>249.19999694824</ele>
        <time>2014-01-19T10:49:27.000Z</time>
      </trkpt>
      <trkpt lat="43.69438" lon="7.08029">
        <ele>248.19999694824</ele>
        <time>2014-01-19T10:49:30.000Z</time>
      </trkpt>
      <trkpt lat="43.6944" lon="7.08024">
        <ele>247.39999389648</ele>
        <time>2014-01-19T10:49:33.000Z</time>
      </trkpt>
      <trkpt lat="43.6944" lon="7.08017">
        <ele>246.60000610352</ele>
        <time>2014-01-19T10:49:36.000Z</time>
      </trkpt>
      <trkpt lat="43.69439" lon="7.08015">
        <ele>246.19999694824</ele>
        <time>2014-01-19T10:49:37.000Z</time>
      </trkpt>
      <trkpt lat="43.6943" lon="7.08014">
        <ele>244.19999694824</ele>
        <time>2014-01-19T10:49:42.000Z</time>
      </trkpt>
      <trkpt lat="43.69423" lon="7.08016">
        <ele>243.60000610352</ele>
        <time>2014-01-19T10:49:44.000Z</time>
      </trkpt>
      <trkpt lat="43.69413" lon="7.08014">
        <ele>242.60000610352</ele>
        <time>2014-01-19T10:49:47.000Z</time>
      </trkpt>
      <trkpt lat="43.69403" lon="7.08011">
        <ele>240.80000305176</ele>
        <time>2014-01-19T10:49:52.000Z</time>
      </trkpt>
      <trkpt lat="43.69401" lon="7.08011">
        <ele>240.60000610352</ele>
        <time>2014-01-19T10:49:53.000Z</time>
      </trkpt>
      <trkpt lat="43.694" lon="7.08004">
        <ele>239.60000610352</ele>
        <time>2014-01-19T10:49:57.000Z</time>
      </trkpt>
      <trkpt lat="43.694" lon="7.08003">
        <ele>239.39999389648</ele>
        <time>2014-01-19T10:49:58.000Z</time>
      </trkpt>
      <trkpt lat="43.69402" lon="7.08003">
        <ele>239</ele>
        <time>2014-01-19T10:50:00.000Z</time>
      </trkpt>
      <trkpt lat="43.69402" lon="7.08004">
        <ele>239</ele>
        <time>2014-01-19T10:50:01.000Z</time>
      </trkpt>
      <trkpt lat="43.69407" lon="7.08001">
        <ele>238.39999389648</ele>
        <time>2014-01-19T10:50:05.000Z</time>
      </trkpt>
      <trkpt lat="43.69409" lon="7.07996">
        <ele>237.60000610352</ele>
        <time>2014-01-19T10:50:09.000Z</time>
      </trkpt>
      <trkpt lat="43.69408" lon="7.07995">
        <ele>237.39999389648</ele>
        <time>2014-01-19T10:50:10.000Z</time>
      </trkpt>
      <trkpt lat="43.69405" lon="7.07985">
        <ele>236.80000305176</ele>
        <time>2014-01-19T10:50:13.000Z</time>
      </trkpt>
      <trkpt lat="43.69403" lon="7.07982">
        <ele>236.60000610352</ele>
        <time>2014-01-19T10:50:14.000Z</time>
      </trkpt>
      <trkpt lat="43.69401" lon="7.07981">
        <ele>236.39999389648</ele>
        <time>2014-01-19T10:50:15.000Z</time>
      </trkpt>
      <trkpt lat="43.69397" lon="7.07979">
        <ele>236.19999694824</ele>
        <time>2014-01-19T10:50:17.000Z</time>
      </trkpt>
      <trkpt lat="43.69395" lon="7.07978">
        <ele>235.80000305176</ele>
        <time>2014-01-19T10:50:18.000Z</time>
      </trkpt>
      <trkpt lat="43.6938" lon="7.07975">
        <ele>234.60000610352</ele>
        <time>2014-01-19T10:50:23.000Z</time>
      </trkpt>
      <trkpt lat="43.6936" lon="7.07978">
        <ele>233.60000610352</ele>
        <time>2014-01-19T10:50:27.000Z</time>
      </trkpt>
      <trkpt lat="43.6935" lon="7.07972">
        <ele>232.39999389648</ele>
        <time>2014-01-19T10:50:31.000Z</time>
      </trkpt>
      <trkpt lat="43.69337" lon="7.07964">
        <ele>231.60000610352</ele>
        <time>2014-01-19T10:50:35.000Z</time>
      </trkpt>
      <trkpt lat="43.69322" lon="7.07951">
        <ele>231.19999694824</ele>
        <time>2014-01-19T10:50:39.000Z</time>
      </trkpt>
      <trkpt lat="43.69308" lon="7.07949">
        <ele>230.39999389648</ele>
        <time>2014-01-19T10:50:43.000Z</time>
      </trkpt>
      <trkpt lat="43.69305" lon="7.0795">
        <ele>230.39999389648</ele>
        <time>2014-01-19T10:50:44.000Z</time>
      </trkpt>
      <trkpt lat="43.69298" lon="7.07949">
        <ele>230.19999694824</ele>
        <time>2014-01-19T10:50:46.000Z</time>
      </trkpt>
      <trkpt lat="43.69291" lon="7.07949">
        <ele>230</ele>
        <time>2014-01-19T10:50:48.000Z</time>
      </trkpt>
      <trkpt lat="43.69279" lon="7.07955">
        <ele>229.39999389648</ele>
        <time>2014-01-19T10:50:52.000Z</time>
      </trkpt>
      <trkpt lat="43.69265" lon="7.07962">
        <ele>228.60000610352</ele>
        <time>2014-01-19T10:50:56.000Z</time>
      </trkpt>
      <trkpt lat="43.69264" lon="7.07964">
        <ele>228.19999694824</ele>
        <time>2014-01-19T10:50:58.000Z</time>
      </trkpt>
      <trkpt lat="43.69263" lon="7.07963">
        <ele>228</ele>
        <time>2014-01-19T10:50:59.000Z</time>
      </trkpt>
      <trkpt lat="43.69266" lon="7.07979">
        <ele>226.60000610352</ele>
        <time>2014-01-19T10:51:11.000Z</time>
      </trkpt>
      <trkpt lat="43.69269" lon="7.07983">
        <ele>226.19999694824</ele>
        <time>2014-01-19T10:51:15.000Z</time>
      </trkpt>
      <trkpt lat="43.69272" lon="7.07992">
        <ele>225.39999389648</ele>
        <time>2014-01-19T10:51:22.000Z</time>
      </trkpt>
      <trkpt lat="43.69275" lon="7.07997">
        <ele>225.19999694824</ele>
        <time>2014-01-19T10:51:28.000Z</time>
      </trkpt>
      <trkpt lat="43.69276" lon="7.07998">
        <ele>225.19999694824</ele>
        <time>2014-01-19T10:51:29.000Z</time>
      </trkpt>
      <trkpt lat="43.69292" lon="7.0801">
        <ele>224.39999389648</ele>
        <time>2014-01-19T10:51:54.000Z</time>
      </trkpt>
      <trkpt lat="43.69294" lon="7.08012">
        <ele>224.39999389648</ele>
        <time>2014-01-19T10:51:57.000Z</time>
      </trkpt>
      <trkpt lat="43.69313" lon="7.08043">
        <ele>232</ele>
        <time>2014-01-19T10:52:42.000Z</time>
      </trkpt>
      <trkpt lat="43.69314" lon="7.08043">
        <ele>232</ele>
        <time>2014-01-19T10:52:43.000Z</time>
      </trkpt>
      <trkpt lat="43.69335" lon="7.08043">
        <ele>231</ele>
        <time>2014-01-19T10:53:05.000Z</time>
      </trkpt>
      <trkpt lat="43.69339" lon="7.08044">
        <ele>230.39999389648</ele>
        <time>2014-01-19T10:53:08.000Z</time>
      </trkpt>
      <trkpt lat="43.6934" lon="7.08046">
        <ele>230.19999694824</ele>
        <time>2014-01-19T10:53:10.000Z</time>
      </trkpt>
      <trkpt lat="43.69341" lon="7.08043">
        <ele>229.19999694824</ele>
        <time>2014-01-19T10:53:14.000Z</time>
      </trkpt>
      <trkpt lat="43.69345" lon="7.08049">
        <ele>227.60000610352</ele>
        <time>2014-01-19T10:53:28.000Z</time>
      </trkpt>
      <trkpt lat="43.69349" lon="7.08052">
        <ele>227.39999389648</ele>
        <time>2014-01-19T10:53:31.000Z</time>
      </trkpt>
      <trkpt lat="43.69356" lon="7.08055">
        <ele>227.39999389648</ele>
        <time>2014-01-19T10:53:35.000Z</time>
      </trkpt>
      <trkpt lat="43.69361" lon="7.08066">
        <ele>227.39999389648</ele>
        <time>2014-01-19T10:53:39.000Z</time>
      </trkpt>
      <trkpt lat="43.69363" lon="7.08068">
        <ele>227.60000610352</ele>
        <time>2014-01-19T10:53:40.000Z</time>
      </trkpt>
      <trkpt lat="43.69368" lon="7.08074">
        <ele>227.80000305176</ele>
        <time>2014-01-19T10:53:43.000Z</time>
      </trkpt>
      <trkpt lat="43.69374" lon="7.08077">
        <ele>227.80000305176</ele>
        <time>2014-01-19T10:53:45.000Z</time>
      </trkpt>
      <trkpt lat="43.69386" lon="7.08084">
        <ele>228</ele>
        <time>2014-01-19T10:53:50.000Z</time>
      </trkpt>
      <trkpt lat="43.69398" lon="7.08087">
        <ele>227.39999389648</ele>
        <time>2014-01-19T10:53:55.000Z</time>
      </trkpt>
      <trkpt lat="43.69401" lon="7.08087">
        <ele>227.39999389648</ele>
        <time>2014-01-19T10:53:56.000Z</time>
      </trkpt>
      <trkpt lat="43.69403" lon="7.08089">
        <ele>227.19999694824</ele>
        <time>2014-01-19T10:53:57.000Z</time>
      </trkpt>
      <trkpt lat="43.69413" lon="7.08094">
        <ele>227</ele>
        <time>2014-01-19T10:54:01.000Z</time>
      </trkpt>
      <trkpt lat="43.69425" lon="7.08096">
        <ele>226.60000610352</ele>
        <time>2014-01-19T10:54:05.000Z</time>
      </trkpt>
      <trkpt lat="43.6943" lon="7.081">
        <ele>226.39999389648</ele>
        <time>2014-01-19T10:54:07.000Z</time>
      </trkpt>
      <trkpt lat="43.69435" lon="7.08103">
        <ele>226.19999694824</ele>
        <time>2014-01-19T10:54:09.000Z</time>
      </trkpt>
      <trkpt lat="43.69445" lon="7.08111">
        <ele>225.60000610352</ele>
        <time>2014-01-19T10:54:14.000Z</time>
      </trkpt>
      <trkpt lat="43.69455" lon="7.08117">
        <ele>225.39999389648</ele>
        <time>2014-01-19T10:54:19.000Z</time>
      </trkpt>
      <trkpt lat="43.69459" lon="7.08116">
        <ele>225.39999389648</ele>
        <time>2014-01-19T10:54:21.000Z</time>
      </trkpt>
      <trkpt lat="43.69466" lon="7.08121">
        <ele>225</ele>
        <time>2014-01-19T10:54:24.000Z</time>
      </trkpt>
      <trkpt lat="43.6947" lon="7.08124">
        <ele>225</ele>
        <time>2014-01-19T10:54:26.000Z</time>
      </trkpt>
      <trkpt lat="43.69473" lon="7.08129">
        <ele>224.60000610352</ele>
        <time>2014-01-19T10:54:29.000Z</time>
      </trkpt>
      <trkpt lat="43.69479" lon="7.08147">
        <ele>223.80000305176</ele>
        <time>2014-01-19T10:54:36.000Z</time>
      </trkpt>
      <trkpt lat="43.69482" lon="7.08163">
        <ele>223.19999694824</ele>
        <time>2014-01-19T10:54:42.000Z</time>
      </trkpt>
      <trkpt lat="43.69484" lon="7.08165">
        <ele>223</ele>
        <time>2014-01-19T10:54:43.000Z</time>
      </trkpt>
      <trkpt lat="43.69489" lon="7.08172">
        <ele>222.60000610352</ele>
        <time>2014-01-19T10:54:47.000Z</time>
      </trkpt>
      <trkpt lat="43.69491" lon="7.08185">
        <ele>222.19999694824</ele>
        <time>2014-01-19T10:54:51.000Z</time>
      </trkpt>
      <trkpt lat="43.69493" lon="7.0819">
        <ele>222</ele>
        <time>2014-01-19T10:54:53.000Z</time>
      </trkpt>
      <trkpt lat="43.69502" lon="7.08209">
        <ele>221.60000610352</ele>
        <time>2014-01-19T10:55:00.000Z</time>
      </trkpt>
      <trkpt lat="43.69507" lon="7.08225">
        <ele>221.19999694824</ele>
        <time>2014-01-19T10:55:05.000Z</time>
      </trkpt>
      <trkpt lat="43.69518" lon="7.08236">
        <ele>221.19999694824</ele>
        <time>2014-01-19T10:55:10.000Z</time>
      </trkpt>
      <trkpt lat="43.69525" lon="7.08239">
        <ele>221.60000610352</ele>
        <time>2014-01-19T10:55:13.000Z</time>
      </trkpt>
      <trkpt lat="43.69529" lon="7.08241">
        <ele>222.19999694824</ele>
        <time>2014-01-19T10:55:15.000Z</time>
      </trkpt>
      <trkpt lat="43.69539" lon="7.08235">
        <ele>222.80000305176</ele>
        <time>2014-01-19T10:55:20.000Z</time>
      </trkpt>
      <trkpt lat="43.69547" lon="7.0823">
        <ele>223.80000305176</ele>
        <time>2014-01-19T10:55:24.000Z</time>
      </trkpt>
      <trkpt lat="43.6955" lon="7.08227">
        <ele>224.19999694824</ele>
        <time>2014-01-19T10:55:26.000Z</time>
      </trkpt>
      <trkpt lat="43.69552" lon="7.08227">
        <ele>224.39999389648</ele>
        <time>2014-01-19T10:55:28.000Z</time>
      </trkpt>
      <trkpt lat="43.69558" lon="7.08226">
        <ele>225</ele>
        <time>2014-01-19T10:55:32.000Z</time>
      </trkpt>
      <trkpt lat="43.69566" lon="7.08218">
        <ele>225.39999389648</ele>
        <time>2014-01-19T10:55:36.000Z</time>
      </trkpt>
      <trkpt lat="43.69575" lon="7.08222">
        <ele>226.19999694824</ele>
        <time>2014-01-19T10:55:42.000Z</time>
      </trkpt>
      <trkpt lat="43.69585" lon="7.08231">
        <ele>227.80000305176</ele>
        <time>2014-01-19T10:55:48.000Z</time>
      </trkpt>
      <trkpt lat="43.69595" lon="7.08232">
        <ele>229.19999694824</ele>
        <time>2014-01-19T10:55:54.000Z</time>
      </trkpt>
      <trkpt lat="43.69599" lon="7.08233">
        <ele>229.19999694824</ele>
        <time>2014-01-19T10:55:56.000Z</time>
      </trkpt>
      <trkpt lat="43.69604" lon="7.08236">
        <ele>230</ele>
        <time>2014-01-19T10:55:59.000Z</time>
      </trkpt>
      <trkpt lat="43.69614" lon="7.0824">
        <ele>230.39999389648</ele>
        <time>2014-01-19T10:56:05.000Z</time>
      </trkpt>
      <trkpt lat="43.69624" lon="7.08247">
        <ele>231.60000610352</ele>
        <time>2014-01-19T10:56:11.000Z</time>
      </trkpt>
      <trkpt lat="43.69633" lon="7.08251">
        <ele>231.80000305176</ele>
        <time>2014-01-19T10:56:15.000Z</time>
      </trkpt>
      <trkpt lat="43.69647" lon="7.08262">
        <ele>232.19999694824</ele>
        <time>2014-01-19T10:56:21.000Z</time>
      </trkpt>
      <trkpt lat="43.69657" lon="7.08272">
        <ele>232.39999389648</ele>
        <time>2014-01-19T10:56:25.000Z</time>
      </trkpt>
      <trkpt lat="43.6967" lon="7.08282">
        <ele>232.60000610352</ele>
        <time>2014-01-19T10:56:30.000Z</time>
      </trkpt>
      <trkpt lat="43.6968" lon="7.08283">
        <ele>233.19999694824</ele>
        <time>2014-01-19T10:56:35.000Z</time>
      </trkpt>
      <trkpt lat="43.69688" lon="7.08286">
        <ele>234</ele>
        <time>2014-01-19T10:56:39.000Z</time>
      </trkpt>
      <trkpt lat="43.69693" lon="7.08294">
        <ele>234.19999694824</ele>
        <time>2014-01-19T10:56:42.000Z</time>
      </trkpt>
      <trkpt lat="43.69694" lon="7.08295">
        <ele>234.60000610352</ele>
        <time>2014-01-19T10:56:43.000Z</time>
      </trkpt>
      <trkpt lat="43.69701" lon="7.08302">
        <ele>235.39999389648</ele>
        <time>2014-01-19T10:56:47.000Z</time>
      </trkpt>
      <trkpt lat="43.69705" lon="7.08304">
        <ele>235.80000305176</ele>
        <time>2014-01-19T10:56:49.000Z</time>
      </trkpt>
      <trkpt lat="43.69712" lon="7.08318">
        <ele>235.60000610352</ele>
        <time>2014-01-19T10:56:54.000Z</time>
      </trkpt>
      <trkpt lat="43.69722" lon="7.08331">
        <ele>235.80000305176</ele>
        <time>2014-01-19T10:56:59.000Z</time>
      </trkpt>
      <trkpt lat="43.6973" lon="7.08334">
        <ele>235.80000305176</ele>
        <time>2014-01-19T10:57:03.000Z</time>
      </trkpt>
      <trkpt lat="43.69733" lon="7.08334">
        <ele>235.80000305176</ele>
        <time>2014-01-19T10:57:04.000Z</time>
      </trkpt>
      <trkpt lat="43.69746" lon="7.08341">
        <ele>236.19999694824</ele>
        <time>2014-01-19T10:57:10.000Z</time>
      </trkpt>
      <trkpt lat="43.69748" lon="7.08342">
        <ele>236.19999694824</ele>
        <time>2014-01-19T10:57:11.000Z</time>
      </trkpt>
      <trkpt lat="43.69757" lon="7.08351">
        <ele>235.80000305176</ele>
        <time>2014-01-19T10:57:15.000Z</time>
      </trkpt>
      <trkpt lat="43.69768" lon="7.08353">
        <ele>235.80000305176</ele>
        <time>2014-01-19T10:57:20.000Z</time>
      </trkpt>
      <trkpt lat="43.69777" lon="7.08362">
        <ele>235.60000610352</ele>
        <time>2014-01-19T10:57:25.000Z</time>
      </trkpt>
      <trkpt lat="43.69784" lon="7.08377">
        <ele>235.39999389648</ele>
        <time>2014-01-19T10:57:30.000Z</time>
      </trkpt>
      <trkpt lat="43.69793" lon="7.08381">
        <ele>235.39999389648</ele>
        <time>2014-01-19T10:57:34.000Z</time>
      </trkpt>
      <trkpt lat="43.69803" lon="7.08384">
        <ele>236.19999694824</ele>
        <time>2014-01-19T10:57:39.000Z</time>
      </trkpt>
      <trkpt lat="43.69809" lon="7.08383">
        <ele>237</ele>
        <time>2014-01-19T10:57:42.000Z</time>
      </trkpt>
      <trkpt lat="43.69812" lon="7.08385">
        <ele>237.39999389648</ele>
        <time>2014-01-19T10:57:44.000Z</time>
      </trkpt>
      <trkpt lat="43.6982" lon="7.08387">
        <ele>238.39999389648</ele>
        <time>2014-01-19T10:57:48.000Z</time>
      </trkpt>
      <trkpt lat="43.69822" lon="7.0839">
        <ele>238.39999389648</ele>
        <time>2014-01-19T10:57:49.000Z</time>
      </trkpt>
      <trkpt lat="43.69832" lon="7.08406">
        <ele>239</ele>
        <time>2014-01-19T10:57:54.000Z</time>
      </trkpt>
      <trkpt lat="43.69843" lon="7.0842">
        <ele>239.39999389648</ele>
        <time>2014-01-19T10:57:59.000Z</time>
      </trkpt>
      <trkpt lat="43.69861" lon="7.08433">
        <ele>239.60000610352</ele>
        <time>2014-01-19T10:58:04.000Z</time>
      </trkpt>
      <trkpt lat="43.69872" lon="7.08436">
        <ele>240</ele>
        <time>2014-01-19T10:58:08.000Z</time>
      </trkpt>
      <trkpt lat="43.69884" lon="7.08455">
        <ele>240.60000610352</ele>
        <time>2014-01-19T10:58:12.000Z</time>
      </trkpt>
      <trkpt lat="43.69904" lon="7.08477">
        <ele>240.39999389648</ele>
        <time>2014-01-19T10:58:18.000Z</time>
      </trkpt>
      <trkpt lat="43.69912" lon="7.08485">
        <ele>240.60000610352</ele>
        <time>2014-01-19T10:58:21.000Z</time>
      </trkpt>
      <trkpt lat="43.69915" lon="7.0849">
        <ele>240.60000610352</ele>
        <time>2014-01-19T10:58:22.000Z</time>
      </trkpt>
      <trkpt lat="43.6992" lon="7.08511">
        <ele>240.80000305176</ele>
        <time>2014-01-19T10:58:25.000Z</time>
      </trkpt>
      <trkpt lat="43.69922" lon="7.0852">
        <ele>241</ele>
        <time>2014-01-19T10:58:26.000Z</time>
      </trkpt>
      <trkpt lat="43.6993" lon="7.0854">
        <ele>241</ele>
        <time>2014-01-19T10:58:29.000Z</time>
      </trkpt>
      <trkpt lat="43.69939" lon="7.08555">
        <ele>240.80000305176</ele>
        <time>2014-01-19T10:58:32.000Z</time>
      </trkpt>
      <trkpt lat="43.69943" lon="7.08556">
        <ele>240.80000305176</ele>
        <time>2014-01-19T10:58:33.000Z</time>
      </trkpt>
      <trkpt lat="43.69949" lon="7.08561">
        <ele>241</ele>
        <time>2014-01-19T10:58:35.000Z</time>
      </trkpt>
      <trkpt lat="43.69951" lon="7.08567">
        <ele>241</ele>
        <time>2014-01-19T10:58:37.000Z</time>
      </trkpt>
      <trkpt lat="43.69962" lon="7.08576">
        <ele>241</ele>
        <time>2014-01-19T10:58:41.000Z</time>
      </trkpt>
      <trkpt lat="43.69964" lon="7.08579">
        <ele>241</ele>
        <time>2014-01-19T10:58:42.000Z</time>
      </trkpt>
      <trkpt lat="43.69973" lon="7.08587">
        <ele>241</ele>
        <time>2014-01-19T10:58:46.000Z</time>
      </trkpt>
      <trkpt lat="43.69984" lon="7.08602">
        <ele>241.39999389648</ele>
        <time>2014-01-19T10:58:52.000Z</time>
      </trkpt>
      <trkpt lat="43.69992" lon="7.08607">
        <ele>241.80000305176</ele>
        <time>2014-01-19T10:58:56.000Z</time>
      </trkpt>
      <trkpt lat="43.70005" lon="7.08617">
        <ele>242.80000305176</ele>
        <time>2014-01-19T10:59:01.000Z</time>
      </trkpt>
      <trkpt lat="43.70017" lon="7.08629">
        <ele>243</ele>
        <time>2014-01-19T10:59:06.000Z</time>
      </trkpt>
      <trkpt lat="43.70032" lon="7.08645">
        <ele>244.80000305176</ele>
        <time>2014-01-19T10:59:13.000Z</time>
      </trkpt>
      <trkpt lat="43.70042" lon="7.08648">
        <ele>246.19999694824</ele>
        <time>2014-01-19T10:59:18.000Z</time>
      </trkpt>
      <trkpt lat="43.70053" lon="7.08654">
        <ele>247.80000305176</ele>
        <time>2014-01-19T10:59:23.000Z</time>
      </trkpt>
      <trkpt lat="43.70055" lon="7.08654">
        <ele>248</ele>
        <time>2014-01-19T10:59:24.000Z</time>
      </trkpt>
      <trkpt lat="43.70063" lon="7.08654">
        <ele>248.60000610352</ele>
        <time>2014-01-19T10:59:27.000Z</time>
      </trkpt>
      <trkpt lat="43.70074" lon="7.08656">
        <ele>249.19999694824</ele>
        <time>2014-01-19T10:59:31.000Z</time>
      </trkpt>
      <trkpt lat="43.7008" lon="7.08658">
        <ele>249.39999389648</ele>
        <time>2014-01-19T10:59:33.000Z</time>
      </trkpt>
      <trkpt lat="43.70094" lon="7.08659">
        <ele>249.60000610352</ele>
        <time>2014-01-19T10:59:38.000Z</time>
      </trkpt>
      <trkpt lat="43.70106" lon="7.08661">
        <ele>249.60000610352</ele>
        <time>2014-01-19T10:59:42.000Z</time>
      </trkpt>
      <trkpt lat="43.70108" lon="7.08658">
        <ele>249.80000305176</ele>
        <time>2014-01-19T10:59:43.000Z</time>
      </trkpt>
      <trkpt lat="43.70114" lon="7.08648">
        <ele>249.80000305176</ele>
        <time>2014-01-19T10:59:46.000Z</time>
      </trkpt>
      <trkpt lat="43.70112" lon="7.08639">
        <ele>250.39999389648</ele>
        <time>2014-01-19T10:59:50.000Z</time>
      </trkpt>
      <trkpt lat="43.701" lon="7.08627">
        <ele>250.80000305176</ele>
        <time>2014-01-19T10:59:54.000Z</time>
      </trkpt>
      <trkpt lat="43.70096" lon="7.08625">
        <ele>250.60000610352</ele>
        <time>2014-01-19T10:59:55.000Z</time>
      </trkpt>
      <trkpt lat="43.70077" lon="7.08619">
        <ele>250.60000610352</ele>
        <time>2014-01-19T10:59:59.000Z</time>
      </trkpt>
      <trkpt lat="43.70047" lon="7.08605">
        <ele>250.60000610352</ele>
        <time>2014-01-19T11:00:05.000Z</time>
      </trkpt>
      <trkpt lat="43.70033" lon="7.08577">
        <ele>250.39999389648</ele>
        <time>2014-01-19T11:00:09.000Z</time>
      </trkpt>
      <trkpt lat="43.70036" lon="7.08566">
        <ele>250</ele>
        <time>2014-01-19T11:00:12.000Z</time>
      </trkpt>
      <trkpt lat="43.70041" lon="7.08561">
        <ele>249.80000305176</ele>
        <time>2014-01-19T11:00:15.000Z</time>
      </trkpt>
      <trkpt lat="43.70042" lon="7.08559">
        <ele>249.80000305176</ele>
        <time>2014-01-19T11:00:16.000Z</time>
      </trkpt>
      <trkpt lat="43.70044" lon="7.08557">
        <ele>249.39999389648</ele>
        <time>2014-01-19T11:00:18.000Z</time>
      </trkpt>
      <trkpt lat="43.70048" lon="7.08555">
        <ele>249.19999694824</ele>
        <time>2014-01-19T11:00:22.000Z</time>
      </trkpt>
      <trkpt lat="43.70053" lon="7.08555">
        <ele>249.19999694824</ele>
        <time>2014-01-19T11:00:25.000Z</time>
      </trkpt>
      <trkpt lat="43.70058" lon="7.08553">
        <ele>249</ele>
        <time>2014-01-19T11:00:29.000Z</time>
      </trkpt>
      <trkpt lat="43.70058" lon="7.08551">
        <ele>249</ele>
        <time>2014-01-19T11:00:30.000Z</time>
      </trkpt>
      <trkpt lat="43.70059" lon="7.08552">
        <ele>249</ele>
        <time>2014-01-19T11:00:33.000Z</time>
      </trkpt>
      <trkpt lat="43.70063" lon="7.08543">
        <ele>249.19999694824</ele>
        <time>2014-01-19T11:00:39.000Z</time>
      </trkpt>
      <trkpt lat="43.70066" lon="7.08541">
        <ele>249.19999694824</ele>
        <time>2014-01-19T11:00:41.000Z</time>
      </trkpt>
      <trkpt lat="43.70069" lon="7.08539">
        <ele>249.60000610352</ele>
        <time>2014-01-19T11:00:45.000Z</time>
      </trkpt>
      <trkpt lat="43.70073" lon="7.08534">
        <ele>249.80000305176</ele>
        <time>2014-01-19T11:00:50.000Z</time>
      </trkpt>
      <trkpt lat="43.70078" lon="7.08536">
        <ele>250.60000610352</ele>
        <time>2014-01-19T11:00:55.000Z</time>
      </trkpt>
      <trkpt lat="43.7008" lon="7.0853">
        <ele>251.19999694824</ele>
        <time>2014-01-19T11:01:01.000Z</time>
      </trkpt>
      <trkpt lat="43.7009" lon="7.08524">
        <ele>251.80000305176</ele>
        <time>2014-01-19T11:01:08.000Z</time>
      </trkpt>
      <trkpt lat="43.70101" lon="7.08522">
        <ele>252.60000610352</ele>
        <time>2014-01-19T11:01:14.000Z</time>
      </trkpt>
      <trkpt lat="43.70109" lon="7.08516">
        <ele>253.19999694824</ele>
        <time>2014-01-19T11:01:18.000Z</time>
      </trkpt>
      <trkpt lat="43.70124" lon="7.08507">
        <ele>254.19999694824</ele>
        <time>2014-01-19T11:01:23.000Z</time>
      </trkpt>
      <trkpt lat="43.70143" lon="7.085">
        <ele>255.60000610352</ele>
        <time>2014-01-19T11:01:29.000Z</time>
      </trkpt>
      <trkpt lat="43.70161" lon="7.08495">
        <ele>256.39999389648</ele>
        <time>2014-01-19T11:01:35.000Z</time>
      </trkpt>
      <trkpt lat="43.70176" lon="7.08496">
        <ele>256.79998779297</ele>
        <time>2014-01-19T11:01:39.000Z</time>
      </trkpt>
      <trkpt lat="43.70178" lon="7.08502">
        <ele>256.79998779297</ele>
        <time>2014-01-19T11:01:40.000Z</time>
      </trkpt>
      <trkpt lat="43.70181" lon="7.08516">
        <ele>257</ele>
        <time>2014-01-19T11:01:42.000Z</time>
      </trkpt>
      <trkpt lat="43.70189" lon="7.08545">
        <ele>257</ele>
        <time>2014-01-19T11:01:47.000Z</time>
      </trkpt>
      <trkpt lat="43.70187" lon="7.08565">
        <ele>257.39999389648</ele>
        <time>2014-01-19T11:01:50.000Z</time>
      </trkpt>
      <trkpt lat="43.70186" lon="7.08571">
        <ele>257.60000610352</ele>
        <time>2014-01-19T11:01:51.000Z</time>
      </trkpt>
      <trkpt lat="43.70187" lon="7.08578">
        <ele>257.60000610352</ele>
        <time>2014-01-19T11:01:52.000Z</time>
      </trkpt>
      <trkpt lat="43.70194" lon="7.08589">
        <ele>257.60000610352</ele>
        <time>2014-01-19T11:01:55.000Z</time>
      </trkpt>
      <trkpt lat="43.70208" lon="7.08591">
        <ele>257.39999389648</ele>
        <time>2014-01-19T11:01:59.000Z</time>
      </trkpt>
      <trkpt lat="43.70214" lon="7.08591">
        <ele>257.39999389648</ele>
        <time>2014-01-19T11:02:01.000Z</time>
      </trkpt>
      <trkpt lat="43.7022" lon="7.08583">
        <ele>257.39999389648</ele>
        <time>2014-01-19T11:02:03.000Z</time>
      </trkpt>
      <trkpt lat="43.70227" lon="7.08567">
        <ele>257.20001220703</ele>
        <time>2014-01-19T11:02:07.000Z</time>
      </trkpt>
      <trkpt lat="43.70237" lon="7.08554">
        <ele>256.79998779297</ele>
        <time>2014-01-19T11:02:12.000Z</time>
      </trkpt>
      <trkpt lat="43.70249" lon="7.08547">
        <ele>256.79998779297</ele>
        <time>2014-01-19T11:02:16.000Z</time>
      </trkpt>
      <trkpt lat="43.70259" lon="7.08543">
        <ele>256.79998779297</ele>
        <time>2014-01-19T11:02:20.000Z</time>
      </trkpt>
      <trkpt lat="43.70271" lon="7.08539">
        <ele>257</ele>
        <time>2014-01-19T11:02:25.000Z</time>
      </trkpt>
      <trkpt lat="43.70284" lon="7.08532">
        <ele>257.60000610352</ele>
        <time>2014-01-19T11:02:31.000Z</time>
      </trkpt>
      <trkpt lat="43.70296" lon="7.08525">
        <ele>258.39999389648</ele>
        <time>2014-01-19T11:02:37.000Z</time>
      </trkpt>
      <trkpt lat="43.70305" lon="7.08523">
        <ele>259</ele>
        <time>2014-01-19T11:02:40.000Z</time>
      </trkpt>
      <trkpt lat="43.70313" lon="7.08518">
        <ele>259</ele>
        <time>2014-01-19T11:02:43.000Z</time>
      </trkpt>
      <trkpt lat="43.70333" lon="7.08505">
        <ele>259.20001220703</ele>
        <time>2014-01-19T11:02:49.000Z</time>
      </trkpt>
      <trkpt lat="43.70341" lon="7.08506">
        <ele>259.60000610352</ele>
        <time>2014-01-19T11:02:52.000Z</time>
      </trkpt>
      <trkpt lat="43.70344" lon="7.0851">
        <ele>259.79998779297</ele>
        <time>2014-01-19T11:02:53.000Z</time>
      </trkpt>
      <trkpt lat="43.70337" lon="7.08524">
        <ele>260.20001220703</ele>
        <time>2014-01-19T11:02:56.000Z</time>
      </trkpt>
      <trkpt lat="43.70329" lon="7.08549">
        <ele>260.60000610352</ele>
        <time>2014-01-19T11:02:59.000Z</time>
      </trkpt>
      <trkpt lat="43.70333" lon="7.08573">
        <ele>260.79998779297</ele>
        <time>2014-01-19T11:03:02.000Z</time>
      </trkpt>
      <trkpt lat="43.70338" lon="7.08583">
        <ele>261</ele>
        <time>2014-01-19T11:03:04.000Z</time>
      </trkpt>
      <trkpt lat="43.70341" lon="7.08589">
        <ele>260.79998779297</ele>
        <time>2014-01-19T11:03:05.000Z</time>
      </trkpt>
      <trkpt lat="43.70344" lon="7.08595">
        <ele>261</ele>
        <time>2014-01-19T11:03:06.000Z</time>
      </trkpt>
      <trkpt lat="43.70357" lon="7.08618">
        <ele>260.79998779297</ele>
        <time>2014-01-19T11:03:10.000Z</time>
      </trkpt>
      <trkpt lat="43.70369" lon="7.0864">
        <ele>260.60000610352</ele>
        <time>2014-01-19T11:03:14.000Z</time>
      </trkpt>
      <trkpt lat="43.70374" lon="7.08651">
        <ele>260.60000610352</ele>
        <time>2014-01-19T11:03:16.000Z</time>
      </trkpt>
      <trkpt lat="43.70381" lon="7.08661">
        <ele>260.39999389648</ele>
        <time>2014-01-19T11:03:18.000Z</time>
      </trkpt>
      <trkpt lat="43.7039" lon="7.08665">
        <ele>260.39999389648</ele>
        <time>2014-01-19T11:03:20.000Z</time>
      </trkpt>
      <trkpt lat="43.70409" lon="7.08659">
        <ele>260.20001220703</ele>
        <time>2014-01-19T11:03:24.000Z</time>
      </trkpt>
      <trkpt lat="43.70417" lon="7.08655">
        <ele>260.20001220703</ele>
        <time>2014-01-19T11:03:26.000Z</time>
      </trkpt>
      <trkpt lat="43.70421" lon="7.08655">
        <ele>260.20001220703</ele>
        <time>2014-01-19T11:03:27.000Z</time>
      </trkpt>
      <trkpt lat="43.70426" lon="7.08654">
        <ele>260</ele>
        <time>2014-01-19T11:03:28.000Z</time>
      </trkpt>
      <trkpt lat="43.70439" lon="7.08649">
        <ele>260</ele>
        <time>2014-01-19T11:03:31.000Z</time>
      </trkpt>
      <trkpt lat="43.70443" lon="7.08647">
        <ele>260</ele>
        <time>2014-01-19T11:03:32.000Z</time>
      </trkpt>
      <trkpt lat="43.7045" lon="7.08642">
        <ele>260</ele>
        <time>2014-01-19T11:03:34.000Z</time>
      </trkpt>
      <trkpt lat="43.70462" lon="7.08636">
        <ele>259.79998779297</ele>
        <time>2014-01-19T11:03:37.000Z</time>
      </trkpt>
      <trkpt lat="43.70467" lon="7.08636">
        <ele>260</ele>
        <time>2014-01-19T11:03:39.000Z</time>
      </trkpt>
      <trkpt lat="43.70475" lon="7.08633">
        <ele>260</ele>
        <time>2014-01-19T11:03:42.000Z</time>
      </trkpt>
      <trkpt lat="43.70494" lon="7.08626">
        <ele>261.20001220703</ele>
        <time>2014-01-19T11:03:46.000Z</time>
      </trkpt>
      <trkpt lat="43.70521" lon="7.08611">
        <ele>261.39999389648</ele>
        <time>2014-01-19T11:03:52.000Z</time>
      </trkpt>
      <trkpt lat="43.70546" lon="7.08608">
        <ele>261.39999389648</ele>
        <time>2014-01-19T11:03:57.000Z</time>
      </trkpt>
      <trkpt lat="43.70566" lon="7.08607">
        <ele>261.79998779297</ele>
        <time>2014-01-19T11:04:01.000Z</time>
      </trkpt>
      <trkpt lat="43.70575" lon="7.08608">
        <ele>262.39999389648</ele>
        <time>2014-01-19T11:04:03.000Z</time>
      </trkpt>
      <trkpt lat="43.70582" lon="7.0861">
        <ele>262.20001220703</ele>
        <time>2014-01-19T11:04:05.000Z</time>
      </trkpt>
      <trkpt lat="43.70584" lon="7.08613">
        <ele>262.20001220703</ele>
        <time>2014-01-19T11:04:06.000Z</time>
      </trkpt>
      <trkpt lat="43.70586" lon="7.08615">
        <ele>262.60000610352</ele>
        <time>2014-01-19T11:04:07.000Z</time>
      </trkpt>
      <trkpt lat="43.70598" lon="7.08628">
        <ele>264.79998779297</ele>
        <time>2014-01-19T11:04:13.000Z</time>
      </trkpt>
      <trkpt lat="43.70599" lon="7.0863">
        <ele>264.79998779297</ele>
        <time>2014-01-19T11:04:14.000Z</time>
      </trkpt>
      <trkpt lat="43.70604" lon="7.08635">
        <ele>266.20001220703</ele>
        <time>2014-01-19T11:04:17.000Z</time>
      </trkpt>
      <trkpt lat="43.70607" lon="7.08637">
        <ele>267.20001220703</ele>
        <time>2014-01-19T11:04:19.000Z</time>
      </trkpt>
      <trkpt lat="43.7061" lon="7.08642">
        <ele>268.39999389648</ele>
        <time>2014-01-19T11:04:22.000Z</time>
      </trkpt>
      <trkpt lat="43.70615" lon="7.0865">
        <ele>269.79998779297</ele>
        <time>2014-01-19T11:04:25.000Z</time>
      </trkpt>
      <trkpt lat="43.70619" lon="7.08654">
        <ele>270.39999389648</ele>
        <time>2014-01-19T11:04:27.000Z</time>
      </trkpt>
      <trkpt lat="43.70627" lon="7.08664">
        <ele>272</ele>
        <time>2014-01-19T11:04:31.000Z</time>
      </trkpt>
      <trkpt lat="43.70631" lon="7.08665">
        <ele>272.60000610352</ele>
        <time>2014-01-19T11:04:33.000Z</time>
      </trkpt>
      <trkpt lat="43.70635" lon="7.0867">
        <ele>273.79998779297</ele>
        <time>2014-01-19T11:04:35.000Z</time>
      </trkpt>
      <trkpt lat="43.70638" lon="7.08675">
        <ele>274.60000610352</ele>
        <time>2014-01-19T11:04:37.000Z</time>
      </trkpt>
      <trkpt lat="43.70641" lon="7.08676">
        <ele>275</ele>
        <time>2014-01-19T11:04:38.000Z</time>
      </trkpt>
      <trkpt lat="43.70643" lon="7.08676">
        <ele>275.60000610352</ele>
        <time>2014-01-19T11:04:39.000Z</time>
      </trkpt>
      <trkpt lat="43.70649" lon="7.08688">
        <ele>278.39999389648</ele>
        <time>2014-01-19T11:04:44.000Z</time>
      </trkpt>
      <trkpt lat="43.70653" lon="7.08696">
        <ele>280.39999389648</ele>
        <time>2014-01-19T11:04:47.000Z</time>
      </trkpt>
      <trkpt lat="43.70657" lon="7.087">
        <ele>281.20001220703</ele>
        <time>2014-01-19T11:04:49.000Z</time>
      </trkpt>
      <trkpt lat="43.70667" lon="7.08714">
        <ele>284.20001220703</ele>
        <time>2014-01-19T11:04:54.000Z</time>
      </trkpt>
      <trkpt lat="43.7068" lon="7.08727">
        <ele>287.39999389648</ele>
        <time>2014-01-19T11:04:59.000Z</time>
      </trkpt>
      <trkpt lat="43.70688" lon="7.08742">
        <ele>290</ele>
        <time>2014-01-19T11:05:03.000Z</time>
      </trkpt>
      <trkpt lat="43.70701" lon="7.08756">
        <ele>293.39999389648</ele>
        <time>2014-01-19T11:05:08.000Z</time>
      </trkpt>
      <trkpt lat="43.70716" lon="7.08771">
        <ele>296.60000610352</ele>
        <time>2014-01-19T11:05:14.000Z</time>
      </trkpt>
      <trkpt lat="43.70718" lon="7.08773">
        <ele>297</ele>
        <time>2014-01-19T11:05:15.000Z</time>
      </trkpt>
      <trkpt lat="43.70726" lon="7.08779">
        <ele>298.79998779297</ele>
        <time>2014-01-19T11:05:18.000Z</time>
      </trkpt>
      <trkpt lat="43.70735" lon="7.08791">
        <ele>300.60000610352</ele>
        <time>2014-01-19T11:05:22.000Z</time>
      </trkpt>
      <trkpt lat="43.70747" lon="7.08806">
        <ele>302</ele>
        <time>2014-01-19T11:05:27.000Z</time>
      </trkpt>
      <trkpt lat="43.70763" lon="7.08817">
        <ele>302.60000610352</ele>
        <time>2014-01-19T11:05:32.000Z</time>
      </trkpt>
      <trkpt lat="43.7077" lon="7.08818">
        <ele>302.20001220703</ele>
        <time>2014-01-19T11:05:35.000Z</time>
      </trkpt>
      <trkpt lat="43.70775" lon="7.08821">
        <ele>302.39999389648</ele>
        <time>2014-01-19T11:05:37.000Z</time>
      </trkpt>
      <trkpt lat="43.70784" lon="7.08815">
        <ele>302.39999389648</ele>
        <time>2014-01-19T11:05:41.000Z</time>
      </trkpt>
      <trkpt lat="43.70796" lon="7.08808">
        <ele>301.79998779297</ele>
        <time>2014-01-19T11:05:46.000Z</time>
      </trkpt>
      <trkpt lat="43.70797" lon="7.0881">
        <ele>301.79998779297</ele>
        <time>2014-01-19T11:05:47.000Z</time>
      </trkpt>
      <trkpt lat="43.70807" lon="7.08809">
        <ele>301.39999389648</ele>
        <time>2014-01-19T11:05:51.000Z</time>
      </trkpt>
      <trkpt lat="43.70823" lon="7.08801">
        <ele>300.60000610352</ele>
        <time>2014-01-19T11:05:56.000Z</time>
      </trkpt>
      <trkpt lat="43.70831" lon="7.08802">
        <ele>300</ele>
        <time>2014-01-19T11:05:59.000Z</time>
      </trkpt>
      <trkpt lat="43.70835" lon="7.08803">
        <ele>299.60000610352</ele>
        <time>2014-01-19T11:06:01.000Z</time>
      </trkpt>
      <trkpt lat="43.70846" lon="7.08809">
        <ele>298.79998779297</ele>
        <time>2014-01-19T11:06:06.000Z</time>
      </trkpt>
      <trkpt lat="43.70856" lon="7.08819">
        <ele>298.60000610352</ele>
        <time>2014-01-19T11:06:11.000Z</time>
      </trkpt>
      <trkpt lat="43.70856" lon="7.08824">
        <ele>298</ele>
        <time>2014-01-19T11:06:15.000Z</time>
      </trkpt>
      <trkpt lat="43.70858" lon="7.08841">
        <ele>297.20001220703</ele>
        <time>2014-01-19T11:06:20.000Z</time>
      </trkpt>
      <trkpt lat="43.70854" lon="7.08847">
        <ele>296.79998779297</ele>
        <time>2014-01-19T11:06:23.000Z</time>
      </trkpt>
      <trkpt lat="43.70853" lon="7.08849">
        <ele>296.60000610352</ele>
        <time>2014-01-19T11:06:24.000Z</time>
      </trkpt>
      <trkpt lat="43.70851" lon="7.08854">
        <ele>296.39999389648</ele>
        <time>2014-01-19T11:06:25.000Z</time>
      </trkpt>
      <trkpt lat="43.7085" lon="7.08867">
        <ele>296</ele>
        <time>2014-01-19T11:06:28.000Z</time>
      </trkpt>
      <trkpt lat="43.70856" lon="7.08881">
        <ele>295.60000610352</ele>
        <time>2014-01-19T11:06:32.000Z</time>
      </trkpt>
      <trkpt lat="43.70858" lon="7.08883">
        <ele>295.39999389648</ele>
        <time>2014-01-19T11:06:33.000Z</time>
      </trkpt>
      <trkpt lat="43.70865" lon="7.08894">
        <ele>294.60000610352</ele>
        <time>2014-01-19T11:06:39.000Z</time>
      </trkpt>
      <trkpt lat="43.70873" lon="7.089">
        <ele>293.60000610352</ele>
        <time>2014-01-19T11:06:44.000Z</time>
      </trkpt>
      <trkpt lat="43.70874" lon="7.089">
        <ele>293.60000610352</ele>
        <time>2014-01-19T11:06:45.000Z</time>
      </trkpt>
      <trkpt lat="43.70883" lon="7.08907">
        <ele>293.20001220703</ele>
        <time>2014-01-19T11:06:50.000Z</time>
      </trkpt>
      <trkpt lat="43.70892" lon="7.0892">
        <ele>292.79998779297</ele>
        <time>2014-01-19T11:06:56.000Z</time>
      </trkpt>
      <trkpt lat="43.70894" lon="7.08922">
        <ele>292.79998779297</ele>
        <time>2014-01-19T11:06:57.000Z</time>
      </trkpt>
      <trkpt lat="43.709" lon="7.08935">
        <ele>292.60000610352</ele>
        <time>2014-01-19T11:07:02.000Z</time>
      </trkpt>
      <trkpt lat="43.709" lon="7.08936">
        <ele>292.60000610352</ele>
        <time>2014-01-19T11:07:03.000Z</time>
      </trkpt>
      <trkpt lat="43.70901" lon="7.08936">
        <ele>292.20001220703</ele>
        <time>2014-01-19T11:07:07.000Z</time>
      </trkpt>
      <trkpt lat="43.70897" lon="7.08946">
        <ele>291.79998779297</ele>
        <time>2014-01-19T11:07:12.000Z</time>
      </trkpt>
      <trkpt lat="43.70886" lon="7.08964">
        <ele>291</ele>
        <time>2014-01-19T11:07:17.000Z</time>
      </trkpt>
      <trkpt lat="43.70885" lon="7.08978">
        <ele>290.39999389648</ele>
        <time>2014-01-19T11:07:23.000Z</time>
      </trkpt>
      <trkpt lat="43.70881" lon="7.09002">
        <ele>290</ele>
        <time>2014-01-19T11:07:28.000Z</time>
      </trkpt>
      <trkpt lat="43.70874" lon="7.09021">
        <ele>289.39999389648</ele>
        <time>2014-01-19T11:07:33.000Z</time>
      </trkpt>
      <trkpt lat="43.70859" lon="7.09036">
        <ele>289.20001220703</ele>
        <time>2014-01-19T11:07:38.000Z</time>
      </trkpt>
      <trkpt lat="43.7084" lon="7.09046">
        <ele>289.39999389648</ele>
        <time>2014-01-19T11:07:43.000Z</time>
      </trkpt>
      <trkpt lat="43.70834" lon="7.09047">
        <ele>289.39999389648</ele>
        <time>2014-01-19T11:07:45.000Z</time>
      </trkpt>
      <trkpt lat="43.70827" lon="7.09045">
        <ele>289.60000610352</ele>
        <time>2014-01-19T11:07:47.000Z</time>
      </trkpt>
      <trkpt lat="43.70809" lon="7.0905">
        <ele>290.79998779297</ele>
        <time>2014-01-19T11:07:50.000Z</time>
      </trkpt>
      <trkpt lat="43.70795" lon="7.09052">
        <ele>290.79998779297</ele>
        <time>2014-01-19T11:07:52.000Z</time>
      </trkpt>
      <trkpt lat="43.70776" lon="7.09046">
        <ele>291</ele>
        <time>2014-01-19T11:07:56.000Z</time>
      </trkpt>
      <trkpt lat="43.70766" lon="7.09045">
        <ele>291.39999389648</ele>
        <time>2014-01-19T11:07:58.000Z</time>
      </trkpt>
      <trkpt lat="43.70745" lon="7.09051">
        <ele>291.39999389648</ele>
        <time>2014-01-19T11:08:01.000Z</time>
      </trkpt>
      <trkpt lat="43.70733" lon="7.0906">
        <ele>291.60000610352</ele>
        <time>2014-01-19T11:08:03.000Z</time>
      </trkpt>
      <trkpt lat="43.70723" lon="7.09065">
        <ele>294.20001220703</ele>
        <time>2014-01-19T11:08:05.000Z</time>
      </trkpt>
      <trkpt lat="43.70711" lon="7.09063">
        <ele>297</ele>
        <time>2014-01-19T11:08:08.000Z</time>
      </trkpt>
      <trkpt lat="43.70706" lon="7.09064">
        <ele>297.79998779297</ele>
        <time>2014-01-19T11:08:09.000Z</time>
      </trkpt>
      <trkpt lat="43.70702" lon="7.09063">
        <ele>298.79998779297</ele>
        <time>2014-01-19T11:08:10.000Z</time>
      </trkpt>
      <trkpt lat="43.70697" lon="7.09063">
        <ele>300</ele>
        <time>2014-01-19T11:08:11.000Z</time>
      </trkpt>
      <trkpt lat="43.70686" lon="7.09061">
        <ele>303.20001220703</ele>
        <time>2014-01-19T11:08:14.000Z</time>
      </trkpt>
      <trkpt lat="43.70669" lon="7.09054">
        <ele>307</ele>
        <time>2014-01-19T11:08:18.000Z</time>
      </trkpt>
      <trkpt lat="43.70664" lon="7.09053">
        <ele>307.79998779297</ele>
        <time>2014-01-19T11:08:19.000Z</time>
      </trkpt>
      <trkpt lat="43.70658" lon="7.09051">
        <ele>309</ele>
        <time>2014-01-19T11:08:20.000Z</time>
      </trkpt>
      <trkpt lat="43.70642" lon="7.09045">
        <ele>312</ele>
        <time>2014-01-19T11:08:23.000Z</time>
      </trkpt>
      <trkpt lat="43.70622" lon="7.09037">
        <ele>315.79998779297</ele>
        <time>2014-01-19T11:08:27.000Z</time>
      </trkpt>
      <trkpt lat="43.70617" lon="7.09036">
        <ele>316.79998779297</ele>
        <time>2014-01-19T11:08:28.000Z</time>
      </trkpt>
      <trkpt lat="43.70611" lon="7.09033">
        <ele>317.60000610352</ele>
        <time>2014-01-19T11:08:29.000Z</time>
      </trkpt>
      <trkpt lat="43.70602" lon="7.09033">
        <ele>319.20001220703</ele>
        <time>2014-01-19T11:08:31.000Z</time>
      </trkpt>
      <trkpt lat="43.70582" lon="7.09036">
        <ele>322.39999389648</ele>
        <time>2014-01-19T11:08:35.000Z</time>
      </trkpt>
      <trkpt lat="43.70577" lon="7.09037">
        <ele>323.20001220703</ele>
        <time>2014-01-19T11:08:36.000Z</time>
      </trkpt>
      <trkpt lat="43.70569" lon="7.09041">
        <ele>324.39999389648</ele>
        <time>2014-01-19T11:08:38.000Z</time>
      </trkpt>
      <trkpt lat="43.70565" lon="7.09044">
        <ele>325.20001220703</ele>
        <time>2014-01-19T11:08:39.000Z</time>
      </trkpt>
      <trkpt lat="43.70554" lon="7.09053">
        <ele>327.20001220703</ele>
        <time>2014-01-19T11:08:42.000Z</time>
      </trkpt>
      <trkpt lat="43.70548" lon="7.09058">
        <ele>327.79998779297</ele>
        <time>2014-01-19T11:08:43.000Z</time>
      </trkpt>
      <trkpt lat="43.70541" lon="7.09064">
        <ele>327.79998779297</ele>
        <time>2014-01-19T11:08:44.000Z</time>
      </trkpt>
      <trkpt lat="43.70536" lon="7.0907">
        <ele>327.60000610352</ele>
        <time>2014-01-19T11:08:45.000Z</time>
      </trkpt>
      <trkpt lat="43.70529" lon="7.09089">
        <ele>328.39999389648</ele>
        <time>2014-01-19T11:08:48.000Z</time>
      </trkpt>
      <trkpt lat="43.70527" lon="7.0912">
        <ele>330</ele>
        <time>2014-01-19T11:08:52.000Z</time>
      </trkpt>
      <trkpt lat="43.70525" lon="7.09146">
        <ele>330.79998779297</ele>
        <time>2014-01-19T11:08:55.000Z</time>
      </trkpt>
      <trkpt lat="43.70525" lon="7.0916">
        <ele>331.39999389648</ele>
        <time>2014-01-19T11:08:57.000Z</time>
      </trkpt>
      <trkpt lat="43.70525" lon="7.09172">
        <ele>332</ele>
        <time>2014-01-19T11:08:59.000Z</time>
      </trkpt>
      <trkpt lat="43.70525" lon="7.09179">
        <ele>332.20001220703</ele>
        <time>2014-01-19T11:09:01.000Z</time>
      </trkpt>
      <trkpt lat="43.70526" lon="7.09183">
        <ele>332.39999389648</ele>
        <time>2014-01-19T11:09:02.000Z</time>
      </trkpt>
      <trkpt lat="43.70533" lon="7.09184">
        <ele>333.39999389648</ele>
        <time>2014-01-19T11:09:05.000Z</time>
      </trkpt>
      <trkpt lat="43.70535" lon="7.09184">
        <ele>333.60000610352</ele>
        <time>2014-01-19T11:09:06.000Z</time>
      </trkpt>
      <trkpt lat="43.70537" lon="7.09185">
        <ele>333.60000610352</ele>
        <time>2014-01-19T11:09:07.000Z</time>
      </trkpt>
      <trkpt lat="43.70542" lon="7.09191">
        <ele>333.79998779297</ele>
        <time>2014-01-19T11:09:10.000Z</time>
      </trkpt>
      <trkpt lat="43.70545" lon="7.09201">
        <ele>335.39999389648</ele>
        <time>2014-01-19T11:09:15.000Z</time>
      </trkpt>
      <trkpt lat="43.70548" lon="7.09203">
        <ele>335.39999389648</ele>
        <time>2014-01-19T11:09:17.000Z</time>
      </trkpt>
      <trkpt lat="43.7055" lon="7.09213">
        <ele>335.79998779297</ele>
        <time>2014-01-19T11:09:20.000Z</time>
      </trkpt>
      <trkpt lat="43.70556" lon="7.09226">
        <ele>337.20001220703</ele>
        <time>2014-01-19T11:09:25.000Z</time>
      </trkpt>
      <trkpt lat="43.70555" lon="7.09238">
        <ele>338.79998779297</ele>
        <time>2014-01-19T11:09:30.000Z</time>
      </trkpt>
      <trkpt lat="43.70558" lon="7.0925">
        <ele>340.39999389648</ele>
        <time>2014-01-19T11:09:35.000Z</time>
      </trkpt>
      <trkpt lat="43.70561" lon="7.0925">
        <ele>340.79998779297</ele>
        <time>2014-01-19T11:09:36.000Z</time>
      </trkpt>
      <trkpt lat="43.70567" lon="7.09255">
        <ele>341.60000610352</ele>
        <time>2014-01-19T11:09:40.000Z</time>
      </trkpt>
      <trkpt lat="43.70574" lon="7.09263">
        <ele>343.20001220703</ele>
        <time>2014-01-19T11:09:46.000Z</time>
      </trkpt>
      <trkpt lat="43.70575" lon="7.09266">
        <ele>343.20001220703</ele>
        <time>2014-01-19T11:09:47.000Z</time>
      </trkpt>
      <trkpt lat="43.70578" lon="7.09274">
        <ele>344</ele>
        <time>2014-01-19T11:09:52.000Z</time>
      </trkpt>
      <trkpt lat="43.70581" lon="7.09276">
        <ele>344.60000610352</ele>
        <time>2014-01-19T11:09:54.000Z</time>
      </trkpt>
      <trkpt lat="43.70586" lon="7.0928">
        <ele>344.79998779297</ele>
        <time>2014-01-19T11:09:57.000Z</time>
      </trkpt>
      <trkpt lat="43.70587" lon="7.09282">
        <ele>344.79998779297</ele>
        <time>2014-01-19T11:09:58.000Z</time>
      </trkpt>
      <trkpt lat="43.70588" lon="7.09282">
        <ele>345</ele>
        <time>2014-01-19T11:09:59.000Z</time>
      </trkpt>
      <trkpt lat="43.70592" lon="7.09284">
        <ele>345.20001220703</ele>
        <time>2014-01-19T11:10:02.000Z</time>
      </trkpt>
      <trkpt lat="43.70599" lon="7.09291">
        <ele>345</ele>
        <time>2014-01-19T11:10:08.000Z</time>
      </trkpt>
      <trkpt lat="43.70605" lon="7.09294">
        <ele>345</ele>
        <time>2014-01-19T11:10:12.000Z</time>
      </trkpt>
      <trkpt lat="43.7061" lon="7.09294">
        <ele>345</ele>
        <time>2014-01-19T11:10:15.000Z</time>
      </trkpt>
      <trkpt lat="43.70621" lon="7.09291">
        <ele>345.20001220703</ele>
        <time>2014-01-19T11:10:21.000Z</time>
      </trkpt>
      <trkpt lat="43.70627" lon="7.09292">
        <ele>345.39999389648</ele>
        <time>2014-01-19T11:10:25.000Z</time>
      </trkpt>
      <trkpt lat="43.7063" lon="7.09291">
        <ele>345.60000610352</ele>
        <time>2014-01-19T11:10:27.000Z</time>
      </trkpt>
      <trkpt lat="43.70637" lon="7.09288">
        <ele>346.60000610352</ele>
        <time>2014-01-19T11:10:33.000Z</time>
      </trkpt>
      <trkpt lat="43.70646" lon="7.0928">
        <ele>347</ele>
        <time>2014-01-19T11:10:38.000Z</time>
      </trkpt>
      <trkpt lat="43.70658" lon="7.09265">
        <ele>348</ele>
        <time>2014-01-19T11:10:45.000Z</time>
      </trkpt>
      <trkpt lat="43.70662" lon="7.09261">
        <ele>348.39999389648</ele>
        <time>2014-01-19T11:10:47.000Z</time>
      </trkpt>
      <trkpt lat="43.70669" lon="7.09256">
        <ele>348.39999389648</ele>
        <time>2014-01-19T11:10:49.000Z</time>
      </trkpt>
      <trkpt lat="43.70686" lon="7.0925">
        <ele>349.39999389648</ele>
        <time>2014-01-19T11:10:54.000Z</time>
      </trkpt>
      <trkpt lat="43.70691" lon="7.09249">
        <ele>349.60000610352</ele>
        <time>2014-01-19T11:10:56.000Z</time>
      </trkpt>
      <trkpt lat="43.707" lon="7.09242">
        <ele>349.79998779297</ele>
        <time>2014-01-19T11:10:58.000Z</time>
      </trkpt>
      <trkpt lat="43.70713" lon="7.09223">
        <ele>350.79998779297</ele>
        <time>2014-01-19T11:11:02.000Z</time>
      </trkpt>
      <trkpt lat="43.70722" lon="7.09215">
        <ele>351.20001220703</ele>
        <time>2014-01-19T11:11:04.000Z</time>
      </trkpt>
      <trkpt lat="43.70733" lon="7.09207">
        <ele>351.39999389648</ele>
        <time>2014-01-19T11:11:06.000Z</time>
      </trkpt>
      <trkpt lat="43.70744" lon="7.09203">
        <ele>351.20001220703</ele>
        <time>2014-01-19T11:11:08.000Z</time>
      </trkpt>
      <trkpt lat="43.70748" lon="7.09203">
        <ele>351.20001220703</ele>
        <time>2014-01-19T11:11:09.000Z</time>
      </trkpt>
      <trkpt lat="43.70751" lon="7.09204">
        <ele>351.20001220703</ele>
        <time>2014-01-19T11:11:10.000Z</time>
      </trkpt>
      <trkpt lat="43.70769" lon="7.09208">
        <ele>351.20001220703</ele>
        <time>2014-01-19T11:11:14.000Z</time>
      </trkpt>
      <trkpt lat="43.70774" lon="7.09208">
        <ele>351.20001220703</ele>
        <time>2014-01-19T11:11:15.000Z</time>
      </trkpt>
      <trkpt lat="43.70784" lon="7.09196">
        <ele>351</ele>
        <time>2014-01-19T11:11:18.000Z</time>
      </trkpt>
      <trkpt lat="43.7079" lon="7.09185">
        <ele>350.79998779297</ele>
        <time>2014-01-19T11:11:20.000Z</time>
      </trkpt>
      <trkpt lat="43.70793" lon="7.09181">
        <ele>350.79998779297</ele>
        <time>2014-01-19T11:11:21.000Z</time>
      </trkpt>
      <trkpt lat="43.70798" lon="7.09174">
        <ele>350.79998779297</ele>
        <time>2014-01-19T11:11:22.000Z</time>
      </trkpt>
      <trkpt lat="43.7081" lon="7.0916">
        <ele>350.39999389648</ele>
        <time>2014-01-19T11:11:25.000Z</time>
      </trkpt>
      <trkpt lat="43.70815" lon="7.0915">
        <ele>350.20001220703</ele>
        <time>2014-01-19T11:11:27.000Z</time>
      </trkpt>
      <trkpt lat="43.70828" lon="7.09133">
        <ele>349.79998779297</ele>
        <time>2014-01-19T11:11:31.000Z</time>
      </trkpt>
      <trkpt lat="43.70842" lon="7.09126">
        <ele>349.39999389648</ele>
        <time>2014-01-19T11:11:34.000Z</time>
      </trkpt>
      <trkpt lat="43.70851" lon="7.09123">
        <ele>349.20001220703</ele>
        <time>2014-01-19T11:11:36.000Z</time>
      </trkpt>
      <trkpt lat="43.7087" lon="7.09122">
        <ele>349</ele>
        <time>2014-01-19T11:11:40.000Z</time>
      </trkpt>
      <trkpt lat="43.70875" lon="7.09121">
        <ele>348.79998779297</ele>
        <time>2014-01-19T11:11:41.000Z</time>
      </trkpt>
      <trkpt lat="43.70884" lon="7.09121">
        <ele>348.79998779297</ele>
        <time>2014-01-19T11:11:43.000Z</time>
      </trkpt>
      <trkpt lat="43.70889" lon="7.0912">
        <ele>348.60000610352</ele>
        <time>2014-01-19T11:11:44.000Z</time>
      </trkpt>
      <trkpt lat="43.70894" lon="7.09119">
        <ele>348.60000610352</ele>
        <time>2014-01-19T11:11:45.000Z</time>
      </trkpt>
      <trkpt lat="43.70908" lon="7.09113">
        <ele>348.39999389648</ele>
        <time>2014-01-19T11:11:48.000Z</time>
      </trkpt>
      <trkpt lat="43.70921" lon="7.09108">
        <ele>348.20001220703</ele>
        <time>2014-01-19T11:11:51.000Z</time>
      </trkpt>
      <trkpt lat="43.70932" lon="7.09105">
        <ele>348.39999389648</ele>
        <time>2014-01-19T11:11:53.000Z</time>
      </trkpt>
      <trkpt lat="43.70937" lon="7.09103">
        <ele>348.20001220703</ele>
        <time>2014-01-19T11:11:54.000Z</time>
      </trkpt>
      <trkpt lat="43.70955" lon="7.09092">
        <ele>348.20001220703</ele>
        <time>2014-01-19T11:11:57.000Z</time>
      </trkpt>
      <trkpt lat="43.70961" lon="7.09084">
        <ele>348.20001220703</ele>
        <time>2014-01-19T11:11:58.000Z</time>
      </trkpt>
      <trkpt lat="43.70982" lon="7.09055">
        <ele>348.39999389648</ele>
        <time>2014-01-19T11:12:02.000Z</time>
      </trkpt>
      <trkpt lat="43.71006" lon="7.09045">
        <ele>348.20001220703</ele>
        <time>2014-01-19T11:12:06.000Z</time>
      </trkpt>
      <trkpt lat="43.71025" lon="7.09031">
        <ele>348.20001220703</ele>
        <time>2014-01-19T11:12:09.000Z</time>
      </trkpt>
      <trkpt lat="43.71044" lon="7.09002">
        <ele>347.79998779297</ele>
        <time>2014-01-19T11:12:13.000Z</time>
      </trkpt>
      <trkpt lat="43.71051" lon="7.08983">
        <ele>347.79998779297</ele>
        <time>2014-01-19T11:12:15.000Z</time>
      </trkpt>
      <trkpt lat="43.71062" lon="7.08954">
        <ele>347.39999389648</ele>
        <time>2014-01-19T11:12:18.000Z</time>
      </trkpt>
      <trkpt lat="43.71071" lon="7.08937">
        <ele>347.20001220703</ele>
        <time>2014-01-19T11:12:20.000Z</time>
      </trkpt>
      <trkpt lat="43.71083" lon="7.08927">
        <ele>347</ele>
        <time>2014-01-19T11:12:22.000Z</time>
      </trkpt>
      <trkpt lat="43.71106" lon="7.08929">
        <ele>346.60000610352</ele>
        <time>2014-01-19T11:12:25.000Z</time>
      </trkpt>
      <trkpt lat="43.71114" lon="7.08929">
        <ele>346.39999389648</ele>
        <time>2014-01-19T11:12:26.000Z</time>
      </trkpt>
      <trkpt lat="43.7112" lon="7.08929">
        <ele>346.20001220703</ele>
        <time>2014-01-19T11:12:27.000Z</time>
      </trkpt>
      <trkpt lat="43.71139" lon="7.08924">
        <ele>345.79998779297</ele>
        <time>2014-01-19T11:12:30.000Z</time>
      </trkpt>
      <trkpt lat="43.71144" lon="7.08922">
        <ele>345.79998779297</ele>
        <time>2014-01-19T11:12:31.000Z</time>
      </trkpt>
      <trkpt lat="43.71159" lon="7.0892">
        <ele>345.39999389648</ele>
        <time>2014-01-19T11:12:34.000Z</time>
      </trkpt>
      <trkpt lat="43.71165" lon="7.08919">
        <ele>345.39999389648</ele>
        <time>2014-01-19T11:12:35.000Z</time>
      </trkpt>
      <trkpt lat="43.71181" lon="7.08917">
        <ele>345</ele>
        <time>2014-01-19T11:12:38.000Z</time>
      </trkpt>
      <trkpt lat="43.71194" lon="7.0892">
        <ele>344.60000610352</ele>
        <time>2014-01-19T11:12:40.000Z</time>
      </trkpt>
      <trkpt lat="43.71205" lon="7.08939">
        <ele>344.20001220703</ele>
        <time>2014-01-19T11:12:43.000Z</time>
      </trkpt>
      <trkpt lat="43.71221" lon="7.08943">
        <ele>343.39999389648</ele>
        <time>2014-01-19T11:12:47.000Z</time>
      </trkpt>
      <trkpt lat="43.71224" lon="7.08942">
        <ele>343</ele>
        <time>2014-01-19T11:12:48.000Z</time>
      </trkpt>
      <trkpt lat="43.71224" lon="7.08937">
        <ele>342.79998779297</ele>
        <time>2014-01-19T11:12:49.000Z</time>
      </trkpt>
      <trkpt lat="43.71228" lon="7.08927">
        <ele>342.20001220703</ele>
        <time>2014-01-19T11:12:51.000Z</time>
      </trkpt>
      <trkpt lat="43.71239" lon="7.08909">
        <ele>341.20001220703</ele>
        <time>2014-01-19T11:12:54.000Z</time>
      </trkpt>
      <trkpt lat="43.71247" lon="7.08896">
        <ele>340.60000610352</ele>
        <time>2014-01-19T11:12:56.000Z</time>
      </trkpt>
      <trkpt lat="43.71251" lon="7.0889">
        <ele>340.20001220703</ele>
        <time>2014-01-19T11:12:57.000Z</time>
      </trkpt>
      <trkpt lat="43.71263" lon="7.08885">
        <ele>339.20001220703</ele>
        <time>2014-01-19T11:13:00.000Z</time>
      </trkpt>
      <trkpt lat="43.71277" lon="7.08891">
        <ele>338.20001220703</ele>
        <time>2014-01-19T11:13:03.000Z</time>
      </trkpt>
      <trkpt lat="43.71292" lon="7.0889">
        <ele>337.39999389648</ele>
        <time>2014-01-19T11:13:06.000Z</time>
      </trkpt>
      <trkpt lat="43.7131" lon="7.08889">
        <ele>336.39999389648</ele>
        <time>2014-01-19T11:13:10.000Z</time>
      </trkpt>
      <trkpt lat="43.71316" lon="7.08889">
        <ele>336</ele>
        <time>2014-01-19T11:13:11.000Z</time>
      </trkpt>
      <trkpt lat="43.7133" lon="7.08895">
        <ele>335.39999389648</ele>
        <time>2014-01-19T11:13:14.000Z</time>
      </trkpt>
      <trkpt lat="43.71345" lon="7.08901">
        <ele>334.39999389648</ele>
        <time>2014-01-19T11:13:18.000Z</time>
      </trkpt>
      <trkpt lat="43.71357" lon="7.08881">
        <ele>333.79998779297</ele>
        <time>2014-01-19T11:13:22.000Z</time>
      </trkpt>
      <trkpt lat="43.71356" lon="7.08868">
        <ele>333.60000610352</ele>
        <time>2014-01-19T11:13:24.000Z</time>
      </trkpt>
      <trkpt lat="43.71356" lon="7.08861">
        <ele>333.39999389648</ele>
        <time>2014-01-19T11:13:25.000Z</time>
      </trkpt>
      <trkpt lat="43.71355" lon="7.08855">
        <ele>333.20001220703</ele>
        <time>2014-01-19T11:13:26.000Z</time>
      </trkpt>
      <trkpt lat="43.71348" lon="7.08832">
        <ele>332.60000610352</ele>
        <time>2014-01-19T11:13:29.000Z</time>
      </trkpt>
      <trkpt lat="43.71333" lon="7.08817">
        <ele>332</ele>
        <time>2014-01-19T11:13:32.000Z</time>
      </trkpt>
    </trkseg>
  </trk>
</gpx>